<?xml version="1.0" encoding="UTF-8" standalone="no" ?><gpx xmlns="http://www.topografix.com/GPX/1/1" xmlns:gpxx="http://www.garmin.com/xmlschemas/GpxExtensions/v3" xmlns:wptx1="http://www.garmin.com/xmlschemas/WaypointExtension/v1" xmlns:gpxtpx="http://www.garmin.com/xmlschemas/TrackPointExtension/v1" creator="Alpha 100" version="1.1" xmlns:xsi="http://www.w3.org/2001/XMLSchema-instance" xsi:schemaLocation="http://www.topografix.com/GPX/1/1 http://www.topografix.com/GPX/1/1/gpx.xsd http://www.garmin.com/xmlschemas/GpxExtensions/v3 http://www8.garmin.com/xmlschemas/GpxExtensionsv3.xsd http://www.garmin.com/xmlschemas/WaypointExtension/v1 http://www8.garmin.com/xmlschemas/WaypointExtensionv1.xsd http://www.garmin.com/xmlschemas/TrackPointExtension/v1 http://www.garmin.com/xmlschemas/TrackPointExtensionv1.xsd"><metadata><link href="http://www.garmin.com"><text>Garmin International</text></link><time>2026-08-15T15:26:07Z</time></metadata><trk><name>2026-08-15 ЛИСА19 ФИНИШ</name><extensions><gpxx:TrackExtension><gpxx:DisplayColor>Cyan</gpxx:DisplayColor></gpxx:TrackExtension></extensions><trkseg><trkpt lat="60.3169387300" lon="30.8183131926"><ele>23.69</ele><time>2026-08-01T14:05:19Z</time></trkpt><trkpt lat="60.3169305995" lon="30.8183025476"><ele>23.69</ele><time>2026-08-01T14:05:41Z</time></trkpt><trkpt lat="60.3169320244" lon="30.8183048945"><ele>23.69</ele><time>2026-08-01T14:05:43Z</time></trkpt></trkseg><trkseg><trkpt lat="59.9037160166" lon="32.0253833570"><ele>63.58</ele><time>2026-08-02T12:49:23Z</time></trkpt><trkpt lat="59.9037119932" lon="32.0253842790"><ele>63.58</ele><time>2026-08-02T12:49:24Z</time></trkpt><trkpt lat="59.9036179483" lon="32.0254277810"><ele>63.10</ele><time>2026-08-02T12:49:48Z</time></trkpt><trkpt lat="59.9036357179" lon="32.0254815090"><ele>63.10</ele><time>2026-08-02T12:50:11Z</time></trkpt><trkpt lat="59.9036255758" lon="32.0254985243"><ele>63.10</ele><time>2026-08-02T12:50:33Z</time></trkpt><trkpt lat="59.9036107399" lon="32.0255007036"><ele>63.10</ele><time>2026-08-02T12:50:54Z</time></trkpt><trkpt lat="59.9036203790" lon="32.0255132765"><ele>62.62</ele><time>2026-08-02T12:51:20Z</time></trkpt><trkpt lat="59.9036217202" lon="32.0255219936"><ele>62.62</ele><time>2026-08-02T12:51:42Z</time></trkpt><trkpt lat="59.9036309402" lon="32.0255017094"><ele>62.62</ele><time>2026-08-02T12:52:01Z</time></trkpt><trkpt lat="59.9036310241" lon="32.0255070738"><ele>62.62</ele><time>2026-08-02T12:52:23Z</time></trkpt><trkpt lat="59.9036384840" lon="32.0254981890"><ele>62.62</ele><time>2026-08-02T12:52:48Z</time></trkpt><trkpt lat="59.9036452733" lon="32.0254895557"><ele>63.10</ele><time>2026-08-02T12:53:14Z</time></trkpt><trkpt lat="59.9036393221" lon="32.0254906453"><ele>63.10</ele><time>2026-08-02T12:53:36Z</time></trkpt><trkpt lat="59.9036366399" lon="32.0254914835"><ele>62.14</ele><time>2026-08-02T12:54:01Z</time></trkpt><trkpt lat="59.9036784656" lon="32.0254639909"><ele>63.10</ele><time>2026-08-02T12:54:22Z</time></trkpt><trkpt lat="59.9036860932" lon="32.0254421979"><ele>63.10</ele><time>2026-08-02T12:54:23Z</time></trkpt><trkpt lat="59.9036543258" lon="32.0254496578"><ele>63.10</ele><time>2026-08-02T12:54:46Z</time></trkpt><trkpt lat="59.9036253244" lon="32.0254983567"><ele>64.55</ele><time>2026-08-02T12:55:07Z</time></trkpt><trkpt lat="59.9036260787" lon="32.0255047269"><ele>63.10</ele><time>2026-08-02T12:55:27Z</time></trkpt><trkpt lat="59.9036078900" lon="32.0255075768"><ele>63.10</ele><time>2026-08-02T12:55:55Z</time></trkpt><trkpt lat="59.9036106560" lon="32.0255063195"><ele>63.10</ele><time>2026-08-02T12:56:17Z</time></trkpt><trkpt lat="59.9036119133" lon="32.0255183894"><ele>62.14</ele><time>2026-08-02T12:56:52Z</time></trkpt><trkpt lat="59.9036159366" lon="32.0255192276"><ele>63.58</ele><time>2026-08-02T12:56:57Z</time></trkpt><trkpt lat="59.9036242347" lon="32.0255081635"><ele>63.58</ele><time>2026-08-02T12:57:33Z</time></trkpt><trkpt lat="59.9036265817" lon="32.0255205687"><ele>63.58</ele><time>2026-08-02T12:57:59Z</time></trkpt><trkpt lat="59.9036246538" lon="32.0255089179"><ele>62.14</ele><time>2026-08-02T12:58:17Z</time></trkpt><trkpt lat="59.9036285933" lon="32.0255040564"><ele>62.14</ele><time>2026-08-02T12:58:52Z</time></trkpt><trkpt lat="59.9036280904" lon="32.0255017094"><ele>62.14</ele><time>2026-08-02T12:59:18Z</time></trkpt><trkpt lat="59.9036263302" lon="32.0254859515"><ele>61.66</ele><time>2026-08-02T12:59:46Z</time></trkpt><trkpt lat="59.9036273360" lon="32.0254784077"><ele>61.18</ele><time>2026-08-02T13:00:03Z</time></trkpt><trkpt lat="59.9036270007" lon="32.0254648291"><ele>61.18</ele><time>2026-08-02T13:00:53Z</time></trkpt><trkpt lat="59.9036229774" lon="32.0254559442"><ele>61.18</ele><time>2026-08-02T13:01:35Z</time></trkpt><trkpt lat="59.9036232289" lon="32.0254566986"><ele>61.18</ele><time>2026-08-02T13:01:36Z</time></trkpt><trkpt lat="59.9037486222" lon="32.0253690239"><ele>62.14</ele><time>2026-08-02T13:47:21Z</time></trkpt><trkpt lat="59.9036461953" lon="32.0253582951"><ele>62.62</ele><time>2026-08-02T13:47:43Z</time></trkpt><trkpt lat="59.9036404118" lon="32.0253997855"><ele>62.62</ele><time>2026-08-02T13:47:56Z</time></trkpt><trkpt lat="59.9036431778" lon="32.0254032221"><ele>62.62</ele><time>2026-08-02T13:47:57Z</time></trkpt><trkpt lat="59.9036501348" lon="32.0254679304"><ele>61.18</ele><time>2026-08-02T13:48:07Z</time></trkpt><trkpt lat="59.9036559183" lon="32.0255416073"><ele>61.18</ele><time>2026-08-02T13:48:35Z</time></trkpt><trkpt lat="59.9036338739" lon="32.0256095845"><ele>61.18</ele><time>2026-08-02T13:49:02Z</time></trkpt><trkpt lat="59.9036540743" lon="32.0256616361"><ele>60.70</ele><time>2026-08-02T13:49:25Z</time></trkpt><trkpt lat="59.9036784656" lon="32.0256442856"><ele>60.22</ele><time>2026-08-02T13:49:56Z</time></trkpt><trkpt lat="59.9036892783" lon="32.0256202295"><ele>60.22</ele><time>2026-08-02T13:50:24Z</time></trkpt><trkpt lat="59.9036977440" lon="32.0256364904"><ele>60.22</ele><time>2026-08-02T13:50:53Z</time></trkpt><trkpt lat="59.9037047010" lon="32.0256387535"><ele>59.74</ele><time>2026-08-02T13:51:25Z</time></trkpt><trkpt lat="59.9037099816" lon="32.0256314613"><ele>59.74</ele><time>2026-08-02T13:51:56Z</time></trkpt><trkpt lat="59.9037119094" lon="32.0256389212"><ele>59.74</ele><time>2026-08-02T13:52:33Z</time></trkpt><trkpt lat="59.9037069641" lon="32.0256331377"><ele>61.18</ele><time>2026-08-02T13:52:58Z</time></trkpt><trkpt lat="59.9037049524" lon="32.0256377477"><ele>59.74</ele><time>2026-08-02T13:53:15Z</time></trkpt><trkpt lat="59.9037031922" lon="32.0256259292"><ele>59.74</ele><time>2026-08-02T13:53:41Z</time></trkpt><trkpt lat="59.9036969058" lon="32.0256075729"><ele>59.74</ele><time>2026-08-02T13:53:42Z</time></trkpt><trkpt lat="59.9036949780" lon="32.0255285315"><ele>59.74</ele><time>2026-08-02T13:53:44Z</time></trkpt><trkpt lat="59.9036284257" lon="32.0253204927"><ele>59.74</ele><time>2026-08-02T13:53:56Z</time></trkpt><trkpt lat="59.9036205467" lon="32.0252690278"><ele>59.74</ele><time>2026-08-02T13:54:20Z</time></trkpt><trkpt lat="59.9036228098" lon="32.0252742246"><ele>61.18</ele><time>2026-08-02T13:54:39Z</time></trkpt><trkpt lat="59.9036099017" lon="32.0252760686"><ele>61.18</ele><time>2026-08-02T13:55:14Z</time></trkpt><trkpt lat="59.9036142603" lon="32.0252735540"><ele>59.74</ele><time>2026-08-02T13:55:58Z</time></trkpt><trkpt lat="59.9036156014" lon="32.0252679382"><ele>59.26</ele><time>2026-08-02T13:56:30Z</time></trkpt><trkpt lat="59.9036122486" lon="32.0252769068"><ele>59.26</ele><time>2026-08-02T13:57:01Z</time></trkpt><trkpt lat="59.9036130868" lon="32.0252759010"><ele>60.70</ele><time>2026-08-02T13:57:09Z</time></trkpt><trkpt lat="59.9036172777" lon="32.0252862945"><ele>59.26</ele><time>2026-08-02T13:57:31Z</time></trkpt><trkpt lat="59.9036202952" lon="32.0252862107"><ele>60.70</ele><time>2026-08-02T13:57:49Z</time></trkpt><trkpt lat="59.9036226422" lon="32.0252956823"><ele>59.26</ele><time>2026-08-02T13:58:18Z</time></trkpt><trkpt lat="59.9036140088" lon="32.0252804272"><ele>59.26</ele><time>2026-08-02T13:58:51Z</time></trkpt><trkpt lat="59.9035947304" lon="32.0252993703"><ele>59.26</ele><time>2026-08-02T13:59:26Z</time></trkpt><trkpt lat="59.9035960715" lon="32.0252712909"><ele>59.26</ele><time>2026-08-02T13:59:56Z</time></trkpt><trkpt lat="59.9036118295" lon="32.0252904017"><ele>59.26</ele><time>2026-08-02T14:00:23Z</time></trkpt><trkpt lat="59.9036259111" lon="32.0252723806"><ele>60.70</ele><time>2026-08-02T14:00:56Z</time></trkpt><trkpt lat="59.9036233127" lon="32.0252612326"><ele>60.70</ele><time>2026-08-02T14:01:27Z</time></trkpt><trkpt lat="59.9036251567" lon="32.0252650883"><ele>60.70</ele><time>2026-08-02T14:01:50Z</time></trkpt><trkpt lat="59.9036187027" lon="32.0252691116"><ele>59.26</ele><time>2026-08-02T14:02:23Z</time></trkpt><trkpt lat="59.9036208820" lon="32.0252552815"><ele>60.70</ele><time>2026-08-02T14:02:51Z</time></trkpt><trkpt lat="59.9036223907" lon="32.0252514258"><ele>60.70</ele><time>2026-08-02T14:03:19Z</time></trkpt><trkpt lat="59.9036326166" lon="32.0252537727"><ele>60.70</ele><time>2026-08-02T14:03:48Z</time></trkpt><trkpt lat="59.9036254082" lon="32.0252559520"><ele>60.70</ele><time>2026-08-02T14:04:19Z</time></trkpt><trkpt lat="59.9036201276" lon="32.0252713747"><ele>60.70</ele><time>2026-08-02T14:04:52Z</time></trkpt><trkpt lat="59.9036261626" lon="32.0252763201"><ele>60.70</ele><time>2026-08-02T14:05:22Z</time></trkpt><trkpt lat="59.9036355503" lon="32.0252784993"><ele>60.70</ele><time>2026-08-02T14:05:57Z</time></trkpt><trkpt lat="59.9036351312" lon="32.0252749790"><ele>61.18</ele><time>2026-08-02T14:06:31Z</time></trkpt><trkpt lat="59.9036385678" lon="32.0252947602"><ele>61.18</ele><time>2026-08-02T14:07:07Z</time></trkpt><trkpt lat="59.9036301859" lon="32.0253135357"><ele>61.18</ele><time>2026-08-02T14:07:39Z</time></trkpt><trkpt lat="59.9036318623" lon="32.0253054053"><ele>61.18</ele><time>2026-08-02T14:08:12Z</time></trkpt><trkpt lat="59.9036421720" lon="32.0253075846"><ele>59.74</ele><time>2026-08-02T14:08:52Z</time></trkpt><trkpt lat="59.9036558345" lon="32.0253121108"><ele>61.66</ele><time>2026-08-02T14:09:23Z</time></trkpt><trkpt lat="59.9036451057" lon="32.0253190678"><ele>61.66</ele><time>2026-08-02T14:09:46Z</time></trkpt><trkpt lat="59.9036444351" lon="32.0253018010"><ele>62.14</ele><time>2026-08-02T14:10:13Z</time></trkpt><trkpt lat="59.9036403280" lon="32.0252824388"><ele>62.14</ele><time>2026-08-02T14:10:33Z</time></trkpt><trkpt lat="59.9036342930" lon="32.0252726320"><ele>62.14</ele><time>2026-08-02T14:10:58Z</time></trkpt><trkpt lat="59.9036293477" lon="32.0252763201"><ele>62.14</ele><time>2026-08-02T14:11:17Z</time></trkpt><trkpt lat="59.9036298506" lon="32.0252727158"><ele>62.14</ele><time>2026-08-02T14:11:32Z</time></trkpt><trkpt lat="59.9036223907" lon="32.0252666809"><ele>60.70</ele><time>2026-08-02T14:11:56Z</time></trkpt><trkpt lat="59.9036346283" lon="32.0252746437"><ele>60.22</ele><time>2026-08-02T14:12:15Z</time></trkpt><trkpt lat="59.9036344606" lon="32.0252788346"><ele>62.14</ele><time>2026-08-02T14:12:36Z</time></trkpt><trkpt lat="59.9036339577" lon="32.0252812654"><ele>60.70</ele><time>2026-08-02T14:13:11Z</time></trkpt><trkpt lat="59.9036446027" lon="32.0253154635"><ele>60.22</ele><time>2026-08-02T14:13:37Z</time></trkpt><trkpt lat="59.9036507215" lon="32.0253991149"><ele>60.22</ele><time>2026-08-02T14:13:54Z</time></trkpt><trkpt lat="59.9036663957" lon="32.0254007075"><ele>59.74</ele><time>2026-08-02T14:14:31Z</time></trkpt><trkpt lat="59.9036745261" lon="32.0254320558"><ele>61.18</ele><time>2026-08-02T14:14:47Z</time></trkpt><trkpt lat="59.9036694970" lon="32.0254090894"><ele>59.74</ele><time>2026-08-02T14:15:06Z</time></trkpt><trkpt lat="59.9036476202" lon="32.0252357516"><ele>59.74</ele><time>2026-08-02T14:15:23Z</time></trkpt><trkpt lat="59.9036345445" lon="32.0252155513"><ele>59.74</ele><time>2026-08-02T14:15:38Z</time></trkpt><trkpt lat="59.9036347959" lon="32.0252132881"><ele>59.74</ele><time>2026-08-02T14:16:01Z</time></trkpt><trkpt lat="59.9036394898" lon="32.0252133720"><ele>60.22</ele><time>2026-08-02T14:16:35Z</time></trkpt><trkpt lat="59.9036371429" lon="32.0252299681"><ele>59.26</ele><time>2026-08-02T14:17:03Z</time></trkpt><trkpt lat="59.9035938084" lon="32.0253176428"><ele>59.26</ele><time>2026-08-02T14:17:26Z</time></trkpt><trkpt lat="59.9036073871" lon="32.0253518410"><ele>59.26</ele><time>2026-08-02T14:17:48Z</time></trkpt><trkpt lat="59.9035851751" lon="32.0253834408"><ele>58.78</ele><time>2026-08-02T14:17:58Z</time></trkpt><trkpt lat="59.9035759550" lon="32.0256736223"><ele>58.78</ele><time>2026-08-02T14:18:07Z</time></trkpt><trkpt lat="59.9036114942" lon="32.0257585309"><ele>58.78</ele><time>2026-08-02T14:18:09Z</time></trkpt><trkpt lat="59.9036403280" lon="32.0257959142"><ele>58.78</ele><time>2026-08-02T14:18:10Z</time></trkpt><trkpt lat="59.9039503746" lon="32.0261179470"><ele>58.78</ele><time>2026-08-02T14:18:25Z</time></trkpt><trkpt lat="59.9044053443" lon="32.0263417438"><ele>58.78</ele><time>2026-08-02T14:18:43Z</time></trkpt><trkpt lat="59.9050181452" lon="32.0265767723"><ele>58.78</ele><time>2026-08-02T14:18:59Z</time></trkpt><trkpt lat="59.9057145137" lon="32.0266164187"><ele>58.30</ele><time>2026-08-02T14:19:17Z</time></trkpt><trkpt lat="59.9065630138" lon="32.0266737510"><ele>57.82</ele><time>2026-08-02T14:19:35Z</time></trkpt><trkpt lat="59.9072710332" lon="32.0266127307"><ele>56.37</ele><time>2026-08-02T14:19:49Z</time></trkpt><trkpt lat="59.9076856021" lon="32.0266004931"><ele>57.82</ele><time>2026-08-02T14:19:58Z</time></trkpt><trkpt lat="59.9081186950" lon="32.0266411453"><ele>56.37</ele><time>2026-08-02T14:20:06Z</time></trkpt><trkpt lat="59.9082177691" lon="32.0267094579"><ele>56.37</ele><time>2026-08-02T14:20:09Z</time></trkpt><trkpt lat="59.9082413223" lon="32.0267750882"><ele>55.89</ele><time>2026-08-02T14:20:10Z</time></trkpt><trkpt lat="59.9082634505" lon="32.0268511120"><ele>55.89</ele><time>2026-08-02T14:20:11Z</time></trkpt><trkpt lat="59.9082789570" lon="32.0269416366"><ele>55.89</ele><time>2026-08-02T14:20:12Z</time></trkpt><trkpt lat="59.9082910269" lon="32.0270364359"><ele>55.89</ele><time>2026-08-02T14:20:13Z</time></trkpt><trkpt lat="59.9083026778" lon="32.0271329954"><ele>55.89</ele><time>2026-08-02T14:20:14Z</time></trkpt><trkpt lat="59.9085933622" lon="32.0288791135"><ele>55.89</ele><time>2026-08-02T14:20:32Z</time></trkpt><trkpt lat="59.9087215215" lon="32.0300642308"><ele>54.93</ele><time>2026-08-02T14:20:47Z</time></trkpt><trkpt lat="59.9086754210" lon="32.0312749967"><ele>55.41</ele><time>2026-08-02T14:21:01Z</time></trkpt><trkpt lat="59.9086338468" lon="32.0327585936"><ele>55.41</ele><time>2026-08-02T14:21:17Z</time></trkpt><trkpt lat="59.9087011535" lon="32.0339298807"><ele>54.45</ele><time>2026-08-02T14:21:31Z</time></trkpt><trkpt lat="59.9087908398" lon="32.0356321614"><ele>53.49</ele><time>2026-08-02T14:21:48Z</time></trkpt><trkpt lat="59.9089514371" lon="32.0371418260"><ele>53.01</ele><time>2026-08-02T14:22:07Z</time></trkpt><trkpt lat="59.9090721365" lon="32.0388229843"><ele>52.53</ele><time>2026-08-02T14:22:24Z</time></trkpt><trkpt lat="59.9091658462" lon="32.0401593111"><ele>52.53</ele><time>2026-08-02T14:22:40Z</time></trkpt><trkpt lat="59.9092734698" lon="32.0414272416"><ele>51.57</ele><time>2026-08-02T14:23:01Z</time></trkpt><trkpt lat="59.9094035570" lon="32.0426045638"><ele>51.57</ele><time>2026-08-02T14:23:20Z</time></trkpt><trkpt lat="59.9094229192" lon="32.0437957998"><ele>51.09</ele><time>2026-08-02T14:23:38Z</time></trkpt><trkpt lat="59.9095174670" lon="32.0447460562"><ele>51.09</ele><time>2026-08-02T14:23:53Z</time></trkpt><trkpt lat="59.9096032977" lon="32.0459760167"><ele>51.09</ele><time>2026-08-02T14:24:10Z</time></trkpt><trkpt lat="59.9097147770" lon="32.0472883713"><ele>50.61</ele><time>2026-08-02T14:24:31Z</time></trkpt><trkpt lat="59.9097625539" lon="32.0486980397"><ele>50.61</ele><time>2026-08-02T14:24:49Z</time></trkpt><trkpt lat="59.9098925572" lon="32.0501599275"><ele>50.61</ele><time>2026-08-02T14:25:08Z</time></trkpt><trkpt lat="59.9100119993" lon="32.0512990281"><ele>50.13</ele><time>2026-08-02T14:25:26Z</time></trkpt><trkpt lat="59.9100685772" lon="32.0523214526"><ele>50.13</ele><time>2026-08-02T14:25:43Z</time></trkpt><trkpt lat="59.9101321958" lon="32.0536649879"><ele>50.13</ele><time>2026-08-02T14:26:04Z</time></trkpt><trkpt lat="59.9101601075" lon="32.0544349495"><ele>50.13</ele><time>2026-08-02T14:26:18Z</time></trkpt><trkpt lat="59.9102442618" lon="32.0555571187"><ele>50.13</ele><time>2026-08-02T14:26:35Z</time></trkpt><trkpt lat="59.9103181902" lon="32.0569416415"><ele>50.13</ele><time>2026-08-02T14:26:52Z</time></trkpt><trkpt lat="59.9104071222" lon="32.0582829136"><ele>50.13</ele><time>2026-08-02T14:27:09Z</time></trkpt><trkpt lat="59.9105060287" lon="32.0594705455"><ele>49.16</ele><time>2026-08-02T14:27:27Z</time></trkpt><trkpt lat="59.9106523767" lon="32.0608260669"><ele>48.68</ele><time>2026-08-02T14:27:49Z</time></trkpt><trkpt lat="59.9107351899" lon="32.0620717015"><ele>48.68</ele><time>2026-08-02T14:28:08Z</time></trkpt><trkpt lat="59.9108535424" lon="32.0636479184"><ele>48.68</ele><time>2026-08-02T14:28:29Z</time></trkpt><trkpt lat="59.9109620880" lon="32.0646299422"><ele>48.68</ele><time>2026-08-02T14:28:46Z</time></trkpt><trkpt lat="59.9110001419" lon="32.0653403085"><ele>48.68</ele><time>2026-08-02T14:29:01Z</time></trkpt><trkpt lat="59.9110765848" lon="32.0666961651"><ele>48.68</ele><time>2026-08-02T14:29:19Z</time></trkpt><trkpt lat="59.9111345038" lon="32.0676904265"><ele>49.65</ele><time>2026-08-02T14:29:27Z</time></trkpt><trkpt lat="59.9113551155" lon="32.0702229347"><ele>49.65</ele><time>2026-08-02T14:29:44Z</time></trkpt><trkpt lat="59.9115292914" lon="32.0722880680"><ele>48.68</ele><time>2026-08-02T14:29:57Z</time></trkpt><trkpt lat="59.9116593786" lon="32.0742405485"><ele>50.13</ele><time>2026-08-02T14:30:09Z</time></trkpt><trkpt lat="59.9117416888" lon="32.0760491118"><ele>48.68</ele><time>2026-08-02T14:30:22Z</time></trkpt><trkpt lat="59.9118136894" lon="32.0772860292"><ele>47.72</ele><time>2026-08-02T14:30:35Z</time></trkpt><trkpt lat="59.9117664993" lon="32.0780526381"><ele>47.72</ele><time>2026-08-02T14:30:48Z</time></trkpt><trkpt lat="59.9118502345" lon="32.0779908635"><ele>47.72</ele><time>2026-08-02T14:31:02Z</time></trkpt><trkpt lat="59.9118393380" lon="32.0778870117"><ele>47.72</ele><time>2026-08-02T14:31:10Z</time></trkpt><trkpt lat="59.9118408468" lon="32.0778593514"><ele>47.72</ele><time>2026-08-02T14:31:11Z</time></trkpt><trkpt lat="59.9118457083" lon="32.0778217167"><ele>47.72</ele><time>2026-08-02T14:31:12Z</time></trkpt><trkpt lat="59.9120059703" lon="32.0768972766"><ele>49.16</ele><time>2026-08-02T14:31:24Z</time></trkpt><trkpt lat="59.9120415933" lon="32.0765599050"><ele>49.16</ele><time>2026-08-02T14:31:27Z</time></trkpt><trkpt lat="59.9117894657" lon="32.0755272545"><ele>49.16</ele><time>2026-08-02T14:31:28Z</time></trkpt><trkpt lat="59.9115516711" lon="32.0730128512"><ele>49.65</ele><time>2026-08-02T14:31:47Z</time></trkpt><trkpt lat="59.9113966897" lon="32.0717443340"><ele>49.16</ele><time>2026-08-02T14:31:59Z</time></trkpt><trkpt lat="59.9112756550" lon="32.0698516164"><ele>47.72</ele><time>2026-08-02T14:32:15Z</time></trkpt><trkpt lat="59.9112653453" lon="32.0697679650"><ele>47.72</ele><time>2026-08-02T14:32:16Z</time></trkpt><trkpt lat="59.9112512637" lon="32.0697067771"><ele>47.72</ele><time>2026-08-02T14:32:17Z</time></trkpt><trkpt lat="59.9112419598" lon="32.0696604252"><ele>47.72</ele><time>2026-08-02T14:32:18Z</time></trkpt><trkpt lat="59.9112343322" lon="32.0696106367"><ele>47.72</ele><time>2026-08-02T14:32:19Z</time></trkpt><trkpt lat="59.9113406148" lon="32.0694549009"><ele>47.72</ele><time>2026-08-02T14:32:27Z</time></trkpt><trkpt lat="59.9121683277" lon="32.0697947033"><ele>47.72</ele><time>2026-08-02T14:32:44Z</time></trkpt><trkpt lat="59.9132144731" lon="32.0700573083"><ele>46.76</ele><time>2026-08-02T14:33:03Z</time></trkpt><trkpt lat="59.9142832495" lon="32.0702861343"><ele>46.76</ele><time>2026-08-02T14:33:23Z</time></trkpt><trkpt lat="59.9152658600" lon="32.0704776607"><ele>46.28</ele><time>2026-08-02T14:33:42Z</time></trkpt><trkpt lat="59.9162389990" lon="32.0707441214"><ele>45.80</ele><time>2026-08-02T14:34:03Z</time></trkpt><trkpt lat="59.9165192898" lon="32.0707934909"><ele>45.80</ele><time>2026-08-02T14:34:17Z</time></trkpt><trkpt lat="59.9165245704" lon="32.0708259288"><ele>45.32</ele><time>2026-08-02T14:34:33Z</time></trkpt><trkpt lat="59.9165228941" lon="32.0708410162"><ele>45.32</ele><time>2026-08-02T14:35:06Z</time></trkpt><trkpt lat="59.9165021908" lon="32.0708360709"><ele>45.32</ele><time>2026-08-02T14:35:38Z</time></trkpt><trkpt lat="59.9164914619" lon="32.0708334725"><ele>45.32</ele><time>2026-08-02T14:35:39Z</time></trkpt><trkpt lat="59.9163732771" lon="32.0708275214"><ele>45.32</ele><time>2026-08-02T14:36:01Z</time></trkpt><trkpt lat="59.9163638894" lon="32.0708312932"><ele>45.32</ele><time>2026-08-02T14:36:39Z</time></trkpt><trkpt lat="59.9163580220" lon="32.0707870368"><ele>45.32</ele><time>2026-08-02T14:36:54Z</time></trkpt><trkpt lat="59.9163555913" lon="32.0707846899"><ele>46.28</ele><time>2026-08-02T14:37:11Z</time></trkpt><trkpt lat="59.9163500592" lon="32.0707751345"><ele>46.28</ele><time>2026-08-02T14:37:27Z</time></trkpt><trkpt lat="59.9163502268" lon="32.0707782358"><ele>46.28</ele><time>2026-08-02T14:37:39Z</time></trkpt><trkpt lat="59.9163489696" lon="32.0707665849"><ele>46.28</ele><time>2026-08-02T14:37:48Z</time></trkpt><trkpt lat="59.9163498916" lon="32.0707705244"><ele>47.24</ele><time>2026-08-02T14:38:01Z</time></trkpt><trkpt lat="59.9163495563" lon="32.0707603823"><ele>47.24</ele><time>2026-08-02T14:38:02Z</time></trkpt><trkpt lat="59.9163488019" lon="32.0707587898"><ele>46.28</ele><time>2026-08-02T14:38:06Z</time></trkpt><trkpt lat="59.9163573515" lon="32.0707585383"><ele>46.28</ele><time>2026-08-02T14:38:14Z</time></trkpt><trkpt lat="59.9163894542" lon="32.0707843546"><ele>46.28</ele><time>2026-08-02T14:38:24Z</time></trkpt><trkpt lat="59.9164828286" lon="32.0708208159"><ele>46.28</ele><time>2026-08-02T14:38:39Z</time></trkpt><trkpt lat="59.9165544100" lon="32.0708426926"><ele>46.28</ele><time>2026-08-02T14:38:47Z</time></trkpt><trkpt lat="59.9166368041" lon="32.0708610490"><ele>46.28</ele><time>2026-08-02T14:38:59Z</time></trkpt><trkpt lat="59.9166466109" lon="32.0708723646"><ele>46.28</ele><time>2026-08-02T14:39:00Z</time></trkpt><trkpt lat="59.9166997522" lon="32.0708837640"><ele>45.80</ele><time>2026-08-02T14:39:13Z</time></trkpt><trkpt lat="59.9167035241" lon="32.0708737057"><ele>45.80</ele><time>2026-08-02T14:39:37Z</time></trkpt><trkpt lat="59.9167248979" lon="32.0708646532"><ele>44.84</ele><time>2026-08-02T14:39:58Z</time></trkpt><trkpt lat="59.9167190306" lon="32.0708875358"><ele>44.84</ele><time>2026-08-02T14:40:22Z</time></trkpt><trkpt lat="59.9167168513" lon="32.0708903857"><ele>44.84</ele><time>2026-08-02T14:40:24Z</time></trkpt><trkpt lat="59.9166765343" lon="32.0708440337"><ele>44.84</ele><time>2026-08-02T14:40:34Z</time></trkpt><trkpt lat="59.9166723434" lon="32.0708335564"><ele>46.28</ele><time>2026-08-02T14:40:55Z</time></trkpt><trkpt lat="59.9166622013" lon="32.0708409324"><ele>46.28</ele><time>2026-08-02T14:41:30Z</time></trkpt><trkpt lat="59.9166692421" lon="32.0708420221"><ele>46.28</ele><time>2026-08-02T14:42:03Z</time></trkpt><trkpt lat="59.9166810606" lon="32.0708419383"><ele>46.76</ele><time>2026-08-02T14:42:34Z</time></trkpt><trkpt lat="59.9166835751" lon="32.0708361547"><ele>46.76</ele><time>2026-08-02T14:42:56Z</time></trkpt><trkpt lat="59.9166835751" lon="32.0708312932"><ele>46.76</ele><time>2026-08-02T14:43:19Z</time></trkpt><trkpt lat="59.9166838266" lon="32.0708291978"><ele>46.76</ele><time>2026-08-02T14:43:43Z</time></trkpt><trkpt lat="59.9166868441" lon="32.0708245039"><ele>46.76</ele><time>2026-08-02T14:44:17Z</time></trkpt><trkpt lat="59.9166860059" lon="32.0708286110"><ele>46.76</ele><time>2026-08-02T14:44:32Z</time></trkpt><trkpt lat="59.9166586809" lon="32.0708377473"><ele>46.76</ele><time>2026-08-02T14:44:35Z</time></trkpt><trkpt lat="59.9165412504" lon="32.0708218217"><ele>46.76</ele><time>2026-08-02T14:44:46Z</time></trkpt><trkpt lat="59.9165273365" lon="32.0708224084"><ele>46.76</ele><time>2026-08-02T14:44:47Z</time></trkpt><trkpt lat="59.9165119976" lon="32.0708247554"><ele>46.76</ele><time>2026-08-02T14:44:48Z</time></trkpt><trkpt lat="59.9163826648" lon="32.0707896352"><ele>46.76</ele><time>2026-08-02T14:44:59Z</time></trkpt><trkpt lat="59.9163645599" lon="32.0707864501"><ele>46.76</ele><time>2026-08-02T14:45:01Z</time></trkpt><trkpt lat="59.9163180403" lon="32.0708388370"><ele>46.76</ele><time>2026-08-02T14:45:07Z</time></trkpt><trkpt lat="59.9163142685" lon="32.0708583668"><ele>46.76</ele><time>2026-08-02T14:45:08Z</time></trkpt><trkpt lat="59.9163080659" lon="32.0710265078"><ele>46.76</ele><time>2026-08-02T14:45:18Z</time></trkpt><trkpt lat="59.9163082335" lon="32.0710484684"><ele>46.76</ele><time>2026-08-02T14:45:19Z</time></trkpt><trkpt lat="59.9163075630" lon="32.0710903779"><ele>47.24</ele><time>2026-08-02T14:45:24Z</time></trkpt><trkpt lat="59.9163054675" lon="32.0711108297"><ele>47.24</ele><time>2026-08-02T14:45:25Z</time></trkpt><trkpt lat="59.9163002707" lon="32.0711661503"><ele>47.24</ele><time>2026-08-02T14:45:28Z</time></trkpt><trkpt lat="59.9162985943" lon="32.0711879432"><ele>47.24</ele><time>2026-08-02T14:45:29Z</time></trkpt><trkpt lat="59.9162913859" lon="32.0712427609"><ele>47.24</ele><time>2026-08-02T14:45:34Z</time></trkpt><trkpt lat="59.9162865244" lon="32.0713169407"><ele>46.28</ele><time>2026-08-02T14:45:38Z</time></trkpt><trkpt lat="59.9162832554" lon="32.0713408291"><ele>46.28</ele><time>2026-08-02T14:45:39Z</time></trkpt><trkpt lat="59.9162788130" lon="32.0713957306"><ele>46.28</ele><time>2026-08-02T14:45:42Z</time></trkpt><trkpt lat="59.9162758794" lon="32.0714477822"><ele>46.28</ele><time>2026-08-02T14:45:45Z</time></trkpt><trkpt lat="59.9162723590" lon="32.0714848302"><ele>47.72</ele><time>2026-08-02T14:45:47Z</time></trkpt><trkpt lat="59.9162555113" lon="32.0718139037"><ele>47.72</ele><time>2026-08-02T14:46:03Z</time></trkpt><trkpt lat="59.9162591156" lon="32.0719738305"><ele>47.72</ele><time>2026-08-02T14:46:10Z</time></trkpt><trkpt lat="59.9162567686" lon="32.0720395446"><ele>46.76</ele><time>2026-08-02T14:46:13Z</time></trkpt><trkpt lat="59.9162561819" lon="32.0723598171"><ele>46.76</ele><time>2026-08-02T14:46:30Z</time></trkpt><trkpt lat="59.9162478838" lon="32.0724172331"><ele>46.76</ele><time>2026-08-02T14:46:33Z</time></trkpt><trkpt lat="59.9162278511" lon="32.0726636611"><ele>46.76</ele><time>2026-08-02T14:46:45Z</time></trkpt><trkpt lat="59.9162157811" lon="32.0729523338"><ele>46.76</ele><time>2026-08-02T14:46:59Z</time></trkpt><trkpt lat="59.9162150268" lon="32.0729758032"><ele>46.76</ele><time>2026-08-02T14:47:00Z</time></trkpt><trkpt lat="59.9162132666" lon="32.0730014518"><ele>46.76</ele><time>2026-08-02T14:47:01Z</time></trkpt><trkpt lat="59.9162108358" lon="32.0730295312"><ele>46.76</ele><time>2026-08-02T14:47:02Z</time></trkpt><trkpt lat="59.9162078183" lon="32.0730914734"><ele>46.76</ele><time>2026-08-02T14:47:05Z</time></trkpt><trkpt lat="59.9162067287" lon="32.0731164515"><ele>46.76</ele><time>2026-08-02T14:47:06Z</time></trkpt><trkpt lat="59.9162045494" lon="32.0731446985"><ele>46.76</ele><time>2026-08-02T14:47:07Z</time></trkpt><trkpt lat="59.9162025377" lon="32.0731718559"><ele>46.76</ele><time>2026-08-02T14:47:08Z</time></trkpt><trkpt lat="59.9161651544" lon="32.0734549966"><ele>46.76</ele><time>2026-08-02T14:47:22Z</time></trkpt><trkpt lat="59.9161322135" lon="32.0737983193"><ele>46.76</ele><time>2026-08-02T14:47:38Z</time></trkpt><trkpt lat="59.9161316268" lon="32.0738130715"><ele>46.76</ele><time>2026-08-02T14:47:52Z</time></trkpt><trkpt lat="59.9161415175" lon="32.0736173540"><ele>46.76</ele><time>2026-08-02T14:48:04Z</time></trkpt><trkpt lat="59.9161553476" lon="32.0733794756"><ele>46.76</ele><time>2026-08-02T14:48:17Z</time></trkpt><trkpt lat="59.9161724467" lon="32.0732078142"><ele>46.28</ele><time>2026-08-02T14:48:25Z</time></trkpt><trkpt lat="59.9161846843" lon="32.0730653219"><ele>47.72</ele><time>2026-08-02T14:48:32Z</time></trkpt><trkpt lat="59.9161872827" lon="32.0730425231"><ele>47.72</ele><time>2026-08-02T14:48:33Z</time></trkpt><trkpt lat="59.9161908869" lon="32.0730195567"><ele>47.72</ele><time>2026-08-02T14:48:34Z</time></trkpt><trkpt lat="59.9161924794" lon="32.0729913097"><ele>47.72</ele><time>2026-08-02T14:48:51Z</time></trkpt><trkpt lat="59.9161975924" lon="32.0729635656"><ele>47.72</ele><time>2026-08-02T14:49:19Z</time></trkpt><trkpt lat="59.9162079021" lon="32.0727837738"><ele>46.28</ele><time>2026-08-02T14:49:33Z</time></trkpt><trkpt lat="59.9162061419" lon="32.0726164710"><ele>46.28</ele><time>2026-08-02T14:49:47Z</time></trkpt><trkpt lat="59.9162156135" lon="32.0725246053"><ele>46.28</ele><time>2026-08-02T14:50:00Z</time></trkpt><trkpt lat="59.9162079860" lon="32.0724114496"><ele>46.28</ele><time>2026-08-02T14:50:16Z</time></trkpt><trkpt lat="59.9162239116" lon="32.0721823722"><ele>45.80</ele><time>2026-08-02T14:50:29Z</time></trkpt><trkpt lat="59.9162182119" lon="32.0720547996"><ele>45.80</ele><time>2026-08-02T14:50:35Z</time></trkpt><trkpt lat="59.9162235763" lon="32.0720045920"><ele>45.80</ele><time>2026-08-02T14:50:38Z</time></trkpt><trkpt lat="59.9162402563" lon="32.0717829745"><ele>47.24</ele><time>2026-08-02T14:50:49Z</time></trkpt><trkpt lat="59.9162394181" lon="32.0717527997"><ele>47.24</ele><time>2026-08-02T14:50:50Z</time></trkpt><trkpt lat="59.9162398372" lon="32.0717224572"><ele>47.24</ele><time>2026-08-02T14:50:51Z</time></trkpt><trkpt lat="59.9162426032" lon="32.0716911927"><ele>47.24</ele><time>2026-08-02T14:50:52Z</time></trkpt><trkpt lat="59.9162501469" lon="32.0716398116"><ele>47.24</ele><time>2026-08-02T14:50:55Z</time></trkpt><trkpt lat="59.9162509013" lon="32.0716145821"><ele>47.24</ele><time>2026-08-02T14:50:56Z</time></trkpt><trkpt lat="59.9162493087" lon="32.0715873409"><ele>47.24</ele><time>2026-08-02T14:50:57Z</time></trkpt><trkpt lat="59.9162514042" lon="32.0715592615"><ele>47.24</ele><time>2026-08-02T14:50:58Z</time></trkpt><trkpt lat="59.9162563495" lon="32.0715092216"><ele>47.24</ele><time>2026-08-02T14:51:01Z</time></trkpt><trkpt lat="59.9162574392" lon="32.0714843273"><ele>47.24</ele><time>2026-08-02T14:51:02Z</time></trkpt><trkpt lat="59.9162605405" lon="32.0714121591"><ele>47.24</ele><time>2026-08-02T14:51:13Z</time></trkpt><trkpt lat="59.9162573554" lon="32.0713564195"><ele>47.24</ele><time>2026-08-02T14:51:16Z</time></trkpt><trkpt lat="59.9162590317" lon="32.0713300165"><ele>47.24</ele><time>2026-08-02T14:51:17Z</time></trkpt><trkpt lat="59.9162683357" lon="32.0712732710"><ele>47.24</ele><time>2026-08-02T14:51:20Z</time></trkpt><trkpt lat="59.9162713531" lon="32.0712472033"><ele>47.72</ele><time>2026-08-02T14:51:21Z</time></trkpt><trkpt lat="59.9162786454" lon="32.0710357279"><ele>47.72</ele><time>2026-08-02T14:51:31Z</time></trkpt><trkpt lat="59.9162768014" lon="32.0709488075"><ele>47.72</ele><time>2026-08-02T14:51:35Z</time></trkpt><trkpt lat="59.9162774719" lon="32.0709233265"><ele>47.72</ele><time>2026-08-02T14:51:36Z</time></trkpt><trkpt lat="59.9162761308" lon="32.0708970074"><ele>47.72</ele><time>2026-08-02T14:51:37Z</time></trkpt><trkpt lat="59.9163223151" lon="32.0707871206"><ele>47.72</ele><time>2026-08-02T14:51:44Z</time></trkpt><trkpt lat="59.9163316190" lon="32.0708051417"><ele>46.28</ele><time>2026-08-02T14:52:00Z</time></trkpt><trkpt lat="59.9163343012" lon="32.0708080754"><ele>46.76</ele><time>2026-08-02T14:52:33Z</time></trkpt><trkpt lat="59.9163265061" lon="32.0708001126"><ele>47.24</ele><time>2026-08-02T14:53:01Z</time></trkpt><trkpt lat="59.9163574353" lon="32.0707922336"><ele>47.24</ele><time>2026-08-02T14:53:24Z</time></trkpt><trkpt lat="59.9163158610" lon="32.0709058922"><ele>47.24</ele><time>2026-08-02T14:53:44Z</time></trkpt><trkpt lat="59.9162954092" lon="32.0708534215"><ele>47.24</ele><time>2026-08-02T14:53:53Z</time></trkpt><trkpt lat="59.9162818305" lon="32.0708406810"><ele>47.24</ele><time>2026-08-02T14:53:54Z</time></trkpt><trkpt lat="59.9162695929" lon="32.0708252583"><ele>47.24</ele><time>2026-08-02T14:53:55Z</time></trkpt><trkpt lat="59.9162550922" lon="32.0708152000"><ele>47.24</ele><time>2026-08-02T14:53:56Z</time></trkpt><trkpt lat="59.9162384123" lon="32.0708055608"><ele>47.24</ele><time>2026-08-02T14:53:57Z</time></trkpt><trkpt lat="59.9162225705" lon="32.0707932394"><ele>47.24</ele><time>2026-08-02T14:53:58Z</time></trkpt><trkpt lat="59.9154788442" lon="32.0707216579"><ele>48.20</ele><time>2026-08-02T14:54:16Z</time></trkpt><trkpt lat="59.9143834971" lon="32.0704183169"><ele>48.20</ele><time>2026-08-02T14:54:33Z</time></trkpt><trkpt lat="59.9135235976" lon="32.0701619983"><ele>48.20</ele><time>2026-08-02T14:54:46Z</time></trkpt><trkpt lat="59.9117644038" lon="32.0695305057"><ele>48.68</ele><time>2026-08-02T14:55:09Z</time></trkpt><trkpt lat="59.9105320126" lon="32.0688773040"><ele>47.24</ele><time>2026-08-02T14:55:28Z</time></trkpt><trkpt lat="59.9104187731" lon="32.0693403203"><ele>47.24</ele><time>2026-08-02T14:55:36Z</time></trkpt><trkpt lat="59.9103182741" lon="32.0693695731"><ele>48.68</ele><time>2026-08-02T14:55:38Z</time></trkpt><trkpt lat="59.9103368819" lon="32.0695823058"><ele>49.16</ele><time>2026-08-02T14:55:40Z</time></trkpt><trkpt lat="59.9104015902" lon="32.0697864890"><ele>49.16</ele><time>2026-08-02T14:55:41Z</time></trkpt><trkpt lat="59.9104599282" lon="32.0699946955"><ele>49.16</ele><time>2026-08-02T14:55:42Z</time></trkpt><trkpt lat="59.9105983134" lon="32.0708959177"><ele>47.72</ele><time>2026-08-02T14:55:47Z</time></trkpt><trkpt lat="59.9107504450" lon="32.0736270770"><ele>47.72</ele><time>2026-08-02T14:56:02Z</time></trkpt><trkpt lat="59.9107272271" lon="32.0747651719"><ele>48.68</ele><time>2026-08-02T14:56:08Z</time></trkpt><trkpt lat="59.9113292154" lon="32.0783095434"><ele>46.76</ele><time>2026-08-02T14:56:27Z</time></trkpt><trkpt lat="59.9115045648" lon="32.0796798170"><ele>46.76</ele><time>2026-08-02T14:56:39Z</time></trkpt><trkpt lat="59.9119037949" lon="32.0820619538"><ele>45.80</ele><time>2026-08-02T14:56:56Z</time></trkpt><trkpt lat="59.9121384043" lon="32.0824126527"><ele>45.80</ele><time>2026-08-02T14:57:03Z</time></trkpt><trkpt lat="59.9122141767" lon="32.0824377984"><ele>47.24</ele><time>2026-08-02T14:57:04Z</time></trkpt><trkpt lat="59.9122948945" lon="32.0824571606"><ele>47.72</ele><time>2026-08-02T14:57:05Z</time></trkpt><trkpt lat="59.9123770371" lon="32.0824593399"><ele>46.28</ele><time>2026-08-02T14:57:06Z</time></trkpt><trkpt lat="59.9124611914" lon="32.0824502874"><ele>46.28</ele><time>2026-08-02T14:57:07Z</time></trkpt><trkpt lat="59.9125890993" lon="32.0823654626"><ele>46.28</ele><time>2026-08-02T14:57:08Z</time></trkpt><trkpt lat="59.9127048533" lon="32.0822923724"><ele>46.28</ele><time>2026-08-02T14:57:09Z</time></trkpt><trkpt lat="59.9138204847" lon="32.0818635542"><ele>44.84</ele><time>2026-08-02T14:57:25Z</time></trkpt><trkpt lat="59.9139359035" lon="32.0818473771"><ele>46.28</ele><time>2026-08-02T14:57:27Z</time></trkpt><trkpt lat="59.9150180910" lon="32.0817433577"><ele>46.76</ele><time>2026-08-02T14:57:41Z</time></trkpt><trkpt lat="59.9162188824" lon="32.0823157579"><ele>47.24</ele><time>2026-08-02T14:57:57Z</time></trkpt><trkpt lat="59.9171072803" lon="32.0829088613"><ele>45.32</ele><time>2026-08-02T14:58:10Z</time></trkpt><trkpt lat="59.9171774369" lon="32.0823569130"><ele>46.28</ele><time>2026-08-02T14:58:20Z</time></trkpt><trkpt lat="59.9171709828" lon="32.0822095592"><ele>44.84</ele><time>2026-08-02T14:58:22Z</time></trkpt><trkpt lat="59.9170460086" lon="32.0803514589"><ele>46.28</ele><time>2026-08-02T14:58:38Z</time></trkpt><trkpt lat="59.9171016645" lon="32.0783751737"><ele>46.76</ele><time>2026-08-02T14:59:00Z</time></trkpt><trkpt lat="59.9171593320" lon="32.0763120521"><ele>46.76</ele><time>2026-08-02T14:59:23Z</time></trkpt><trkpt lat="59.9171169195" lon="32.0753442775"><ele>45.80</ele><time>2026-08-02T14:59:42Z</time></trkpt><trkpt lat="59.9171189312" lon="32.0753391646"><ele>45.80</ele><time>2026-08-02T15:00:04Z</time></trkpt><trkpt lat="59.9171501957" lon="32.0753345545"><ele>45.80</ele><time>2026-08-02T15:00:25Z</time></trkpt><trkpt lat="59.9171341863" lon="32.0753629692"><ele>45.80</ele><time>2026-08-02T15:00:54Z</time></trkpt><trkpt lat="59.9171192665" lon="32.0753738657"><ele>45.80</ele><time>2026-08-02T15:01:25Z</time></trkpt><trkpt lat="59.9171226192" lon="32.0753881987"><ele>45.80</ele><time>2026-08-02T15:01:54Z</time></trkpt><trkpt lat="59.9171212781" lon="32.0753816608"><ele>45.80</ele><time>2026-08-02T15:02:25Z</time></trkpt><trkpt lat="59.9171214458" lon="32.0754037052"><ele>45.80</ele><time>2026-08-02T15:02:52Z</time></trkpt><trkpt lat="59.9171281513" lon="32.0754280966"><ele>45.80</ele><time>2026-08-02T15:03:20Z</time></trkpt><trkpt lat="59.9171102140" lon="32.0754343830"><ele>45.80</ele><time>2026-08-02T15:03:31Z</time></trkpt><trkpt lat="59.9170994014" lon="32.0753956586"><ele>45.80</ele><time>2026-08-02T15:03:49Z</time></trkpt><trkpt lat="59.9170883372" lon="32.0752994344"><ele>45.80</ele><time>2026-08-02T15:04:05Z</time></trkpt><trkpt lat="59.9170908518" lon="32.0752698462"><ele>45.80</ele><time>2026-08-02T15:04:26Z</time></trkpt><trkpt lat="59.9171218649" lon="32.0752754621"><ele>46.76</ele><time>2026-08-02T15:04:39Z</time></trkpt><trkpt lat="59.9171316717" lon="32.0752436109"><ele>46.76</ele><time>2026-08-02T15:04:54Z</time></trkpt><trkpt lat="59.9171356950" lon="32.0752077363"><ele>46.76</ele><time>2026-08-02T15:04:59Z</time></trkpt><trkpt lat="59.9171361141" lon="32.0751890447"><ele>46.76</ele><time>2026-08-02T15:05:00Z</time></trkpt><trkpt lat="59.9171346892" lon="32.0751659106"><ele>46.76</ele><time>2026-08-02T15:05:01Z</time></trkpt><trkpt lat="59.9171550572" lon="32.0750884619"><ele>47.24</ele><time>2026-08-02T15:05:11Z</time></trkpt><trkpt lat="59.9171385448" lon="32.0749850292"><ele>47.24</ele><time>2026-08-02T15:05:16Z</time></trkpt><trkpt lat="59.9171404727" lon="32.0749247633"><ele>47.24</ele><time>2026-08-02T15:05:19Z</time></trkpt><trkpt lat="59.9171431549" lon="32.0748977736"><ele>47.24</ele><time>2026-08-02T15:05:20Z</time></trkpt><trkpt lat="59.9171435740" lon="32.0748685207"><ele>47.24</ele><time>2026-08-02T15:05:21Z</time></trkpt><trkpt lat="59.9171439093" lon="32.0748318080"><ele>47.24</ele><time>2026-08-02T15:05:22Z</time></trkpt><trkpt lat="59.9171456695" lon="32.0747912396"><ele>47.24</ele><time>2026-08-02T15:05:23Z</time></trkpt><trkpt lat="59.9171480164" lon="32.0747557003"><ele>47.24</ele><time>2026-08-02T15:05:24Z</time></trkpt><trkpt lat="59.9171487708" lon="32.0746586379"><ele>47.24</ele><time>2026-08-02T15:05:29Z</time></trkpt><trkpt lat="59.9171509501" lon="32.0746302232"><ele>47.24</ele><time>2026-08-02T15:05:30Z</time></trkpt><trkpt lat="59.9171518721" lon="32.0746003836"><ele>47.24</ele><time>2026-08-02T15:05:31Z</time></trkpt><trkpt lat="59.9171512853" lon="32.0745717175"><ele>47.24</ele><time>2026-08-02T15:05:32Z</time></trkpt><trkpt lat="59.9171526264" lon="32.0745395310"><ele>47.24</ele><time>2026-08-02T15:05:33Z</time></trkpt><trkpt lat="59.9171537161" lon="32.0745077636"><ele>47.24</ele><time>2026-08-02T15:05:34Z</time></trkpt><trkpt lat="59.9171539675" lon="32.0744781755"><ele>47.24</ele><time>2026-08-02T15:05:35Z</time></trkpt><trkpt lat="59.9171520397" lon="32.0744497608"><ele>47.24</ele><time>2026-08-02T15:05:36Z</time></trkpt><trkpt lat="59.9171496090" lon="32.0744256210"><ele>47.24</ele><time>2026-08-02T15:05:37Z</time></trkpt><trkpt lat="59.9171443284" lon="32.0742989704"><ele>46.28</ele><time>2026-08-02T15:05:44Z</time></trkpt><trkpt lat="59.9171336833" lon="32.0742460806"><ele>46.28</ele><time>2026-08-02T15:05:46Z</time></trkpt><trkpt lat="59.9171298277" lon="32.0742252935"><ele>46.28</ele><time>2026-08-02T15:05:47Z</time></trkpt><trkpt lat="59.9171246309" lon="32.0742121339"><ele>46.28</ele><time>2026-08-02T15:05:48Z</time></trkpt><trkpt lat="59.9171182606" lon="32.0742028300"><ele>46.28</ele><time>2026-08-02T15:05:49Z</time></trkpt><trkpt lat="59.9170964677" lon="32.0741636865"><ele>46.28</ele><time>2026-08-02T15:05:55Z</time></trkpt><trkpt lat="59.9170859903" lon="32.0741530415"><ele>47.72</ele><time>2026-08-02T15:05:56Z</time></trkpt><trkpt lat="59.9170760158" lon="32.0741413906"><ele>47.72</ele><time>2026-08-02T15:05:57Z</time></trkpt><trkpt lat="59.9170240480" lon="32.0740227867"><ele>47.72</ele><time>2026-08-02T15:06:08Z</time></trkpt><trkpt lat="59.9170307536" lon="32.0740089566"><ele>47.72</ele><time>2026-08-02T15:06:09Z</time></trkpt><trkpt lat="59.9170432426" lon="32.0740066934"><ele>47.72</ele><time>2026-08-02T15:06:10Z</time></trkpt><trkpt lat="59.9170535523" lon="32.0740088727"><ele>47.72</ele><time>2026-08-02T15:06:11Z</time></trkpt><trkpt lat="59.9170817994" lon="32.0740004908"><ele>47.72</ele><time>2026-08-02T15:06:16Z</time></trkpt><trkpt lat="59.9170958810" lon="32.0740074478"><ele>47.72</ele><time>2026-08-02T15:06:17Z</time></trkpt><trkpt lat="59.9171082862" lon="32.0740149077"><ele>47.72</ele><time>2026-08-02T15:06:18Z</time></trkpt><trkpt lat="59.9171320070" lon="32.0740154106"><ele>47.72</ele><time>2026-08-02T15:06:21Z</time></trkpt><trkpt lat="59.9171438254" lon="32.0740165841"><ele>47.72</ele><time>2026-08-02T15:06:22Z</time></trkpt><trkpt lat="59.9171521235" lon="32.0740307495"><ele>47.72</ele><time>2026-08-02T15:06:31Z</time></trkpt><trkpt lat="59.9171641935" lon="32.0740404725"><ele>47.72</ele><time>2026-08-02T15:06:44Z</time></trkpt><trkpt lat="59.9171778560" lon="32.0740478486"><ele>47.72</ele><time>2026-08-02T15:07:00Z</time></trkpt><trkpt lat="59.9171890039" lon="32.0741002355"><ele>47.72</ele><time>2026-08-02T15:07:16Z</time></trkpt><trkpt lat="59.9171830527" lon="32.0741023310"><ele>47.72</ele><time>2026-08-02T15:07:39Z</time></trkpt><trkpt lat="59.9171791133" lon="32.0741105452"><ele>47.72</ele><time>2026-08-02T15:08:00Z</time></trkpt><trkpt lat="59.9171730783" lon="32.0741171669"><ele>47.72</ele><time>2026-08-02T15:08:19Z</time></trkpt><trkpt lat="59.9171499442" lon="32.0741146524"><ele>47.72</ele><time>2026-08-02T15:08:39Z</time></trkpt><trkpt lat="59.9171372037" lon="32.0741059352"><ele>47.72</ele><time>2026-08-02T15:08:40Z</time></trkpt><trkpt lat="59.9170871638" lon="32.0740620978"><ele>47.72</ele><time>2026-08-02T15:08:50Z</time></trkpt><trkpt lat="59.9170075357" lon="32.0740130637"><ele>47.72</ele><time>2026-08-02T15:09:09Z</time></trkpt><trkpt lat="59.9169391394" lon="32.0739962999"><ele>48.20</ele><time>2026-08-02T15:09:16Z</time></trkpt><trkpt lat="59.9168901891" lon="32.0739890076"><ele>48.20</ele><time>2026-08-02T15:09:21Z</time></trkpt><trkpt lat="59.9168758560" lon="32.0739815477"><ele>48.20</ele><time>2026-08-02T15:09:22Z</time></trkpt><trkpt lat="59.9167875107" lon="32.0739575755"><ele>48.20</ele><time>2026-08-02T15:09:33Z</time></trkpt><trkpt lat="59.9167890195" lon="32.0739262272"><ele>48.20</ele><time>2026-08-02T15:09:53Z</time></trkpt><trkpt lat="59.9168450944" lon="32.0738910232"><ele>48.20</ele><time>2026-08-02T15:10:01Z</time></trkpt><trkpt lat="59.9168574158" lon="32.0738932025"><ele>48.20</ele><time>2026-08-02T15:10:02Z</time></trkpt><trkpt lat="59.9169018399" lon="32.0739082061"><ele>48.20</ele><time>2026-08-02T15:10:07Z</time></trkpt><trkpt lat="59.9169160891" lon="32.0739114750"><ele>48.20</ele><time>2026-08-02T15:10:08Z</time></trkpt><trkpt lat="59.9169504549" lon="32.0739134867"><ele>48.20</ele><time>2026-08-02T15:10:12Z</time></trkpt><trkpt lat="59.9169611838" lon="32.0739158336"><ele>48.20</ele><time>2026-08-02T15:10:13Z</time></trkpt><trkpt lat="59.9169724993" lon="32.0739193540"><ele>48.20</ele><time>2026-08-02T15:10:14Z</time></trkpt><trkpt lat="59.9170765188" lon="32.0739739202"><ele>48.20</ele><time>2026-08-02T15:10:26Z</time></trkpt><trkpt lat="59.9170947075" lon="32.0739892591"><ele>48.20</ele><time>2026-08-02T15:10:27Z</time></trkpt><trkpt lat="59.9171120580" lon="32.0739985630"><ele>48.20</ele><time>2026-08-02T15:10:28Z</time></trkpt><trkpt lat="59.9171585776" lon="32.0740211103"><ele>48.20</ele><time>2026-08-02T15:10:33Z</time></trkpt><trkpt lat="59.9171681330" lon="32.0740199368"><ele>48.20</ele><time>2026-08-02T15:10:34Z</time></trkpt><trkpt lat="59.9171786103" lon="32.0740170032"><ele>48.20</ele><time>2026-08-02T15:10:35Z</time></trkpt><trkpt lat="59.9171850644" lon="32.0740009937"><ele>48.20</ele><time>2026-08-02T15:10:44Z</time></trkpt><trkpt lat="59.9171548057" lon="32.0739514567"><ele>46.76</ele><time>2026-08-02T15:10:54Z</time></trkpt><trkpt lat="59.9170719087" lon="32.0738771092"><ele>46.76</ele><time>2026-08-02T15:11:08Z</time></trkpt><trkpt lat="59.9169585854" lon="32.0738531370"><ele>46.76</ele><time>2026-08-02T15:11:22Z</time></trkpt><trkpt lat="59.9168462679" lon="32.0737686474"><ele>48.20</ele><time>2026-08-02T15:11:35Z</time></trkpt><trkpt lat="59.9168076273" lon="32.0736140851"><ele>48.68</ele><time>2026-08-02T15:11:48Z</time></trkpt><trkpt lat="59.9167956412" lon="32.0734627917"><ele>48.68</ele><time>2026-08-02T15:12:06Z</time></trkpt><trkpt lat="59.9168010894" lon="32.0733356383"><ele>48.68</ele><time>2026-08-02T15:12:24Z</time></trkpt><trkpt lat="59.9168095551" lon="32.0733030327"><ele>49.16</ele><time>2026-08-02T15:12:46Z</time></trkpt><trkpt lat="59.9167969823" lon="32.0732996799"><ele>49.65</ele><time>2026-08-02T15:13:14Z</time></trkpt><trkpt lat="59.9167867564" lon="32.0731643960"><ele>49.65</ele><time>2026-08-02T15:13:30Z</time></trkpt><trkpt lat="59.9167606048" lon="32.0728896372"><ele>50.13</ele><time>2026-08-02T15:13:45Z</time></trkpt><trkpt lat="59.9167706631" lon="32.0727232564"><ele>50.13</ele><time>2026-08-02T15:13:58Z</time></trkpt><trkpt lat="59.9167828169" lon="32.0725353342"><ele>50.13</ele><time>2026-08-02T15:14:09Z</time></trkpt><trkpt lat="59.9167591799" lon="32.0723361801"><ele>50.13</ele><time>2026-08-02T15:14:20Z</time></trkpt><trkpt lat="59.9167556595" lon="32.0723018982"><ele>50.13</ele><time>2026-08-02T15:14:22Z</time></trkpt><trkpt lat="59.9167551566" lon="32.0720885787"><ele>50.13</ele><time>2026-08-02T15:14:35Z</time></trkpt><trkpt lat="59.9167673104" lon="32.0719924383"><ele>50.13</ele><time>2026-08-02T15:14:47Z</time></trkpt><trkpt lat="59.9167908635" lon="32.0719164144"><ele>50.13</ele><time>2026-08-02T15:14:58Z</time></trkpt><trkpt lat="59.9168021791" lon="32.0717320126"><ele>50.13</ele><time>2026-08-02T15:15:11Z</time></trkpt><trkpt lat="59.9167979881" lon="32.0716253947"><ele>50.13</ele><time>2026-08-02T15:15:26Z</time></trkpt><trkpt lat="59.9168217089" lon="32.0713729318"><ele>50.61</ele><time>2026-08-02T15:15:40Z</time></trkpt><trkpt lat="59.9168197811" lon="32.0712412521"><ele>50.61</ele><time>2026-08-02T15:15:49Z</time></trkpt><trkpt lat="59.9168289173" lon="32.0710487198"><ele>51.09</ele><time>2026-08-02T15:16:01Z</time></trkpt><trkpt lat="59.9168392271" lon="32.0708993543"><ele>51.09</ele><time>2026-08-02T15:16:12Z</time></trkpt><trkpt lat="59.9168399815" lon="32.0707438700"><ele>51.09</ele><time>2026-08-02T15:16:24Z</time></trkpt><trkpt lat="59.9168428313" lon="32.0706685167"><ele>51.09</ele><time>2026-08-02T15:16:39Z</time></trkpt><trkpt lat="59.9168469384" lon="32.0706577040"><ele>49.65</ele><time>2026-08-02T15:16:44Z</time></trkpt><trkpt lat="59.9168436695" lon="32.0706111006"><ele>48.68</ele><time>2026-08-02T15:17:01Z</time></trkpt><trkpt lat="59.9168520514" lon="32.0705292933"><ele>50.13</ele><time>2026-08-02T15:17:27Z</time></trkpt><trkpt lat="59.9168560747" lon="32.0705318917"><ele>50.13</ele><time>2026-08-02T15:17:28Z</time></trkpt><trkpt lat="59.9168761075" lon="32.0705049857"><ele>50.61</ele><time>2026-08-02T15:17:39Z</time></trkpt><trkpt lat="59.9168648757" lon="32.0704710390"><ele>51.09</ele><time>2026-08-02T15:17:52Z</time></trkpt><trkpt lat="59.9168591760" lon="32.0704158023"><ele>51.09</ele><time>2026-08-02T15:17:58Z</time></trkpt><trkpt lat="59.9168697372" lon="32.0702784229"><ele>51.09</ele><time>2026-08-02T15:18:10Z</time></trkpt><trkpt lat="59.9168958887" lon="32.0702419616"><ele>51.09</ele><time>2026-08-02T15:18:40Z</time></trkpt><trkpt lat="59.9168865848" lon="32.0701905806"><ele>51.09</ele><time>2026-08-02T15:19:07Z</time></trkpt><trkpt lat="59.9168797955" lon="32.0700999722"><ele>51.09</ele><time>2026-08-02T15:19:23Z</time></trkpt><trkpt lat="59.9168875068" lon="32.0700103696"><ele>51.09</ele><time>2026-08-02T15:19:35Z</time></trkpt><trkpt lat="59.9168909434" lon="32.0699713100"><ele>51.09</ele><time>2026-08-02T15:19:38Z</time></trkpt><trkpt lat="59.9168812204" lon="32.0698178373"><ele>51.57</ele><time>2026-08-02T15:19:50Z</time></trkpt><trkpt lat="59.9168887641" lon="32.0696768537"><ele>51.57</ele><time>2026-08-02T15:20:01Z</time></trkpt><trkpt lat="59.9168871716" lon="32.0696391352"><ele>50.13</ele><time>2026-08-02T15:20:04Z</time></trkpt><trkpt lat="59.9168836512" lon="32.0696023386"><ele>49.65</ele><time>2026-08-02T15:20:16Z</time></trkpt><trkpt lat="59.9168911949" lon="32.0695851557"><ele>49.65</ele><time>2026-08-02T15:20:45Z</time></trkpt><trkpt lat="59.9168954697" lon="32.0695825573"><ele>50.61</ele><time>2026-08-02T15:21:06Z</time></trkpt><trkpt lat="59.9168984871" lon="32.0695673861"><ele>50.61</ele><time>2026-08-02T15:21:39Z</time></trkpt><trkpt lat="59.9169455934" lon="32.0695537236"><ele>49.65</ele><time>2026-08-02T15:21:49Z</time></trkpt><trkpt lat="59.9170134868" lon="32.0695994888"><ele>49.65</ele><time>2026-08-02T15:22:00Z</time></trkpt><trkpt lat="59.9170451704" lon="32.0695968904"><ele>49.65</ele><time>2026-08-02T15:22:13Z</time></trkpt><trkpt lat="59.9170466792" lon="32.0696047693"><ele>49.65</ele><time>2026-08-02T15:22:36Z</time></trkpt><trkpt lat="59.9170443323" lon="32.0695797075"><ele>49.65</ele><time>2026-08-02T15:22:47Z</time></trkpt><trkpt lat="59.9170283228" lon="32.0695170946"><ele>49.65</ele><time>2026-08-02T15:23:04Z</time></trkpt><trkpt lat="59.9170234613" lon="32.0694482792"><ele>49.65</ele><time>2026-08-02T15:23:17Z</time></trkpt><trkpt lat="59.9170396384" lon="32.0693789609"><ele>49.65</ele><time>2026-08-02T15:23:41Z</time></trkpt><trkpt lat="59.9170507863" lon="32.0693259034"><ele>49.65</ele><time>2026-08-02T15:23:55Z</time></trkpt><trkpt lat="59.9170705676" lon="32.0693313517"><ele>49.65</ele><time>2026-08-02T15:24:13Z</time></trkpt><trkpt lat="59.9170839787" lon="32.0693148393"><ele>49.65</ele><time>2026-08-02T15:24:26Z</time></trkpt><trkpt lat="59.9171262234" lon="32.0693678129"><ele>49.65</ele><time>2026-08-02T15:24:36Z</time></trkpt><trkpt lat="59.9171431549" lon="32.0694048610"><ele>49.65</ele><time>2026-08-02T15:24:51Z</time></trkpt><trkpt lat="59.9171501957" lon="32.0694206189"><ele>51.09</ele><time>2026-08-02T15:25:03Z</time></trkpt><trkpt lat="59.9171475973" lon="32.0693725906"><ele>49.65</ele><time>2026-08-02T15:25:09Z</time></trkpt><trkpt lat="59.9171673786" lon="32.0692832395"><ele>49.65</ele><time>2026-08-02T15:25:30Z</time></trkpt><trkpt lat="59.9171749223" lon="32.0692320261"><ele>49.65</ele><time>2026-08-02T15:25:49Z</time></trkpt><trkpt lat="59.9171831366" lon="32.0692210458"><ele>49.65</ele><time>2026-08-02T15:26:14Z</time></trkpt><trkpt lat="59.9172057677" lon="32.0691921283"><ele>49.65</ele><time>2026-08-02T15:26:28Z</time></trkpt><trkpt lat="59.9172342662" lon="32.0691349637"><ele>50.61</ele><time>2026-08-02T15:26:44Z</time></trkpt><trkpt lat="59.9172415584" lon="32.0690933056"><ele>50.61</ele><time>2026-08-02T15:27:00Z</time></trkpt><trkpt lat="59.9172465876" lon="32.0690634660"><ele>51.09</ele><time>2026-08-02T15:27:15Z</time></trkpt><trkpt lat="59.9172344338" lon="32.0689509809"><ele>51.09</ele><time>2026-08-02T15:27:33Z</time></trkpt><trkpt lat="59.9172558077" lon="32.0688905474"><ele>51.09</ele><time>2026-08-02T15:27:45Z</time></trkpt><trkpt lat="59.9172574840" lon="32.0688828360"><ele>51.09</ele><time>2026-08-02T15:28:12Z</time></trkpt><trkpt lat="59.9172501080" lon="32.0687751286"><ele>51.09</ele><time>2026-08-02T15:28:29Z</time></trkpt><trkpt lat="59.9172200169" lon="32.0686495677"><ele>51.57</ele><time>2026-08-02T15:28:49Z</time></trkpt><trkpt lat="59.9171556439" lon="32.0684515871"><ele>51.57</ele><time>2026-08-02T15:29:06Z</time></trkpt><trkpt lat="59.9171189312" lon="32.0683731325"><ele>51.57</ele><time>2026-08-02T15:29:26Z</time></trkpt><trkpt lat="59.9171128962" lon="32.0683712047"><ele>51.57</ele><time>2026-08-02T15:29:47Z</time></trkpt><trkpt lat="59.9170820508" lon="32.0683591347"><ele>51.57</ele><time>2026-08-02T15:30:24Z</time></trkpt><trkpt lat="59.9170904327" lon="32.0683370903"><ele>51.57</ele><time>2026-08-02T15:30:55Z</time></trkpt><trkpt lat="59.9170750938" lon="32.0682851225"><ele>52.53</ele><time>2026-08-02T15:31:26Z</time></trkpt><trkpt lat="59.9170416500" lon="32.0681419596"><ele>52.53</ele><time>2026-08-02T15:31:38Z</time></trkpt><trkpt lat="59.9170306697" lon="32.0680875611"><ele>52.53</ele><time>2026-08-02T15:31:54Z</time></trkpt><trkpt lat="59.9170318432" lon="32.0679185819"><ele>52.53</ele><time>2026-08-02T15:32:08Z</time></trkpt><trkpt lat="59.9170382135" lon="32.0678558014"><ele>52.53</ele><time>2026-08-02T15:32:29Z</time></trkpt><trkpt lat="59.9170314241" lon="32.0677722339"><ele>52.53</ele><time>2026-08-02T15:32:52Z</time></trkpt><trkpt lat="59.9170305859" lon="32.0677390415"><ele>52.05</ele><time>2026-08-02T15:33:08Z</time></trkpt><trkpt lat="59.9170130678" lon="32.0676331781"><ele>52.05</ele><time>2026-08-02T15:33:26Z</time></trkpt><trkpt lat="59.9170377105" lon="32.0674622711"><ele>52.05</ele><time>2026-08-02T15:33:41Z</time></trkpt><trkpt lat="59.9170637783" lon="32.0671910327"><ele>52.05</ele><time>2026-08-02T15:33:54Z</time></trkpt><trkpt lat="59.9170576595" lon="32.0670287590"><ele>52.05</ele><time>2026-08-02T15:34:08Z</time></trkpt><trkpt lat="59.9170626886" lon="32.0669990871"><ele>52.05</ele><time>2026-08-02T15:34:24Z</time></trkpt><trkpt lat="59.9170666281" lon="32.0669979975"><ele>53.01</ele><time>2026-08-02T15:34:33Z</time></trkpt><trkpt lat="59.9170735013" lon="32.0669840835"><ele>53.01</ele><time>2026-08-02T15:34:56Z</time></trkpt><trkpt lat="59.9170859903" lon="32.0669423416"><ele>53.01</ele><time>2026-08-02T15:35:14Z</time></trkpt><trkpt lat="59.9171026703" lon="32.0668783877"><ele>53.49</ele><time>2026-08-02T15:35:38Z</time></trkpt><trkpt lat="59.9171035923" lon="32.0668135956"><ele>53.49</ele><time>2026-08-02T15:35:55Z</time></trkpt><trkpt lat="59.9170981441" lon="32.0666902140"><ele>53.49</ele><time>2026-08-02T15:36:10Z</time></trkpt><trkpt lat="59.9171103816" lon="32.0664659142"><ele>53.97</ele><time>2026-08-02T15:36:26Z</time></trkpt><trkpt lat="59.9171028379" lon="32.0663028862"><ele>53.97</ele><time>2026-08-02T15:36:39Z</time></trkpt><trkpt lat="59.9171180930" lon="32.0662036445"><ele>53.97</ele><time>2026-08-02T15:36:57Z</time></trkpt><trkpt lat="59.9171310849" lon="32.0661475696"><ele>54.45</ele><time>2026-08-02T15:37:18Z</time></trkpt><trkpt lat="59.9171343539" lon="32.0659478288"><ele>54.45</ele><time>2026-08-02T15:37:33Z</time></trkpt><trkpt lat="59.9171485193" lon="32.0659096073"><ele>54.45</ele><time>2026-08-02T15:37:56Z</time></trkpt><trkpt lat="59.9171565659" lon="32.0658678655"><ele>54.93</ele><time>2026-08-02T15:38:21Z</time></trkpt><trkpt lat="59.9171543028" lon="32.0658272132"><ele>54.93</ele><time>2026-08-02T15:38:41Z</time></trkpt><trkpt lat="59.9171466753" lon="32.0657377783"><ele>54.93</ele><time>2026-08-02T15:38:59Z</time></trkpt><trkpt lat="59.9171201047" lon="32.0656455774"><ele>53.97</ele><time>2026-08-02T15:39:17Z</time></trkpt><trkpt lat="59.9171195179" lon="32.0655119698"><ele>53.97</ele><time>2026-08-02T15:39:36Z</time></trkpt><trkpt lat="59.9171309173" lon="32.0653706510"><ele>55.89</ele><time>2026-08-02T15:39:53Z</time></trkpt><trkpt lat="59.9171376228" lon="32.0653106365"><ele>56.86</ele><time>2026-08-02T15:40:12Z</time></trkpt><trkpt lat="59.9171120580" lon="32.0652460959"><ele>56.86</ele><time>2026-08-02T15:40:34Z</time></trkpt><trkpt lat="59.9170874991" lon="32.0651445072"><ele>56.86</ele><time>2026-08-02T15:40:45Z</time></trkpt><trkpt lat="59.9170869961" lon="32.0649685711"><ele>56.86</ele><time>2026-08-02T15:41:00Z</time></trkpt><trkpt lat="59.9170906842" lon="32.0648746938"><ele>54.93</ele><time>2026-08-02T15:41:20Z</time></trkpt><trkpt lat="59.9170776084" lon="32.0648197923"><ele>54.45</ele><time>2026-08-02T15:41:40Z</time></trkpt><trkpt lat="59.9170385487" lon="32.0646394975"><ele>54.45</ele><time>2026-08-02T15:41:52Z</time></trkpt><trkpt lat="59.9170505349" lon="32.0645388309"><ele>55.89</ele><time>2026-08-02T15:41:58Z</time></trkpt><trkpt lat="59.9170555640" lon="32.0644081570"><ele>55.89</ele><time>2026-08-02T15:42:09Z</time></trkpt><trkpt lat="59.9170455057" lon="32.0643498190"><ele>56.37</ele><time>2026-08-02T15:42:35Z</time></trkpt><trkpt lat="59.9170749262" lon="32.0642087515"><ele>54.93</ele><time>2026-08-02T15:42:47Z</time></trkpt><trkpt lat="59.9170860741" lon="32.0641027205"><ele>54.93</ele><time>2026-08-02T15:43:00Z</time></trkpt><trkpt lat="59.9170890916" lon="32.0640803408"><ele>56.37</ele><time>2026-08-02T15:43:06Z</time></trkpt><trkpt lat="59.9171108846" lon="32.0639625750"><ele>56.37</ele><time>2026-08-02T15:43:24Z</time></trkpt><trkpt lat="59.9171204399" lon="32.0639059134"><ele>56.86</ele><time>2026-08-02T15:43:46Z</time></trkpt><trkpt lat="59.9171408918" lon="32.0638967771"><ele>55.89</ele><time>2026-08-02T15:44:02Z</time></trkpt><trkpt lat="59.9171730783" lon="32.0638800133"><ele>55.41</ele><time>2026-08-02T15:44:07Z</time></trkpt><trkpt lat="59.9172293209" lon="32.0639241021"><ele>56.86</ele><time>2026-08-02T15:44:21Z</time></trkpt><trkpt lat="59.9172717333" lon="32.0639248565"><ele>56.86</ele><time>2026-08-02T15:44:37Z</time></trkpt><trkpt lat="59.9172849767" lon="32.0639075059"><ele>56.86</ele><time>2026-08-02T15:45:07Z</time></trkpt><trkpt lat="59.9173096195" lon="32.0638722181"><ele>55.41</ele><time>2026-08-02T15:45:39Z</time></trkpt><trkpt lat="59.9173154868" lon="32.0638722181"><ele>55.41</ele><time>2026-08-02T15:45:40Z</time></trkpt><trkpt lat="59.9173486792" lon="32.0638614893"><ele>55.41</ele><time>2026-08-02T15:45:46Z</time></trkpt><trkpt lat="59.9173260480" lon="32.0638163947"><ele>55.41</ele><time>2026-08-02T15:45:58Z</time></trkpt><trkpt lat="59.9172998127" lon="32.0638308953"><ele>55.41</ele><time>2026-08-02T15:46:07Z</time></trkpt><trkpt lat="59.9172537960" lon="32.0638491679"><ele>55.41</ele><time>2026-08-02T15:46:23Z</time></trkpt><trkpt lat="59.9172128085" lon="32.0638491679"><ele>55.41</ele><time>2026-08-02T15:46:37Z</time></trkpt><trkpt lat="59.9172111321" lon="32.0637902431"><ele>54.93</ele><time>2026-08-02T15:46:55Z</time></trkpt><trkpt lat="59.9172460008" lon="32.0637339167"><ele>54.93</ele><time>2026-08-02T15:47:07Z</time></trkpt><trkpt lat="59.9172681291" lon="32.0637055021"><ele>54.45</ele><time>2026-08-02T15:47:25Z</time></trkpt><trkpt lat="59.9172863178" lon="32.0637039933"><ele>55.89</ele><time>2026-08-02T15:47:49Z</time></trkpt><trkpt lat="59.9173218571" lon="32.0637119561"><ele>54.45</ele><time>2026-08-02T15:48:01Z</time></trkpt><trkpt lat="59.9173629284" lon="32.0637041610"><ele>54.45</ele><time>2026-08-02T15:48:20Z</time></trkpt><trkpt lat="59.9173653591" lon="32.0636350103"><ele>54.45</ele><time>2026-08-02T15:48:33Z</time></trkpt><trkpt lat="59.9173662812" lon="32.0635654405"><ele>54.45</ele><time>2026-08-02T15:48:51Z</time></trkpt><trkpt lat="59.9173452426" lon="32.0634708088"><ele>54.45</ele><time>2026-08-02T15:49:03Z</time></trkpt><trkpt lat="59.9173513614" lon="32.0633978862"><ele>54.45</ele><time>2026-08-02T15:49:15Z</time></trkpt><trkpt lat="59.9173372798" lon="32.0632721577"><ele>54.45</ele><time>2026-08-02T15:49:27Z</time></trkpt><trkpt lat="59.9173093680" lon="32.0632183459"><ele>55.89</ele><time>2026-08-02T15:49:40Z</time></trkpt><trkpt lat="59.9172967952" lon="32.0631778613"><ele>56.37</ele><time>2026-08-02T15:49:59Z</time></trkpt><trkpt lat="59.9172560591" lon="32.0630462654"><ele>56.37</ele><time>2026-08-02T15:50:12Z</time></trkpt><trkpt lat="59.9172755890" lon="32.0629525557"><ele>54.93</ele><time>2026-08-02T15:50:27Z</time></trkpt><trkpt lat="59.9172687158" lon="32.0628128294"><ele>54.93</ele><time>2026-08-02T15:50:39Z</time></trkpt><trkpt lat="59.9172775168" lon="32.0626625419"><ele>56.37</ele><time>2026-08-02T15:50:53Z</time></trkpt><trkpt lat="59.9172967114" lon="32.0625119191"><ele>56.37</ele><time>2026-08-02T15:51:05Z</time></trkpt><trkpt lat="59.9173187558" lon="32.0623856876"><ele>56.86</ele><time>2026-08-02T15:51:21Z</time></trkpt><trkpt lat="59.9173195101" lon="32.0623636432"><ele>55.41</ele><time>2026-08-02T15:51:37Z</time></trkpt><trkpt lat="59.9173098709" lon="32.0623260923"><ele>56.86</ele><time>2026-08-02T15:51:55Z</time></trkpt><trkpt lat="59.9172423128" lon="32.0621677581"><ele>56.86</ele><time>2026-08-02T15:52:05Z</time></trkpt><trkpt lat="59.9171923567" lon="32.0619616471"><ele>56.86</ele><time>2026-08-02T15:52:27Z</time></trkpt><trkpt lat="59.9172012415" lon="32.0619146246"><ele>56.86</ele><time>2026-08-02T15:52:47Z</time></trkpt><trkpt lat="59.9172050133" lon="32.0619176421"><ele>56.86</ele><time>2026-08-02T15:52:51Z</time></trkpt><trkpt lat="59.9172018282" lon="32.0619026385"><ele>56.86</ele><time>2026-08-02T15:53:05Z</time></trkpt><trkpt lat="59.9172034208" lon="32.0618963521"><ele>56.86</ele><time>2026-08-02T15:53:23Z</time></trkpt><trkpt lat="59.9172089528" lon="32.0618932508"><ele>57.34</ele><time>2026-08-02T15:53:42Z</time></trkpt><trkpt lat="59.9172131438" lon="32.0618965197"><ele>57.34</ele><time>2026-08-02T15:54:05Z</time></trkpt><trkpt lat="59.9171945360" lon="32.0617952663"><ele>57.34</ele><time>2026-08-02T15:54:18Z</time></trkpt><trkpt lat="59.9171828851" lon="32.0616192464"><ele>57.34</ele><time>2026-08-02T15:54:30Z</time></trkpt><trkpt lat="59.9171597511" lon="32.0614136383"><ele>55.89</ele><time>2026-08-02T15:54:41Z</time></trkpt><trkpt lat="59.9171784427" lon="32.0613080263"><ele>55.89</ele><time>2026-08-02T15:54:51Z</time></trkpt><trkpt lat="59.9171766825" lon="32.0611834712"><ele>55.89</ele><time>2026-08-02T15:55:02Z</time></trkpt><trkpt lat="59.9171758443" lon="32.0610418171"><ele>57.34</ele><time>2026-08-02T15:55:11Z</time></trkpt><trkpt lat="59.9171779398" lon="32.0609940402"><ele>57.34</ele><time>2026-08-02T15:55:14Z</time></trkpt><trkpt lat="59.9171889201" lon="32.0608009212"><ele>57.34</ele><time>2026-08-02T15:55:25Z</time></trkpt><trkpt lat="59.9171945360" lon="32.0606578421"><ele>57.34</ele><time>2026-08-02T15:55:37Z</time></trkpt><trkpt lat="59.9172022473" lon="32.0605216362"><ele>57.34</ele><time>2026-08-02T15:55:48Z</time></trkpt><trkpt lat="59.9171985593" lon="32.0603991766"><ele>56.37</ele><time>2026-08-02T15:55:58Z</time></trkpt><trkpt lat="59.9171983916" lon="32.0603027008"><ele>56.37</ele><time>2026-08-02T15:56:10Z</time></trkpt><trkpt lat="59.9172069412" lon="32.0602077339"><ele>56.37</ele><time>2026-08-02T15:56:20Z</time></trkpt><trkpt lat="59.9172186758" lon="32.0601134375"><ele>56.37</ele><time>2026-08-02T15:56:30Z</time></trkpt><trkpt lat="59.9172159936" lon="32.0600366592"><ele>56.37</ele><time>2026-08-02T15:56:46Z</time></trkpt><trkpt lat="59.9172143172" lon="32.0598500781"><ele>56.37</ele><time>2026-08-02T15:56:59Z</time></trkpt><trkpt lat="59.9172217771" lon="32.0596562885"><ele>56.37</ele><time>2026-08-02T15:57:10Z</time></trkpt><trkpt lat="59.9172289856" lon="32.0595091861"><ele>56.37</ele><time>2026-08-02T15:57:21Z</time></trkpt><trkpt lat="59.9172490183" lon="32.0594362635"><ele>56.37</ele><time>2026-08-02T15:57:44Z</time></trkpt><trkpt lat="59.9172638543" lon="32.0594033226"><ele>56.37</ele><time>2026-08-02T15:58:18Z</time></trkpt><trkpt lat="59.9172664527" lon="32.0594080165"><ele>55.89</ele><time>2026-08-02T15:58:39Z</time></trkpt><trkpt lat="59.9172693025" lon="32.0594118722"><ele>55.89</ele><time>2026-08-02T15:59:07Z</time></trkpt><trkpt lat="59.9172739964" lon="32.0594153088"><ele>55.89</ele><time>2026-08-02T15:59:29Z</time></trkpt><trkpt lat="59.9172762595" lon="32.0594152249"><ele>55.89</ele><time>2026-08-02T15:59:53Z</time></trkpt><trkpt lat="59.9172862340" lon="32.0593734831"><ele>55.89</ele><time>2026-08-02T16:00:18Z</time></trkpt><trkpt lat="59.9172978848" lon="32.0593353454"><ele>55.89</ele><time>2026-08-02T16:00:26Z</time></trkpt><trkpt lat="59.9172935262" lon="32.0593118761"><ele>55.41</ele><time>2026-08-02T16:00:38Z</time></trkpt><trkpt lat="59.9172874913" lon="32.0592695475"><ele>55.41</ele><time>2026-08-02T16:00:48Z</time></trkpt><trkpt lat="59.9172689673" lon="32.0592340082"><ele>55.41</ele><time>2026-08-02T16:00:56Z</time></trkpt><trkpt lat="59.9172650278" lon="32.0591348503"><ele>55.41</ele><time>2026-08-02T16:01:10Z</time></trkpt><trkpt lat="59.9172858987" lon="32.0590603352"><ele>55.41</ele><time>2026-08-02T16:01:20Z</time></trkpt><trkpt lat="59.9172920175" lon="32.0589689724"><ele>55.41</ele><time>2026-08-02T16:01:34Z</time></trkpt><trkpt lat="59.9172856472" lon="32.0589220338"><ele>55.41</ele><time>2026-08-02T16:01:57Z</time></trkpt><trkpt lat="59.9172696378" lon="32.0588826388"><ele>55.41</ele><time>2026-08-02T16:02:10Z</time></trkpt><trkpt lat="59.9172703084" lon="32.0587901026"><ele>55.41</ele><time>2026-08-02T16:02:26Z</time></trkpt><trkpt lat="59.9172741640" lon="32.0587488636"><ele>55.41</ele><time>2026-08-02T16:02:46Z</time></trkpt><trkpt lat="59.9172739126" lon="32.0587001648"><ele>55.41</ele><time>2026-08-02T16:03:07Z</time></trkpt><trkpt lat="59.9172780197" lon="32.0586542320"><ele>55.41</ele><time>2026-08-02T16:03:29Z</time></trkpt><trkpt lat="59.9172855634" lon="32.0585694909"><ele>55.41</ele><time>2026-08-02T16:03:40Z</time></trkpt><trkpt lat="59.9172873236" lon="32.0585171878"><ele>55.41</ele><time>2026-08-02T16:03:57Z</time></trkpt><trkpt lat="59.9173129722" lon="32.0584441815"><ele>55.41</ele><time>2026-08-02T16:04:18Z</time></trkpt><trkpt lat="59.9173273053" lon="32.0584414992"><ele>55.41</ele><time>2026-08-02T16:04:43Z</time></trkpt><trkpt lat="59.9173226114" lon="32.0584510546"><ele>55.41</ele><time>2026-08-02T16:05:03Z</time></trkpt><trkpt lat="59.9173284788" lon="32.0584281720"><ele>55.41</ele><time>2026-08-02T16:05:16Z</time></trkpt><trkpt lat="59.9173512775" lon="32.0583687443"><ele>54.93</ele><time>2026-08-02T16:05:31Z</time></trkpt><trkpt lat="59.9173985515" lon="32.0583834127"><ele>54.93</ele><time>2026-08-02T16:05:45Z</time></trkpt><trkpt lat="59.9174172431" lon="32.0584098157"><ele>54.45</ele><time>2026-08-02T16:06:06Z</time></trkpt><trkpt lat="59.9174136389" lon="32.0583822392"><ele>54.45</ele><time>2026-08-02T16:06:24Z</time></trkpt><trkpt lat="59.9173708912" lon="32.0583070535"><ele>54.45</ele><time>2026-08-02T16:06:39Z</time></trkpt><trkpt lat="59.9173361063" lon="32.0582091529"><ele>55.89</ele><time>2026-08-02T16:06:52Z</time></trkpt><trkpt lat="59.9173246231" lon="32.0580969192"><ele>56.37</ele><time>2026-08-02T16:07:07Z</time></trkpt><trkpt lat="59.9173195940" lon="32.0580520760"><ele>56.37</ele><time>2026-08-02T16:07:25Z</time></trkpt><trkpt lat="59.9173172470" lon="32.0579924807"><ele>56.37</ele><time>2026-08-02T16:07:40Z</time></trkpt><trkpt lat="59.9173135590" lon="32.0579447877"><ele>56.37</ele><time>2026-08-02T16:08:00Z</time></trkpt><trkpt lat="59.9173138943" lon="32.0578959212"><ele>56.37</ele><time>2026-08-02T16:08:19Z</time></trkpt><trkpt lat="59.9173186719" lon="32.0578195620"><ele>56.37</ele><time>2026-08-02T16:08:34Z</time></trkpt><trkpt lat="59.9173230305" lon="32.0577734616"><ele>56.37</ele><time>2026-08-02T16:08:45Z</time></trkpt><trkpt lat="59.9173369445" lon="32.0577401854"><ele>56.37</ele><time>2026-08-02T16:09:07Z</time></trkpt><trkpt lat="59.9173330888" lon="32.0577024668"><ele>56.37</ele><time>2026-08-02T16:09:25Z</time></trkpt><trkpt lat="59.9173446558" lon="32.0576114394"><ele>56.37</ele><time>2026-08-02T16:09:53Z</time></trkpt><trkpt lat="59.9173553847" lon="32.0575868804"><ele>56.37</ele><time>2026-08-02T16:10:17Z</time></trkpt><trkpt lat="59.9173732381" lon="32.0575417019"><ele>56.37</ele><time>2026-08-02T16:10:48Z</time></trkpt><trkpt lat="59.9173792731" lon="32.0575086772"><ele>56.37</ele><time>2026-08-02T16:11:15Z</time></trkpt><trkpt lat="59.9173766747" lon="32.0574754849"><ele>56.37</ele><time>2026-08-02T16:11:35Z</time></trkpt><trkpt lat="59.9173942767" lon="32.0574551169"><ele>56.37</ele><time>2026-08-02T16:11:50Z</time></trkpt><trkpt lat="59.9174151476" lon="32.0574738923"><ele>55.41</ele><time>2026-08-02T16:12:03Z</time></trkpt><trkpt lat="59.9174393713" lon="32.0574702043"><ele>54.93</ele><time>2026-08-02T16:12:38Z</time></trkpt><trkpt lat="59.9174660258" lon="32.0574256964"><ele>54.93</ele><time>2026-08-02T16:12:51Z</time></trkpt><trkpt lat="59.9174613319" lon="32.0573743992"><ele>54.93</ele><time>2026-08-02T16:13:06Z</time></trkpt><trkpt lat="59.9174530338" lon="32.0573087689"><ele>54.93</ele><time>2026-08-02T16:13:20Z</time></trkpt><trkpt lat="59.9174306542" lon="32.0572174899"><ele>54.93</ele><time>2026-08-02T16:13:34Z</time></trkpt><trkpt lat="59.9174418859" lon="32.0570368599"><ele>54.93</ele><time>2026-08-02T16:13:49Z</time></trkpt><trkpt lat="59.9174128845" lon="32.0568797830"><ele>54.93</ele><time>2026-08-02T16:14:06Z</time></trkpt><trkpt lat="59.9174223561" lon="32.0567806251"><ele>54.93</ele><time>2026-08-02T16:14:18Z</time></trkpt><trkpt lat="59.9174141418" lon="32.0567349438"><ele>54.93</ele><time>2026-08-02T16:14:35Z</time></trkpt><trkpt lat="59.9174165726" lon="32.0566945430"><ele>54.93</ele><time>2026-08-02T16:14:53Z</time></trkpt><trkpt lat="59.9174201768" lon="32.0565915294"><ele>54.93</ele><time>2026-08-02T16:15:19Z</time></trkpt><trkpt lat="59.9174239486" lon="32.0565207861"><ele>54.93</ele><time>2026-08-02T16:15:44Z</time></trkpt><trkpt lat="59.9174346775" lon="32.0564558264"><ele>54.93</ele><time>2026-08-02T16:15:59Z</time></trkpt><trkpt lat="59.9174351804" lon="32.0563614462"><ele>54.93</ele><time>2026-08-02T16:16:14Z</time></trkpt><trkpt lat="59.9174335040" lon="32.0563212130"><ele>56.37</ele><time>2026-08-02T16:16:32Z</time></trkpt><trkpt lat="59.9174278043" lon="32.0562865958"><ele>56.37</ele><time>2026-08-02T16:17:03Z</time></trkpt><trkpt lat="59.9174336717" lon="32.0562399086"><ele>56.37</ele><time>2026-08-02T16:17:33Z</time></trkpt><trkpt lat="59.9174554646" lon="32.0561918803"><ele>56.37</ele><time>2026-08-02T16:17:49Z</time></trkpt><trkpt lat="59.9174632598" lon="32.0561705902"><ele>56.37</ele><time>2026-08-02T16:18:08Z</time></trkpt><trkpt lat="59.9174738210" lon="32.0561317820"><ele>56.37</ele><time>2026-08-02T16:18:27Z</time></trkpt><trkpt lat="59.9174723122" lon="32.0560897887"><ele>56.37</ele><time>2026-08-02T16:18:48Z</time></trkpt><trkpt lat="59.9174670316" lon="32.0560643077"><ele>56.37</ele><time>2026-08-02T16:19:13Z</time></trkpt><trkpt lat="59.9174222723" lon="32.0559878647"><ele>56.37</ele><time>2026-08-02T16:19:35Z</time></trkpt><trkpt lat="59.9174268823" lon="32.0559206419"><ele>56.86</ele><time>2026-08-02T16:19:50Z</time></trkpt><trkpt lat="59.9174370244" lon="32.0558992680"><ele>56.86</ele><time>2026-08-02T16:20:19Z</time></trkpt><trkpt lat="59.9174467474" lon="32.0558825042"><ele>56.86</ele><time>2026-08-02T16:20:47Z</time></trkpt><trkpt lat="59.9174529500" lon="32.0558751281"><ele>56.86</ele><time>2026-08-02T16:21:17Z</time></trkpt><trkpt lat="59.9174412154" lon="32.0558450371"><ele>56.86</ele><time>2026-08-02T16:21:42Z</time></trkpt><trkpt lat="59.9174424727" lon="32.0558176283"><ele>56.86</ele><time>2026-08-02T16:21:59Z</time></trkpt><trkpt lat="59.9174673669" lon="32.0557825081"><ele>57.34</ele><time>2026-08-02T16:22:13Z</time></trkpt><trkpt lat="59.9174510222" lon="32.0557324681"><ele>57.34</ele><time>2026-08-02T16:22:30Z</time></trkpt><trkpt lat="59.9174574763" lon="32.0556298736"><ele>57.34</ele><time>2026-08-02T16:22:50Z</time></trkpt><trkpt lat="59.9174394552" lon="32.0555753075"><ele>57.34</ele><time>2026-08-02T16:23:11Z</time></trkpt><trkpt lat="59.9174830411" lon="32.0554710366"><ele>57.34</ele><time>2026-08-02T16:23:28Z</time></trkpt><trkpt lat="59.9175063428" lon="32.0554303844"><ele>57.34</ele><time>2026-08-02T16:23:44Z</time></trkpt><trkpt lat="59.9175172392" lon="32.0554010477"><ele>57.34</ele><time>2026-08-02T16:24:08Z</time></trkpt><trkpt lat="59.9175279681" lon="32.0553780813"><ele>57.34</ele><time>2026-08-02T16:24:25Z</time></trkpt><trkpt lat="59.9175285548" lon="32.0553378481"><ele>57.34</ele><time>2026-08-02T16:24:38Z</time></trkpt><trkpt lat="59.9175412115" lon="32.0552969445"><ele>57.34</ele><time>2026-08-02T16:24:58Z</time></trkpt><trkpt lat="59.9175551254" lon="32.0552588906"><ele>57.34</ele><time>2026-08-02T16:25:09Z</time></trkpt><trkpt lat="59.9175796844" lon="32.0552069228"><ele>57.34</ele><time>2026-08-02T16:25:26Z</time></trkpt><trkpt lat="59.9175892398" lon="32.0551170688"><ele>57.34</ele><time>2026-08-02T16:25:40Z</time></trkpt><trkpt lat="59.9176033214" lon="32.0550186653"><ele>57.34</ele><time>2026-08-02T16:25:55Z</time></trkpt><trkpt lat="59.9176338315" lon="32.0549186692"><ele>57.34</ele><time>2026-08-02T16:26:10Z</time></trkpt><trkpt lat="59.9176543672" lon="32.0547898393"><ele>57.34</ele><time>2026-08-02T16:26:20Z</time></trkpt><trkpt lat="59.9176614918" lon="32.0547050145"><ele>57.82</ele><time>2026-08-02T16:26:33Z</time></trkpt><trkpt lat="59.9176668562" lon="32.0546713192"><ele>57.82</ele><time>2026-08-02T16:26:53Z</time></trkpt><trkpt lat="59.9176818598" lon="32.0546293259"><ele>56.86</ele><time>2026-08-02T16:27:16Z</time></trkpt><trkpt lat="59.9176888168" lon="32.0546009112"><ele>57.82</ele><time>2026-08-02T16:27:37Z</time></trkpt><trkpt lat="59.9176427163" lon="32.0545911882"><ele>58.30</ele><time>2026-08-02T16:27:53Z</time></trkpt><trkpt lat="59.9175758287" lon="32.0545684732"><ele>58.30</ele><time>2026-08-02T16:28:07Z</time></trkpt><trkpt lat="59.9175625015" lon="32.0545354486"><ele>58.30</ele><time>2026-08-02T16:28:27Z</time></trkpt><trkpt lat="59.9175210949" lon="32.0544912759"><ele>58.78</ele><time>2026-08-02T16:28:41Z</time></trkpt><trkpt lat="59.9174796045" lon="32.0544376317"><ele>58.78</ele><time>2026-08-02T16:28:57Z</time></trkpt><trkpt lat="59.9174590688" lon="32.0543842390"><ele>58.78</ele><time>2026-08-02T16:29:10Z</time></trkpt><trkpt lat="59.9174459092" lon="32.0543307625"><ele>58.78</ele><time>2026-08-02T16:29:27Z</time></trkpt><trkpt lat="59.9174716417" lon="32.0542604383"><ele>58.78</ele><time>2026-08-02T16:29:43Z</time></trkpt><trkpt lat="59.9174840469" lon="32.0542618632"><ele>58.78</ele><time>2026-08-02T16:30:07Z</time></trkpt><trkpt lat="59.9175170716" lon="32.0541913714"><ele>58.78</ele><time>2026-08-02T16:30:35Z</time></trkpt><trkpt lat="59.9175304826" lon="32.0541786309"><ele>57.82</ele><time>2026-08-02T16:30:48Z</time></trkpt><trkpt lat="59.9175630882" lon="32.0541271660"><ele>57.82</ele><time>2026-08-02T16:31:02Z</time></trkpt><trkpt lat="59.9175851326" lon="32.0541007631"><ele>57.82</ele><time>2026-08-02T16:31:13Z</time></trkpt><trkpt lat="59.9176133797" lon="32.0540075563"><ele>57.82</ele><time>2026-08-02T16:31:29Z</time></trkpt><trkpt lat="59.9176254496" lon="32.0539850928"><ele>57.82</ele><time>2026-08-02T16:31:49Z</time></trkpt><trkpt lat="59.9176583905" lon="32.0539850928"><ele>57.82</ele><time>2026-08-02T16:32:05Z</time></trkpt><trkpt lat="59.9176987074" lon="32.0540157706"><ele>57.82</ele><time>2026-08-02T16:32:20Z</time></trkpt><trkpt lat="59.9177179020" lon="32.0540491305"><ele>57.82</ele><time>2026-08-02T16:32:50Z</time></trkpt><trkpt lat="59.9177251942" lon="32.0540528186"><ele>57.82</ele><time>2026-08-02T16:33:06Z</time></trkpt><trkpt lat="59.9177336600" lon="32.0540068019"><ele>57.34</ele><time>2026-08-02T16:33:21Z</time></trkpt><trkpt lat="59.9177400302" lon="32.0539444406"><ele>58.30</ele><time>2026-08-02T16:33:36Z</time></trkpt><trkpt lat="59.9177336600" lon="32.0539095718"><ele>58.30</ele><time>2026-08-02T16:33:54Z</time></trkpt><trkpt lat="59.9177158903" lon="32.0538552571"><ele>58.30</ele><time>2026-08-02T16:34:09Z</time></trkpt><trkpt lat="59.9176951870" lon="32.0537969191"><ele>58.30</ele><time>2026-08-02T16:34:23Z</time></trkpt><trkpt lat="59.9176339991" lon="32.0537162013"><ele>58.30</ele><time>2026-08-02T16:34:56Z</time></trkpt><trkpt lat="59.9176333286" lon="32.0536583662"><ele>58.30</ele><time>2026-08-02T16:35:27Z</time></trkpt><trkpt lat="59.9176356755" lon="32.0536412671"><ele>58.30</ele><time>2026-08-02T16:35:47Z</time></trkpt><trkpt lat="59.9176238570" lon="32.0535849407"><ele>58.30</ele><time>2026-08-02T16:36:01Z</time></trkpt><trkpt lat="59.9176055007" lon="32.0535325538"><ele>58.30</ele><time>2026-08-02T16:36:19Z</time></trkpt><trkpt lat="59.9175921734" lon="32.0533250179"><ele>58.30</ele><time>2026-08-02T16:36:38Z</time></trkpt><trkpt lat="59.9176474940" lon="32.0531071723"><ele>58.30</ele><time>2026-08-02T16:36:55Z</time></trkpt><trkpt lat="59.9176588096" lon="32.0530523546"><ele>58.30</ele><time>2026-08-02T16:37:20Z</time></trkpt><trkpt lat="59.9176591448" lon="32.0530285500"><ele>58.78</ele><time>2026-08-02T16:37:30Z</time></trkpt><trkpt lat="59.9176411238" lon="32.0529921725"><ele>58.78</ele><time>2026-08-02T16:37:43Z</time></trkpt><trkpt lat="59.9176225998" lon="32.0529542863"><ele>58.78</ele><time>2026-08-02T16:37:56Z</time></trkpt><trkpt lat="59.9176050816" lon="32.0529231895"><ele>58.78</ele><time>2026-08-02T16:38:10Z</time></trkpt><trkpt lat="59.9176126253" lon="32.0529047493"><ele>59.26</ele><time>2026-08-02T16:38:27Z</time></trkpt><trkpt lat="59.9176024832" lon="32.0528363530"><ele>59.26</ele><time>2026-08-02T16:38:44Z</time></trkpt><trkpt lat="59.9176411238" lon="32.0526153222"><ele>59.26</ele><time>2026-08-02T16:39:01Z</time></trkpt><trkpt lat="59.9176531099" lon="32.0525418129"><ele>59.26</ele><time>2026-08-02T16:39:19Z</time></trkpt><trkpt lat="59.9176923372" lon="32.0523863286"><ele>59.26</ele><time>2026-08-02T16:39:48Z</time></trkpt><trkpt lat="59.9176934268" lon="32.0523471013"><ele>59.74</ele><time>2026-08-02T16:40:04Z</time></trkpt><trkpt lat="59.9176936783" lon="32.0523073711"><ele>59.74</ele><time>2026-08-02T16:40:18Z</time></trkpt><trkpt lat="59.9177056644" lon="32.0522645395"><ele>59.74</ele><time>2026-08-02T16:40:35Z</time></trkpt><trkpt lat="59.9177342467" lon="32.0522146672"><ele>59.74</ele><time>2026-08-02T16:40:47Z</time></trkpt><trkpt lat="59.9177682772" lon="32.0521715004"><ele>59.74</ele><time>2026-08-02T16:41:01Z</time></trkpt><trkpt lat="59.9177824426" lon="32.0521875098"><ele>59.74</ele><time>2026-08-02T16:41:19Z</time></trkpt><trkpt lat="59.9177945964" lon="32.0521730930"><ele>59.74</ele><time>2026-08-02T16:41:37Z</time></trkpt><trkpt lat="59.9177963566" lon="32.0521454327"><ele>59.74</ele><time>2026-08-02T16:41:55Z</time></trkpt><trkpt lat="59.9178328179" lon="32.0520756952"><ele>58.78</ele><time>2026-08-02T16:42:16Z</time></trkpt><trkpt lat="59.9178670999" lon="32.0520265773"><ele>58.78</ele><time>2026-08-02T16:42:30Z</time></trkpt><trkpt lat="59.9178952631" lon="32.0520137530"><ele>58.78</ele><time>2026-08-02T16:42:44Z</time></trkpt><trkpt lat="59.9179095961" lon="32.0520463586"><ele>58.78</ele><time>2026-08-02T16:43:05Z</time></trkpt><trkpt lat="59.9179209955" lon="32.0520307682"><ele>58.78</ele><time>2026-08-02T16:43:22Z</time></trkpt><trkpt lat="59.9178937543" lon="32.0519412495"><ele>58.78</ele><time>2026-08-02T16:43:33Z</time></trkpt><trkpt lat="59.9178995378" lon="32.0518686622"><ele>59.74</ele><time>2026-08-02T16:43:43Z</time></trkpt><trkpt lat="59.9178882223" lon="32.0517872740"><ele>59.74</ele><time>2026-08-02T16:43:57Z</time></trkpt><trkpt lat="59.9178911559" lon="32.0517167822"><ele>58.78</ele><time>2026-08-02T16:44:23Z</time></trkpt><trkpt lat="59.9178825226" lon="32.0516953245"><ele>58.78</ele><time>2026-08-02T16:44:35Z</time></trkpt><trkpt lat="59.9178637471" lon="32.0516436920"><ele>58.78</ele><time>2026-08-02T16:44:51Z</time></trkpt><trkpt lat="59.9178485759" lon="32.0515879523"><ele>58.78</ele><time>2026-08-02T16:45:10Z</time></trkpt><trkpt lat="59.9178253580" lon="32.0515376609"><ele>58.78</ele><time>2026-08-02T16:45:26Z</time></trkpt><trkpt lat="59.9178002961" lon="32.0514523331"><ele>58.78</ele><time>2026-08-02T16:45:37Z</time></trkpt><trkpt lat="59.9177736416" lon="32.0512676798"><ele>58.78</ele><time>2026-08-02T16:45:50Z</time></trkpt><trkpt lat="59.9177762400" lon="32.0512465574"><ele>58.78</ele><time>2026-08-02T16:46:13Z</time></trkpt><trkpt lat="59.9177627452" lon="32.0511906501"><ele>59.74</ele><time>2026-08-02T16:46:30Z</time></trkpt><trkpt lat="59.9177868851" lon="32.0510713756"><ele>59.74</ele><time>2026-08-02T16:46:51Z</time></trkpt><trkpt lat="59.9177734740" lon="32.0510509238"><ele>60.70</ele><time>2026-08-02T16:47:13Z</time></trkpt><trkpt lat="59.9177354202" lon="32.0510285441"><ele>59.74</ele><time>2026-08-02T16:47:26Z</time></trkpt><trkpt lat="59.9177352525" lon="32.0510304719"><ele>59.74</ele><time>2026-08-02T16:47:48Z</time></trkpt><trkpt lat="59.9177344982" lon="32.0510405302"><ele>59.26</ele><time>2026-08-02T16:48:15Z</time></trkpt><trkpt lat="59.9177323189" lon="32.0510500856"><ele>59.26</ele><time>2026-08-02T16:49:00Z</time></trkpt><trkpt lat="59.9177334923" lon="32.0510464814"><ele>59.26</ele><time>2026-08-02T16:49:27Z</time></trkpt><trkpt lat="59.9177504238" lon="32.0510696992"><ele>59.26</ele><time>2026-08-02T16:50:03Z</time></trkpt><trkpt lat="59.9177507591" lon="32.0510684419"><ele>60.70</ele><time>2026-08-02T16:50:12Z</time></trkpt><trkpt lat="59.9177569617" lon="32.0510624908"><ele>60.70</ele><time>2026-08-02T16:50:38Z</time></trkpt><trkpt lat="59.9177523516" lon="32.0510378480"><ele>60.70</ele><time>2026-08-02T16:51:04Z</time></trkpt><trkpt lat="59.9177558720" lon="32.0509215072"><ele>60.70</ele><time>2026-08-02T16:51:15Z</time></trkpt><trkpt lat="59.9177518487" lon="32.0508528594"><ele>60.70</ele><time>2026-08-02T16:51:27Z</time></trkpt><trkpt lat="59.9177726358" lon="32.0508524403"><ele>60.70</ele><time>2026-08-02T16:51:38Z</time></trkpt><trkpt lat="59.9177911598" lon="32.0508526918"><ele>60.70</ele><time>2026-08-02T16:51:54Z</time></trkpt><trkpt lat="59.9177918304" lon="32.0508558769"><ele>59.26</ele><time>2026-08-02T16:51:56Z</time></trkpt><trkpt lat="59.9178158026" lon="32.0508756582"><ele>59.26</ele><time>2026-08-02T16:52:09Z</time></trkpt><trkpt lat="59.9178515933" lon="32.0507967845"><ele>59.26</ele><time>2026-08-02T16:52:22Z</time></trkpt><trkpt lat="59.9178770743" lon="32.0507887378"><ele>59.26</ele><time>2026-08-02T16:52:35Z</time></trkpt><trkpt lat="59.9178945087" lon="32.0507435594"><ele>59.26</ele><time>2026-08-02T16:52:46Z</time></trkpt><trkpt lat="59.9179091770" lon="32.0506934356"><ele>59.26</ele><time>2026-08-02T16:53:03Z</time></trkpt><trkpt lat="59.9179256056" lon="32.0506257936"><ele>59.26</ele><time>2026-08-02T16:53:24Z</time></trkpt><trkpt lat="59.9178992864" lon="32.0505517814"><ele>59.26</ele><time>2026-08-02T16:53:39Z</time></trkpt><trkpt lat="59.9178914912" lon="32.0504326746"><ele>59.26</ele><time>2026-08-02T16:53:54Z</time></trkpt><trkpt lat="59.9179002084" lon="32.0503944531"><ele>59.26</ele><time>2026-08-02T16:54:14Z</time></trkpt><trkpt lat="59.9178653397" lon="32.0503187645"><ele>59.26</ele><time>2026-08-02T16:54:32Z</time></trkpt><trkpt lat="59.9178073369" lon="32.0502244681"><ele>59.26</ele><time>2026-08-02T16:54:45Z</time></trkpt><trkpt lat="59.9177894834" lon="32.0500948001"><ele>59.26</ele><time>2026-08-02T16:54:59Z</time></trkpt><trkpt lat="59.9177914113" lon="32.0500391442"><ele>60.70</ele><time>2026-08-02T16:55:04Z</time></trkpt><trkpt lat="59.9177401979" lon="32.0499804709"><ele>60.70</ele><time>2026-08-02T16:55:23Z</time></trkpt><trkpt lat="59.9177333247" lon="32.0498830732"><ele>60.70</ele><time>2026-08-02T16:55:35Z</time></trkpt><trkpt lat="59.9177513458" lon="32.0497777127"><ele>60.70</ele><time>2026-08-02T16:55:51Z</time></trkpt><trkpt lat="59.9177570455" lon="32.0497202128"><ele>60.70</ele><time>2026-08-02T16:56:07Z</time></trkpt><trkpt lat="59.9177655950" lon="32.0496630482"><ele>60.70</ele><time>2026-08-02T16:56:26Z</time></trkpt><trkpt lat="59.9177761562" lon="32.0495891199"><ele>60.70</ele><time>2026-08-02T16:56:40Z</time></trkpt><trkpt lat="59.9177810177" lon="32.0495586097"><ele>60.70</ele><time>2026-08-02T16:57:00Z</time></trkpt><trkpt lat="59.9177878909" lon="32.0495335478"><ele>60.70</ele><time>2026-08-02T16:57:15Z</time></trkpt><trkpt lat="59.9178043194" lon="32.0493259281"><ele>60.70</ele><time>2026-08-02T16:57:29Z</time></trkpt><trkpt lat="59.9178597238" lon="32.0492221601"><ele>60.70</ele><time>2026-08-02T16:57:53Z</time></trkpt><trkpt lat="59.9179110210" lon="32.0490955096"><ele>59.26</ele><time>2026-08-02T16:58:21Z</time></trkpt><trkpt lat="59.9179078359" lon="32.0490912348"><ele>59.26</ele><time>2026-08-02T16:58:50Z</time></trkpt><trkpt lat="59.9178985320" lon="32.0490485709"><ele>59.26</ele><time>2026-08-02T16:59:08Z</time></trkpt><trkpt lat="59.9179007113" lon="32.0490272809"><ele>60.70</ele><time>2026-08-02T16:59:27Z</time></trkpt><trkpt lat="59.9178976100" lon="32.0489830244"><ele>60.70</ele><time>2026-08-02T16:59:40Z</time></trkpt><trkpt lat="59.9178677704" lon="32.0489468984"><ele>59.26</ele><time>2026-08-02T16:59:59Z</time></trkpt><trkpt lat="59.9178380147" lon="32.0488903206"><ele>59.26</ele><time>2026-08-02T17:00:14Z</time></trkpt><trkpt lat="59.9178339075" lon="32.0488929190"><ele>60.22</ele><time>2026-08-02T17:00:18Z</time></trkpt><trkpt lat="59.9178287107" lon="32.0488189906"><ele>60.22</ele><time>2026-08-02T17:00:36Z</time></trkpt><trkpt lat="59.9178117793" lon="32.0487650111"><ele>60.22</ele><time>2026-08-02T17:00:50Z</time></trkpt><trkpt lat="59.9178235978" lon="32.0487536117"><ele>60.22</ele><time>2026-08-02T17:01:01Z</time></trkpt><trkpt lat="59.9178441335" lon="32.0487692859"><ele>60.22</ele><time>2026-08-02T17:01:14Z</time></trkpt><trkpt lat="59.9178553652" lon="32.0487804338"><ele>60.22</ele><time>2026-08-02T17:01:36Z</time></trkpt><trkpt lat="59.9178681057" lon="32.0487884805"><ele>60.22</ele><time>2026-08-02T17:02:07Z</time></trkpt><trkpt lat="59.9178790860" lon="32.0487390272"><ele>60.22</ele><time>2026-08-02T17:02:32Z</time></trkpt><trkpt lat="59.9178527668" lon="32.0487095229"><ele>60.22</ele><time>2026-08-02T17:02:47Z</time></trkpt><trkpt lat="59.9178415351" lon="32.0486729778"><ele>60.22</ele><time>2026-08-02T17:03:07Z</time></trkpt><trkpt lat="59.9178199098" lon="32.0486282185"><ele>60.22</ele><time>2026-08-02T17:03:37Z</time></trkpt><trkpt lat="59.9178107735" lon="32.0485813636"><ele>60.22</ele><time>2026-08-02T17:04:02Z</time></trkpt><trkpt lat="59.9178020563" lon="32.0485879015"><ele>59.26</ele><time>2026-08-02T17:04:33Z</time></trkpt><trkpt lat="59.9178078398" lon="32.0485823695"><ele>59.26</ele><time>2026-08-02T17:04:51Z</time></trkpt><trkpt lat="59.9178152997" lon="32.0485526975"><ele>59.26</ele><time>2026-08-02T17:05:15Z</time></trkpt><trkpt lat="59.9178216700" lon="32.0485323295"><ele>60.70</ele><time>2026-08-02T17:05:24Z</time></trkpt><trkpt lat="59.9178024754" lon="32.0485144760"><ele>60.70</ele><time>2026-08-02T17:05:42Z</time></trkpt><trkpt lat="59.9177877232" lon="32.0485092793"><ele>60.70</ele><time>2026-08-02T17:05:56Z</time></trkpt><trkpt lat="59.9177624099" lon="32.0484932698"><ele>60.70</ele><time>2026-08-02T17:06:14Z</time></trkpt><trkpt lat="59.9177702889" lon="32.0484655257"><ele>60.70</ele><time>2026-08-02T17:06:27Z</time></trkpt><trkpt lat="59.9177661818" lon="32.0484645199"><ele>59.26</ele><time>2026-08-02T17:06:42Z</time></trkpt><trkpt lat="59.9177817721" lon="32.0484154858"><ele>59.26</ele><time>2026-08-02T17:07:05Z</time></trkpt><trkpt lat="59.9178010505" lon="32.0484096184"><ele>59.26</ele><time>2026-08-02T17:07:32Z</time></trkpt><trkpt lat="59.9177932553" lon="32.0484322496"><ele>59.26</ele><time>2026-08-02T17:07:48Z</time></trkpt><trkpt lat="59.9177501723" lon="32.0484751649"><ele>59.26</ele><time>2026-08-02T17:07:59Z</time></trkpt><trkpt lat="59.9177389406" lon="32.0484666992"><ele>58.30</ele><time>2026-08-02T17:08:19Z</time></trkpt><trkpt lat="59.9177338276" lon="32.0484581497"><ele>57.82</ele><time>2026-08-02T17:08:53Z</time></trkpt><trkpt lat="59.9177308939" lon="32.0484584011"><ele>57.82</ele><time>2026-08-02T17:09:16Z</time></trkpt><trkpt lat="59.9177250266" lon="32.0484743267"><ele>57.82</ele><time>2026-08-02T17:09:36Z</time></trkpt><trkpt lat="59.9177132081" lon="32.0485034958"><ele>57.82</ele><time>2026-08-02T17:10:04Z</time></trkpt><trkpt lat="59.9177132919" lon="32.0485259593"><ele>57.82</ele><time>2026-08-02T17:10:30Z</time></trkpt><trkpt lat="59.9177085143" lon="32.0485504344"><ele>57.82</ele><time>2026-08-02T17:10:58Z</time></trkpt><trkpt lat="59.9176960252" lon="32.0485429745"><ele>57.82</ele><time>2026-08-02T17:11:16Z</time></trkpt><trkpt lat="59.9176888168" lon="32.0485345926"><ele>59.26</ele><time>2026-08-02T17:11:32Z</time></trkpt><trkpt lat="59.9176809378" lon="32.0485339221"><ele>59.26</ele><time>2026-08-02T17:11:56Z</time></trkpt><trkpt lat="59.9176776689" lon="32.0485285576"><ele>58.30</ele><time>2026-08-02T17:12:09Z</time></trkpt><trkpt lat="59.9176775012" lon="32.0485325810"><ele>58.30</ele><time>2026-08-02T17:12:32Z</time></trkpt><trkpt lat="59.9176769145" lon="32.0485480875"><ele>58.30</ele><time>2026-08-02T17:13:05Z</time></trkpt><trkpt lat="59.9176795967" lon="32.0485394541"><ele>57.82</ele><time>2026-08-02T17:13:22Z</time></trkpt><trkpt lat="59.9176803511" lon="32.0485365205"><ele>57.82</ele><time>2026-08-02T17:13:47Z</time></trkpt><trkpt lat="59.9176846258" lon="32.0485286415"><ele>57.82</ele><time>2026-08-02T17:14:16Z</time></trkpt><trkpt lat="59.9176806025" lon="32.0485273842"><ele>57.34</ele><time>2026-08-02T17:14:37Z</time></trkpt><trkpt lat="59.9176537804" lon="32.0485106204"><ele>57.34</ele><time>2026-08-02T17:14:52Z</time></trkpt><trkpt lat="59.9176279642" lon="32.0484906714"><ele>58.78</ele><time>2026-08-02T17:14:56Z</time></trkpt><trkpt lat="59.9175557960" lon="32.0484742429"><ele>59.26</ele><time>2026-08-02T17:15:10Z</time></trkpt><trkpt lat="59.9175013974" lon="32.0485033281"><ele>59.26</ele><time>2026-08-02T17:15:22Z</time></trkpt><trkpt lat="59.9174928479" lon="32.0484980475"><ele>59.26</ele><time>2026-08-02T17:15:43Z</time></trkpt><trkpt lat="59.9174936861" lon="32.0485045854"><ele>59.26</ele><time>2026-08-02T17:15:56Z</time></trkpt><trkpt lat="59.9174908362" lon="32.0485049207"><ele>59.26</ele><time>2026-08-02T17:16:14Z</time></trkpt><trkpt lat="59.9174869806" lon="32.0485059265"><ele>59.26</ele><time>2026-08-02T17:16:32Z</time></trkpt><trkpt lat="59.9174814485" lon="32.0485224389"><ele>59.26</ele><time>2026-08-02T17:17:03Z</time></trkpt><trkpt lat="59.9174713902" lon="32.0485382807"><ele>59.26</ele><time>2026-08-02T17:17:31Z</time></trkpt><trkpt lat="59.9174728990" lon="32.0485345088"><ele>59.26</ele><time>2026-08-02T17:17:55Z</time></trkpt><trkpt lat="59.9174688756" lon="32.0485301502"><ele>59.26</ele><time>2026-08-02T17:18:18Z</time></trkpt><trkpt lat="59.9174681213" lon="32.0485273004"><ele>59.26</ele><time>2026-08-02T17:18:34Z</time></trkpt><trkpt lat="59.9174702168" lon="32.0485172421"><ele>57.82</ele><time>2026-08-02T17:18:52Z</time></trkpt><trkpt lat="59.9174088612" lon="32.0485208463"><ele>57.82</ele><time>2026-08-02T17:19:07Z</time></trkpt><trkpt lat="59.9173383694" lon="32.0485477522"><ele>57.82</ele><time>2026-08-02T17:19:16Z</time></trkpt><trkpt lat="59.9171633553" lon="32.0485938527"><ele>57.82</ele><time>2026-08-02T17:19:35Z</time></trkpt><trkpt lat="59.9170079548" lon="32.0486010611"><ele>57.82</ele><time>2026-08-02T17:19:50Z</time></trkpt><trkpt lat="59.9168672226" lon="32.0486502629"><ele>58.78</ele><time>2026-08-02T17:20:03Z</time></trkpt><trkpt lat="59.9168393947" lon="32.0486594830"><ele>58.78</ele><time>2026-08-02T17:20:06Z</time></trkpt><trkpt lat="59.9167420808" lon="32.0486777555"><ele>58.78</ele><time>2026-08-02T17:20:16Z</time></trkpt><trkpt lat="59.9165812321" lon="32.0487190783"><ele>57.82</ele><time>2026-08-02T17:20:31Z</time></trkpt><trkpt lat="59.9165140092" lon="32.0487459004"><ele>57.82</ele><time>2026-08-02T17:20:38Z</time></trkpt><trkpt lat="59.9164400809" lon="32.0487768296"><ele>58.78</ele><time>2026-08-02T17:20:46Z</time></trkpt><trkpt lat="59.9163951539" lon="32.0487916656"><ele>58.78</ele><time>2026-08-02T17:20:50Z</time></trkpt><trkpt lat="59.9162500631" lon="32.0488013886"><ele>58.78</ele><time>2026-08-02T17:21:09Z</time></trkpt><trkpt lat="59.9162292760" lon="32.0487886481"><ele>58.78</ele><time>2026-08-02T17:21:35Z</time></trkpt><trkpt lat="59.9162188824" lon="32.0487729739"><ele>58.78</ele><time>2026-08-02T17:22:00Z</time></trkpt><trkpt lat="59.9162073154" lon="32.0487702917"><ele>58.78</ele><time>2026-08-02T17:22:27Z</time></trkpt><trkpt lat="59.9161972571" lon="32.0487694535"><ele>58.78</ele><time>2026-08-02T17:23:00Z</time></trkpt><trkpt lat="59.9161954969" lon="32.0487744827"><ele>58.78</ele><time>2026-08-02T17:23:31Z</time></trkpt><trkpt lat="59.9161082413" lon="32.0488287974"><ele>58.78</ele><time>2026-08-02T17:23:45Z</time></trkpt><trkpt lat="59.9160214886" lon="32.0488599781"><ele>58.78</ele><time>2026-08-02T17:23:55Z</time></trkpt><trkpt lat="59.9158428703" lon="32.0488918293"><ele>57.82</ele><time>2026-08-02T17:24:12Z</time></trkpt><trkpt lat="59.9157048203" lon="32.0489341579"><ele>57.82</ele><time>2026-08-02T17:24:26Z</time></trkpt><trkpt lat="59.9155507609" lon="32.0489798393"><ele>57.82</ele><time>2026-08-02T17:24:43Z</time></trkpt><trkpt lat="59.9154065922" lon="32.0490293764"><ele>57.82</ele><time>2026-08-02T17:24:59Z</time></trkpt><trkpt lat="59.9152421393" lon="32.0490703639"><ele>58.78</ele><time>2026-08-02T17:25:15Z</time></trkpt><trkpt lat="59.9150760099" lon="32.0491412748"><ele>58.78</ele><time>2026-08-02T17:25:29Z</time></trkpt><trkpt lat="59.9149804562" lon="32.0491217449"><ele>58.78</ele><time>2026-08-02T17:25:34Z</time></trkpt><trkpt lat="59.9148175120" lon="32.0491553564"><ele>59.26</ele><time>2026-08-02T17:25:49Z</time></trkpt><trkpt lat="59.9146036897" lon="32.0491889678"><ele>59.26</ele><time>2026-08-02T17:26:09Z</time></trkpt><trkpt lat="59.9143985845" lon="32.0492464676"><ele>59.74</ele><time>2026-08-02T17:26:27Z</time></trkpt><trkpt lat="59.9143677391" lon="32.0492604654"><ele>59.74</ele><time>2026-08-02T17:26:30Z</time></trkpt><trkpt lat="59.9142715149" lon="32.0492601302"><ele>59.74</ele><time>2026-08-02T17:26:39Z</time></trkpt><trkpt lat="59.9140764680" lon="32.0493061468"><ele>59.74</ele><time>2026-08-02T17:26:57Z</time></trkpt><trkpt lat="59.9139169604" lon="32.0493523311"><ele>59.74</ele><time>2026-08-02T17:27:12Z</time></trkpt><trkpt lat="59.9138259329" lon="32.0493749622"><ele>59.74</ele><time>2026-08-02T17:27:20Z</time></trkpt><trkpt lat="59.9136266112" lon="32.0494156145"><ele>59.74</ele><time>2026-08-02T17:27:37Z</time></trkpt><trkpt lat="59.9134562071" lon="32.0494564343"><ele>59.74</ele><time>2026-08-02T17:27:53Z</time></trkpt><trkpt lat="59.9132749904" lon="32.0495040435"><ele>59.74</ele><time>2026-08-02T17:28:10Z</time></trkpt><trkpt lat="59.9130598269" lon="32.0495664887"><ele>59.74</ele><time>2026-08-02T17:28:29Z</time></trkpt><trkpt lat="59.9128393829" lon="32.0496422611"><ele>59.74</ele><time>2026-08-02T17:28:49Z</time></trkpt><trkpt lat="59.9127744231" lon="32.0496544987"><ele>59.74</ele><time>2026-08-02T17:28:55Z</time></trkpt><trkpt lat="59.9127222039" lon="32.0496656466"><ele>59.74</ele><time>2026-08-02T17:29:00Z</time></trkpt><trkpt lat="59.9126566574" lon="32.0496761240"><ele>60.22</ele><time>2026-08-02T17:29:07Z</time></trkpt><trkpt lat="59.9125963077" lon="32.0496891160"><ele>60.22</ele><time>2026-08-02T17:29:13Z</time></trkpt><trkpt lat="59.9124799669" lon="32.0497124176"><ele>60.22</ele><time>2026-08-02T17:29:27Z</time></trkpt><trkpt lat="59.9124870915" lon="32.0497418381"><ele>58.78</ele><time>2026-08-02T17:29:40Z</time></trkpt><trkpt lat="59.9123179447" lon="32.0497434307"><ele>58.78</ele><time>2026-08-02T17:29:57Z</time></trkpt><trkpt lat="59.9121657293" lon="32.0497881062"><ele>58.30</ele><time>2026-08-02T17:30:12Z</time></trkpt><trkpt lat="59.9120151903" lon="32.0498242322"><ele>58.30</ele><time>2026-08-02T17:30:27Z</time></trkpt><trkpt lat="59.9118716083" lon="32.0498510543"><ele>58.30</ele><time>2026-08-02T17:30:42Z</time></trkpt><trkpt lat="59.9116855301" lon="32.0498952270"><ele>58.30</ele><time>2026-08-02T17:30:59Z</time></trkpt><trkpt lat="59.9114963505" lon="32.0499363821"><ele>58.30</ele><time>2026-08-02T17:31:17Z</time></trkpt><trkpt lat="59.9113119487" lon="32.0499788783"><ele>58.30</ele><time>2026-08-02T17:31:33Z</time></trkpt><trkpt lat="59.9111355096" lon="32.0500227995"><ele>58.30</ele><time>2026-08-02T17:31:49Z</time></trkpt><trkpt lat="59.9109777622" lon="32.0500724204"><ele>58.30</ele><time>2026-08-02T17:32:05Z</time></trkpt><trkpt lat="59.9109580647" lon="32.0500740130"><ele>58.30</ele><time>2026-08-02T17:32:07Z</time></trkpt><trkpt lat="59.9109320808" lon="32.0500823110"><ele>58.30</ele><time>2026-08-02T17:32:09Z</time></trkpt><trkpt lat="59.9108853098" lon="32.0500932075"><ele>58.30</ele><time>2026-08-02T17:32:13Z</time></trkpt><trkpt lat="59.9106708169" lon="32.0501368772"><ele>58.30</ele><time>2026-08-02T17:32:32Z</time></trkpt><trkpt lat="59.9104937911" lon="32.0501954667"><ele>58.30</ele><time>2026-08-02T17:32:48Z</time></trkpt><trkpt lat="59.9104626104" lon="32.0502082072"><ele>58.30</ele><time>2026-08-02T17:32:51Z</time></trkpt><trkpt lat="59.9103592616" lon="32.0502195228"><ele>58.30</ele><time>2026-08-02T17:33:04Z</time></trkpt><trkpt lat="59.9101849180" lon="32.0502901822"><ele>58.30</ele><time>2026-08-02T17:33:21Z</time></trkpt><trkpt lat="59.9100562558" lon="32.0502421539"><ele>58.30</ele><time>2026-08-02T17:33:34Z</time></trkpt><trkpt lat="59.9100467004" lon="32.0501792058"><ele>58.30</ele><time>2026-08-02T17:33:38Z</time></trkpt><trkpt lat="59.9100134242" lon="32.0498822350"><ele>58.30</ele><time>2026-08-02T17:33:54Z</time></trkpt><trkpt lat="59.9099713471" lon="32.0495379064"><ele>58.30</ele><time>2026-08-02T17:34:11Z</time></trkpt><trkpt lat="59.9099460337" lon="32.0491709467"><ele>58.30</ele><time>2026-08-02T17:34:27Z</time></trkpt><trkpt lat="59.9099204689" lon="32.0488763228"><ele>58.30</ele><time>2026-08-02T17:34:40Z</time></trkpt><trkpt lat="59.9098810740" lon="32.0484927669"><ele>58.30</ele><time>2026-08-02T17:34:57Z</time></trkpt><trkpt lat="59.9098609574" lon="32.0481202751"><ele>58.30</ele><time>2026-08-02T17:35:14Z</time></trkpt><trkpt lat="59.9098372366" lon="32.0478088874"><ele>58.30</ele><time>2026-08-02T17:35:29Z</time></trkpt><trkpt lat="59.9098357279" lon="32.0475923829"><ele>58.30</ele><time>2026-08-02T17:35:45Z</time></trkpt><trkpt lat="59.9098026194" lon="32.0472930651"><ele>58.30</ele><time>2026-08-02T17:36:00Z</time></trkpt><trkpt lat="59.9097726960" lon="32.0468866266"><ele>58.30</ele><time>2026-08-02T17:36:18Z</time></trkpt><trkpt lat="59.9097431079" lon="32.0465827826"><ele>58.30</ele><time>2026-08-02T17:36:32Z</time></trkpt><trkpt lat="59.9097265955" lon="32.0462345146"><ele>58.30</ele><time>2026-08-02T17:36:48Z</time></trkpt><trkpt lat="59.9096924812" lon="32.0458603464"><ele>58.30</ele><time>2026-08-02T17:37:06Z</time></trkpt><trkpt lat="59.9096913077" lon="32.0457304269"><ele>58.30</ele><time>2026-08-02T17:37:19Z</time></trkpt><trkpt lat="59.9096962530" lon="32.0457262360"><ele>58.30</ele><time>2026-08-02T17:37:37Z</time></trkpt><trkpt lat="59.9096941575" lon="32.0456656348"><ele>58.30</ele><time>2026-08-02T17:37:40Z</time></trkpt><trkpt lat="59.9096868653" lon="32.0455746073"><ele>58.30</ele><time>2026-08-02T17:37:44Z</time></trkpt><trkpt lat="59.9096508231" lon="32.0451306179"><ele>59.74</ele><time>2026-08-02T17:38:03Z</time></trkpt><trkpt lat="59.9096426927" lon="32.0448059868"><ele>59.74</ele><time>2026-08-02T17:38:17Z</time></trkpt><trkpt lat="59.9096357357" lon="32.0446608122"><ele>59.74</ele><time>2026-08-02T17:38:24Z</time></trkpt><trkpt lat="59.9096012022" lon="32.0443487540"><ele>59.74</ele><time>2026-08-02T17:38:38Z</time></trkpt><trkpt lat="59.9095948320" lon="32.0442784298"><ele>59.74</ele><time>2026-08-02T17:38:43Z</time></trkpt><trkpt lat="59.9095732067" lon="32.0441348478"><ele>59.74</ele><time>2026-08-02T17:38:56Z</time></trkpt><trkpt lat="59.9095581193" lon="32.0440553874"><ele>59.74</ele><time>2026-08-02T17:39:06Z</time></trkpt><trkpt lat="59.9095499050" lon="32.0439583249"><ele>59.74</ele><time>2026-08-02T17:39:13Z</time></trkpt><trkpt lat="59.9095370807" lon="32.0437836461"><ele>59.74</ele><time>2026-08-02T17:39:21Z</time></trkpt><trkpt lat="59.9095061515" lon="32.0434273314"><ele>59.74</ele><time>2026-08-02T17:39:37Z</time></trkpt><trkpt lat="59.9095010385" lon="32.0434033591"><ele>59.74</ele><time>2026-08-02T17:39:39Z</time></trkpt><trkpt lat="59.9095026311" lon="32.0433713403"><ele>59.74</ele><time>2026-08-02T17:39:41Z</time></trkpt><trkpt lat="59.9094947521" lon="32.0432806481"><ele>59.74</ele><time>2026-08-02T17:39:45Z</time></trkpt><trkpt lat="59.9094890524" lon="32.0432126708"><ele>59.74</ele><time>2026-08-02T17:39:48Z</time></trkpt><trkpt lat="59.9094883818" lon="32.0431058016"><ele>59.74</ele><time>2026-08-02T17:39:53Z</time></trkpt><trkpt lat="59.9094851129" lon="32.0427808352"><ele>59.74</ele><time>2026-08-02T17:40:08Z</time></trkpt><trkpt lat="59.9094877113" lon="32.0427064877"><ele>59.74</ele><time>2026-08-02T17:40:13Z</time></trkpt><trkpt lat="59.9094795808" lon="32.0426494069"><ele>59.74</ele><time>2026-08-02T17:40:16Z</time></trkpt><trkpt lat="59.9094462208" lon="32.0422852132"><ele>59.74</ele><time>2026-08-02T17:40:33Z</time></trkpt><trkpt lat="59.9094192311" lon="32.0418797806"><ele>59.74</ele><time>2026-08-02T17:40:50Z</time></trkpt><trkpt lat="59.9094068259" lon="32.0417600870"><ele>59.74</ele><time>2026-08-02T17:40:55Z</time></trkpt><trkpt lat="59.9094033893" lon="32.0416367892"><ele>59.74</ele><time>2026-08-02T17:41:01Z</time></trkpt><trkpt lat="59.9093685206" lon="32.0412973221"><ele>59.74</ele><time>2026-08-02T17:41:17Z</time></trkpt><trkpt lat="59.9093644973" lon="32.0412911195"><ele>59.74</ele><time>2026-08-02T17:41:20Z</time></trkpt><trkpt lat="59.9093616474" lon="32.0412485395"><ele>59.74</ele><time>2026-08-02T17:41:22Z</time></trkpt><trkpt lat="59.9093582947" lon="32.0408924762"><ele>59.74</ele><time>2026-08-02T17:41:38Z</time></trkpt><trkpt lat="59.9093482364" lon="32.0405032206"><ele>59.74</ele><time>2026-08-02T17:41:56Z</time></trkpt><trkpt lat="59.9093551934" lon="32.0404206589"><ele>59.74</ele><time>2026-08-02T17:42:02Z</time></trkpt><trkpt lat="59.9093534332" lon="32.0403779950"><ele>59.74</ele><time>2026-08-02T17:42:04Z</time></trkpt><trkpt lat="59.9093225040" lon="32.0400058385"><ele>59.74</ele><time>2026-08-02T17:42:21Z</time></trkpt><trkpt lat="59.9093093444" lon="32.0398340095"><ele>59.74</ele><time>2026-08-02T17:42:34Z</time></trkpt><trkpt lat="59.9093057401" lon="32.0397899207"><ele>59.74</ele><time>2026-08-02T17:42:36Z</time></trkpt><trkpt lat="59.9092760682" lon="32.0394086279"><ele>59.74</ele><time>2026-08-02T17:42:54Z</time></trkpt><trkpt lat="59.9092401098" lon="32.0390389860"><ele>60.22</ele><time>2026-08-02T17:43:12Z</time></trkpt><trkpt lat="59.9092266150" lon="32.0388570987"><ele>60.22</ele><time>2026-08-02T17:43:26Z</time></trkpt><trkpt lat="59.9092255253" lon="32.0388374012"><ele>60.22</ele><time>2026-08-02T17:43:27Z</time></trkpt><trkpt lat="59.9092232622" lon="32.0387926418"><ele>60.22</ele><time>2026-08-02T17:43:29Z</time></trkpt><trkpt lat="59.9092177302" lon="32.0386865269"><ele>60.22</ele><time>2026-08-02T17:43:34Z</time></trkpt><trkpt lat="59.9092108570" lon="32.0385951642"><ele>60.22</ele><time>2026-08-02T17:43:38Z</time></trkpt><trkpt lat="59.9091691151" lon="32.0382501651"><ele>60.22</ele><time>2026-08-02T17:43:54Z</time></trkpt><trkpt lat="59.9091303069" lon="32.0378327463"><ele>60.22</ele><time>2026-08-02T17:44:12Z</time></trkpt><trkpt lat="59.9091084301" lon="32.0374810416"><ele>60.22</ele><time>2026-08-02T17:44:28Z</time></trkpt><trkpt lat="59.9090984557" lon="32.0372968912"><ele>60.22</ele><time>2026-08-02T17:44:37Z</time></trkpt><trkpt lat="59.9090947676" lon="32.0372567419"><ele>60.22</ele><time>2026-08-02T17:44:39Z</time></trkpt><trkpt lat="59.9090992101" lon="32.0371390600"><ele>60.22</ele><time>2026-08-02T17:44:45Z</time></trkpt><trkpt lat="59.9090644252" lon="32.0368048735"><ele>60.22</ele><time>2026-08-02T17:45:00Z</time></trkpt><trkpt lat="59.9090313166" lon="32.0364466310"><ele>60.22</ele><time>2026-08-02T17:45:17Z</time></trkpt><trkpt lat="59.9090031534" lon="32.0361359138"><ele>60.22</ele><time>2026-08-02T17:45:33Z</time></trkpt><trkpt lat="59.9089999683" lon="32.0358312316"><ele>60.70</ele><time>2026-08-02T17:45:47Z</time></trkpt><trkpt lat="59.9089790974" lon="32.0354364440"><ele>60.70</ele><time>2026-08-02T17:46:05Z</time></trkpt><trkpt lat="59.9089806061" lon="32.0354187582"><ele>60.70</ele><time>2026-08-02T17:46:06Z</time></trkpt><trkpt lat="59.9089817796" lon="32.0353818778"><ele>60.70</ele><time>2026-08-02T17:46:08Z</time></trkpt><trkpt lat="59.9089657702" lon="32.0350925345"><ele>60.70</ele><time>2026-08-02T17:46:24Z</time></trkpt><trkpt lat="59.9089311529" lon="32.0347248204"><ele>60.70</ele><time>2026-08-02T17:46:41Z</time></trkpt><trkpt lat="59.9089213461" lon="32.0346311945"><ele>60.70</ele><time>2026-08-02T17:46:46Z</time></trkpt><trkpt lat="59.9089096114" lon="32.0345365629"><ele>60.70</ele><time>2026-08-02T17:46:50Z</time></trkpt><trkpt lat="59.9088742398" lon="32.0341382548"><ele>60.22</ele><time>2026-08-02T17:47:09Z</time></trkpt><trkpt lat="59.9088476691" lon="32.0337601472"><ele>60.22</ele><time>2026-08-02T17:47:27Z</time></trkpt><trkpt lat="59.9088412151" lon="32.0336051658"><ele>60.22</ele><time>2026-08-02T17:47:36Z</time></trkpt><trkpt lat="59.9088323303" lon="32.0334956143"><ele>60.22</ele><time>2026-08-02T17:47:42Z</time></trkpt><trkpt lat="59.9088283908" lon="32.0334315766"><ele>60.22</ele><time>2026-08-02T17:47:45Z</time></trkpt><trkpt lat="59.9088107888" lon="32.0330869965"><ele>60.22</ele><time>2026-08-02T17:48:02Z</time></trkpt><trkpt lat="59.9087885767" lon="32.0327481162"><ele>60.22</ele><time>2026-08-02T17:48:18Z</time></trkpt><trkpt lat="59.9087765068" lon="32.0326796360"><ele>60.22</ele><time>2026-08-02T17:48:21Z</time></trkpt><trkpt lat="59.9087504391" lon="32.0323392469"><ele>60.22</ele><time>2026-08-02T17:48:37Z</time></trkpt><trkpt lat="59.9087211862" lon="32.0319758076"><ele>60.22</ele><time>2026-08-02T17:48:54Z</time></trkpt><trkpt lat="59.9086998962" lon="32.0316365920"><ele>60.22</ele><time>2026-08-02T17:49:11Z</time></trkpt><trkpt lat="59.9086858984" lon="32.0314116217"><ele>60.22</ele><time>2026-08-02T17:49:21Z</time></trkpt><trkpt lat="59.9086571485" lon="32.0310506970"><ele>60.22</ele><time>2026-08-02T17:49:38Z</time></trkpt><trkpt lat="59.9086371996" lon="32.0308118127"><ele>60.22</ele><time>2026-08-02T17:49:49Z</time></trkpt><trkpt lat="59.9086094555" lon="32.0304652210"><ele>60.22</ele><time>2026-08-02T17:50:05Z</time></trkpt><trkpt lat="59.9086073600" lon="32.0302731078"><ele>60.22</ele><time>2026-08-02T17:50:14Z</time></trkpt><trkpt lat="59.9085921049" lon="32.0301499777"><ele>60.22</ele><time>2026-08-02T17:50:20Z</time></trkpt><trkpt lat="59.9085862376" lon="32.0301086549"><ele>60.22</ele><time>2026-08-02T17:50:22Z</time></trkpt><trkpt lat="59.9085793644" lon="32.0299908891"><ele>60.22</ele><time>2026-08-02T17:50:27Z</time></trkpt><trkpt lat="59.9085505307" lon="32.0296766516"><ele>60.22</ele><time>2026-08-02T17:50:41Z</time></trkpt><trkpt lat="59.9085386284" lon="32.0295603108"><ele>60.22</ele><time>2026-08-02T17:50:46Z</time></trkpt><trkpt lat="59.9085345212" lon="32.0294408686"><ele>60.22</ele><time>2026-08-02T17:50:52Z</time></trkpt><trkpt lat="59.9085277319" lon="32.0291967876"><ele>61.18</ele><time>2026-08-02T17:51:09Z</time></trkpt><trkpt lat="59.9085289054" lon="32.0291733183"><ele>61.18</ele><time>2026-08-02T17:51:12Z</time></trkpt><trkpt lat="59.9085229542" lon="32.0291352645"><ele>61.18</ele><time>2026-08-02T17:51:14Z</time></trkpt><trkpt lat="59.9085115548" lon="32.0290744118"><ele>61.18</ele><time>2026-08-02T17:51:17Z</time></trkpt><trkpt lat="59.9084952939" lon="32.0286626089"><ele>61.66</ele><time>2026-08-02T17:51:35Z</time></trkpt><trkpt lat="59.9084782787" lon="32.0282544941"><ele>61.66</ele><time>2026-08-02T17:51:52Z</time></trkpt><trkpt lat="59.9084364530" lon="32.0278322138"><ele>61.66</ele><time>2026-08-02T17:52:11Z</time></trkpt><trkpt lat="59.9084056914" lon="32.0274821855"><ele>61.66</ele><time>2026-08-02T17:52:27Z</time></trkpt><trkpt lat="59.9084083736" lon="32.0272865519"><ele>61.66</ele><time>2026-08-02T17:52:40Z</time></trkpt><trkpt lat="59.9084089603" lon="32.0272614062"><ele>61.66</ele><time>2026-08-02T17:52:43Z</time></trkpt><trkpt lat="59.9083494488" lon="32.0268743299"><ele>61.66</ele><time>2026-08-02T17:53:01Z</time></trkpt><trkpt lat="59.9083427433" lon="32.0267387107"><ele>60.70</ele><time>2026-08-02T17:53:07Z</time></trkpt><trkpt lat="59.9081668910" lon="32.0265766047"><ele>60.70</ele><time>2026-08-02T17:53:25Z</time></trkpt><trkpt lat="59.9080378935" lon="32.0265595056"><ele>62.14</ele><time>2026-08-02T17:53:39Z</time></trkpt><trkpt lat="59.9079962354" lon="32.0265606791"><ele>62.14</ele><time>2026-08-02T17:53:43Z</time></trkpt><trkpt lat="59.9078062177" lon="32.0265497826"><ele>62.14</ele><time>2026-08-02T17:54:00Z</time></trkpt><trkpt lat="59.9076001905" lon="32.0265235472"><ele>62.14</ele><time>2026-08-02T17:54:19Z</time></trkpt><trkpt lat="59.9075913057" lon="32.0265288278"><ele>62.14</ele><time>2026-08-02T17:54:20Z</time></trkpt><trkpt lat="59.9073586240" lon="32.0265351143"><ele>62.14</ele><time>2026-08-02T17:54:39Z</time></trkpt><trkpt lat="59.9071828555" lon="32.0265245531"><ele>62.62</ele><time>2026-08-02T17:54:54Z</time></trkpt><trkpt lat="59.9069918320" lon="32.0265184343"><ele>62.62</ele><time>2026-08-02T17:55:11Z</time></trkpt><trkpt lat="59.9069792591" lon="32.0265199430"><ele>62.62</ele><time>2026-08-02T17:55:21Z</time></trkpt><trkpt lat="59.9069594778" lon="32.0265100524"><ele>62.62</ele><time>2026-08-02T17:55:23Z</time></trkpt><trkpt lat="59.9067801051" lon="32.0265183505"><ele>62.62</ele><time>2026-08-02T17:55:40Z</time></trkpt><trkpt lat="59.9066070188" lon="32.0265196916"><ele>62.62</ele><time>2026-08-02T17:55:56Z</time></trkpt><trkpt lat="59.9064453319" lon="32.0264965575"><ele>63.10</ele><time>2026-08-02T17:56:11Z</time></trkpt><trkpt lat="59.9063014984" lon="32.0264908578"><ele>63.10</ele><time>2026-08-02T17:56:24Z</time></trkpt><trkpt lat="59.9062768556" lon="32.0265029278"><ele>63.10</ele><time>2026-08-02T17:56:26Z</time></trkpt><trkpt lat="59.9062429927" lon="32.0264972281"><ele>63.10</ele><time>2026-08-02T17:56:29Z</time></trkpt><trkpt lat="59.9061776139" lon="32.0264975633"><ele>63.10</ele><time>2026-08-02T17:56:35Z</time></trkpt><trkpt lat="59.9059969839" lon="32.0264810510"><ele>63.58</ele><time>2026-08-02T17:56:51Z</time></trkpt><trkpt lat="59.9059086386" lon="32.0265123155"><ele>64.07</ele><time>2026-08-02T17:57:01Z</time></trkpt><trkpt lat="59.9058834929" lon="32.0265005808"><ele>64.07</ele><time>2026-08-02T17:57:04Z</time></trkpt><trkpt lat="59.9057250749" lon="32.0264704898"><ele>64.07</ele><time>2026-08-02T17:57:19Z</time></trkpt><trkpt lat="59.9055969995" lon="32.0264445897"><ele>64.07</ele><time>2026-08-02T17:57:32Z</time></trkpt><trkpt lat="59.9054009467" lon="32.0264285803"><ele>64.55</ele><time>2026-08-02T17:57:49Z</time></trkpt><trkpt lat="59.9053449556" lon="32.0264312625"><ele>64.55</ele><time>2026-08-02T17:57:55Z</time></trkpt><trkpt lat="59.9052250106" lon="32.0263964776"><ele>64.55</ele><time>2026-08-02T17:58:10Z</time></trkpt><trkpt lat="59.9051741324" lon="32.0263764448"><ele>64.55</ele><time>2026-08-02T17:58:15Z</time></trkpt><trkpt lat="59.9050042313" lon="32.0263733435"><ele>65.03</ele><time>2026-08-02T17:58:32Z</time></trkpt><trkpt lat="59.9049989507" lon="32.0263706613"><ele>65.03</ele><time>2026-08-02T17:58:33Z</time></trkpt><trkpt lat="59.9049771577" lon="32.0263751037"><ele>65.03</ele><time>2026-08-02T17:58:35Z</time></trkpt><trkpt lat="59.9049169756" lon="32.0263522211"><ele>65.03</ele><time>2026-08-02T17:58:40Z</time></trkpt><trkpt lat="59.9047361780" lon="32.0263207052"><ele>65.51</ele><time>2026-08-02T17:58:57Z</time></trkpt><trkpt lat="59.9046811089" lon="32.0263036061"><ele>65.51</ele><time>2026-08-02T17:59:02Z</time></trkpt><trkpt lat="59.9046469945" lon="32.0262990799"><ele>65.51</ele><time>2026-08-02T17:59:05Z</time></trkpt><trkpt lat="59.9045264628" lon="32.0262440946"><ele>65.51</ele><time>2026-08-02T17:59:18Z</time></trkpt><trkpt lat="59.9045058433" lon="32.0262151770"><ele>65.51</ele><time>2026-08-02T17:59:21Z</time></trkpt><trkpt lat="59.9044723157" lon="32.0261910371"><ele>65.51</ele><time>2026-08-02T17:59:25Z</time></trkpt><trkpt lat="59.9042944517" lon="32.0261062123"><ele>65.99</ele><time>2026-08-02T17:59:41Z</time></trkpt><trkpt lat="59.9042035919" lon="32.0260666497"><ele>65.99</ele><time>2026-08-02T17:59:49Z</time></trkpt><trkpt lat="59.9040045217" lon="32.0259536617"><ele>65.99</ele><time>2026-08-02T18:00:07Z</time></trkpt><trkpt lat="59.9039696530" lon="32.0259384066"><ele>65.99</ele><time>2026-08-02T18:00:12Z</time></trkpt><trkpt lat="59.9038793799" lon="32.0257851854"><ele>65.99</ele><time>2026-08-02T18:00:23Z</time></trkpt><trkpt lat="59.9037319422" lon="32.0254805032"><ele>65.99</ele><time>2026-08-02T18:00:42Z</time></trkpt><trkpt lat="59.9036858417" lon="32.0254420303"><ele>65.99</ele><time>2026-08-02T18:00:51Z</time></trkpt><trkpt lat="59.9036994204" lon="32.0255085826"><ele>65.99</ele><time>2026-08-02T18:01:03Z</time></trkpt><trkpt lat="59.9036886077" lon="32.0254734624"><ele>65.99</ele><time>2026-08-02T18:01:15Z</time></trkpt><trkpt lat="59.9036744423" lon="32.0254711155"><ele>65.03</ele><time>2026-08-02T18:01:30Z</time></trkpt><trkpt lat="59.9036760349" lon="32.0254634041"><ele>65.03</ele><time>2026-08-02T18:01:50Z</time></trkpt><trkpt lat="59.9036798067" lon="32.0254647452"><ele>64.55</ele><time>2026-08-02T18:02:30Z</time></trkpt><trkpt lat="59.9036840815" lon="32.0254515018"><ele>64.07</ele><time>2026-08-02T18:03:04Z</time></trkpt><trkpt lat="59.9036907870" lon="32.0254299603"><ele>64.07</ele><time>2026-08-02T18:03:47Z</time></trkpt><trkpt lat="59.9036893621" lon="32.0254265238"><ele>65.03</ele><time>2026-08-02T18:04:35Z</time></trkpt><trkpt lat="59.9036906194" lon="32.0254138671"><ele>65.03</ele><time>2026-08-02T18:05:14Z</time></trkpt><trkpt lat="59.9036725983" lon="32.0254075807"><ele>65.03</ele><time>2026-08-02T18:05:48Z</time></trkpt><trkpt lat="59.9036725145" lon="32.0254114363"><ele>60.22</ele><time>2026-08-02T18:05:55Z</time></trkpt><trkpt lat="59.9036727659" lon="32.0254127774"><ele>64.55</ele><time>2026-08-02T18:05:57Z</time></trkpt></trkseg><trkseg><trkpt lat="59.9036777113" lon="32.0254368335"><ele>65.51</ele><time>2026-08-02T18:06:31Z</time></trkpt><trkpt lat="59.9036767893" lon="32.0254328940"><ele>64.07</ele><time>2026-08-02T18:06:45Z</time></trkpt></trkseg><trkseg><trkpt lat="59.3505534902" lon="34.6994403005"><ele>169.33</ele><time>2026-08-15T00:56:47Z</time></trkpt><trkpt lat="59.3505444378" lon="34.6994410548"><ele>166.93</ele><time>2026-08-15T00:57:13Z</time></trkpt><trkpt lat="59.3505587708" lon="34.6994413063"><ele>166.93</ele><time>2026-08-15T00:57:42Z</time></trkpt><trkpt lat="59.3505531549" lon="34.6994136460"><ele>166.93</ele><time>2026-08-15T00:57:58Z</time></trkpt><trkpt lat="59.3505594414" lon="34.6994184237"><ele>167.41</ele><time>2026-08-15T00:58:22Z</time></trkpt><trkpt lat="59.3505561724" lon="34.6994270571"><ele>167.41</ele><time>2026-08-15T00:58:44Z</time></trkpt><trkpt lat="59.3505425937" lon="34.6994077787"><ele>167.41</ele><time>2026-08-15T00:59:14Z</time></trkpt><trkpt lat="59.3505399954" lon="34.6993958764"><ele>167.41</ele><time>2026-08-15T00:59:34Z</time></trkpt><trkpt lat="59.3505317811" lon="34.6993959602"><ele>167.41</ele><time>2026-08-15T00:59:51Z</time></trkpt><trkpt lat="59.3505701702" lon="34.6994372830"><ele>167.89</ele><time>2026-08-15T01:04:12Z</time></trkpt><trkpt lat="59.3505694997" lon="34.6994274762"><ele>167.89</ele><time>2026-08-15T01:04:13Z</time></trkpt><trkpt lat="59.3506028596" lon="34.6994323377"><ele>169.33</ele><time>2026-08-15T01:04:33Z</time></trkpt><trkpt lat="59.3505814858" lon="34.6994324215"><ele>172.69</ele><time>2026-08-15T01:04:51Z</time></trkpt><trkpt lat="59.3505971599" lon="34.6994042583"><ele>173.17</ele><time>2026-08-15T01:05:12Z</time></trkpt><trkpt lat="59.3506190367" lon="34.6994227823"><ele>172.69</ele><time>2026-08-15T01:05:42Z</time></trkpt><trkpt lat="59.3505717628" lon="34.6994553879"><ele>172.69</ele><time>2026-08-15T01:05:55Z</time></trkpt><trkpt lat="59.3505502213" lon="34.6994636022"><ele>173.66</ele><time>2026-08-15T01:06:07Z</time></trkpt><trkpt lat="59.3505218904" lon="34.6994727384"><ele>173.66</ele><time>2026-08-15T01:06:21Z</time></trkpt><trkpt lat="59.3505173642" lon="34.6994600818"><ele>172.69</ele><time>2026-08-15T01:06:35Z</time></trkpt><trkpt lat="59.3505222257" lon="34.6994690504"><ele>172.69</ele><time>2026-08-15T01:07:04Z</time></trkpt><trkpt lat="59.3505199626" lon="34.6994664520"><ele>172.21</ele><time>2026-08-15T01:07:30Z</time></trkpt><trkpt lat="59.3505177833" lon="34.6994646080"><ele>172.21</ele><time>2026-08-15T01:07:55Z</time></trkpt><trkpt lat="59.3505131733" lon="34.6994538791"><ele>172.21</ele><time>2026-08-15T01:08:29Z</time></trkpt><trkpt lat="59.3505171966" lon="34.6994671226"><ele>172.21</ele><time>2026-08-15T01:08:38Z</time></trkpt><trkpt lat="59.3505242374" lon="34.6995470859"><ele>171.73</ele><time>2026-08-15T01:08:51Z</time></trkpt><trkpt lat="59.3505244050" lon="34.6995475888"><ele>172.69</ele><time>2026-08-15T01:08:55Z</time></trkpt><trkpt lat="59.3505245727" lon="34.6995602455"><ele>171.25</ele><time>2026-08-15T01:09:14Z</time></trkpt><trkpt lat="59.3505280092" lon="34.6995589882"><ele>172.21</ele><time>2026-08-15T01:09:37Z</time></trkpt><trkpt lat="59.3505282607" lon="34.6995704714"><ele>171.25</ele><time>2026-08-15T01:10:00Z</time></trkpt><trkpt lat="59.3505297694" lon="34.6995826252"><ele>170.77</ele><time>2026-08-15T01:10:53Z</time></trkpt><trkpt lat="59.3505349662" lon="34.6995814517"><ele>170.77</ele><time>2026-08-15T01:11:36Z</time></trkpt><trkpt lat="59.3505373970" lon="34.6995748300"><ele>170.77</ele><time>2026-08-15T01:12:21Z</time></trkpt><trkpt lat="59.3505415879" lon="34.6995912585"><ele>170.77</ele><time>2026-08-15T01:12:58Z</time></trkpt><trkpt lat="59.3505555019" lon="34.6996148117"><ele>170.29</ele><time>2026-08-15T01:13:44Z</time></trkpt><trkpt lat="59.3505576812" lon="34.6996248700"><ele>170.29</ele><time>2026-08-15T01:14:16Z</time></trkpt><trkpt lat="59.3505650572" lon="34.6996440645"><ele>169.81</ele><time>2026-08-15T01:14:59Z</time></trkpt><trkpt lat="59.3505640514" lon="34.6996505186"><ele>169.81</ele><time>2026-08-15T01:15:41Z</time></trkpt><trkpt lat="59.3505628780" lon="34.6996515244"><ele>169.33</ele><time>2026-08-15T01:16:19Z</time></trkpt><trkpt lat="59.3505595252" lon="34.6996578109"><ele>169.33</ele><time>2026-08-15T01:16:54Z</time></trkpt><trkpt lat="59.3505581841" lon="34.6996663604"><ele>170.77</ele><time>2026-08-15T01:17:29Z</time></trkpt><trkpt lat="59.3505542446" lon="34.6995921806"><ele>170.29</ele><time>2026-08-15T01:18:00Z</time></trkpt><trkpt lat="59.3505456112" lon="34.6995493490"><ele>169.33</ele><time>2026-08-15T01:18:07Z</time></trkpt><trkpt lat="59.3505437672" lon="34.6995328367"><ele>170.77</ele><time>2026-08-15T01:18:19Z</time></trkpt><trkpt lat="59.3505402468" lon="34.6995224431"><ele>170.77</ele><time>2026-08-15T01:18:31Z</time></trkpt><trkpt lat="59.3505361397" lon="34.6995128039"><ele>170.77</ele><time>2026-08-15T01:18:55Z</time></trkpt><trkpt lat="59.3505327869" lon="34.6995278075"><ele>169.33</ele><time>2026-08-15T01:19:18Z</time></trkpt><trkpt lat="59.3505378161" lon="34.6995193418"><ele>169.33</ele><time>2026-08-15T01:19:34Z</time></trkpt><trkpt lat="59.3505341280" lon="34.6995232813"><ele>169.33</ele><time>2026-08-15T01:19:50Z</time></trkpt><trkpt lat="59.3505404983" lon="34.6995356865"><ele>169.81</ele><time>2026-08-15T01:20:11Z</time></trkpt><trkpt lat="59.3505459465" lon="34.6995388716"><ele>169.81</ele><time>2026-08-15T01:20:37Z</time></trkpt><trkpt lat="59.3505441025" lon="34.6995274723"><ele>169.81</ele><time>2026-08-15T01:21:01Z</time></trkpt><trkpt lat="59.3505414203" lon="34.6995273884"><ele>168.85</ele><time>2026-08-15T01:21:21Z</time></trkpt><trkpt lat="59.3505417556" lon="34.6995229460"><ele>168.85</ele><time>2026-08-15T01:21:41Z</time></trkpt><trkpt lat="59.3505446054" lon="34.6995262150"><ele>168.85</ele><time>2026-08-15T01:22:06Z</time></trkpt><trkpt lat="59.3505491316" lon="34.6995286457"><ele>168.85</ele><time>2026-08-15T01:22:31Z</time></trkpt><trkpt lat="59.3505528197" lon="34.6995271370"><ele>168.85</ele><time>2026-08-15T01:22:46Z</time></trkpt><trkpt lat="59.3505555857" lon="34.6995371114"><ele>167.41</ele><time>2026-08-15T01:23:03Z</time></trkpt><trkpt lat="59.3505549151" lon="34.6995407995"><ele>170.29</ele><time>2026-08-15T01:23:11Z</time></trkpt><trkpt lat="59.3505552504" lon="34.6995417215"><ele>168.85</ele><time>2026-08-15T01:23:14Z</time></trkpt><trkpt lat="59.3505565915" lon="34.6995448228"><ele>169.81</ele><time>2026-08-15T01:23:20Z</time></trkpt><trkpt lat="59.3505570944" lon="34.6995505225"><ele>168.37</ele><time>2026-08-15T01:23:29Z</time></trkpt><trkpt lat="59.3505627941" lon="34.6995570604"><ele>168.37</ele><time>2026-08-15T01:24:00Z</time></trkpt><trkpt lat="59.3505738582" lon="34.6995584015"><ele>168.37</ele><time>2026-08-15T01:24:18Z</time></trkpt><trkpt lat="59.3506090622" lon="34.6996200085"><ele>168.37</ele><time>2026-08-15T01:24:22Z</time></trkpt><trkpt lat="59.3507926259" lon="34.7001008783"><ele>168.85</ele><time>2026-08-15T01:24:39Z</time></trkpt><trkpt lat="59.3509185221" lon="34.7007714305"><ele>169.81</ele><time>2026-08-15T01:24:58Z</time></trkpt><trkpt lat="59.3510102201" lon="34.7013498656"><ele>168.37</ele><time>2026-08-15T01:25:08Z</time></trkpt><trkpt lat="59.3510305043" lon="34.7019127943"><ele>168.37</ele><time>2026-08-15T01:25:23Z</time></trkpt><trkpt lat="59.3509976473" lon="34.7022365034"><ele>167.89</ele><time>2026-08-15T01:25:37Z</time></trkpt><trkpt lat="59.3509976473" lon="34.7022580449"><ele>167.89</ele><time>2026-08-15T01:25:41Z</time></trkpt><trkpt lat="59.3509993237" lon="34.7022923268"><ele>167.89</ele><time>2026-08-15T01:25:42Z</time></trkpt><trkpt lat="59.3510033470" lon="34.7023384273"><ele>167.89</ele><time>2026-08-15T01:25:43Z</time></trkpt><trkpt lat="59.3510471843" lon="34.7035053559"><ele>167.41</ele><time>2026-08-15T01:25:57Z</time></trkpt><trkpt lat="59.3511126470" lon="34.7054226324"><ele>165.96</ele><time>2026-08-15T01:26:15Z</time></trkpt><trkpt lat="59.3511451688" lon="34.7058382910"><ele>167.41</ele><time>2026-08-15T01:26:19Z</time></trkpt><trkpt lat="59.3512387946" lon="34.7070760466"><ele>167.89</ele><time>2026-08-15T01:26:35Z</time></trkpt><trkpt lat="59.3515609112" lon="34.7081686277"><ele>168.37</ele><time>2026-08-15T01:26:51Z</time></trkpt><trkpt lat="59.3520023860" lon="34.7084095236"><ele>168.37</ele><time>2026-08-15T01:27:06Z</time></trkpt><trkpt lat="59.3519880529" lon="34.7092544194"><ele>168.37</ele><time>2026-08-15T01:27:20Z</time></trkpt><trkpt lat="59.3520809244" lon="34.7107971087"><ele>166.45</ele><time>2026-08-15T01:27:35Z</time></trkpt><trkpt lat="59.3521282822" lon="34.7125158180"><ele>166.93</ele><time>2026-08-15T01:27:52Z</time></trkpt><trkpt lat="59.3521285336" lon="34.7143016662"><ele>167.89</ele><time>2026-08-15T01:28:10Z</time></trkpt><trkpt lat="59.3525486346" lon="34.7161881812"><ele>168.37</ele><time>2026-08-15T01:28:27Z</time></trkpt><trkpt lat="59.3526555877" lon="34.7169531137"><ele>166.93</ele><time>2026-08-15T01:28:34Z</time></trkpt><trkpt lat="59.3528272491" lon="34.7175279446"><ele>166.45</ele><time>2026-08-15T01:28:45Z</time></trkpt><trkpt lat="59.3530845735" lon="34.7171024792"><ele>168.85</ele><time>2026-08-15T01:28:57Z</time></trkpt><trkpt lat="59.3535554688" lon="34.7161238082"><ele>168.37</ele><time>2026-08-15T01:29:09Z</time></trkpt><trkpt lat="59.3544302881" lon="34.7137500532"><ele>165.00</ele><time>2026-08-15T01:29:24Z</time></trkpt><trkpt lat="59.3552696519" lon="34.7112445347"><ele>166.45</ele><time>2026-08-15T01:29:46Z</time></trkpt><trkpt lat="59.3555124756" lon="34.7106941789"><ele>167.41</ele><time>2026-08-15T01:29:56Z</time></trkpt><trkpt lat="59.3562099338" lon="34.7100898437"><ele>166.45</ele><time>2026-08-15T01:30:15Z</time></trkpt><trkpt lat="59.3569000997" lon="34.7090936545"><ele>164.52</ele><time>2026-08-15T01:30:34Z</time></trkpt><trkpt lat="59.3571591843" lon="34.7086502519"><ele>165.96</ele><time>2026-08-15T01:30:40Z</time></trkpt><trkpt lat="59.3578252103" lon="34.7083004750"><ele>166.45</ele><time>2026-08-15T01:30:53Z</time></trkpt><trkpt lat="59.3587862793" lon="34.7079176735"><ele>166.93</ele><time>2026-08-15T01:31:12Z</time></trkpt><trkpt lat="59.3592319451" lon="34.7071443591"><ele>167.89</ele><time>2026-08-15T01:31:28Z</time></trkpt><trkpt lat="59.3593731802" lon="34.7062739823"><ele>168.37</ele><time>2026-08-15T01:31:49Z</time></trkpt><trkpt lat="59.3594051991" lon="34.7060554661"><ele>168.37</ele><time>2026-08-15T01:32:07Z</time></trkpt><trkpt lat="59.3592269160" lon="34.7061254550"><ele>174.14</ele><time>2026-08-15T01:34:22Z</time></trkpt><trkpt lat="59.3592321128" lon="34.7060784325"><ele>174.14</ele><time>2026-08-15T01:34:23Z</time></trkpt><trkpt lat="59.3592673168" lon="34.7060485091"><ele>170.77</ele><time>2026-08-15T01:34:39Z</time></trkpt><trkpt lat="59.3592564203" lon="34.7060734872"><ele>168.37</ele><time>2026-08-15T01:35:04Z</time></trkpt><trkpt lat="59.3592587672" lon="34.7060682066"><ele>168.37</ele><time>2026-08-15T01:35:26Z</time></trkpt><trkpt lat="59.3592658080" lon="34.7060430609"><ele>168.37</ele><time>2026-08-15T01:36:02Z</time></trkpt><trkpt lat="59.3592891935" lon="34.7060824558"><ele>168.37</ele><time>2026-08-15T01:36:23Z</time></trkpt><trkpt lat="59.3592952285" lon="34.7060687933"><ele>169.33</ele><time>2026-08-15T01:36:58Z</time></trkpt><trkpt lat="59.3593002576" lon="34.7060693800"><ele>169.33</ele><time>2026-08-15T01:37:19Z</time></trkpt><trkpt lat="59.3593005091" lon="34.7060599923"><ele>169.33</ele><time>2026-08-15T01:37:41Z</time></trkpt><trkpt lat="59.3593005929" lon="34.7060454916"><ele>167.41</ele><time>2026-08-15T01:38:05Z</time></trkpt><trkpt lat="59.3592990842" lon="34.7060328349"><ele>167.41</ele><time>2026-08-15T01:38:30Z</time></trkpt><trkpt lat="59.3592964020" lon="34.7060241178"><ele>167.41</ele><time>2026-08-15T01:38:54Z</time></trkpt><trkpt lat="59.3592949770" lon="34.7060198430"><ele>167.41</ele><time>2026-08-15T01:39:20Z</time></trkpt><trkpt lat="59.3592916243" lon="34.7060097847"><ele>167.41</ele><time>2026-08-15T01:39:56Z</time></trkpt><trkpt lat="59.3592879362" lon="34.7060081922"><ele>168.37</ele><time>2026-08-15T01:40:30Z</time></trkpt><trkpt lat="59.3592990842" lon="34.7060247883"><ele>168.37</ele><time>2026-08-15T01:40:51Z</time></trkpt><trkpt lat="59.3593009282" lon="34.7060406301"><ele>166.93</ele><time>2026-08-15T01:41:27Z</time></trkpt><trkpt lat="59.3592999224" lon="34.7060475033"><ele>167.89</ele><time>2026-08-15T01:41:54Z</time></trkpt><trkpt lat="59.3593058735" lon="34.7060493473"><ele>167.89</ele><time>2026-08-15T01:42:04Z</time></trkpt><trkpt lat="59.3593822327" lon="34.7060093656"><ele>167.89</ele><time>2026-08-15T01:42:16Z</time></trkpt><trkpt lat="59.3594089709" lon="34.7059520334"><ele>167.89</ele><time>2026-08-15T01:42:20Z</time></trkpt><trkpt lat="59.3594418280" lon="34.7058984730"><ele>168.37</ele><time>2026-08-15T01:42:25Z</time></trkpt><trkpt lat="59.3595036026" lon="34.7057798691"><ele>168.85</ele><time>2026-08-15T01:42:35Z</time></trkpt><trkpt lat="59.3595095538" lon="34.7057716548"><ele>168.85</ele><time>2026-08-15T01:42:36Z</time></trkpt><trkpt lat="59.3596088793" lon="34.7056449205"><ele>168.85</ele><time>2026-08-15T01:42:51Z</time></trkpt><trkpt lat="59.3596233800" lon="34.7056244686"><ele>169.33</ele><time>2026-08-15T01:42:53Z</time></trkpt><trkpt lat="59.3596949615" lon="34.7055434156"><ele>169.81</ele><time>2026-08-15T01:43:08Z</time></trkpt><trkpt lat="59.3597289920" lon="34.7055067029"><ele>169.81</ele><time>2026-08-15T01:43:29Z</time></trkpt><trkpt lat="59.3597726617" lon="34.7054840717"><ele>168.37</ele><time>2026-08-15T01:43:34Z</time></trkpt><trkpt lat="59.3598491885" lon="34.7053837404"><ele>167.89</ele><time>2026-08-15T01:43:47Z</time></trkpt><trkpt lat="59.3598732445" lon="34.7052850015"><ele>167.89</ele><time>2026-08-15T01:43:56Z</time></trkpt><trkpt lat="59.3598344363" lon="34.7051021084"><ele>167.89</ele><time>2026-08-15T01:44:07Z</time></trkpt><trkpt lat="59.3598092068" lon="34.7050163615"><ele>167.89</ele><time>2026-08-15T01:44:13Z</time></trkpt><trkpt lat="59.3597611785" lon="34.7048320435"><ele>166.93</ele><time>2026-08-15T01:44:24Z</time></trkpt><trkpt lat="59.3597519584" lon="34.7047754657"><ele>168.37</ele><time>2026-08-15T01:44:27Z</time></trkpt><trkpt lat="59.3597294949" lon="34.7046087496"><ele>168.37</ele><time>2026-08-15T01:44:38Z</time></trkpt><trkpt lat="59.3596825562" lon="34.7044896428"><ele>168.37</ele><time>2026-08-15T01:44:49Z</time></trkpt><trkpt lat="59.3595673051" lon="34.7044411954"><ele>169.33</ele><time>2026-08-15T01:45:04Z</time></trkpt><trkpt lat="59.3595593423" lon="34.7044402733"><ele>169.33</ele><time>2026-08-15T01:45:05Z</time></trkpt><trkpt lat="59.3594412412" lon="34.7044302989"><ele>170.29</ele><time>2026-08-15T01:45:19Z</time></trkpt><trkpt lat="59.3593418319" lon="34.7044241801"><ele>170.77</ele><time>2026-08-15T01:45:33Z</time></trkpt><trkpt lat="59.3592887744" lon="34.7044525947"><ele>170.77</ele><time>2026-08-15T01:45:49Z</time></trkpt><trkpt lat="59.3592835777" lon="34.7044468950"><ele>170.77</ele><time>2026-08-15T01:46:16Z</time></trkpt><trkpt lat="59.3591948971" lon="34.7044877987"><ele>172.21</ele><time>2026-08-15T01:48:27Z</time></trkpt><trkpt lat="59.3592114933" lon="34.7044630721"><ele>171.73</ele><time>2026-08-15T01:48:28Z</time></trkpt><trkpt lat="59.3592765369" lon="34.7044934146"><ele>170.77</ele><time>2026-08-15T01:48:48Z</time></trkpt><trkpt lat="59.3592690770" lon="34.7045621462"><ele>169.81</ele><time>2026-08-15T01:49:15Z</time></trkpt><trkpt lat="59.3592697475" lon="34.7046633996"><ele>169.33</ele><time>2026-08-15T01:49:24Z</time></trkpt><trkpt lat="59.3592697475" lon="34.7047296166"><ele>168.85</ele><time>2026-08-15T01:49:30Z</time></trkpt><trkpt lat="59.3592503015" lon="34.7048135195"><ele>168.37</ele><time>2026-08-15T01:49:38Z</time></trkpt><trkpt lat="59.3592248205" lon="34.7048821673"><ele>168.37</ele><time>2026-08-15T01:49:43Z</time></trkpt><trkpt lat="59.3591850903" lon="34.7049312852"><ele>167.41</ele><time>2026-08-15T01:49:58Z</time></trkpt><trkpt lat="59.3591864314" lon="34.7049405053"><ele>167.41</ele><time>2026-08-15T01:50:21Z</time></trkpt><trkpt lat="59.3590748683" lon="34.7049899586"><ele>167.41</ele><time>2026-08-15T01:50:36Z</time></trkpt><trkpt lat="59.3589930609" lon="34.7050296888"><ele>168.85</ele><time>2026-08-15T01:50:47Z</time></trkpt><trkpt lat="59.3589014467" lon="34.7049720213"><ele>169.33</ele><time>2026-08-15T01:51:01Z</time></trkpt><trkpt lat="59.3588035461" lon="34.7050187923"><ele>169.81</ele><time>2026-08-15T01:51:18Z</time></trkpt><trkpt lat="59.3587597925" lon="34.7050350532"><ele>169.81</ele><time>2026-08-15T01:51:23Z</time></trkpt><trkpt lat="59.3587169610" lon="34.7050770465"><ele>169.81</ele><time>2026-08-15T01:51:34Z</time></trkpt><trkpt lat="59.3587092496" lon="34.7050575167"><ele>170.29</ele><time>2026-08-15T01:51:48Z</time></trkpt><trkpt lat="59.3586947490" lon="34.7050193790"><ele>168.85</ele><time>2026-08-15T01:51:54Z</time></trkpt><trkpt lat="59.3586245086" lon="34.7050165292"><ele>168.85</ele><time>2026-08-15T01:52:07Z</time></trkpt><trkpt lat="59.3585774023" lon="34.7050475422"><ele>168.85</ele><time>2026-08-15T01:52:20Z</time></trkpt><trkpt lat="59.3585738819" lon="34.7050576843"><ele>168.85</ele><time>2026-08-15T01:52:32Z</time></trkpt><trkpt lat="59.3585743010" lon="34.7050583549"><ele>168.85</ele><time>2026-08-15T01:52:33Z</time></trkpt><trkpt lat="59.3585137837" lon="34.7051455267"><ele>168.37</ele><time>2026-08-15T01:52:46Z</time></trkpt><trkpt lat="59.3584426213" lon="34.7050973307"><ele>168.37</ele><time>2026-08-15T01:53:03Z</time></trkpt><trkpt lat="59.3584123626" lon="34.7050419264"><ele>167.89</ele><time>2026-08-15T01:53:20Z</time></trkpt><trkpt lat="59.3583516777" lon="34.7050199658"><ele>168.37</ele><time>2026-08-15T01:53:33Z</time></trkpt><trkpt lat="59.3582913280" lon="34.7050004359"><ele>168.37</ele><time>2026-08-15T01:53:52Z</time></trkpt><trkpt lat="59.3582700379" lon="34.7049892042"><ele>167.89</ele><time>2026-08-15T01:54:08Z</time></trkpt><trkpt lat="59.3582468200" lon="34.7049731109"><ele>167.89</ele><time>2026-08-15T01:54:19Z</time></trkpt><trkpt lat="59.3581959419" lon="34.7049100790"><ele>169.33</ele><time>2026-08-15T01:54:25Z</time></trkpt><trkpt lat="59.3581561279" lon="34.7048813291"><ele>169.33</ele><time>2026-08-15T01:55:01Z</time></trkpt><trkpt lat="59.3581547029" lon="34.7048737016"><ele>169.33</ele><time>2026-08-15T01:55:30Z</time></trkpt><trkpt lat="59.3581428006" lon="34.7048680857"><ele>169.33</ele><time>2026-08-15T01:55:44Z</time></trkpt><trkpt lat="59.3580564670" lon="34.7048644815"><ele>168.85</ele><time>2026-08-15T01:55:59Z</time></trkpt><trkpt lat="59.3580385298" lon="34.7048657387"><ele>168.85</ele><time>2026-08-15T01:56:01Z</time></trkpt><trkpt lat="59.3580034096" lon="34.7048558481"><ele>167.89</ele><time>2026-08-15T01:56:13Z</time></trkpt><trkpt lat="59.3579668645" lon="34.7048571892"><ele>167.89</ele><time>2026-08-15T01:56:33Z</time></trkpt><trkpt lat="59.3579099514" lon="34.7049172875"><ele>167.41</ele><time>2026-08-15T01:56:45Z</time></trkpt><trkpt lat="59.3578532059" lon="34.7050188761"><ele>166.93</ele><time>2026-08-15T01:57:02Z</time></trkpt><trkpt lat="59.3578439858" lon="34.7050267551"><ele>166.93</ele><time>2026-08-15T01:57:26Z</time></trkpt><trkpt lat="59.3577979691" lon="34.7050178703"><ele>166.45</ele><time>2026-08-15T01:57:41Z</time></trkpt><trkpt lat="59.3577406369" lon="34.7049979214"><ele>166.45</ele><time>2026-08-15T01:57:49Z</time></trkpt><trkpt lat="59.3576423172" lon="34.7050070576"><ele>166.45</ele><time>2026-08-15T01:58:01Z</time></trkpt><trkpt lat="59.3575574085" lon="34.7049922217"><ele>165.96</ele><time>2026-08-15T01:58:14Z</time></trkpt><trkpt lat="59.3574346974" lon="34.7049642261"><ele>165.96</ele><time>2026-08-15T01:58:28Z</time></trkpt><trkpt lat="59.3574338593" lon="34.7049484681"><ele>165.96</ele><time>2026-08-15T01:58:43Z</time></trkpt><trkpt lat="59.3574305065" lon="34.7049357276"><ele>165.96</ele><time>2026-08-15T01:59:02Z</time></trkpt><trkpt lat="59.3574172631" lon="34.7049590293"><ele>165.96</ele><time>2026-08-15T01:59:17Z</time></trkpt><trkpt lat="59.3573612720" lon="34.7050311975"><ele>165.96</ele><time>2026-08-15T01:59:30Z</time></trkpt><trkpt lat="59.3572849128" lon="34.7050820757"><ele>165.96</ele><time>2026-08-15T01:59:43Z</time></trkpt><trkpt lat="59.3572503794" lon="34.7051134240"><ele>165.48</ele><time>2026-08-15T02:00:04Z</time></trkpt><trkpt lat="59.3571706675" lon="34.7050782200"><ele>165.48</ele><time>2026-08-15T02:00:16Z</time></trkpt><trkpt lat="59.3571732659" lon="34.7050728556"><ele>165.48</ele><time>2026-08-15T02:00:36Z</time></trkpt><trkpt lat="59.3571752775" lon="34.7050591093"><ele>165.48</ele><time>2026-08-15T02:00:59Z</time></trkpt><trkpt lat="59.3571812287" lon="34.7050222289"><ele>165.48</ele><time>2026-08-15T02:01:12Z</time></trkpt><trkpt lat="59.3572191149" lon="34.7047622222"><ele>165.48</ele><time>2026-08-15T02:01:26Z</time></trkpt><trkpt lat="59.3572306819" lon="34.7046591248"><ele>166.45</ele><time>2026-08-15T02:01:31Z</time></trkpt><trkpt lat="59.3572334480" lon="34.7046171315"><ele>166.45</ele><time>2026-08-15T02:01:33Z</time></trkpt><trkpt lat="59.3572330289" lon="34.7045777366"><ele>166.45</ele><time>2026-08-15T02:01:35Z</time></trkpt><trkpt lat="59.3572410755" lon="34.7045408562"><ele>166.45</ele><time>2026-08-15T02:01:37Z</time></trkpt><trkpt lat="59.3572435901" lon="34.7043194063"><ele>166.45</ele><time>2026-08-15T02:01:54Z</time></trkpt><trkpt lat="59.3572456855" lon="34.7043470666"><ele>166.45</ele><time>2026-08-15T02:02:20Z</time></trkpt><trkpt lat="59.3572482001" lon="34.7043475695"><ele>166.45</ele><time>2026-08-15T02:02:51Z</time></trkpt><trkpt lat="59.3572901934" lon="34.7043337394"><ele>166.45</ele><time>2026-08-15T02:03:04Z</time></trkpt><trkpt lat="59.3573449273" lon="34.7043339070"><ele>166.93</ele><time>2026-08-15T02:03:19Z</time></trkpt><trkpt lat="59.3573732581" lon="34.7042988706"><ele>166.93</ele><time>2026-08-15T02:03:33Z</time></trkpt><trkpt lat="59.3573888484" lon="34.7042826936"><ele>167.89</ele><time>2026-08-15T02:03:52Z</time></trkpt><trkpt lat="59.3573916145" lon="34.7042723000"><ele>167.89</ele><time>2026-08-15T02:04:19Z</time></trkpt><trkpt lat="59.3574025109" lon="34.7042677738"><ele>167.89</ele><time>2026-08-15T02:04:46Z</time></trkpt><trkpt lat="59.3574431632" lon="34.7042639181"><ele>167.89</ele><time>2026-08-15T02:04:59Z</time></trkpt><trkpt lat="59.3574857432" lon="34.7042445559"><ele>168.37</ele><time>2026-08-15T02:05:11Z</time></trkpt><trkpt lat="59.3575669639" lon="34.7041796800"><ele>168.37</ele><time>2026-08-15T02:05:27Z</time></trkpt><trkpt lat="59.3575768545" lon="34.7041827813"><ele>166.93</ele><time>2026-08-15T02:05:30Z</time></trkpt><trkpt lat="59.3576409761" lon="34.7041905764"><ele>168.37</ele><time>2026-08-15T02:05:47Z</time></trkpt><trkpt lat="59.3576460052" lon="34.7041857988"><ele>168.37</ele><time>2026-08-15T02:05:48Z</time></trkpt><trkpt lat="59.3577335123" lon="34.7041287180"><ele>168.37</ele><time>2026-08-15T02:06:05Z</time></trkpt><trkpt lat="59.3577444926" lon="34.7041388601"><ele>166.93</ele><time>2026-08-15T02:06:07Z</time></trkpt><trkpt lat="59.3577802833" lon="34.7041275445"><ele>166.93</ele><time>2026-08-15T02:06:31Z</time></trkpt><trkpt lat="59.3577969633" lon="34.7041209228"><ele>166.93</ele><time>2026-08-15T02:07:02Z</time></trkpt><trkpt lat="59.3578237854" lon="34.7041300591"><ele>166.93</ele><time>2026-08-15T02:07:20Z</time></trkpt><trkpt lat="59.3578859791" lon="34.7041028179"><ele>168.37</ele><time>2026-08-15T02:07:33Z</time></trkpt><trkpt lat="59.3579711393" lon="34.7040583938"><ele>168.37</ele><time>2026-08-15T02:07:46Z</time></trkpt><trkpt lat="59.3580414634" lon="34.7040521074"><ele>168.37</ele><time>2026-08-15T02:08:03Z</time></trkpt><trkpt lat="59.3581428844" lon="34.7040169872"><ele>168.37</ele><time>2026-08-15T02:08:18Z</time></trkpt><trkpt lat="59.3582016416" lon="34.7039889079"><ele>168.85</ele><time>2026-08-15T02:08:34Z</time></trkpt><trkpt lat="59.3583656754" lon="34.7039426398"><ele>168.85</ele><time>2026-08-15T02:08:49Z</time></trkpt><trkpt lat="59.3583981972" lon="34.7039091121"><ele>169.33</ele><time>2026-08-15T02:09:01Z</time></trkpt><trkpt lat="59.3584703654" lon="34.7039387003"><ele>169.33</ele><time>2026-08-15T02:09:23Z</time></trkpt><trkpt lat="59.3585193995" lon="34.7039021552"><ele>169.33</ele><time>2026-08-15T02:09:39Z</time></trkpt><trkpt lat="59.3585340679" lon="34.7039014846"><ele>169.33</ele><time>2026-08-15T02:09:53Z</time></trkpt><trkpt lat="59.3585726246" lon="34.7039107885"><ele>169.33</ele><time>2026-08-15T02:10:07Z</time></trkpt><trkpt lat="59.3586739618" lon="34.7038942762"><ele>169.81</ele><time>2026-08-15T02:10:22Z</time></trkpt><trkpt lat="59.3587561883" lon="34.7038445715"><ele>169.81</ele><time>2026-08-15T02:10:44Z</time></trkpt><trkpt lat="59.3587770592" lon="34.7038387042"><ele>169.81</ele><time>2026-08-15T02:11:09Z</time></trkpt><trkpt lat="59.3587862793" lon="34.7038386203"><ele>169.81</ele><time>2026-08-15T02:11:33Z</time></trkpt><trkpt lat="59.3588131014" lon="34.7038293164"><ele>168.37</ele><time>2026-08-15T02:11:50Z</time></trkpt><trkpt lat="59.3588744570" lon="34.7038274724"><ele>168.37</ele><time>2026-08-15T02:12:03Z</time></trkpt><trkpt lat="59.3589085713" lon="34.7037348524"><ele>168.37</ele><time>2026-08-15T02:12:15Z</time></trkpt><trkpt lat="59.3589622993" lon="34.7036869917"><ele>168.37</ele><time>2026-08-15T02:12:33Z</time></trkpt><trkpt lat="59.3590253312" lon="34.7036455851"><ele>168.37</ele><time>2026-08-15T02:12:45Z</time></trkpt><trkpt lat="59.3590443581" lon="34.7036086209"><ele>168.37</ele><time>2026-08-15T02:12:58Z</time></trkpt><trkpt lat="59.3590493035" lon="34.7036145721"><ele>168.37</ele><time>2026-08-15T02:13:01Z</time></trkpt><trkpt lat="59.3591339607" lon="34.7035653703"><ele>169.33</ele><time>2026-08-15T02:13:15Z</time></trkpt><trkpt lat="59.3591392413" lon="34.7035524622"><ele>169.81</ele><time>2026-08-15T02:13:31Z</time></trkpt><trkpt lat="59.3591343798" lon="34.7035459243"><ele>169.81</ele><time>2026-08-15T02:13:58Z</time></trkpt><trkpt lat="59.3591407500" lon="34.7035354469"><ele>169.81</ele><time>2026-08-15T02:14:25Z</time></trkpt><trkpt lat="59.3591471203" lon="34.7035295796"><ele>169.81</ele><time>2026-08-15T02:14:52Z</time></trkpt><trkpt lat="59.3591501378" lon="34.7035399731"><ele>169.81</ele><time>2026-08-15T02:15:15Z</time></trkpt><trkpt lat="59.3591583520" lon="34.7035230417"><ele>169.81</ele><time>2026-08-15T02:15:39Z</time></trkpt><trkpt lat="59.3591695838" lon="34.7034405638"><ele>169.81</ele><time>2026-08-15T02:15:50Z</time></trkpt><trkpt lat="59.3591867667" lon="34.7032933775"><ele>169.81</ele><time>2026-08-15T02:16:01Z</time></trkpt><trkpt lat="59.3592159357" lon="34.7031710017"><ele>168.85</ele><time>2026-08-15T02:16:14Z</time></trkpt><trkpt lat="59.3592111580" lon="34.7030753642"><ele>168.85</ele><time>2026-08-15T02:16:28Z</time></trkpt><trkpt lat="59.3592271674" lon="34.7028792277"><ele>169.81</ele><time>2026-08-15T02:16:42Z</time></trkpt><trkpt lat="59.3592321128" lon="34.7027271800"><ele>169.81</ele><time>2026-08-15T02:16:55Z</time></trkpt><trkpt lat="59.3592225574" lon="34.7026229091"><ele>169.81</ele><time>2026-08-15T02:17:07Z</time></trkpt><trkpt lat="59.3592093978" lon="34.7026053909"><ele>169.81</ele><time>2026-08-15T02:17:31Z</time></trkpt><trkpt lat="59.3592094816" lon="34.7026093304"><ele>169.81</ele><time>2026-08-15T02:18:04Z</time></trkpt><trkpt lat="59.3592050392" lon="34.7026143596"><ele>169.81</ele><time>2026-08-15T02:18:32Z</time></trkpt><trkpt lat="59.3592067994" lon="34.7026104201"><ele>170.29</ele><time>2026-08-15T02:18:59Z</time></trkpt><trkpt lat="59.3591384031" lon="34.7026609629"><ele>170.29</ele><time>2026-08-15T02:19:12Z</time></trkpt><trkpt lat="59.3590506446" lon="34.7027134337"><ele>170.29</ele><time>2026-08-15T02:19:27Z</time></trkpt><trkpt lat="59.3589488044" lon="34.7027722746"><ele>169.33</ele><time>2026-08-15T02:19:45Z</time></trkpt><trkpt lat="59.3589415122" lon="34.7027790640"><ele>169.33</ele><time>2026-08-15T02:19:46Z</time></trkpt><trkpt lat="59.3588937353" lon="34.7028210573"><ele>169.33</ele><time>2026-08-15T02:20:04Z</time></trkpt><trkpt lat="59.3588649016" lon="34.7027980071"><ele>169.33</ele><time>2026-08-15T02:20:25Z</time></trkpt><trkpt lat="59.3588156160" lon="34.7027529962"><ele>169.33</ele><time>2026-08-15T02:20:38Z</time></trkpt><trkpt lat="59.3588019535" lon="34.7028091550"><ele>168.85</ele><time>2026-08-15T02:20:48Z</time></trkpt><trkpt lat="59.3587950803" lon="34.7028306127"><ele>168.85</ele><time>2026-08-15T02:21:03Z</time></trkpt><trkpt lat="59.3587924819" lon="34.7028257512"><ele>168.85</ele><time>2026-08-15T02:21:30Z</time></trkpt><trkpt lat="59.3587831780" lon="34.7028415091"><ele>168.85</ele><time>2026-08-15T02:21:46Z</time></trkpt><trkpt lat="59.3587840162" lon="34.7028591111"><ele>168.85</ele><time>2026-08-15T02:22:05Z</time></trkpt><trkpt lat="59.3587348983" lon="34.7029294353"><ele>168.85</ele><time>2026-08-15T02:22:19Z</time></trkpt><trkpt lat="59.3587195594" lon="34.7029639687"><ele>168.37</ele><time>2026-08-15T02:22:37Z</time></trkpt><trkpt lat="59.3586847745" lon="34.7030192893"><ele>168.37</ele><time>2026-08-15T02:22:53Z</time></trkpt><trkpt lat="59.3586141150" lon="34.7030725982"><ele>167.89</ele><time>2026-08-15T02:23:07Z</time></trkpt><trkpt lat="59.3585835211" lon="34.7030295152"><ele>167.89</ele><time>2026-08-15T02:23:23Z</time></trkpt><trkpt lat="59.3585599679" lon="34.7030414175"><ele>167.89</ele><time>2026-08-15T02:23:43Z</time></trkpt><trkpt lat="59.3584710360" lon="34.7030250728"><ele>167.41</ele><time>2026-08-15T02:23:57Z</time></trkpt><trkpt lat="59.3584343232" lon="34.7030081414"><ele>166.93</ele><time>2026-08-15T02:24:13Z</time></trkpt><trkpt lat="59.3584277853" lon="34.7030184511"><ele>166.93</ele><time>2026-08-15T02:24:33Z</time></trkpt><trkpt lat="59.3584151287" lon="34.7030337062"><ele>166.93</ele><time>2026-08-15T02:25:00Z</time></trkpt><trkpt lat="59.3583997060" lon="34.7030402441"><ele>166.93</ele><time>2026-08-15T02:25:15Z</time></trkpt><trkpt lat="59.3582453951" lon="34.7031171899"><ele>167.89</ele><time>2026-08-15T02:25:33Z</time></trkpt><trkpt lat="59.3581961095" lon="34.7030928824"><ele>167.89</ele><time>2026-08-15T02:25:47Z</time></trkpt><trkpt lat="59.3581883982" lon="34.7030745260"><ele>167.89</ele><time>2026-08-15T02:26:18Z</time></trkpt><trkpt lat="59.3581942655" lon="34.7030855902"><ele>167.89</ele><time>2026-08-15T02:26:41Z</time></trkpt><trkpt lat="59.3581937626" lon="34.7030891944"><ele>166.45</ele><time>2026-08-15T02:26:48Z</time></trkpt><trkpt lat="59.3581661023" lon="34.7031136695"><ele>166.45</ele><time>2026-08-15T02:27:03Z</time></trkpt><trkpt lat="59.3580354284" lon="34.7032682318"><ele>166.45</ele><time>2026-08-15T02:27:22Z</time></trkpt><trkpt lat="59.3578956183" lon="34.7032849118"><ele>166.45</ele><time>2026-08-15T02:27:36Z</time></trkpt><trkpt lat="59.3578254618" lon="34.7033044416"><ele>165.96</ele><time>2026-08-15T02:27:53Z</time></trkpt><trkpt lat="59.3578148168" lon="34.7033020109"><ele>165.96</ele><time>2026-08-15T02:28:15Z</time></trkpt><trkpt lat="59.3578072730" lon="34.7033038549"><ele>165.96</ele><time>2026-08-15T02:28:37Z</time></trkpt><trkpt lat="59.3577749189" lon="34.7033066209"><ele>165.96</ele><time>2026-08-15T02:28:56Z</time></trkpt><trkpt lat="59.3576512858" lon="34.7034148313"><ele>165.96</ele><time>2026-08-15T02:29:09Z</time></trkpt><trkpt lat="59.3576009106" lon="34.7034276556"><ele>165.96</ele><time>2026-08-15T02:29:26Z</time></trkpt><trkpt lat="59.3575027585" lon="34.7034197766"><ele>165.48</ele><time>2026-08-15T02:29:41Z</time></trkpt><trkpt lat="59.3573994935" lon="34.7034088802"><ele>165.00</ele><time>2026-08-15T02:29:55Z</time></trkpt><trkpt lat="59.3573652953" lon="34.7034221236"><ele>166.45</ele><time>2026-08-15T02:30:00Z</time></trkpt><trkpt lat="59.3573196139" lon="34.7034014203"><ele>166.45</ele><time>2026-08-15T02:30:16Z</time></trkpt><trkpt lat="59.3572770339" lon="34.7034248058"><ele>165.48</ele><time>2026-08-15T02:30:29Z</time></trkpt><trkpt lat="59.3572388962" lon="34.7034433298"><ele>165.48</ele><time>2026-08-15T02:30:41Z</time></trkpt><trkpt lat="59.3571656384" lon="34.7035111394"><ele>165.00</ele><time>2026-08-15T02:30:55Z</time></trkpt><trkpt lat="59.3571466114" lon="34.7035386320"><ele>165.00</ele><time>2026-08-15T02:31:09Z</time></trkpt><trkpt lat="59.3571435940" lon="34.7035413980"><ele>165.00</ele><time>2026-08-15T02:31:37Z</time></trkpt><trkpt lat="59.3571463600" lon="34.7035382129"><ele>165.00</ele><time>2026-08-15T02:32:18Z</time></trkpt><trkpt lat="59.3571417499" lon="34.7035202757"><ele>165.00</ele><time>2026-08-15T02:32:37Z</time></trkpt><trkpt lat="59.3571260758" lon="34.7033706587"><ele>165.00</ele><time>2026-08-15T02:32:49Z</time></trkpt><trkpt lat="59.3571223877" lon="34.7033532243"><ele>165.00</ele><time>2026-08-15T02:32:50Z</time></trkpt><trkpt lat="59.3570754491" lon="34.7030296829"><ele>165.00</ele><time>2026-08-15T02:33:08Z</time></trkpt><trkpt lat="59.3570546620" lon="34.7028876096"><ele>165.00</ele><time>2026-08-15T02:33:19Z</time></trkpt><trkpt lat="59.3570527341" lon="34.7027395014"><ele>165.00</ele><time>2026-08-15T02:33:34Z</time></trkpt><trkpt lat="59.3570577633" lon="34.7027285211"><ele>165.00</ele><time>2026-08-15T02:33:54Z</time></trkpt><trkpt lat="59.3570961524" lon="34.7027063090"><ele>165.00</ele><time>2026-08-15T02:34:05Z</time></trkpt><trkpt lat="59.3571148440" lon="34.7027115058"><ele>165.00</ele><time>2026-08-15T02:34:17Z</time></trkpt><trkpt lat="59.3571150117" lon="34.7027156129"><ele>165.00</ele><time>2026-08-15T02:35:01Z</time></trkpt><trkpt lat="59.3571172748" lon="34.7027187143"><ele>165.00</ele><time>2026-08-15T02:35:31Z</time></trkpt><trkpt lat="59.3571441807" lon="34.7027284373"><ele>165.00</ele><time>2026-08-15T02:35:48Z</time></trkpt><trkpt lat="59.3571630400" lon="34.7026616335"><ele>166.45</ele><time>2026-08-15T02:36:00Z</time></trkpt><trkpt lat="59.3571728468" lon="34.7026206460"><ele>167.41</ele><time>2026-08-15T02:36:22Z</time></trkpt><trkpt lat="59.3571761157" lon="34.7026203945"><ele>167.41</ele><time>2026-08-15T02:36:41Z</time></trkpt><trkpt lat="59.3571760319" lon="34.7026202269"><ele>165.96</ele><time>2026-08-15T02:36:43Z</time></trkpt><trkpt lat="59.3571851682" lon="34.7026200593"><ele>165.48</ele><time>2026-08-15T02:36:59Z</time></trkpt><trkpt lat="59.3572445121" lon="34.7025849391"><ele>165.00</ele><time>2026-08-15T02:37:15Z</time></trkpt><trkpt lat="59.3573033530" lon="34.7025883757"><ele>165.00</ele><time>2026-08-15T02:37:33Z</time></trkpt><trkpt lat="59.3573393952" lon="34.7025615536"><ele>165.96</ele><time>2026-08-15T02:37:52Z</time></trkpt><trkpt lat="59.3573963922" lon="34.7025397606"><ele>166.45</ele><time>2026-08-15T02:38:14Z</time></trkpt><trkpt lat="59.3574165087" lon="34.7025195602"><ele>166.45</ele><time>2026-08-15T02:38:34Z</time></trkpt><trkpt lat="59.3574442528" lon="34.7024942469"><ele>166.45</ele><time>2026-08-15T02:38:56Z</time></trkpt><trkpt lat="59.3574810494" lon="34.7024699394"><ele>166.45</ele><time>2026-08-15T02:39:16Z</time></trkpt><trkpt lat="59.3575363699" lon="34.7024958394"><ele>166.45</ele><time>2026-08-15T02:39:31Z</time></trkpt><trkpt lat="59.3575772736" lon="34.7024931572"><ele>167.41</ele><time>2026-08-15T02:39:47Z</time></trkpt><trkpt lat="59.3576173391" lon="34.7024747171"><ele>166.45</ele><time>2026-08-15T02:40:19Z</time></trkpt><trkpt lat="59.3576682173" lon="34.7024508286"><ele>166.45</ele><time>2026-08-15T02:40:39Z</time></trkpt><trkpt lat="59.3577353563" lon="34.7023850307"><ele>167.41</ele><time>2026-08-15T02:40:48Z</time></trkpt><trkpt lat="59.3578290660" lon="34.7022842802"><ele>167.41</ele><time>2026-08-15T02:41:07Z</time></trkpt><trkpt lat="59.3579050060" lon="34.7022489924"><ele>165.96</ele><time>2026-08-15T02:41:12Z</time></trkpt><trkpt lat="59.3579494301" lon="34.7022245172"><ele>165.96</ele><time>2026-08-15T02:41:27Z</time></trkpt><trkpt lat="59.3579739053" lon="34.7022195719"><ele>165.96</ele><time>2026-08-15T02:41:45Z</time></trkpt><trkpt lat="59.3580196705" lon="34.7021899000"><ele>165.96</ele><time>2026-08-15T02:42:13Z</time></trkpt><trkpt lat="59.3580350094" lon="34.7021895647"><ele>165.48</ele><time>2026-08-15T02:42:35Z</time></trkpt><trkpt lat="59.3580429722" lon="34.7021714598"><ele>165.00</ele><time>2026-08-15T02:42:55Z</time></trkpt><trkpt lat="59.3580472469" lon="34.7021624912"><ele>166.45</ele><time>2026-08-15T02:43:09Z</time></trkpt><trkpt lat="59.3581162300" lon="34.7020925023"><ele>166.93</ele><time>2026-08-15T02:43:25Z</time></trkpt><trkpt lat="59.3582168128" lon="34.7020323202"><ele>166.93</ele><time>2026-08-15T02:43:41Z</time></trkpt><trkpt lat="59.3582360912" lon="34.7020125389"><ele>167.41</ele><time>2026-08-15T02:43:57Z</time></trkpt><trkpt lat="59.3583976943" lon="34.7020041570"><ele>167.89</ele><time>2026-08-15T02:44:16Z</time></trkpt><trkpt lat="59.3584345747" lon="34.7020195797"><ele>167.89</ele><time>2026-08-15T02:44:40Z</time></trkpt><trkpt lat="59.3585445452" lon="34.7019863874"><ele>168.37</ele><time>2026-08-15T02:44:56Z</time></trkpt><trkpt lat="59.3586044759" lon="34.7019666899"><ele>168.37</ele><time>2026-08-15T02:45:10Z</time></trkpt><trkpt lat="59.3586485647" lon="34.7019345034"><ele>168.37</ele><time>2026-08-15T02:45:25Z</time></trkpt><trkpt lat="59.3586508278" lon="34.7019121237"><ele>168.37</ele><time>2026-08-15T02:45:50Z</time></trkpt><trkpt lat="59.3586762249" lon="34.7018857207"><ele>168.37</ele><time>2026-08-15T02:46:32Z</time></trkpt><trkpt lat="59.3587277737" lon="34.7019084357"><ele>166.93</ele><time>2026-08-15T02:46:45Z</time></trkpt><trkpt lat="59.3587562721" lon="34.7019136325"><ele>168.37</ele><time>2026-08-15T02:46:59Z</time></trkpt><trkpt lat="59.3588208966" lon="34.7019067593"><ele>168.37</ele><time>2026-08-15T02:47:17Z</time></trkpt><trkpt lat="59.3588980101" lon="34.7018951084"><ele>168.37</ele><time>2026-08-15T02:47:33Z</time></trkpt><trkpt lat="59.3589844275" lon="34.7018469125"><ele>168.37</ele><time>2026-08-15T02:47:44Z</time></trkpt><trkpt lat="59.3590710126" lon="34.7018722259"><ele>168.37</ele><time>2026-08-15T02:48:02Z</time></trkpt><trkpt lat="59.3591350503" lon="34.7018940188"><ele>168.37</ele><time>2026-08-15T02:48:15Z</time></trkpt><trkpt lat="59.3591433484" lon="34.7018910851"><ele>167.41</ele><time>2026-08-15T02:48:18Z</time></trkpt><trkpt lat="59.3591807317" lon="34.7018812783"><ele>167.41</ele><time>2026-08-15T02:48:51Z</time></trkpt><trkpt lat="59.3592581805" lon="34.7019040771"><ele>166.93</ele><time>2026-08-15T02:49:13Z</time></trkpt><trkpt lat="59.3593839090" lon="34.7019101959"><ele>165.96</ele><time>2026-08-15T02:49:32Z</time></trkpt><trkpt lat="59.3594193645" lon="34.7018719744"><ele>165.96</ele><time>2026-08-15T02:49:53Z</time></trkpt><trkpt lat="59.3594353739" lon="34.7018577252"><ele>166.93</ele><time>2026-08-15T02:50:21Z</time></trkpt><trkpt lat="59.3594280817" lon="34.7018612456"><ele>166.93</ele><time>2026-08-15T02:50:51Z</time></trkpt><trkpt lat="59.3594323564" lon="34.7018606588"><ele>166.93</ele><time>2026-08-15T02:51:19Z</time></trkpt><trkpt lat="59.3594316859" lon="34.7018588148"><ele>166.93</ele><time>2026-08-15T02:51:57Z</time></trkpt><trkpt lat="59.3594348710" lon="34.7018485051"><ele>167.41</ele><time>2026-08-15T02:52:36Z</time></trkpt><trkpt lat="59.3594371341" lon="34.7018561326"><ele>167.41</ele><time>2026-08-15T02:53:05Z</time></trkpt><trkpt lat="59.3594331946" lon="34.7018569708"><ele>167.89</ele><time>2026-08-15T02:53:36Z</time></trkpt><trkpt lat="59.3594450131" lon="34.7016958706"><ele>167.89</ele><time>2026-08-15T02:53:52Z</time></trkpt><trkpt lat="59.3594435044" lon="34.7016629297"><ele>166.93</ele><time>2026-08-15T02:54:07Z</time></trkpt><trkpt lat="59.3594555743" lon="34.7014825512"><ele>165.96</ele><time>2026-08-15T02:54:25Z</time></trkpt><trkpt lat="59.3594680633" lon="34.7012673039"><ele>165.00</ele><time>2026-08-15T02:54:41Z</time></trkpt><trkpt lat="59.3594599329" lon="34.7011998296"><ele>164.52</ele><time>2026-08-15T02:54:59Z</time></trkpt><trkpt lat="59.3594724219" lon="34.7011327744"><ele>164.52</ele><time>2026-08-15T02:55:14Z</time></trkpt><trkpt lat="59.3594656326" lon="34.7010124102"><ele>164.52</ele><time>2026-08-15T02:55:35Z</time></trkpt><trkpt lat="59.3594683148" lon="34.7009710036"><ele>164.52</ele><time>2026-08-15T02:56:08Z</time></trkpt><trkpt lat="59.3594750203" lon="34.7009606101"><ele>164.52</ele><time>2026-08-15T02:56:44Z</time></trkpt><trkpt lat="59.3594808877" lon="34.7009779606"><ele>164.52</ele><time>2026-08-15T02:57:07Z</time></trkpt><trkpt lat="59.3594839051" lon="34.7009672318"><ele>164.52</ele><time>2026-08-15T02:57:33Z</time></trkpt><trkpt lat="59.3594874255" lon="34.7009630408"><ele>164.52</ele><time>2026-08-15T02:57:54Z</time></trkpt><trkpt lat="59.3594877608" lon="34.7009661421"><ele>165.48</ele><time>2026-08-15T02:58:08Z</time></trkpt><trkpt lat="59.3595027644" lon="34.7009637952"><ele>165.96</ele><time>2026-08-15T02:58:42Z</time></trkpt><trkpt lat="59.3594865035" lon="34.7009432595"><ele>165.96</ele><time>2026-08-15T02:59:16Z</time></trkpt><trkpt lat="59.3594932090" lon="34.7009397391"><ele>166.45</ele><time>2026-08-15T02:59:43Z</time></trkpt><trkpt lat="59.3594746012" lon="34.7009414155"><ele>166.45</ele><time>2026-08-15T03:00:00Z</time></trkpt><trkpt lat="59.3594158441" lon="34.7010011785"><ele>166.45</ele><time>2026-08-15T03:00:11Z</time></trkpt><trkpt lat="59.3593711685" lon="34.7010334488"><ele>166.93</ele><time>2026-08-15T03:00:34Z</time></trkpt><trkpt lat="59.3592792191" lon="34.7010800522"><ele>167.89</ele><time>2026-08-15T03:00:47Z</time></trkpt><trkpt lat="59.3592066318" lon="34.7011431679"><ele>168.85</ele><time>2026-08-15T03:01:02Z</time></trkpt><trkpt lat="59.3590994272" lon="34.7012145817"><ele>170.77</ele><time>2026-08-15T03:01:20Z</time></trkpt><trkpt lat="59.3590219785" lon="34.7012025118"><ele>171.25</ele><time>2026-08-15T03:01:36Z</time></trkpt><trkpt lat="59.3589524087" lon="34.7012148332"><ele>172.21</ele><time>2026-08-15T03:01:52Z</time></trkpt><trkpt lat="59.3589305319" lon="34.7012376320"><ele>172.21</ele><time>2026-08-15T03:02:10Z</time></trkpt><trkpt lat="59.3588770553" lon="34.7012543958"><ele>172.21</ele><time>2026-08-15T03:02:25Z</time></trkpt><trkpt lat="59.3587832619" lon="34.7013294138"><ele>171.25</ele><time>2026-08-15T03:02:40Z</time></trkpt><trkpt lat="59.3586861994" lon="34.7013569903"><ele>171.25</ele><time>2026-08-15T03:02:57Z</time></trkpt><trkpt lat="59.3585459702" lon="34.7014226206"><ele>171.25</ele><time>2026-08-15T03:03:15Z</time></trkpt><trkpt lat="59.3585427012" lon="34.7014313377"><ele>170.77</ele><time>2026-08-15T03:03:36Z</time></trkpt><trkpt lat="59.3585278653" lon="34.7014563158"><ele>170.77</ele><time>2026-08-15T03:04:13Z</time></trkpt><trkpt lat="59.3585255183" lon="34.7014305834"><ele>170.77</ele><time>2026-08-15T03:04:51Z</time></trkpt><trkpt lat="59.3585231714" lon="34.7014189325"><ele>170.77</ele><time>2026-08-15T03:05:23Z</time></trkpt><trkpt lat="59.3585297931" lon="34.7014256380"><ele>170.77</ele><time>2026-08-15T03:05:54Z</time></trkpt><trkpt lat="59.3585260212" lon="34.7014363669"><ele>170.77</ele><time>2026-08-15T03:06:20Z</time></trkpt><trkpt lat="59.3585235067" lon="34.7014444973"><ele>170.77</ele><time>2026-08-15T03:06:42Z</time></trkpt><trkpt lat="59.3585320562" lon="34.7014213633"><ele>170.77</ele><time>2026-08-15T03:07:09Z</time></trkpt><trkpt lat="59.3585256021" lon="34.7014143225"><ele>170.77</ele><time>2026-08-15T03:07:41Z</time></trkpt><trkpt lat="59.3585204892" lon="34.7013888415"><ele>170.77</ele><time>2026-08-15T03:08:10Z</time></trkpt><trkpt lat="59.3585095089" lon="34.7014064435"><ele>170.77</ele><time>2026-08-15T03:08:27Z</time></trkpt><trkpt lat="59.3584788311" lon="34.7014263924"><ele>170.77</ele><time>2026-08-15T03:08:41Z</time></trkpt><trkpt lat="59.3584613968" lon="34.7014430724"><ele>171.25</ele><time>2026-08-15T03:08:59Z</time></trkpt><trkpt lat="59.3584391009" lon="34.7014656197"><ele>169.81</ele><time>2026-08-15T03:09:09Z</time></trkpt><trkpt lat="59.3584157154" lon="34.7015170846"><ele>169.81</ele><time>2026-08-15T03:09:27Z</time></trkpt><trkpt lat="59.3583431281" lon="34.7015963774"><ele>169.81</ele><time>2026-08-15T03:09:39Z</time></trkpt><trkpt lat="59.3582342472" lon="34.7016900871"><ele>169.33</ele><time>2026-08-15T03:09:54Z</time></trkpt><trkpt lat="59.3580544554" lon="34.7018096130"><ele>169.33</ele><time>2026-08-15T03:10:10Z</time></trkpt><trkpt lat="59.3580126297" lon="34.7018738184"><ele>169.33</ele><time>2026-08-15T03:10:24Z</time></trkpt><trkpt lat="59.3579393718" lon="34.7018891573"><ele>168.85</ele><time>2026-08-15T03:10:45Z</time></trkpt><trkpt lat="59.3578920141" lon="34.7018774226"><ele>168.85</ele><time>2026-08-15T03:11:00Z</time></trkpt><trkpt lat="59.3578485120" lon="34.7018552944"><ele>168.85</ele><time>2026-08-15T03:11:13Z</time></trkpt><trkpt lat="59.3578428961" lon="34.7018487565"><ele>168.85</ele><time>2026-08-15T03:11:31Z</time></trkpt><trkpt lat="59.3578021601" lon="34.7018327471"><ele>168.85</ele><time>2026-08-15T03:11:50Z</time></trkpt><trkpt lat="59.3577588256" lon="34.7017887421"><ele>168.85</ele><time>2026-08-15T03:12:06Z</time></trkpt><trkpt lat="59.3577166647" lon="34.7017936874"><ele>168.85</ele><time>2026-08-15T03:12:24Z</time></trkpt><trkpt lat="59.3576578237" lon="34.7017595731"><ele>168.37</ele><time>2026-08-15T03:12:39Z</time></trkpt><trkpt lat="59.3576408084" lon="34.7017661110"><ele>168.37</ele><time>2026-08-15T03:12:55Z</time></trkpt><trkpt lat="59.3576224521" lon="34.7018141393"><ele>168.37</ele><time>2026-08-15T03:13:09Z</time></trkpt><trkpt lat="59.3575676344" lon="34.7018404584"><ele>168.37</ele><time>2026-08-15T03:13:25Z</time></trkpt><trkpt lat="59.3575362861" lon="34.7018534504"><ele>168.37</ele><time>2026-08-15T03:13:40Z</time></trkpt><trkpt lat="59.3574515451" lon="34.7019120399"><ele>169.81</ele><time>2026-08-15T03:13:55Z</time></trkpt><trkpt lat="59.3573240563" lon="34.7020045761"><ele>169.81</ele><time>2026-08-15T03:14:11Z</time></trkpt><trkpt lat="59.3572716694" lon="34.7020104434"><ele>169.81</ele><time>2026-08-15T03:14:26Z</time></trkpt><trkpt lat="59.3572322745" lon="34.7020216752"><ele>170.77</ele><time>2026-08-15T03:14:38Z</time></trkpt><trkpt lat="59.3572219647" lon="34.7020724695"><ele>170.77</ele><time>2026-08-15T03:14:55Z</time></trkpt><trkpt lat="59.3572021835" lon="34.7020828631"><ele>170.77</ele><time>2026-08-15T03:15:21Z</time></trkpt><trkpt lat="59.3571953941" lon="34.7020727210"><ele>169.81</ele><time>2026-08-15T03:15:55Z</time></trkpt><trkpt lat="59.3572001718" lon="34.7020820249"><ele>169.81</ele><time>2026-08-15T03:16:15Z</time></trkpt><trkpt lat="59.3572107330" lon="34.7020868864"><ele>169.81</ele><time>2026-08-15T03:16:50Z</time></trkpt><trkpt lat="59.3572098948" lon="34.7020788398"><ele>169.81</ele><time>2026-08-15T03:17:14Z</time></trkpt><trkpt lat="59.3572031893" lon="34.7020857967"><ele>169.33</ele><time>2026-08-15T03:17:58Z</time></trkpt><trkpt lat="59.3571995851" lon="34.7020865511"><ele>170.29</ele><time>2026-08-15T03:18:22Z</time></trkpt><trkpt lat="59.3572057877" lon="34.7020934243"><ele>170.29</ele><time>2026-08-15T03:18:47Z</time></trkpt><trkpt lat="59.3572060391" lon="34.7020804323"><ele>170.29</ele><time>2026-08-15T03:19:11Z</time></trkpt><trkpt lat="59.3572062906" lon="34.7020800970"><ele>168.85</ele><time>2026-08-15T03:19:14Z</time></trkpt><trkpt lat="59.3572077155" lon="34.7020723019"><ele>168.85</ele><time>2026-08-15T03:19:29Z</time></trkpt><trkpt lat="59.3572192825" lon="34.7019738145"><ele>168.85</ele><time>2026-08-15T03:19:40Z</time></trkpt><trkpt lat="59.3572513852" lon="34.7018384468"><ele>168.85</ele><time>2026-08-15T03:19:54Z</time></trkpt><trkpt lat="59.3572568335" lon="34.7017769236"><ele>168.37</ele><time>2026-08-15T03:20:10Z</time></trkpt><trkpt lat="59.3572610244" lon="34.7017359361"><ele>167.89</ele><time>2026-08-15T03:20:22Z</time></trkpt><trkpt lat="59.3572635390" lon="34.7016274743"><ele>166.93</ele><time>2026-08-15T03:20:36Z</time></trkpt><trkpt lat="59.3572637066" lon="34.7015515342"><ele>166.93</ele><time>2026-08-15T03:20:51Z</time></trkpt><trkpt lat="59.3572685681" lon="34.7014432400"><ele>166.45</ele><time>2026-08-15T03:21:07Z</time></trkpt><trkpt lat="59.3572920375" lon="34.7012911923"><ele>166.45</ele><time>2026-08-15T03:21:20Z</time></trkpt><trkpt lat="59.3573171832" lon="34.7012130730"><ele>167.41</ele><time>2026-08-15T03:21:30Z</time></trkpt><trkpt lat="59.3573456816" lon="34.7011490352"><ele>167.41</ele><time>2026-08-15T03:22:02Z</time></trkpt><trkpt lat="59.3573543150" lon="34.7011487838"><ele>166.45</ele><time>2026-08-15T03:22:30Z</time></trkpt><trkpt lat="59.3574186042" lon="34.7012045234"><ele>166.45</ele><time>2026-08-15T03:22:44Z</time></trkpt><trkpt lat="59.3574293330" lon="34.7012090497"><ele>167.41</ele><time>2026-08-15T03:22:56Z</time></trkpt><trkpt lat="59.3574918620" lon="34.7012500372"><ele>167.41</ele><time>2026-08-15T03:23:16Z</time></trkpt><trkpt lat="59.3575407285" lon="34.7012595087"><ele>167.41</ele><time>2026-08-15T03:23:28Z</time></trkpt><trkpt lat="59.3575832248" lon="34.7012582514"><ele>167.89</ele><time>2026-08-15T03:23:48Z</time></trkpt><trkpt lat="59.3576299958" lon="34.7012731712"><ele>167.89</ele><time>2026-08-15T03:24:04Z</time></trkpt><trkpt lat="59.3576649483" lon="34.7012962215"><ele>167.89</ele><time>2026-08-15T03:24:26Z</time></trkpt><trkpt lat="59.3578206841" lon="34.7012372967"><ele>167.89</ele><time>2026-08-15T03:24:40Z</time></trkpt><trkpt lat="59.3578565586" lon="34.7011932917"><ele>168.37</ele><time>2026-08-15T03:24:55Z</time></trkpt><trkpt lat="59.3578577321" lon="34.7011938784"><ele>167.41</ele><time>2026-08-15T03:24:59Z</time></trkpt><trkpt lat="59.3578583188" lon="34.7011898551"><ele>168.37</ele><time>2026-08-15T03:25:27Z</time></trkpt><trkpt lat="59.3578738254" lon="34.7011844069"><ele>168.37</ele><time>2026-08-15T03:25:44Z</time></trkpt><trkpt lat="59.3578842189" lon="34.7011847422"><ele>167.41</ele><time>2026-08-15T03:26:19Z</time></trkpt><trkpt lat="59.3578894157" lon="34.7011837363"><ele>167.41</ele><time>2026-08-15T03:26:49Z</time></trkpt><trkpt lat="59.3579076044" lon="34.7011839878"><ele>167.41</ele><time>2026-08-15T03:27:30Z</time></trkpt><trkpt lat="59.3579141423" lon="34.7011956386"><ele>167.41</ele><time>2026-08-15T03:27:55Z</time></trkpt><trkpt lat="59.3579348456" lon="34.7011808865"><ele>167.41</ele><time>2026-08-15T03:28:19Z</time></trkpt><trkpt lat="59.3579439819" lon="34.7011763602"><ele>168.37</ele><time>2026-08-15T03:28:35Z</time></trkpt><trkpt lat="59.3580004759" lon="34.7011668887"><ele>168.37</ele><time>2026-08-15T03:28:51Z</time></trkpt><trkpt lat="59.3580788467" lon="34.7011630330"><ele>168.37</ele><time>2026-08-15T03:29:06Z</time></trkpt><trkpt lat="59.3580990471" lon="34.7011543158"><ele>168.37</ele><time>2026-08-15T03:29:29Z</time></trkpt><trkpt lat="59.3581619952" lon="34.7011328582"><ele>168.37</ele><time>2026-08-15T03:29:39Z</time></trkpt><trkpt lat="59.3582199141" lon="34.7011256497"><ele>168.37</ele><time>2026-08-15T03:29:55Z</time></trkpt><trkpt lat="59.3583807629" lon="34.7010577563"><ele>168.85</ele><time>2026-08-15T03:30:17Z</time></trkpt><trkpt lat="59.3584231753" lon="34.7010607738"><ele>169.81</ele><time>2026-08-15T03:30:33Z</time></trkpt><trkpt lat="59.3585307989" lon="34.7009815648"><ele>169.81</ele><time>2026-08-15T03:30:50Z</time></trkpt><trkpt lat="59.3585969321" lon="34.7009300161"><ele>170.29</ele><time>2026-08-15T03:31:10Z</time></trkpt><trkpt lat="59.3586252630" lon="34.7009221371"><ele>170.77</ele><time>2026-08-15T03:31:26Z</time></trkpt><trkpt lat="59.3586515822" lon="34.7009352967"><ele>169.81</ele><time>2026-08-15T03:31:42Z</time></trkpt><trkpt lat="59.3586751353" lon="34.7009288426"><ele>169.81</ele><time>2026-08-15T03:32:24Z</time></trkpt><trkpt lat="59.3586910609" lon="34.7009368055"><ele>170.77</ele><time>2026-08-15T03:32:54Z</time></trkpt><trkpt lat="59.3586925697" lon="34.7009642143"><ele>170.77</ele><time>2026-08-15T03:33:31Z</time></trkpt><trkpt lat="59.3587255944" lon="34.7009658907"><ele>170.77</ele><time>2026-08-15T03:34:07Z</time></trkpt><trkpt lat="59.3588619679" lon="34.7009728476"><ele>170.77</ele><time>2026-08-15T03:34:23Z</time></trkpt><trkpt lat="59.3588757142" lon="34.7009724285"><ele>169.33</ele><time>2026-08-15T03:34:35Z</time></trkpt><trkpt lat="59.3588832580" lon="34.7009771224"><ele>168.37</ele><time>2026-08-15T03:34:54Z</time></trkpt><trkpt lat="59.3589280173" lon="34.7009883542"><ele>166.93</ele><time>2026-08-15T03:35:07Z</time></trkpt><trkpt lat="59.3589909654" lon="34.7009930480"><ele>166.93</ele><time>2026-08-15T03:35:29Z</time></trkpt><trkpt lat="59.3590176199" lon="34.7009880189"><ele>166.45</ele><time>2026-08-15T03:35:47Z</time></trkpt><trkpt lat="59.3590428494" lon="34.7009994183"><ele>166.45</ele><time>2026-08-15T03:36:14Z</time></trkpt><trkpt lat="59.3590720184" lon="34.7009974904"><ele>167.41</ele><time>2026-08-15T03:36:37Z</time></trkpt><trkpt lat="59.3590930570" lon="34.7009935509"><ele>167.41</ele><time>2026-08-15T03:36:57Z</time></trkpt><trkpt lat="59.3591200467" lon="34.7009950597"><ele>165.96</ele><time>2026-08-15T03:37:15Z</time></trkpt><trkpt lat="59.3591275904" lon="34.7009912040"><ele>166.93</ele><time>2026-08-15T03:37:37Z</time></trkpt><trkpt lat="59.3591576815" lon="34.7009729315"><ele>167.41</ele><time>2026-08-15T03:38:01Z</time></trkpt><trkpt lat="59.3591656443" lon="34.7009746917"><ele>166.45</ele><time>2026-08-15T03:38:20Z</time></trkpt><trkpt lat="59.3591972440" lon="34.7009860910"><ele>165.96</ele><time>2026-08-15T03:38:33Z</time></trkpt><trkpt lat="59.3593117408" lon="34.7010194510"><ele>165.96</ele><time>2026-08-15T03:38:50Z</time></trkpt><trkpt lat="59.3593440950" lon="34.7010139190"><ele>166.93</ele><time>2026-08-15T03:39:10Z</time></trkpt><trkpt lat="59.3593685701" lon="34.7010260727"><ele>165.48</ele><time>2026-08-15T03:39:14Z</time></trkpt><trkpt lat="59.3593651336" lon="34.7010552417"><ele>165.48</ele><time>2026-08-15T03:39:33Z</time></trkpt><trkpt lat="59.3593851663" lon="34.7010614444"><ele>165.48</ele><time>2026-08-15T03:39:54Z</time></trkpt><trkpt lat="59.3594011758" lon="34.7010889370"><ele>165.48</ele><time>2026-08-15T03:40:26Z</time></trkpt><trkpt lat="59.3594176043" lon="34.7011203691"><ele>165.48</ele><time>2026-08-15T03:40:59Z</time></trkpt><trkpt lat="59.3594747689" lon="34.7010744363"><ele>166.45</ele><time>2026-08-15T03:41:21Z</time></trkpt><trkpt lat="59.3594902754" lon="34.7010814771"><ele>166.45</ele><time>2026-08-15T03:41:49Z</time></trkpt><trkpt lat="59.3595340289" lon="34.7010580916"><ele>166.45</ele><time>2026-08-15T03:42:00Z</time></trkpt><trkpt lat="59.3595512956" lon="34.7010376398"><ele>166.45</ele><time>2026-08-15T03:42:26Z</time></trkpt><trkpt lat="59.3595880922" lon="34.7009161860"><ele>166.45</ele><time>2026-08-15T03:42:42Z</time></trkpt><trkpt lat="59.3596319295" lon="34.7008432634"><ele>166.45</ele><time>2026-08-15T03:43:00Z</time></trkpt><trkpt lat="59.3596592546" lon="34.7007290181"><ele>166.45</ele><time>2026-08-15T03:43:14Z</time></trkpt><trkpt lat="59.3597064447" lon="34.7005397547"><ele>166.93</ele><time>2026-08-15T03:43:30Z</time></trkpt><trkpt lat="59.3596786167" lon="34.7004744597"><ele>166.93</ele><time>2026-08-15T03:43:47Z</time></trkpt><trkpt lat="59.3596783653" lon="34.7004736215"><ele>166.93</ele><time>2026-08-15T03:43:48Z</time></trkpt><trkpt lat="59.3596466817" lon="34.7003690992"><ele>166.93</ele><time>2026-08-15T03:44:03Z</time></trkpt><trkpt lat="59.3596224580" lon="34.7004099190"><ele>167.41</ele><time>2026-08-15T03:44:37Z</time></trkpt><trkpt lat="59.3596142437" lon="34.7003939096"><ele>166.45</ele><time>2026-08-15T03:45:06Z</time></trkpt><trkpt lat="59.3596153334" lon="34.7003851924"><ele>166.45</ele><time>2026-08-15T03:45:28Z</time></trkpt><trkpt lat="59.3596153334" lon="34.7003535926"><ele>166.45</ele><time>2026-08-15T03:45:57Z</time></trkpt><trkpt lat="59.3596129026" lon="34.7003391758"><ele>166.45</ele><time>2026-08-15T03:46:29Z</time></trkpt><trkpt lat="59.3596163392" lon="34.7003235016"><ele>166.45</ele><time>2026-08-15T03:47:00Z</time></trkpt><trkpt lat="59.3596296664" lon="34.7002920695"><ele>166.45</ele><time>2026-08-15T03:47:24Z</time></trkpt><trkpt lat="59.3596296664" lon="34.7002686001"><ele>166.45</ele><time>2026-08-15T03:47:52Z</time></trkpt><trkpt lat="59.3596018385" lon="34.7003100906"><ele>166.45</ele><time>2026-08-15T03:48:06Z</time></trkpt><trkpt lat="59.3595397286" lon="34.7003213223"><ele>166.45</ele><time>2026-08-15T03:48:21Z</time></trkpt><trkpt lat="59.3594640400" lon="34.7003667522"><ele>167.41</ele><time>2026-08-15T03:48:37Z</time></trkpt><trkpt lat="59.3594137486" lon="34.7004628088"><ele>167.41</ele><time>2026-08-15T03:48:48Z</time></trkpt><trkpt lat="59.3593167700" lon="34.7004624736"><ele>167.41</ele><time>2026-08-15T03:48:59Z</time></trkpt><trkpt lat="59.3592577614" lon="34.7004967555"><ele>167.41</ele><time>2026-08-15T03:49:11Z</time></trkpt><trkpt lat="59.3592113256" lon="34.7005393356"><ele>167.41</ele><time>2026-08-15T03:49:24Z</time></trkpt><trkpt lat="59.3591265008" lon="34.7005650681"><ele>167.41</ele><time>2026-08-15T03:49:39Z</time></trkpt><trkpt lat="59.3590803165" lon="34.7005736176"><ele>167.41</ele><time>2026-08-15T03:49:53Z</time></trkpt><trkpt lat="59.3590279296" lon="34.7005560994"><ele>167.41</ele><time>2026-08-15T03:50:06Z</time></trkpt><trkpt lat="59.3589975871" lon="34.7005638946"><ele>167.41</ele><time>2026-08-15T03:50:21Z</time></trkpt><trkpt lat="59.3589777220" lon="34.7005484719"><ele>167.89</ele><time>2026-08-15T03:50:38Z</time></trkpt><trkpt lat="59.3589610420" lon="34.7005421016"><ele>167.89</ele><time>2026-08-15T03:50:53Z</time></trkpt><trkpt lat="59.3588880356" lon="34.7005897108"><ele>168.37</ele><time>2026-08-15T03:51:08Z</time></trkpt><trkpt lat="59.3588473834" lon="34.7006701771"><ele>170.29</ele><time>2026-08-15T03:51:26Z</time></trkpt><trkpt lat="59.3588003609" lon="34.7006326262"><ele>170.29</ele><time>2026-08-15T03:51:39Z</time></trkpt><trkpt lat="59.3587185536" lon="34.7006182931"><ele>170.77</ele><time>2026-08-15T03:51:53Z</time></trkpt><trkpt lat="59.3587027956" lon="34.7006065585"><ele>170.77</ele><time>2026-08-15T03:52:14Z</time></trkpt><trkpt lat="59.3587022927" lon="34.7006098274"><ele>170.77</ele><time>2026-08-15T03:52:43Z</time></trkpt><trkpt lat="59.3587057292" lon="34.7006086539"><ele>170.77</ele><time>2026-08-15T03:53:14Z</time></trkpt><trkpt lat="59.3587022927" lon="34.7006015293"><ele>170.77</ele><time>2026-08-15T03:53:40Z</time></trkpt><trkpt lat="59.3586985208" lon="34.7006005235"><ele>170.77</ele><time>2026-08-15T03:54:07Z</time></trkpt><trkpt lat="59.3586958386" lon="34.7006368171"><ele>170.77</ele><time>2026-08-15T03:54:29Z</time></trkpt><trkpt lat="59.3586774822" lon="34.7006467078"><ele>170.77</ele><time>2026-08-15T03:54:46Z</time></trkpt><trkpt lat="59.3586459663" lon="34.7006658185"><ele>169.81</ele><time>2026-08-15T03:55:05Z</time></trkpt><trkpt lat="59.3585558608" lon="34.7008049581"><ele>169.33</ele><time>2026-08-15T03:55:18Z</time></trkpt><trkpt lat="59.3584984448" lon="34.7008168604"><ele>169.33</ele><time>2026-08-15T03:55:33Z</time></trkpt><trkpt lat="59.3584258575" lon="34.7008041199"><ele>168.37</ele><time>2026-08-15T03:55:48Z</time></trkpt><trkpt lat="59.3583688606" lon="34.7007813212"><ele>168.85</ele><time>2026-08-15T03:56:02Z</time></trkpt><trkpt lat="59.3582965247" lon="34.7007805668"><ele>168.85</ele><time>2026-08-15T03:56:23Z</time></trkpt><trkpt lat="59.3582578003" lon="34.7007739451"><ele>167.41</ele><time>2026-08-15T03:56:43Z</time></trkpt><trkpt lat="59.3582032342" lon="34.7007000167"><ele>167.41</ele><time>2026-08-15T03:56:59Z</time></trkpt><trkpt lat="59.3581552897" lon="34.7006475460"><ele>167.41</ele><time>2026-08-15T03:57:16Z</time></trkpt><trkpt lat="59.3581389450" lon="34.7006449476"><ele>167.41</ele><time>2026-08-15T03:57:21Z</time></trkpt><trkpt lat="59.3581095245" lon="34.7006241605"><ele>166.93</ele><time>2026-08-15T03:57:36Z</time></trkpt><trkpt lat="59.3580371886" lon="34.7005770542"><ele>166.93</ele><time>2026-08-15T03:57:51Z</time></trkpt><trkpt lat="59.3579962011" lon="34.7005126812"><ele>166.93</ele><time>2026-08-15T03:58:08Z</time></trkpt><trkpt lat="59.3579599075" lon="34.7005115915"><ele>166.93</ele><time>2026-08-15T03:58:21Z</time></trkpt><trkpt lat="59.3579583988" lon="34.7005105857"><ele>166.93</ele><time>2026-08-15T03:58:22Z</time></trkpt><trkpt lat="59.3579479214" lon="34.7005052213"><ele>166.93</ele><time>2026-08-15T03:58:37Z</time></trkpt><trkpt lat="59.3579028267" lon="34.7004871164"><ele>166.93</ele><time>2026-08-15T03:58:50Z</time></trkpt><trkpt lat="59.3578812853" lon="34.7004862782"><ele>166.93</ele><time>2026-08-15T03:59:07Z</time></trkpt><trkpt lat="59.3577600829" lon="34.7005323786"><ele>166.93</ele><time>2026-08-15T03:59:21Z</time></trkpt><trkpt lat="59.3577089533" lon="34.7005064785"><ele>168.85</ele><time>2026-08-15T03:59:26Z</time></trkpt><trkpt lat="59.3576653674" lon="34.7004607134"><ele>168.85</ele><time>2026-08-15T03:59:42Z</time></trkpt><trkpt lat="59.3576606736" lon="34.7004737891"><ele>168.85</ele><time>2026-08-15T04:00:03Z</time></trkpt><trkpt lat="59.3576689716" lon="34.7004956659"><ele>168.85</ele><time>2026-08-15T04:00:22Z</time></trkpt><trkpt lat="59.3576666247" lon="34.7004971746"><ele>168.85</ele><time>2026-08-15T04:00:46Z</time></trkpt><trkpt lat="59.3576627690" lon="34.7004764713"><ele>168.85</ele><time>2026-08-15T04:01:10Z</time></trkpt><trkpt lat="59.3576510344" lon="34.7004885413"><ele>168.85</ele><time>2026-08-15T04:01:34Z</time></trkpt><trkpt lat="59.3575931992" lon="34.7005047183"><ele>168.85</ele><time>2026-08-15T04:01:50Z</time></trkpt><trkpt lat="59.3574687280" lon="34.7005362343"><ele>169.33</ele><time>2026-08-15T04:02:02Z</time></trkpt><trkpt lat="59.3574277405" lon="34.7005483881"><ele>169.33</ele><time>2026-08-15T04:02:07Z</time></trkpt><trkpt lat="59.3574161734" lon="34.7005306184"><ele>167.89</ele><time>2026-08-15T04:02:09Z</time></trkpt><trkpt lat="59.3573995773" lon="34.7005268466"><ele>167.89</ele><time>2026-08-15T04:02:26Z</time></trkpt><trkpt lat="59.3573995773" lon="34.7005120944"><ele>168.85</ele><time>2026-08-15T04:02:40Z</time></trkpt><trkpt lat="59.3573994096" lon="34.7005097475"><ele>168.85</ele><time>2026-08-15T04:02:59Z</time></trkpt><trkpt lat="59.3574004993" lon="34.7005201411"><ele>168.85</ele><time>2026-08-15T04:03:16Z</time></trkpt><trkpt lat="59.3574089650" lon="34.7005175427"><ele>168.85</ele><time>2026-08-15T04:03:34Z</time></trkpt><trkpt lat="59.3574108090" lon="34.7005207278"><ele>168.85</ele><time>2026-08-15T04:03:52Z</time></trkpt><trkpt lat="59.3573990744" lon="34.7004713584"><ele>168.85</ele><time>2026-08-15T04:04:06Z</time></trkpt><trkpt lat="59.3573984038" lon="34.7004376631"><ele>168.85</ele><time>2026-08-15T04:04:16Z</time></trkpt><trkpt lat="59.3574045226" lon="34.7003523353"><ele>168.85</ele><time>2026-08-15T04:04:31Z</time></trkpt><trkpt lat="59.3574063666" lon="34.7001631558"><ele>168.85</ele><time>2026-08-15T04:04:47Z</time></trkpt><trkpt lat="59.3574447557" lon="34.6999751497"><ele>168.85</ele><time>2026-08-15T04:05:01Z</time></trkpt><trkpt lat="59.3574567419" lon="34.6999463998"><ele>168.85</ele><time>2026-08-15T04:05:20Z</time></trkpt><trkpt lat="59.3574497011" lon="34.6998115350"><ele>168.85</ele><time>2026-08-15T04:05:31Z</time></trkpt><trkpt lat="59.3574510422" lon="34.6997868922"><ele>168.85</ele><time>2026-08-15T04:05:45Z</time></trkpt><trkpt lat="59.3574498687" lon="34.6997419652"><ele>168.85</ele><time>2026-08-15T04:05:56Z</time></trkpt><trkpt lat="59.3574445043" lon="34.6996484231"><ele>168.85</ele><time>2026-08-15T04:06:08Z</time></trkpt><trkpt lat="59.3574658781" lon="34.6996381134"><ele>168.85</ele><time>2026-08-15T04:06:43Z</time></trkpt><trkpt lat="59.3574650399" lon="34.6996200923"><ele>168.85</ele><time>2026-08-15T04:07:05Z</time></trkpt><trkpt lat="59.3574732542" lon="34.6996423043"><ele>168.85</ele><time>2026-08-15T04:07:25Z</time></trkpt><trkpt lat="59.3576049339" lon="34.6997531969"><ele>168.85</ele><time>2026-08-15T04:07:42Z</time></trkpt><trkpt lat="59.3576651160" lon="34.6997987106"><ele>169.33</ele><time>2026-08-15T04:07:56Z</time></trkpt><trkpt lat="59.3577360269" lon="34.6997778397"><ele>169.33</ele><time>2026-08-15T04:08:09Z</time></trkpt><trkpt lat="59.3577249628" lon="34.6998005547"><ele>169.33</ele><time>2026-08-15T04:08:34Z</time></trkpt><trkpt lat="59.3577285670" lon="34.6997977048"><ele>169.33</ele><time>2026-08-15T04:09:06Z</time></trkpt><trkpt lat="59.3577303272" lon="34.6997917537"><ele>169.33</ele><time>2026-08-15T04:09:33Z</time></trkpt><trkpt lat="59.3577318359" lon="34.6997821145"><ele>169.33</ele><time>2026-08-15T04:10:03Z</time></trkpt><trkpt lat="59.3577355240" lon="34.6997723915"><ele>169.33</ele><time>2026-08-15T04:10:40Z</time></trkpt><trkpt lat="59.3577398825" lon="34.6997659374"><ele>168.37</ele><time>2026-08-15T04:10:58Z</time></trkpt><trkpt lat="59.3577411398" lon="34.6997641772"><ele>169.33</ele><time>2026-08-15T04:11:33Z</time></trkpt><trkpt lat="59.3577672075" lon="34.6998167317"><ele>169.33</ele><time>2026-08-15T04:11:49Z</time></trkpt><trkpt lat="59.3578195944" lon="34.6997728106"><ele>168.37</ele><time>2026-08-15T04:12:02Z</time></trkpt><trkpt lat="59.3578698859" lon="34.6998648439"><ele>169.33</ele><time>2026-08-15T04:12:21Z</time></trkpt><trkpt lat="59.3579291459" lon="34.6999106091"><ele>167.89</ele><time>2026-08-15T04:12:35Z</time></trkpt><trkpt lat="59.3579655234" lon="34.6999200806"><ele>167.41</ele><time>2026-08-15T04:12:51Z</time></trkpt><trkpt lat="59.3580029905" lon="34.6999586374"><ele>166.93</ele><time>2026-08-15T04:13:05Z</time></trkpt><trkpt lat="59.3580355961" lon="34.7000155505"><ele>165.96</ele><time>2026-08-15T04:13:22Z</time></trkpt><trkpt lat="59.3581700418" lon="34.7001110204"><ele>167.41</ele><time>2026-08-15T04:13:38Z</time></trkpt><trkpt lat="59.3581907451" lon="34.7001054045"><ele>166.93</ele><time>2026-08-15T04:14:06Z</time></trkpt><trkpt lat="59.3582745641" lon="34.7001397703"><ele>167.89</ele><time>2026-08-15T04:14:25Z</time></trkpt><trkpt lat="59.3583550304" lon="34.7001345735"><ele>168.37</ele><time>2026-08-15T04:14:42Z</time></trkpt><trkpt lat="59.3584952597" lon="34.7000870481"><ele>168.85</ele><time>2026-08-15T04:14:59Z</time></trkpt><trkpt lat="59.3585634883" lon="34.7001188155"><ele>168.85</ele><time>2026-08-15T04:15:14Z</time></trkpt><trkpt lat="59.3585685175" lon="34.7001421172"><ele>168.85</ele><time>2026-08-15T04:15:43Z</time></trkpt><trkpt lat="59.3585756421" lon="34.7001325618"><ele>168.85</ele><time>2026-08-15T04:16:09Z</time></trkpt><trkpt lat="59.3585839402" lon="34.7001333162"><ele>168.85</ele><time>2026-08-15T04:16:40Z</time></trkpt><trkpt lat="59.3585834373" lon="34.7001361661"><ele>168.85</ele><time>2026-08-15T04:17:07Z</time></trkpt><trkpt lat="59.3585825991" lon="34.7001456376"><ele>168.85</ele><time>2026-08-15T04:17:47Z</time></trkpt><trkpt lat="59.3586234190" lon="34.7002141178"><ele>168.85</ele><time>2026-08-15T04:18:04Z</time></trkpt><trkpt lat="59.3586568628" lon="34.7002256848"><ele>168.85</ele><time>2026-08-15T04:18:22Z</time></trkpt><trkpt lat="59.3587044720" lon="34.7002059873"><ele>168.85</ele><time>2026-08-15T04:18:38Z</time></trkpt><trkpt lat="59.3587556854" lon="34.7002323903"><ele>167.89</ele><time>2026-08-15T04:18:50Z</time></trkpt><trkpt lat="59.3587770592" lon="34.7002452984"><ele>166.45</ele><time>2026-08-15T04:19:10Z</time></trkpt><trkpt lat="59.3588597886" lon="34.7002142854"><ele>166.45</ele><time>2026-08-15T04:19:27Z</time></trkpt><trkpt lat="59.3589071464" lon="34.7001684364"><ele>166.45</ele><time>2026-08-15T04:19:43Z</time></trkpt><trkpt lat="59.3589085713" lon="34.7001807578"><ele>165.96</ele><time>2026-08-15T04:19:58Z</time></trkpt><trkpt lat="59.3589504808" lon="34.7002634034"><ele>165.48</ele><time>2026-08-15T04:20:15Z</time></trkpt><trkpt lat="59.3590026163" lon="34.7002701089"><ele>165.48</ele><time>2026-08-15T04:20:28Z</time></trkpt><trkpt lat="59.3590559252" lon="34.7002497409"><ele>165.48</ele><time>2026-08-15T04:20:52Z</time></trkpt><trkpt lat="59.3590760417" lon="34.7002327256"><ele>165.00</ele><time>2026-08-15T04:21:06Z</time></trkpt><trkpt lat="59.3591311947" lon="34.7002337314"><ele>165.00</ele><time>2026-08-15T04:21:19Z</time></trkpt><trkpt lat="59.3593324441" lon="34.7002468072"><ele>165.00</ele><time>2026-08-15T04:21:36Z</time></trkpt><trkpt lat="59.3593570031" lon="34.7002509143"><ele>165.00</ele><time>2026-08-15T04:21:51Z</time></trkpt><trkpt lat="59.3593634572" lon="34.7002560273"><ele>165.00</ele><time>2026-08-15T04:22:16Z</time></trkpt><trkpt lat="59.3593725096" lon="34.7002683487"><ele>165.00</ele><time>2026-08-15T04:22:45Z</time></trkpt><trkpt lat="59.3593821488" lon="34.7002658341"><ele>165.00</ele><time>2026-08-15T04:23:12Z</time></trkpt><trkpt lat="59.3593846634" lon="34.7002556920"><ele>165.00</ele><time>2026-08-15T04:23:38Z</time></trkpt><trkpt lat="59.3593906984" lon="34.7002595477"><ele>165.00</ele><time>2026-08-15T04:24:01Z</time></trkpt><trkpt lat="59.3594341166" lon="34.7002506629"><ele>166.45</ele><time>2026-08-15T04:24:16Z</time></trkpt><trkpt lat="59.3594848271" lon="34.7002340667"><ele>166.45</ele><time>2026-08-15T04:24:35Z</time></trkpt><trkpt lat="59.3595206179" lon="34.7002046462"><ele>166.45</ele><time>2026-08-15T04:24:46Z</time></trkpt><trkpt lat="59.3595408183" lon="34.7002003714"><ele>166.45</ele><time>2026-08-15T04:25:00Z</time></trkpt><trkpt lat="59.3595686462" lon="34.7001879662"><ele>166.45</ele><time>2026-08-15T04:25:13Z</time></trkpt><trkpt lat="59.3596404791" lon="34.7001893912"><ele>166.93</ele><time>2026-08-15T04:25:27Z</time></trkpt><trkpt lat="59.3597744219" lon="34.7001140378"><ele>167.41</ele><time>2026-08-15T04:25:39Z</time></trkpt><trkpt lat="59.3598097097" lon="34.7000813484"><ele>167.89</ele><time>2026-08-15T04:25:54Z</time></trkpt><trkpt lat="59.3598266412" lon="34.7000886407"><ele>167.89</ele><time>2026-08-15T04:26:09Z</time></trkpt><trkpt lat="59.3598537147" lon="34.7001107689"><ele>167.89</ele><time>2026-08-15T04:26:21Z</time></trkpt><trkpt lat="59.3598874100" lon="34.7000411991"><ele>167.89</ele><time>2026-08-15T04:26:33Z</time></trkpt><trkpt lat="59.3599122204" lon="34.7000147961"><ele>167.89</ele><time>2026-08-15T04:26:52Z</time></trkpt><trkpt lat="59.3599183392" lon="34.7000157181"><ele>167.89</ele><time>2026-08-15T04:27:29Z</time></trkpt><trkpt lat="59.3599234521" lon="34.7000105213"><ele>167.89</ele><time>2026-08-15T04:28:02Z</time></trkpt><trkpt lat="59.3599200994" lon="34.6999622416"><ele>167.89</ele><time>2026-08-15T04:28:21Z</time></trkpt><trkpt lat="59.3599390425" lon="34.6999572124"><ele>168.37</ele><time>2026-08-15T04:28:51Z</time></trkpt><trkpt lat="59.3599403836" lon="34.6999614034"><ele>168.37</ele><time>2026-08-15T04:29:17Z</time></trkpt><trkpt lat="59.3599458318" lon="34.6999716293"><ele>166.93</ele><time>2026-08-15T04:29:37Z</time></trkpt><trkpt lat="59.3599432334" lon="34.6999737248"><ele>166.45</ele><time>2026-08-15T04:29:58Z</time></trkpt><trkpt lat="59.3599407189" lon="34.6999724675"><ele>167.41</ele><time>2026-08-15T04:30:24Z</time></trkpt><trkpt lat="59.3599414732" lon="34.6999678575"><ele>167.41</ele><time>2026-08-15T04:30:49Z</time></trkpt><trkpt lat="59.3599246256" lon="34.6999210864"><ele>166.45</ele><time>2026-08-15T04:31:09Z</time></trkpt><trkpt lat="59.3598646112" lon="34.6998658497"><ele>166.45</ele><time>2026-08-15T04:31:32Z</time></trkpt><trkpt lat="59.3599251285" lon="34.6998719685"><ele>166.45</ele><time>2026-08-15T04:31:58Z</time></trkpt><trkpt lat="59.3599209376" lon="34.6998739801"><ele>166.45</ele><time>2026-08-15T04:32:36Z</time></trkpt><trkpt lat="59.3599260505" lon="34.6998733096"><ele>167.89</ele><time>2026-08-15T04:32:47Z</time></trkpt><trkpt lat="59.3599444069" lon="34.6998892352"><ele>167.89</ele><time>2026-08-15T04:33:18Z</time></trkpt><trkpt lat="59.3599465862" lon="34.6998868044"><ele>166.45</ele><time>2026-08-15T04:33:26Z</time></trkpt><trkpt lat="59.3599391263" lon="34.6998738963"><ele>167.41</ele><time>2026-08-15T04:33:45Z</time></trkpt><trkpt lat="59.3599468376" lon="34.6998676099"><ele>167.41</ele><time>2026-08-15T04:34:11Z</time></trkpt><trkpt lat="59.3599488493" lon="34.6998681966"><ele>167.41</ele><time>2026-08-15T04:34:36Z</time></trkpt><trkpt lat="59.3599468376" lon="34.6998666041"><ele>166.93</ele><time>2026-08-15T04:35:05Z</time></trkpt><trkpt lat="59.3599459995" lon="34.6998672746"><ele>166.45</ele><time>2026-08-15T04:35:28Z</time></trkpt><trkpt lat="59.3599465024" lon="34.6998691186"><ele>167.89</ele><time>2026-08-15T04:35:36Z</time></trkpt><trkpt lat="59.3599364441" lon="34.6998734772"><ele>167.89</ele><time>2026-08-15T04:35:59Z</time></trkpt><trkpt lat="59.3599408865" lon="34.6998987906"><ele>168.37</ele><time>2026-08-15T04:36:17Z</time></trkpt><trkpt lat="59.3599510286" lon="34.6999103576"><ele>168.37</ele><time>2026-08-15T04:36:45Z</time></trkpt><trkpt lat="59.3599600811" lon="34.6998507623"><ele>168.37</ele><time>2026-08-15T04:36:58Z</time></trkpt><trkpt lat="59.3599491008" lon="34.6997862216"><ele>168.37</ele><time>2026-08-15T04:37:13Z</time></trkpt><trkpt lat="59.3599030841" lon="34.6996167395"><ele>166.93</ele><time>2026-08-15T04:37:30Z</time></trkpt><trkpt lat="59.3598846439" lon="34.6995625086"><ele>168.37</ele><time>2026-08-15T04:37:46Z</time></trkpt><trkpt lat="59.3598950375" lon="34.6993201040"><ele>168.85</ele><time>2026-08-15T04:38:00Z</time></trkpt><trkpt lat="59.3598877452" lon="34.6991605964"><ele>168.85</ele><time>2026-08-15T04:38:13Z</time></trkpt><trkpt lat="59.3598594144" lon="34.6991662960"><ele>168.85</ele><time>2026-08-15T04:38:32Z</time></trkpt><trkpt lat="59.3598540500" lon="34.6991435811"><ele>168.85</ele><time>2026-08-15T04:38:56Z</time></trkpt><trkpt lat="59.3598574027" lon="34.6991294995"><ele>168.85</ele><time>2026-08-15T04:39:23Z</time></trkpt><trkpt lat="59.3598563969" lon="34.6991219558"><ele>168.85</ele><time>2026-08-15T04:39:41Z</time></trkpt><trkpt lat="59.3598608393" lon="34.6991112269"><ele>168.85</ele><time>2026-08-15T04:40:04Z</time></trkpt><trkpt lat="59.3598568160" lon="34.6991139930"><ele>168.85</ele><time>2026-08-15T04:40:37Z</time></trkpt><trkpt lat="59.3598522060" lon="34.6991138253"><ele>168.85</ele><time>2026-08-15T04:41:03Z</time></trkpt><trkpt lat="59.3598464224" lon="34.6991089638"><ele>168.85</ele><time>2026-08-15T04:41:29Z</time></trkpt><trkpt lat="59.3598030880" lon="34.6989864204"><ele>168.85</ele><time>2026-08-15T04:41:42Z</time></trkpt><trkpt lat="59.3597441632" lon="34.6989904437"><ele>168.85</ele><time>2026-08-15T04:41:53Z</time></trkpt><trkpt lat="59.3597060256" lon="34.6990114823"><ele>167.41</ele><time>2026-08-15T04:42:03Z</time></trkpt><trkpt lat="59.3596668821" lon="34.6989984065"><ele>167.41</ele><time>2026-08-15T04:42:15Z</time></trkpt><trkpt lat="59.3596565723" lon="34.6990067046"><ele>167.41</ele><time>2026-08-15T04:42:36Z</time></trkpt><trkpt lat="59.3595688976" lon="34.6988974884"><ele>167.41</ele><time>2026-08-15T04:42:53Z</time></trkpt><trkpt lat="59.3595344480" lon="34.6988853347"><ele>168.85</ele><time>2026-08-15T04:42:57Z</time></trkpt><trkpt lat="59.3595153373" lon="34.6987922955"><ele>168.85</ele><time>2026-08-15T04:43:12Z</time></trkpt><trkpt lat="59.3594395649" lon="34.6986717638"><ele>169.33</ele><time>2026-08-15T04:43:32Z</time></trkpt><trkpt lat="59.3594315182" lon="34.6986722667"><ele>167.89</ele><time>2026-08-15T04:43:35Z</time></trkpt><trkpt lat="59.3594028521" lon="34.6986435167"><ele>167.41</ele><time>2026-08-15T04:43:49Z</time></trkpt><trkpt lat="59.3593645468" lon="34.6986208856"><ele>166.93</ele><time>2026-08-15T04:44:04Z</time></trkpt><trkpt lat="59.3592817336" lon="34.6985697560"><ele>166.93</ele><time>2026-08-15T04:44:17Z</time></trkpt><trkpt lat="59.3592544086" lon="34.6985492203"><ele>168.37</ele><time>2026-08-15T04:44:19Z</time></trkpt><trkpt lat="59.3591907900" lon="34.6984855179"><ele>168.85</ele><time>2026-08-15T04:44:30Z</time></trkpt><trkpt lat="59.3591601960" lon="34.6984461229"><ele>168.85</ele><time>2026-08-15T04:44:49Z</time></trkpt><trkpt lat="59.3591596093" lon="34.6984863561"><ele>168.85</ele><time>2026-08-15T04:45:12Z</time></trkpt><trkpt lat="59.3591429293" lon="34.6984719392"><ele>169.33</ele><time>2026-08-15T04:45:29Z</time></trkpt><trkpt lat="59.3591088150" lon="34.6984395012"><ele>169.33</ele><time>2026-08-15T04:45:43Z</time></trkpt><trkpt lat="59.3590343837" lon="34.6984135173"><ele>169.33</ele><time>2026-08-15T04:45:58Z</time></trkpt><trkpt lat="59.3589588627" lon="34.6983950771"><ele>169.33</ele><time>2026-08-15T04:46:10Z</time></trkpt><trkpt lat="59.3589837570" lon="34.6983913053"><ele>169.33</ele><time>2026-08-15T04:46:32Z</time></trkpt><trkpt lat="59.3590115011" lon="34.6983790677"><ele>169.33</ele><time>2026-08-15T04:46:44Z</time></trkpt><trkpt lat="59.3590455316" lon="34.6983128507"><ele>169.33</ele><time>2026-08-15T04:46:56Z</time></trkpt><trkpt lat="59.3591502216" lon="34.6984646469"><ele>169.33</ele><time>2026-08-15T04:47:10Z</time></trkpt><trkpt lat="59.3591332063" lon="34.6986301895"><ele>168.37</ele><time>2026-08-15T04:47:20Z</time></trkpt><trkpt lat="59.3591208011" lon="34.6987179480"><ele>168.37</ele><time>2026-08-15T04:47:34Z</time></trkpt><trkpt lat="59.3591127545" lon="34.6987387352"><ele>168.37</ele><time>2026-08-15T04:47:57Z</time></trkpt><trkpt lat="59.3591056298" lon="34.6987602767"><ele>168.37</ele><time>2026-08-15T04:48:19Z</time></trkpt><trkpt lat="59.3591099046" lon="34.6987780463"><ele>168.37</ele><time>2026-08-15T04:48:43Z</time></trkpt><trkpt lat="59.3591081444" lon="34.6987839974"><ele>168.37</ele><time>2026-08-15T04:49:08Z</time></trkpt><trkpt lat="59.3590643909" lon="34.6989602689"><ele>168.37</ele><time>2026-08-15T04:49:21Z</time></trkpt><trkpt lat="59.3590496387" lon="34.6990685631"><ele>167.41</ele><time>2026-08-15T04:49:34Z</time></trkpt><trkpt lat="59.3590218108" lon="34.6990896016"><ele>167.41</ele><time>2026-08-15T04:49:50Z</time></trkpt><trkpt lat="59.3590122554" lon="34.6990932897"><ele>168.85</ele><time>2026-08-15T04:50:15Z</time></trkpt><trkpt lat="59.3589887861" lon="34.6992756799"><ele>168.85</ele><time>2026-08-15T04:50:30Z</time></trkpt><trkpt lat="59.3589268439" lon="34.6994092036"><ele>168.85</ele><time>2026-08-15T04:50:48Z</time></trkpt><trkpt lat="59.3589083198" lon="34.6994515322"><ele>168.85</ele><time>2026-08-15T04:51:07Z</time></trkpt><trkpt lat="59.3589131813" lon="34.6994445752"><ele>168.85</ele><time>2026-08-15T04:51:27Z</time></trkpt><trkpt lat="59.3589164503" lon="34.6994422283"><ele>168.85</ele><time>2026-08-15T04:51:47Z</time></trkpt><trkpt lat="59.3589140195" lon="34.6994580701"><ele>168.85</ele><time>2026-08-15T04:52:13Z</time></trkpt><trkpt lat="59.3589161988" lon="34.6994610038"><ele>168.85</ele><time>2026-08-15T04:52:47Z</time></trkpt><trkpt lat="59.3589137681" lon="34.6994693857"><ele>168.85</ele><time>2026-08-15T04:53:13Z</time></trkpt><trkpt lat="59.3589101639" lon="34.6994561423"><ele>168.85</ele><time>2026-08-15T04:53:43Z</time></trkpt><trkpt lat="59.3589084037" lon="34.6994516999"><ele>168.85</ele><time>2026-08-15T04:54:03Z</time></trkpt><trkpt lat="59.3589073140" lon="34.6994466707"><ele>168.85</ele><time>2026-08-15T04:54:32Z</time></trkpt><trkpt lat="59.3589083198" lon="34.6994451620"><ele>168.85</ele><time>2026-08-15T04:54:50Z</time></trkpt><trkpt lat="59.3588838447" lon="34.6994530410"><ele>168.85</ele><time>2026-08-15T04:55:04Z</time></trkpt><trkpt lat="59.3588514905" lon="34.6994115505"><ele>168.85</ele><time>2026-08-15T04:55:22Z</time></trkpt><trkpt lat="59.3587450404" lon="34.6993146557"><ele>168.85</ele><time>2026-08-15T04:55:37Z</time></trkpt><trkpt lat="59.3587164581" lon="34.6993127279"><ele>167.41</ele><time>2026-08-15T04:55:42Z</time></trkpt><trkpt lat="59.3586327229" lon="34.6992097143"><ele>167.41</ele><time>2026-08-15T04:55:55Z</time></trkpt><trkpt lat="59.3585626502" lon="34.6991468500"><ele>168.85</ele><time>2026-08-15T04:56:05Z</time></trkpt><trkpt lat="59.3584739696" lon="34.6991418209"><ele>169.33</ele><time>2026-08-15T04:56:20Z</time></trkpt><trkpt lat="59.3584424537" lon="34.6991500352"><ele>169.33</ele><time>2026-08-15T04:56:35Z</time></trkpt><trkpt lat="59.3584210798" lon="34.6991723310"><ele>169.33</ele><time>2026-08-15T04:56:54Z</time></trkpt><trkpt lat="59.3583603110" lon="34.6991733368"><ele>169.33</ele><time>2026-08-15T04:57:07Z</time></trkpt><trkpt lat="59.3583147973" lon="34.6991654579"><ele>169.81</ele><time>2026-08-15T04:57:19Z</time></trkpt><trkpt lat="59.3583111092" lon="34.6991726663"><ele>168.37</ele><time>2026-08-15T04:57:37Z</time></trkpt><trkpt lat="59.3583019730" lon="34.6991838980"><ele>167.89</ele><time>2026-08-15T04:57:59Z</time></trkpt><trkpt lat="59.3582230993" lon="34.6991965547"><ele>167.41</ele><time>2026-08-15T04:58:15Z</time></trkpt><trkpt lat="59.3581132963" lon="34.6991774440"><ele>167.41</ele><time>2026-08-15T04:58:29Z</time></trkpt><trkpt lat="59.3580956943" lon="34.6991452575"><ele>167.41</ele><time>2026-08-15T04:58:42Z</time></trkpt><trkpt lat="59.3579919264" lon="34.6991326846"><ele>167.41</ele><time>2026-08-15T04:58:55Z</time></trkpt><trkpt lat="59.3579216022" lon="34.6990757715"><ele>167.41</ele><time>2026-08-15T04:59:08Z</time></trkpt><trkpt lat="59.3579157349" lon="34.6990765259"><ele>168.37</ele><time>2026-08-15T04:59:10Z</time></trkpt><trkpt lat="59.3578139786" lon="34.6990041900"><ele>168.37</ele><time>2026-08-15T04:59:25Z</time></trkpt><trkpt lat="59.3577704765" lon="34.6989930421"><ele>168.37</ele><time>2026-08-15T04:59:38Z</time></trkpt><trkpt lat="59.3577132281" lon="34.6989161801"><ele>168.37</ele><time>2026-08-15T04:59:53Z</time></trkpt><trkpt lat="59.3577081151" lon="34.6989145875"><ele>168.37</ele><time>2026-08-15T05:00:12Z</time></trkpt><trkpt lat="59.3577036727" lon="34.6989044454"><ele>166.93</ele><time>2026-08-15T05:00:22Z</time></trkpt><trkpt lat="59.3577082828" lon="34.6989054512"><ele>168.37</ele><time>2026-08-15T05:00:49Z</time></trkpt><trkpt lat="59.3576989789" lon="34.6988932136"><ele>168.37</ele><time>2026-08-15T05:01:07Z</time></trkpt><trkpt lat="59.3576973025" lon="34.6988910343"><ele>168.37</ele><time>2026-08-15T05:01:36Z</time></trkpt><trkpt lat="59.3577003200" lon="34.6988914534"><ele>168.37</ele><time>2026-08-15T05:02:06Z</time></trkpt><trkpt lat="59.3576988950" lon="34.6988925431"><ele>168.37</ele><time>2026-08-15T05:02:40Z</time></trkpt><trkpt lat="59.3576936144" lon="34.6988223866"><ele>168.37</ele><time>2026-08-15T05:02:55Z</time></trkpt><trkpt lat="59.3576916028" lon="34.6988197882"><ele>166.93</ele><time>2026-08-15T05:03:19Z</time></trkpt><trkpt lat="59.3576598354" lon="34.6987785492"><ele>166.93</ele><time>2026-08-15T05:03:38Z</time></trkpt><trkpt lat="59.3576569017" lon="34.6987581812"><ele>166.93</ele><time>2026-08-15T05:03:57Z</time></trkpt><trkpt lat="59.3576880824" lon="34.6988375578"><ele>166.93</ele><time>2026-08-15T05:04:15Z</time></trkpt><trkpt lat="59.3577092886" lon="34.6988938004"><ele>166.93</ele><time>2026-08-15T05:04:34Z</time></trkpt><trkpt lat="59.3577041756" lon="34.6989186946"><ele>168.37</ele><time>2026-08-15T05:04:46Z</time></trkpt><trkpt lat="59.3577290699" lon="34.6989006735"><ele>168.37</ele><time>2026-08-15T05:05:14Z</time></trkpt><trkpt lat="59.3577378709" lon="34.6989031881"><ele>168.37</ele><time>2026-08-15T05:05:50Z</time></trkpt><trkpt lat="59.3577390444" lon="34.6989036072"><ele>168.37</ele><time>2026-08-15T05:06:16Z</time></trkpt><trkpt lat="59.3577394634" lon="34.6988976561"><ele>168.37</ele><time>2026-08-15T05:06:49Z</time></trkpt><trkpt lat="59.3577409722" lon="34.6988622006"><ele>168.37</ele><time>2026-08-15T05:07:05Z</time></trkpt><trkpt lat="59.3577295728" lon="34.6987148467"><ele>168.37</ele><time>2026-08-15T05:07:19Z</time></trkpt><trkpt lat="59.3577475101" lon="34.6985793952"><ele>168.37</ele><time>2026-08-15T05:07:32Z</time></trkpt><trkpt lat="59.3577512819" lon="34.6984891221"><ele>168.37</ele><time>2026-08-15T05:07:49Z</time></trkpt><trkpt lat="59.3577592447" lon="34.6983291116"><ele>168.85</ele><time>2026-08-15T05:08:02Z</time></trkpt><trkpt lat="59.3577594124" lon="34.6982444543"><ele>167.41</ele><time>2026-08-15T05:08:16Z</time></trkpt><trkpt lat="59.3577522039" lon="34.6981912293"><ele>167.41</ele><time>2026-08-15T05:08:33Z</time></trkpt><trkpt lat="59.3577352725" lon="34.6981426142"><ele>167.41</ele><time>2026-08-15T05:08:45Z</time></trkpt><trkpt lat="59.3577509467" lon="34.6980888862"><ele>168.85</ele><time>2026-08-15T05:09:06Z</time></trkpt><trkpt lat="59.3577366136" lon="34.6980318893"><ele>167.89</ele><time>2026-08-15T05:09:20Z</time></trkpt><trkpt lat="59.3577366974" lon="34.6980035584"><ele>167.89</ele><time>2026-08-15T05:09:34Z</time></trkpt><trkpt lat="59.3577381223" lon="34.6980039775"><ele>167.89</ele><time>2026-08-15T05:09:57Z</time></trkpt><trkpt lat="59.3577558082" lon="34.6980295423"><ele>167.89</ele><time>2026-08-15T05:10:16Z</time></trkpt><trkpt lat="59.3577615917" lon="34.6980267763"><ele>167.89</ele><time>2026-08-15T05:10:39Z</time></trkpt><trkpt lat="59.3577690516" lon="34.6980313864"><ele>169.33</ele><time>2026-08-15T05:11:07Z</time></trkpt><trkpt lat="59.3577718176" lon="34.6980816778"><ele>169.33</ele><time>2026-08-15T05:11:29Z</time></trkpt><trkpt lat="59.3577698059" lon="34.6980962623"><ele>167.89</ele><time>2026-08-15T05:11:54Z</time></trkpt><trkpt lat="59.3577842228" lon="34.6981052309"><ele>167.89</ele><time>2026-08-15T05:12:07Z</time></trkpt><trkpt lat="59.3578319997" lon="34.6981431171"><ele>167.89</ele><time>2026-08-15T05:12:20Z</time></trkpt><trkpt lat="59.3578449916" lon="34.6981548518"><ele>169.33</ele><time>2026-08-15T05:12:28Z</time></trkpt><trkpt lat="59.3579065986" lon="34.6982399281"><ele>169.33</ele><time>2026-08-15T05:12:44Z</time></trkpt><trkpt lat="59.3579366896" lon="34.6982556861"><ele>169.33</ele><time>2026-08-15T05:12:59Z</time></trkpt><trkpt lat="59.3579922616" lon="34.6982841007"><ele>169.33</ele><time>2026-08-15T05:13:15Z</time></trkpt><trkpt lat="59.3580660224" lon="34.6983219031"><ele>169.33</ele><time>2026-08-15T05:13:28Z</time></trkpt><trkpt lat="59.3580829538" lon="34.6983248368"><ele>169.33</ele><time>2026-08-15T05:13:50Z</time></trkpt><trkpt lat="59.3580901623" lon="34.6983351465"><ele>169.33</ele><time>2026-08-15T05:14:08Z</time></trkpt><trkpt lat="59.3580925092" lon="34.6983388346"><ele>169.33</ele><time>2026-08-15T05:14:26Z</time></trkpt><trkpt lat="59.3580769189" lon="34.6983642317"><ele>167.89</ele><time>2026-08-15T05:14:40Z</time></trkpt><trkpt lat="59.3580748234" lon="34.6983605437"><ele>169.33</ele><time>2026-08-15T05:14:42Z</time></trkpt><trkpt lat="59.3580692075" lon="34.6983461268"><ele>169.33</ele><time>2026-08-15T05:14:59Z</time></trkpt><trkpt lat="59.3580647651" lon="34.6983373258"><ele>169.33</ele><time>2026-08-15T05:15:18Z</time></trkpt><trkpt lat="59.3580664415" lon="34.6983544249"><ele>167.89</ele><time>2026-08-15T05:15:37Z</time></trkpt><trkpt lat="59.3580604065" lon="34.6983421035"><ele>169.81</ele><time>2026-08-15T05:15:53Z</time></trkpt><trkpt lat="59.3580615800" lon="34.6983248368"><ele>169.81</ele><time>2026-08-15T05:16:13Z</time></trkpt><trkpt lat="59.3580609933" lon="34.6982934047"><ele>170.29</ele><time>2026-08-15T05:16:38Z</time></trkpt><trkpt lat="59.3580602389" lon="34.6982931532"><ele>168.85</ele><time>2026-08-15T05:16:39Z</time></trkpt><trkpt lat="59.3580583110" lon="34.6982902195"><ele>168.85</ele><time>2026-08-15T05:16:53Z</time></trkpt><trkpt lat="59.3580931798" lon="34.6983429417"><ele>168.85</ele><time>2026-08-15T05:17:09Z</time></trkpt><trkpt lat="59.3581530266" lon="34.6984115057"><ele>168.85</ele><time>2026-08-15T05:17:22Z</time></trkpt><trkpt lat="59.3581709638" lon="34.6984320413"><ele>170.29</ele><time>2026-08-15T05:17:41Z</time></trkpt><trkpt lat="59.3582565431" lon="34.6984778903"><ele>170.29</ele><time>2026-08-15T05:17:55Z</time></trkpt><trkpt lat="59.3583343271" lon="34.6986791398"><ele>168.85</ele><time>2026-08-15T05:18:14Z</time></trkpt><trkpt lat="59.3583665136" lon="34.6986984182"><ele>168.85</ele><time>2026-08-15T05:18:30Z</time></trkpt><trkpt lat="59.3583873846" lon="34.6986940596"><ele>170.29</ele><time>2026-08-15T05:18:34Z</time></trkpt><trkpt lat="59.3584335689" lon="34.6987646352"><ele>170.77</ele><time>2026-08-15T05:18:53Z</time></trkpt><trkpt lat="59.3584956788" lon="34.6987798065"><ele>171.25</ele><time>2026-08-15T05:19:11Z</time></trkpt><trkpt lat="59.3585332297" lon="34.6987685747"><ele>171.25</ele><time>2026-08-15T05:19:26Z</time></trkpt><trkpt lat="59.3585617281" lon="34.6987773757"><ele>171.25</ele><time>2026-08-15T05:19:45Z</time></trkpt><trkpt lat="59.3585665058" lon="34.6987812314"><ele>169.81</ele><time>2026-08-15T05:19:49Z</time></trkpt><trkpt lat="59.3586544320" lon="34.6988067962"><ele>169.81</ele><time>2026-08-15T05:20:02Z</time></trkpt><trkpt lat="59.3586954195" lon="34.6988310199"><ele>169.33</ele><time>2026-08-15T05:20:20Z</time></trkpt><trkpt lat="59.3587996904" lon="34.6989850793"><ele>168.85</ele><time>2026-08-15T05:20:35Z</time></trkpt><trkpt lat="59.3588687573" lon="34.6990814712"><ele>168.85</ele><time>2026-08-15T05:20:51Z</time></trkpt><trkpt lat="59.3589026202" lon="34.6991320141"><ele>167.89</ele><time>2026-08-15T05:21:04Z</time></trkpt><trkpt lat="59.3589097448" lon="34.6991427429"><ele>167.89</ele><time>2026-08-15T05:21:34Z</time></trkpt><trkpt lat="59.3589180429" lon="34.6991398931"><ele>167.41</ele><time>2026-08-15T05:21:35Z</time></trkpt><trkpt lat="59.3590468727" lon="34.6991937049"><ele>167.41</ele><time>2026-08-15T05:21:45Z</time></trkpt><trkpt lat="59.3590415921" lon="34.6992570721"><ele>167.41</ele><time>2026-08-15T05:21:59Z</time></trkpt><trkpt lat="59.3590792269" lon="34.6993537154"><ele>166.93</ele><time>2026-08-15T05:22:16Z</time></trkpt><trkpt lat="59.3591313623" lon="34.6993821301"><ele>166.45</ele><time>2026-08-15T05:22:32Z</time></trkpt><trkpt lat="59.3592440989" lon="34.6993311681"><ele>167.89</ele><time>2026-08-15T05:22:49Z</time></trkpt><trkpt lat="59.3593612779" lon="34.6994323377"><ele>166.93</ele><time>2026-08-15T05:23:04Z</time></trkpt><trkpt lat="59.3594109826" lon="34.6995083615"><ele>166.45</ele><time>2026-08-15T05:23:21Z</time></trkpt><trkpt lat="59.3594511319" lon="34.6995433141"><ele>165.96</ele><time>2026-08-15T05:23:32Z</time></trkpt><trkpt lat="59.3595305085" lon="34.6995666996"><ele>165.48</ele><time>2026-08-15T05:23:45Z</time></trkpt><trkpt lat="59.3595929537" lon="34.6995858941"><ele>165.48</ele><time>2026-08-15T05:23:57Z</time></trkpt><trkpt lat="59.3596560694" lon="34.6996292286"><ele>165.48</ele><time>2026-08-15T05:24:09Z</time></trkpt><trkpt lat="59.3596798740" lon="34.6996601578"><ele>165.48</ele><time>2026-08-15T05:24:15Z</time></trkpt><trkpt lat="59.3597369548" lon="34.6996248700"><ele>165.48</ele><time>2026-08-15T05:24:26Z</time></trkpt><trkpt lat="59.3597376253" lon="34.6996397059"><ele>166.93</ele><time>2026-08-15T05:24:39Z</time></trkpt><trkpt lat="59.3597425707" lon="34.6996353474"><ele>167.41</ele><time>2026-08-15T05:25:12Z</time></trkpt><trkpt lat="59.3597420678" lon="34.6996294800"><ele>166.45</ele><time>2026-08-15T05:25:37Z</time></trkpt><trkpt lat="59.3597436603" lon="34.6996319108"><ele>165.48</ele><time>2026-08-15T05:26:08Z</time></trkpt><trkpt lat="59.3597419839" lon="34.6996342577"><ele>166.93</ele><time>2026-08-15T05:26:30Z</time></trkpt><trkpt lat="59.3597442470" lon="34.6996383648"><ele>166.93</ele><time>2026-08-15T05:26:43Z</time></trkpt><trkpt lat="59.3597499467" lon="34.6995781828"><ele>166.93</ele><time>2026-08-15T05:27:00Z</time></trkpt><trkpt lat="59.3597550597" lon="34.6994721517"><ele>166.93</ele><time>2026-08-15T05:27:15Z</time></trkpt><trkpt lat="59.3597762659" lon="34.6993641928"><ele>167.41</ele><time>2026-08-15T05:27:28Z</time></trkpt><trkpt lat="59.3598175887" lon="34.6991413180"><ele>167.89</ele><time>2026-08-15T05:27:43Z</time></trkpt><trkpt lat="59.3598403875" lon="34.6989238914"><ele>168.37</ele><time>2026-08-15T05:27:58Z</time></trkpt><trkpt lat="59.3598220311" lon="34.6988068800"><ele>168.37</ele><time>2026-08-15T05:28:09Z</time></trkpt><trkpt lat="59.3598322570" lon="34.6987421717"><ele>167.41</ele><time>2026-08-15T05:28:15Z</time></trkpt><trkpt lat="59.3598491047" lon="34.6985754557"><ele>167.41</ele><time>2026-08-15T05:28:31Z</time></trkpt><trkpt lat="59.3598660361" lon="34.6985485498"><ele>166.45</ele><time>2026-08-15T05:28:44Z</time></trkpt><trkpt lat="59.3598631024" lon="34.6985141840"><ele>166.45</ele><time>2026-08-15T05:29:05Z</time></trkpt><trkpt lat="59.3598617613" lon="34.6985089872"><ele>165.96</ele><time>2026-08-15T05:29:28Z</time></trkpt><trkpt lat="59.3598617613" lon="34.6985059697"><ele>167.41</ele><time>2026-08-15T05:29:51Z</time></trkpt><trkpt lat="59.3598584924" lon="34.6985197160"><ele>167.41</ele><time>2026-08-15T05:30:25Z</time></trkpt><trkpt lat="59.3598586600" lon="34.6985252481"><ele>167.41</ele><time>2026-08-15T05:30:51Z</time></trkpt><trkpt lat="59.3598578218" lon="34.6985177044"><ele>165.96</ele><time>2026-08-15T05:31:13Z</time></trkpt><trkpt lat="59.3598641921" lon="34.6985100769"><ele>165.96</ele><time>2026-08-15T05:31:36Z</time></trkpt><trkpt lat="59.3598301616" lon="34.6984377410"><ele>165.96</ele><time>2026-08-15T05:31:54Z</time></trkpt><trkpt lat="59.3597706500" lon="34.6983489767"><ele>165.96</ele><time>2026-08-15T05:32:05Z</time></trkpt><trkpt lat="59.3597346917" lon="34.6983688418"><ele>165.96</ele><time>2026-08-15T05:32:19Z</time></trkpt><trkpt lat="59.3596727494" lon="34.6983421873"><ele>165.96</ele><time>2026-08-15T05:32:31Z</time></trkpt><trkpt lat="59.3596687261" lon="34.6983390860"><ele>167.41</ele><time>2026-08-15T05:32:34Z</time></trkpt><trkpt lat="59.3596368749" lon="34.6983174607"><ele>167.41</ele><time>2026-08-15T05:32:47Z</time></trkpt><trkpt lat="59.3596191891" lon="34.6983115096"><ele>167.41</ele><time>2026-08-15T05:33:08Z</time></trkpt><trkpt lat="59.3596122321" lon="34.6983081568"><ele>166.45</ele><time>2026-08-15T05:33:22Z</time></trkpt><trkpt lat="59.3596127350" lon="34.6983105037"><ele>166.45</ele><time>2026-08-15T05:33:50Z</time></trkpt><trkpt lat="59.3596120644" lon="34.6982993558"><ele>166.45</ele><time>2026-08-15T05:34:11Z</time></trkpt><trkpt lat="59.3596160039" lon="34.6983092465"><ele>167.41</ele><time>2026-08-15T05:34:28Z</time></trkpt><trkpt lat="59.3596156687" lon="34.6983077377"><ele>167.41</ele><time>2026-08-15T05:34:48Z</time></trkpt><trkpt lat="59.3596077897" lon="34.6982980147"><ele>167.41</ele><time>2026-08-15T05:35:10Z</time></trkpt><trkpt lat="59.3595933728" lon="34.6983047202"><ele>167.41</ele><time>2026-08-15T05:35:23Z</time></trkpt><trkpt lat="59.3595985696" lon="34.6983136889"><ele>167.41</ele><time>2026-08-15T05:35:36Z</time></trkpt><trkpt lat="59.3595948815" lon="34.6983133536"><ele>167.41</ele><time>2026-08-15T05:35:55Z</time></trkpt><trkpt lat="59.3596051913" lon="34.6982137766"><ele>166.45</ele><time>2026-08-15T05:36:09Z</time></trkpt><trkpt lat="59.3595885113" lon="34.6981319692"><ele>165.96</ele><time>2026-08-15T05:36:27Z</time></trkpt><trkpt lat="59.3595841527" lon="34.6980959270"><ele>167.41</ele><time>2026-08-15T05:36:46Z</time></trkpt><trkpt lat="59.3595969770" lon="34.6980876289"><ele>167.41</ele><time>2026-08-15T05:37:16Z</time></trkpt><trkpt lat="59.3595614377" lon="34.6980846953"><ele>167.41</ele><time>2026-08-15T05:37:28Z</time></trkpt><trkpt lat="59.3594399840" lon="34.6980111860"><ele>167.41</ele><time>2026-08-15T05:37:40Z</time></trkpt><trkpt lat="59.3593816459" lon="34.6979189012"><ele>167.41</ele><time>2026-08-15T05:37:55Z</time></trkpt><trkpt lat="59.3593060412" lon="34.6979174763"><ele>167.41</ele><time>2026-08-15T05:38:09Z</time></trkpt><trkpt lat="59.3592761178" lon="34.6979104355"><ele>166.45</ele><time>2026-08-15T05:38:24Z</time></trkpt><trkpt lat="59.3591466174" lon="34.6978305560"><ele>165.96</ele><time>2026-08-15T05:38:38Z</time></trkpt><trkpt lat="59.3590651453" lon="34.6976621635"><ele>165.96</ele><time>2026-08-15T05:38:52Z</time></trkpt><trkpt lat="59.3589982577" lon="34.6976380236"><ele>165.96</ele><time>2026-08-15T05:39:05Z</time></trkpt><trkpt lat="59.3589361478" lon="34.6975978743"><ele>165.96</ele><time>2026-08-15T05:39:17Z</time></trkpt><trkpt lat="59.3588644825" lon="34.6975429729"><ele>165.96</ele><time>2026-08-15T05:39:29Z</time></trkpt><trkpt lat="59.3588224892" lon="34.6975689568"><ele>165.96</ele><time>2026-08-15T05:39:43Z</time></trkpt><trkpt lat="59.3588188011" lon="34.6975703817"><ele>165.96</ele><time>2026-08-15T05:40:07Z</time></trkpt><trkpt lat="59.3588166218" lon="34.6975580603"><ele>165.48</ele><time>2026-08-15T05:40:33Z</time></trkpt><trkpt lat="59.3588181306" lon="34.6975499298"><ele>165.48</ele><time>2026-08-15T05:40:58Z</time></trkpt><trkpt lat="59.3588097487" lon="34.6975522768"><ele>165.48</ele><time>2026-08-15T05:41:30Z</time></trkpt><trkpt lat="59.3588068150" lon="34.6975521930"><ele>165.48</ele><time>2026-08-15T05:41:59Z</time></trkpt><trkpt lat="59.3588193040" lon="34.6975358482"><ele>165.48</ele><time>2026-08-15T05:42:25Z</time></trkpt><trkpt lat="59.3588215671" lon="34.6975511033"><ele>165.48</ele><time>2026-08-15T05:42:45Z</time></trkpt><trkpt lat="59.3587493151" lon="34.6975282207"><ele>165.48</ele><time>2026-08-15T05:42:58Z</time></trkpt><trkpt lat="59.3587203976" lon="34.6975096129"><ele>165.48</ele><time>2026-08-15T05:43:08Z</time></trkpt><trkpt lat="59.3587092496" lon="34.6975046676"><ele>165.48</ele><time>2026-08-15T05:43:31Z</time></trkpt><trkpt lat="59.3586845230" lon="34.6974521969"><ele>165.48</ele><time>2026-08-15T05:43:45Z</time></trkpt><trkpt lat="59.3586559407" lon="34.6975128818"><ele>165.48</ele><time>2026-08-15T05:43:57Z</time></trkpt><trkpt lat="59.3586228322" lon="34.6976336651"><ele>166.93</ele><time>2026-08-15T05:44:10Z</time></trkpt><trkpt lat="59.3586002011" lon="34.6977814380"><ele>167.41</ele><time>2026-08-15T05:44:22Z</time></trkpt><trkpt lat="59.3585686013" lon="34.6978602279"><ele>167.89</ele><time>2026-08-15T05:44:36Z</time></trkpt><trkpt lat="59.3585734628" lon="34.6979543567"><ele>167.89</ele><time>2026-08-15T05:44:56Z</time></trkpt><trkpt lat="59.3585677631" lon="34.6979901474"><ele>167.89</ele><time>2026-08-15T05:45:19Z</time></trkpt><trkpt lat="59.3585623149" lon="34.6980765648"><ele>167.89</ele><time>2026-08-15T05:45:35Z</time></trkpt><trkpt lat="59.3586068228" lon="34.6981256828"><ele>167.89</ele><time>2026-08-15T05:45:46Z</time></trkpt><trkpt lat="59.3586779851" lon="34.6982029639"><ele>168.37</ele><time>2026-08-15T05:45:59Z</time></trkpt><trkpt lat="59.3587190565" lon="34.6982337255"><ele>166.93</ele><time>2026-08-15T05:46:12Z</time></trkpt><trkpt lat="59.3587387539" lon="34.6982357372"><ele>167.89</ele><time>2026-08-15T05:46:39Z</time></trkpt><trkpt lat="59.3587691803" lon="34.6982278582"><ele>167.89</ele><time>2026-08-15T05:47:09Z</time></trkpt><trkpt lat="59.3587742094" lon="34.6982452087"><ele>167.89</ele><time>2026-08-15T05:47:37Z</time></trkpt><trkpt lat="59.3587767240" lon="34.6982482262"><ele>167.89</ele><time>2026-08-15T05:48:05Z</time></trkpt><trkpt lat="59.3587810826" lon="34.6982515790"><ele>168.37</ele><time>2026-08-15T05:48:37Z</time></trkpt><trkpt lat="59.3587830104" lon="34.6982804127"><ele>168.37</ele><time>2026-08-15T05:49:04Z</time></trkpt><trkpt lat="59.3587820884" lon="34.6983218193"><ele>168.37</ele><time>2026-08-15T05:49:32Z</time></trkpt><trkpt lat="59.3587881234" lon="34.6983120125"><ele>168.37</ele><time>2026-08-15T05:50:02Z</time></trkpt><trkpt lat="59.3587894645" lon="34.6983012836"><ele>168.37</ele><time>2026-08-15T05:50:33Z</time></trkpt><trkpt lat="59.3587934878" lon="34.6983054746"><ele>168.37</ele><time>2026-08-15T05:51:14Z</time></trkpt><trkpt lat="59.3587960023" lon="34.6983050555"><ele>168.37</ele><time>2026-08-15T05:51:48Z</time></trkpt><trkpt lat="59.3587963376" lon="34.6983025409"><ele>168.37</ele><time>2026-08-15T05:52:30Z</time></trkpt><trkpt lat="59.3588048872" lon="34.6982990205"><ele>168.37</ele><time>2026-08-15T05:53:02Z</time></trkpt><trkpt lat="59.3588044681" lon="34.6982866991"><ele>168.37</ele><time>2026-08-15T05:53:26Z</time></trkpt><trkpt lat="59.3588083237" lon="34.6982386708"><ele>166.93</ele><time>2026-08-15T05:53:38Z</time></trkpt><trkpt lat="59.3587918952" lon="34.6979956795"><ele>166.45</ele><time>2026-08-15T05:53:58Z</time></trkpt><trkpt lat="59.3587481417" lon="34.6977941785"><ele>167.41</ele><time>2026-08-15T05:54:10Z</time></trkpt><trkpt lat="59.3587791547" lon="34.6976596490"><ele>167.41</ele><time>2026-08-15T05:54:22Z</time></trkpt><trkpt lat="59.3587877881" lon="34.6975831222"><ele>167.41</ele><time>2026-08-15T05:54:34Z</time></trkpt><trkpt lat="59.3588125985" lon="34.6975789312"><ele>167.41</ele><time>2026-08-15T05:54:56Z</time></trkpt><trkpt lat="59.3588124309" lon="34.6975752432"><ele>166.45</ele><time>2026-08-15T05:55:08Z</time></trkpt><trkpt lat="59.3587992713" lon="34.6975612454"><ele>167.41</ele><time>2026-08-15T05:55:22Z</time></trkpt><trkpt lat="59.3586801644" lon="34.6974910889"><ele>167.41</ele><time>2026-08-15T05:55:34Z</time></trkpt><trkpt lat="59.3585638236" lon="34.6973840520"><ele>166.45</ele><time>2026-08-15T05:55:49Z</time></trkpt><trkpt lat="59.3584784120" lon="34.6972331777"><ele>166.45</ele><time>2026-08-15T05:56:05Z</time></trkpt><trkpt lat="59.3584354967" lon="34.6971936990"><ele>166.45</ele><time>2026-08-15T05:56:18Z</time></trkpt><trkpt lat="59.3583744764" lon="34.6971589979"><ele>166.45</ele><time>2026-08-15T05:56:29Z</time></trkpt><trkpt lat="59.3583753146" lon="34.6971607581"><ele>166.45</ele><time>2026-08-15T05:56:50Z</time></trkpt><trkpt lat="59.3583754823" lon="34.6971598361"><ele>167.89</ele><time>2026-08-15T05:56:53Z</time></trkpt><trkpt lat="59.3583658431" lon="34.6971570700"><ele>167.89</ele><time>2026-08-15T05:57:16Z</time></trkpt><trkpt lat="59.3583293818" lon="34.6971514542"><ele>166.93</ele><time>2026-08-15T05:57:37Z</time></trkpt><trkpt lat="59.3582516816" lon="34.6971702296"><ele>166.45</ele><time>2026-08-15T05:57:53Z</time></trkpt><trkpt lat="59.3582080957" lon="34.6972170006"><ele>167.41</ele><time>2026-08-15T05:58:05Z</time></trkpt><trkpt lat="59.3580982927" lon="34.6972662024"><ele>167.89</ele><time>2026-08-15T05:58:20Z</time></trkpt><trkpt lat="59.3579939380" lon="34.6972198505"><ele>168.37</ele><time>2026-08-15T05:58:35Z</time></trkpt><trkpt lat="59.3579806108" lon="34.6972035896"><ele>168.85</ele><time>2026-08-15T05:58:54Z</time></trkpt><trkpt lat="59.3579756655" lon="34.6971986443"><ele>168.85</ele><time>2026-08-15T05:59:21Z</time></trkpt><trkpt lat="59.3579666130" lon="34.6972012427"><ele>168.85</ele><time>2026-08-15T05:59:45Z</time></trkpt><trkpt lat="59.3579592369" lon="34.6972162463"><ele>168.85</ele><time>2026-08-15T06:00:00Z</time></trkpt><trkpt lat="59.3579216860" lon="34.6973874886"><ele>168.85</ele><time>2026-08-15T06:00:13Z</time></trkpt><trkpt lat="59.3578895833" lon="34.6975450683"><ele>168.85</ele><time>2026-08-15T06:00:26Z</time></trkpt><trkpt lat="59.3578858115" lon="34.6975892410"><ele>167.41</ele><time>2026-08-15T06:00:41Z</time></trkpt><trkpt lat="59.3578874040" lon="34.6976293065"><ele>168.85</ele><time>2026-08-15T06:01:01Z</time></trkpt><trkpt lat="59.3578854762" lon="34.6976365149"><ele>167.41</ele><time>2026-08-15T06:01:22Z</time></trkpt><trkpt lat="59.3578925170" lon="34.6976619121"><ele>167.41</ele><time>2026-08-15T06:01:40Z</time></trkpt><trkpt lat="59.3579125497" lon="34.6976454835"><ele>168.85</ele><time>2026-08-15T06:01:58Z</time></trkpt><trkpt lat="59.3579326663" lon="34.6976905782"><ele>168.85</ele><time>2026-08-15T06:02:11Z</time></trkpt><trkpt lat="59.3579528667" lon="34.6977280453"><ele>168.85</ele><time>2026-08-15T06:02:26Z</time></trkpt><trkpt lat="59.3580411281" lon="34.6978542767"><ele>168.85</ele><time>2026-08-15T06:02:39Z</time></trkpt><trkpt lat="59.3581297249" lon="34.6979150455"><ele>169.81</ele><time>2026-08-15T06:02:53Z</time></trkpt><trkpt lat="59.3582065869" lon="34.6979727969"><ele>170.29</ele><time>2026-08-15T06:03:08Z</time></trkpt><trkpt lat="59.3582630809" lon="34.6980071627"><ele>170.29</ele><time>2026-08-15T06:03:22Z</time></trkpt><trkpt lat="59.3582916632" lon="34.6980670933"><ele>170.29</ele><time>2026-08-15T06:03:36Z</time></trkpt><trkpt lat="59.3582975306" lon="34.6980747208"><ele>170.29</ele><time>2026-08-15T06:04:03Z</time></trkpt><trkpt lat="59.3583088461" lon="34.6980600525"><ele>170.29</ele><time>2026-08-15T06:04:34Z</time></trkpt><trkpt lat="59.3583066668" lon="34.6980496589"><ele>170.29</ele><time>2026-08-15T06:04:55Z</time></trkpt><trkpt lat="59.3582896516" lon="34.6980027203"><ele>169.33</ele><time>2026-08-15T06:05:15Z</time></trkpt><trkpt lat="59.3582505919" lon="34.6979043167"><ele>168.37</ele><time>2026-08-15T06:05:28Z</time></trkpt><trkpt lat="59.3581692874" lon="34.6977298893"><ele>167.89</ele><time>2026-08-15T06:05:44Z</time></trkpt><trkpt lat="59.3581179902" lon="34.6976819448"><ele>167.89</ele><time>2026-08-15T06:05:57Z</time></trkpt><trkpt lat="59.3580570538" lon="34.6976014785"><ele>167.89</ele><time>2026-08-15T06:06:10Z</time></trkpt><trkpt lat="59.3579889927" lon="34.6974429768"><ele>167.89</ele><time>2026-08-15T06:06:23Z</time></trkpt><trkpt lat="59.3579293974" lon="34.6974091139"><ele>167.89</ele><time>2026-08-15T06:06:36Z</time></trkpt><trkpt lat="59.3579148129" lon="34.6973702218"><ele>167.89</ele><time>2026-08-15T06:06:49Z</time></trkpt><trkpt lat="59.3579165731" lon="34.6973475069"><ele>167.89</ele><time>2026-08-15T06:07:22Z</time></trkpt><trkpt lat="59.3579137232" lon="34.6973071061"><ele>167.89</ele><time>2026-08-15T06:07:38Z</time></trkpt><trkpt lat="59.3579165731" lon="34.6972532105"><ele>168.85</ele><time>2026-08-15T06:07:51Z</time></trkpt><trkpt lat="59.3578940257" lon="34.6972808708"><ele>167.89</ele><time>2026-08-15T06:08:03Z</time></trkpt><trkpt lat="59.3578936905" lon="34.6972884983"><ele>167.89</ele><time>2026-08-15T06:08:24Z</time></trkpt><trkpt lat="59.3578935228" lon="34.6972842235"><ele>167.41</ele><time>2026-08-15T06:08:50Z</time></trkpt><trkpt lat="59.3578926008" lon="34.6972759254"><ele>167.41</ele><time>2026-08-15T06:09:20Z</time></trkpt><trkpt lat="59.3578849733" lon="34.6972587425"><ele>167.41</ele><time>2026-08-15T06:09:45Z</time></trkpt><trkpt lat="59.3578669522" lon="34.6972603351"><ele>168.37</ele><time>2026-08-15T06:10:09Z</time></trkpt><trkpt lat="59.3578675389" lon="34.6972486004"><ele>168.37</ele><time>2026-08-15T06:10:41Z</time></trkpt><trkpt lat="59.3578665331" lon="34.6972481813"><ele>168.37</ele><time>2026-08-15T06:11:08Z</time></trkpt><trkpt lat="59.3578582350" lon="34.6972546354"><ele>168.37</ele><time>2026-08-15T06:11:36Z</time></trkpt><trkpt lat="59.3578535412" lon="34.6972682141"><ele>168.37</ele><time>2026-08-15T06:12:03Z</time></trkpt><trkpt lat="59.3578562234" lon="34.6972583234"><ele>168.37</ele><time>2026-08-15T06:12:27Z</time></trkpt><trkpt lat="59.3578586541" lon="34.6972425655"><ele>168.37</ele><time>2026-08-15T06:12:52Z</time></trkpt><trkpt lat="59.3578879070" lon="34.6971584111"><ele>168.37</ele><time>2026-08-15T06:13:13Z</time></trkpt><trkpt lat="59.3579057604" lon="34.6970994864"><ele>168.85</ele><time>2026-08-15T06:13:28Z</time></trkpt><trkpt lat="59.3579385336" lon="34.6970431600"><ele>168.85</ele><time>2026-08-15T06:13:41Z</time></trkpt><trkpt lat="59.3579611648" lon="34.6969622746"><ele>168.85</ele><time>2026-08-15T06:13:58Z</time></trkpt><trkpt lat="59.3580110371" lon="34.6968492866"><ele>169.33</ele><time>2026-08-15T06:14:19Z</time></trkpt><trkpt lat="59.3581193313" lon="34.6966342069"><ele>169.81</ele><time>2026-08-15T06:14:33Z</time></trkpt><trkpt lat="59.3581356760" lon="34.6965907048"><ele>169.81</ele><time>2026-08-15T06:14:40Z</time></trkpt><trkpt lat="59.3581873085" lon="34.6964277606"><ele>169.81</ele><time>2026-08-15T06:14:53Z</time></trkpt><trkpt lat="59.3582323194" lon="34.6962666605"><ele>169.81</ele><time>2026-08-15T06:15:08Z</time></trkpt><trkpt lat="59.3582689483" lon="34.6961799078"><ele>169.81</ele><time>2026-08-15T06:15:22Z</time></trkpt><trkpt lat="59.3582376000" lon="34.6963525750"><ele>169.81</ele><time>2026-08-15T06:15:36Z</time></trkpt><trkpt lat="59.3582500052" lon="34.6963414270"><ele>169.81</ele><time>2026-08-15T06:16:04Z</time></trkpt><trkpt lat="59.3582512625" lon="34.6963453665"><ele>169.81</ele><time>2026-08-15T06:16:38Z</time></trkpt><trkpt lat="59.3582536094" lon="34.6963474620"><ele>169.81</ele><time>2026-08-15T06:17:03Z</time></trkpt><trkpt lat="59.3582529388" lon="34.6963439416"><ele>169.81</ele><time>2026-08-15T06:17:37Z</time></trkpt><trkpt lat="59.3582500052" lon="34.6963288542"><ele>168.37</ele><time>2026-08-15T06:17:59Z</time></trkpt><trkpt lat="59.3582521845" lon="34.6963461209"><ele>168.37</ele><time>2026-08-15T06:18:20Z</time></trkpt><trkpt lat="59.3582556210" lon="34.6963545866"><ele>168.37</ele><time>2026-08-15T06:18:55Z</time></trkpt><trkpt lat="59.3582609016" lon="34.6963504795"><ele>168.37</ele><time>2026-08-15T06:19:31Z</time></trkpt><trkpt lat="59.3582961895" lon="34.6963651478"><ele>168.37</ele><time>2026-08-15T06:19:53Z</time></trkpt><trkpt lat="59.3583500851" lon="34.6964780521"><ele>168.37</ele><time>2026-08-15T06:20:08Z</time></trkpt><trkpt lat="59.3583968561" lon="34.6965847537"><ele>168.37</ele><time>2026-08-15T06:20:25Z</time></trkpt><trkpt lat="59.3584890570" lon="34.6966861747"><ele>167.41</ele><time>2026-08-15T06:20:39Z</time></trkpt><trkpt lat="59.3585412763" lon="34.6967565827"><ele>167.41</ele><time>2026-08-15T06:20:54Z</time></trkpt><trkpt lat="59.3586026318" lon="34.6968328580"><ele>166.45</ele><time>2026-08-15T06:21:07Z</time></trkpt><trkpt lat="59.3586066552" lon="34.6968430001"><ele>166.45</ele><time>2026-08-15T06:21:24Z</time></trkpt><trkpt lat="59.3586360756" lon="34.6968962252"><ele>166.45</ele><time>2026-08-15T06:21:36Z</time></trkpt><trkpt lat="59.3586862832" lon="34.6969016735"><ele>166.45</ele><time>2026-08-15T06:21:49Z</time></trkpt><trkpt lat="59.3587223254" lon="34.6969591733"><ele>166.45</ele><time>2026-08-15T06:22:05Z</time></trkpt><trkpt lat="59.3588175438" lon="34.6971101314"><ele>165.96</ele><time>2026-08-15T06:22:19Z</time></trkpt><trkpt lat="59.3588725291" lon="34.6971780248"><ele>167.41</ele><time>2026-08-15T06:22:30Z</time></trkpt><trkpt lat="59.3589503970" lon="34.6971713193"><ele>167.41</ele><time>2026-08-15T06:22:43Z</time></trkpt><trkpt lat="59.3590669893" lon="34.6970745921"><ele>167.41</ele><time>2026-08-15T06:22:58Z</time></trkpt><trkpt lat="59.3590679113" lon="34.6970698144"><ele>167.41</ele><time>2026-08-15T06:23:18Z</time></trkpt><trkpt lat="59.3590675760" lon="34.6970683895"><ele>167.41</ele><time>2026-08-15T06:23:39Z</time></trkpt><trkpt lat="59.3590702582" lon="34.6970472671"><ele>167.41</ele><time>2026-08-15T06:24:10Z</time></trkpt><trkpt lat="59.3590730242" lon="34.6970457584"><ele>167.41</ele><time>2026-08-15T06:24:36Z</time></trkpt><trkpt lat="59.3590823282" lon="34.6970617678"><ele>167.41</ele><time>2026-08-15T06:25:06Z</time></trkpt><trkpt lat="59.3591507245" lon="34.6971631888"><ele>167.41</ele><time>2026-08-15T06:25:20Z</time></trkpt><trkpt lat="59.3591760378" lon="34.6972653642"><ele>165.96</ele><time>2026-08-15T06:25:35Z</time></trkpt><trkpt lat="59.3592394050" lon="34.6972838044"><ele>165.96</ele><time>2026-08-15T06:25:53Z</time></trkpt><trkpt lat="59.3592695799" lon="34.6973089501"><ele>165.96</ele><time>2026-08-15T06:26:05Z</time></trkpt><trkpt lat="59.3593362998" lon="34.6972922701"><ele>165.48</ele><time>2026-08-15T06:26:25Z</time></trkpt><trkpt lat="59.3594269920" lon="34.6973076928"><ele>165.48</ele><time>2026-08-15T06:26:40Z</time></trkpt><trkpt lat="59.3595102243" lon="34.6973201819"><ele>165.48</ele><time>2026-08-15T06:26:56Z</time></trkpt><trkpt lat="59.3595351186" lon="34.6973759215"><ele>165.48</ele><time>2026-08-15T06:27:12Z</time></trkpt><trkpt lat="59.3595654611" lon="34.6974536218"><ele>165.48</ele><time>2026-08-15T06:27:25Z</time></trkpt><trkpt lat="59.3595932052" lon="34.6975381114"><ele>166.45</ele><time>2026-08-15T06:27:40Z</time></trkpt><trkpt lat="59.3597300816" lon="34.6976392809"><ele>166.93</ele><time>2026-08-15T06:27:53Z</time></trkpt><trkpt lat="59.3597393017" lon="34.6976698749"><ele>166.93</ele><time>2026-08-15T06:28:10Z</time></trkpt><trkpt lat="59.3597646989" lon="34.6976626664"><ele>166.93</ele><time>2026-08-15T06:28:28Z</time></trkpt><trkpt lat="59.3597697280" lon="34.6976536140"><ele>166.93</ele><time>2026-08-15T06:28:54Z</time></trkpt><trkpt lat="59.3598061893" lon="34.6976633370"><ele>166.93</ele><time>2026-08-15T06:29:26Z</time></trkpt><trkpt lat="59.3598121405" lon="34.6976533625"><ele>166.93</ele><time>2026-08-15T06:29:59Z</time></trkpt><trkpt lat="59.3598202709" lon="34.6976328269"><ele>165.48</ele><time>2026-08-15T06:30:24Z</time></trkpt><trkpt lat="59.3598309159" lon="34.6976562962"><ele>165.48</ele><time>2026-08-15T06:30:42Z</time></trkpt><trkpt lat="59.3598351907" lon="34.6976821963"><ele>165.48</ele><time>2026-08-15T06:31:06Z</time></trkpt><trkpt lat="59.3598464224" lon="34.6976996306"><ele>165.48</ele><time>2026-08-15T06:31:21Z</time></trkpt><trkpt lat="59.3598597497" lon="34.6977365110"><ele>166.93</ele><time>2026-08-15T06:31:36Z</time></trkpt><trkpt lat="59.3598932773" lon="34.6977913287"><ele>166.93</ele><time>2026-08-15T06:31:49Z</time></trkpt><trkpt lat="59.3599812035" lon="34.6978391893"><ele>166.93</ele><time>2026-08-15T06:32:03Z</time></trkpt><trkpt lat="59.3600203469" lon="34.6978603955"><ele>166.93</ele><time>2026-08-15T06:32:14Z</time></trkpt><trkpt lat="59.3600980472" lon="34.6978727169"><ele>166.93</ele><time>2026-08-15T06:32:29Z</time></trkpt><trkpt lat="59.3601224385" lon="34.6978147980"><ele>165.48</ele><time>2026-08-15T06:32:39Z</time></trkpt><trkpt lat="59.3601239473" lon="34.6977842040"><ele>165.48</ele><time>2026-08-15T06:33:04Z</time></trkpt><trkpt lat="59.3601346761" lon="34.6977889817"><ele>165.48</ele><time>2026-08-15T06:33:24Z</time></trkpt><trkpt lat="59.3601622526" lon="34.6978106070"><ele>165.48</ele><time>2026-08-15T06:33:48Z</time></trkpt><trkpt lat="59.3601641804" lon="34.6978162229"><ele>165.48</ele><time>2026-08-15T06:34:10Z</time></trkpt><trkpt lat="59.3601648510" lon="34.6977895685"><ele>165.48</ele><time>2026-08-15T06:34:24Z</time></trkpt><trkpt lat="59.3601702992" lon="34.6977529395"><ele>165.48</ele><time>2026-08-15T06:34:52Z</time></trkpt><trkpt lat="59.3601424713" lon="34.6977764089"><ele>165.48</ele><time>2026-08-15T06:35:13Z</time></trkpt><trkpt lat="59.3601081893" lon="34.6977620758"><ele>166.45</ele><time>2026-08-15T06:35:33Z</time></trkpt><trkpt lat="59.3601070158" lon="34.6977642551"><ele>166.93</ele><time>2026-08-15T06:35:58Z</time></trkpt><trkpt lat="59.3601373583" lon="34.6977857128"><ele>166.93</ele><time>2026-08-15T06:36:18Z</time></trkpt><trkpt lat="59.3601445667" lon="34.6978000458"><ele>165.96</ele><time>2026-08-15T06:36:34Z</time></trkpt><trkpt lat="59.3601481710" lon="34.6978064161"><ele>165.96</ele><time>2026-08-15T06:36:57Z</time></trkpt><trkpt lat="59.3601526972" lon="34.6978109423"><ele>165.96</ele><time>2026-08-15T06:37:12Z</time></trkpt><trkpt lat="59.3601526972" lon="34.6978217550"><ele>167.41</ele><time>2026-08-15T06:37:24Z</time></trkpt><trkpt lat="59.3601515237" lon="34.6978283767"><ele>165.96</ele><time>2026-08-15T06:37:27Z</time></trkpt><trkpt lat="59.3601646833" lon="34.6978366747"><ele>165.96</ele><time>2026-08-15T06:37:49Z</time></trkpt><trkpt lat="59.3601769209" lon="34.6977965254"><ele>166.93</ele><time>2026-08-15T06:38:17Z</time></trkpt><trkpt lat="59.3601836264" lon="34.6977837011"><ele>167.41</ele><time>2026-08-15T06:38:39Z</time></trkpt><trkpt lat="59.3601796869" lon="34.6977875568"><ele>166.45</ele><time>2026-08-15T06:39:00Z</time></trkpt><trkpt lat="59.3601734005" lon="34.6977800969"><ele>167.41</ele><time>2026-08-15T06:39:35Z</time></trkpt><trkpt lat="59.3601968698" lon="34.6977559570"><ele>167.41</ele><time>2026-08-15T06:39:47Z</time></trkpt><trkpt lat="59.3602040783" lon="34.6977736428"><ele>167.89</ele><time>2026-08-15T06:40:10Z</time></trkpt><trkpt lat="59.3602187466" lon="34.6978540253"><ele>167.89</ele><time>2026-08-15T06:40:29Z</time></trkpt><trkpt lat="59.3602433894" lon="34.6980302967"><ele>168.37</ele><time>2026-08-15T06:40:48Z</time></trkpt><trkpt lat="59.3602218479" lon="34.6982976794"><ele>168.37</ele><time>2026-08-15T06:41:03Z</time></trkpt><trkpt lat="59.3601631746" lon="34.6986247413"><ele>167.41</ele><time>2026-08-15T06:41:18Z</time></trkpt><trkpt lat="59.3601448182" lon="34.6987186186"><ele>167.41</ele><time>2026-08-15T06:41:30Z</time></trkpt><trkpt lat="59.3601341732" lon="34.6988071315"><ele>167.41</ele><time>2026-08-15T06:41:44Z</time></trkpt><trkpt lat="59.3601072673" lon="34.6989044454"><ele>167.41</ele><time>2026-08-15T06:41:54Z</time></trkpt><trkpt lat="59.3600078579" lon="34.6989964787"><ele>168.37</ele><time>2026-08-15T06:42:08Z</time></trkpt><trkpt lat="59.3599748332" lon="34.6989906952"><ele>168.85</ele><time>2026-08-15T06:42:12Z</time></trkpt><trkpt lat="59.3598509487" lon="34.6990338620"><ele>168.85</ele><time>2026-08-15T06:42:28Z</time></trkpt><trkpt lat="59.3598102126" lon="34.6990481950"><ele>168.85</ele><time>2026-08-15T06:42:42Z</time></trkpt><trkpt lat="59.3597562332" lon="34.6990743466"><ele>167.41</ele><time>2026-08-15T06:42:54Z</time></trkpt><trkpt lat="59.3596307561" lon="34.6990117338"><ele>167.41</ele><time>2026-08-15T06:43:07Z</time></trkpt><trkpt lat="59.3594607711" lon="34.6989366319"><ele>167.41</ele><time>2026-08-15T06:43:21Z</time></trkpt><trkpt lat="59.3593254872" lon="34.6989444271"><ele>167.41</ele><time>2026-08-15T06:43:36Z</time></trkpt><trkpt lat="59.3592053745" lon="34.6990277432"><ele>167.41</ele><time>2026-08-15T06:43:48Z</time></trkpt><trkpt lat="59.3590751197" lon="34.6991103888"><ele>167.41</ele><time>2026-08-15T06:44:01Z</time></trkpt><trkpt lat="59.3589850143" lon="34.6992954612"><ele>167.41</ele><time>2026-08-15T06:44:14Z</time></trkpt><trkpt lat="59.3589260057" lon="34.6994175855"><ele>167.41</ele><time>2026-08-15T06:44:21Z</time></trkpt><trkpt lat="59.3588493951" lon="34.6995046735"><ele>168.37</ele><time>2026-08-15T06:44:30Z</time></trkpt><trkpt lat="59.3587332219" lon="34.6995779313"><ele>168.37</ele><time>2026-08-15T06:44:42Z</time></trkpt><trkpt lat="59.3586197309" lon="34.6996842977"><ele>168.37</ele><time>2026-08-15T06:44:55Z</time></trkpt><trkpt lat="59.3585290387" lon="34.6997780912"><ele>168.85</ele><time>2026-08-15T06:45:02Z</time></trkpt><trkpt lat="59.3583822716" lon="34.7000055760"><ele>169.81</ele><time>2026-08-15T06:45:17Z</time></trkpt><trkpt lat="59.3583391886" lon="34.7000630759"><ele>168.37</ele><time>2026-08-15T06:45:29Z</time></trkpt><trkpt lat="59.3582272064" lon="34.7001731303"><ele>167.89</ele><time>2026-08-15T06:45:44Z</time></trkpt><trkpt lat="59.3580952752" lon="34.7001991142"><ele>166.93</ele><time>2026-08-15T06:45:59Z</time></trkpt><trkpt lat="59.3580298964" lon="34.7002113517"><ele>166.93</ele><time>2026-08-15T06:46:12Z</time></trkpt><trkpt lat="59.3580253702" lon="34.7002186440"><ele>168.37</ele><time>2026-08-15T06:46:15Z</time></trkpt><trkpt lat="59.3579450715" lon="34.7002337314"><ele>168.37</ele><time>2026-08-15T06:46:25Z</time></trkpt><trkpt lat="59.3578277249" lon="34.7003390919"><ele>168.37</ele><time>2026-08-15T06:46:39Z</time></trkpt><trkpt lat="59.3578011543" lon="34.7003660817"><ele>168.37</ele><time>2026-08-15T06:46:41Z</time></trkpt><trkpt lat="59.3575988151" lon="34.7005674150"><ele>168.85</ele><time>2026-08-15T06:46:57Z</time></trkpt><trkpt lat="59.3574813008" lon="34.7005628049"><ele>169.33</ele><time>2026-08-15T06:47:11Z</time></trkpt><trkpt lat="59.3573872559" lon="34.7005861066"><ele>169.33</ele><time>2026-08-15T06:47:20Z</time></trkpt><trkpt lat="59.3573617749" lon="34.7005921416"><ele>167.89</ele><time>2026-08-15T06:47:22Z</time></trkpt><trkpt lat="59.3573363777" lon="34.7006109171"><ele>167.89</ele><time>2026-08-15T06:47:25Z</time></trkpt><trkpt lat="59.3572785426" lon="34.7007783875"><ele>167.41</ele><time>2026-08-15T06:47:34Z</time></trkpt><trkpt lat="59.3572474457" lon="34.7009501327"><ele>167.41</ele><time>2026-08-15T06:47:43Z</time></trkpt><trkpt lat="59.3572155945" lon="34.7011293378"><ele>167.41</ele><time>2026-08-15T06:47:52Z</time></trkpt><trkpt lat="59.3571891915" lon="34.7012313455"><ele>166.93</ele><time>2026-08-15T06:47:56Z</time></trkpt><trkpt lat="59.3571257405" lon="34.7015301604"><ele>167.41</ele><time>2026-08-15T06:48:09Z</time></trkpt><trkpt lat="59.3570953980" lon="34.7016909253"><ele>167.41</ele><time>2026-08-15T06:48:16Z</time></trkpt><trkpt lat="59.3570614513" lon="34.7018656041"><ele>167.41</ele><time>2026-08-15T06:48:25Z</time></trkpt><trkpt lat="59.3570650555" lon="34.7019536141"><ele>167.41</ele><time>2026-08-15T06:48:29Z</time></trkpt><trkpt lat="59.3570510577" lon="34.7023076657"><ele>167.41</ele><time>2026-08-15T06:48:45Z</time></trkpt><trkpt lat="59.3570462801" lon="34.7024554387"><ele>167.41</ele><time>2026-08-15T06:48:52Z</time></trkpt><trkpt lat="59.3570440169" lon="34.7025341447"><ele>167.41</ele><time>2026-08-15T06:48:56Z</time></trkpt><trkpt lat="59.3570371438" lon="34.7027700953"><ele>167.41</ele><time>2026-08-15T06:49:06Z</time></trkpt><trkpt lat="59.3570430111" lon="34.7028080653"><ele>167.41</ele><time>2026-08-15T06:49:08Z</time></trkpt><trkpt lat="59.3570497166" lon="34.7028828319"><ele>167.41</ele><time>2026-08-15T06:49:12Z</time></trkpt><trkpt lat="59.3570707552" lon="34.7029829118"><ele>167.41</ele><time>2026-08-15T06:49:17Z</time></trkpt><trkpt lat="59.3570824061" lon="34.7031061258"><ele>167.89</ele><time>2026-08-15T06:49:23Z</time></trkpt><trkpt lat="59.3570855074" lon="34.7031929623"><ele>167.89</ele><time>2026-08-15T06:49:28Z</time></trkpt><trkpt lat="59.3571155146" lon="34.7032606043"><ele>167.89</ele><time>2026-08-15T06:49:32Z</time></trkpt><trkpt lat="59.3571494613" lon="34.7034559026"><ele>167.89</ele><time>2026-08-15T06:49:42Z</time></trkpt><trkpt lat="59.3571450189" lon="34.7036476806"><ele>167.89</ele><time>2026-08-15T06:49:50Z</time></trkpt><trkpt lat="59.3571570888" lon="34.7039338388"><ele>166.93</ele><time>2026-08-15T06:50:07Z</time></trkpt><trkpt lat="59.3571841624" lon="34.7040339187"><ele>166.45</ele><time>2026-08-15T06:50:23Z</time></trkpt><trkpt lat="59.3572102301" lon="34.7042968590"><ele>166.45</ele><time>2026-08-15T06:50:37Z</time></trkpt><trkpt lat="59.3572179414" lon="34.7045628168"><ele>165.96</ele><time>2026-08-15T06:50:51Z</time></trkpt><trkpt lat="59.3572130799" lon="34.7046724521"><ele>165.96</ele><time>2026-08-15T06:50:56Z</time></trkpt><trkpt lat="59.3571729306" lon="34.7049847618"><ele>165.96</ele><time>2026-08-15T06:51:12Z</time></trkpt><trkpt lat="59.3571302667" lon="34.7053617798"><ele>165.48</ele><time>2026-08-15T06:51:29Z</time></trkpt><trkpt lat="59.3570808135" lon="34.7056990676"><ele>165.00</ele><time>2026-08-15T06:51:45Z</time></trkpt><trkpt lat="59.3570434302" lon="34.7059821244"><ele>165.00</ele><time>2026-08-15T06:51:59Z</time></trkpt><trkpt lat="59.3570328690" lon="34.7060460784"><ele>165.00</ele><time>2026-08-15T06:52:02Z</time></trkpt><trkpt lat="59.3570197932" lon="34.7062202543"><ele>166.45</ele><time>2026-08-15T06:52:15Z</time></trkpt><trkpt lat="59.3570543267" lon="34.7062066756"><ele>166.45</ele><time>2026-08-15T06:52:27Z</time></trkpt><trkpt lat="59.3571092281" lon="34.7061882354"><ele>166.45</ele><time>2026-08-15T06:52:32Z</time></trkpt><trkpt lat="59.3571538199" lon="34.7062626667"><ele>166.45</ele><time>2026-08-15T06:52:38Z</time></trkpt><trkpt lat="59.3572213780" lon="34.7064728849"><ele>166.45</ele><time>2026-08-15T06:52:52Z</time></trkpt><trkpt lat="59.3573039398" lon="34.7066665068"><ele>166.93</ele><time>2026-08-15T06:53:06Z</time></trkpt><trkpt lat="59.3573397305" lon="34.7067745496"><ele>166.93</ele><time>2026-08-15T06:53:12Z</time></trkpt><trkpt lat="59.3573901057" lon="34.7069456242"><ele>166.93</ele><time>2026-08-15T06:53:22Z</time></trkpt><trkpt lat="59.3574803788" lon="34.7071614582"><ele>166.93</ele><time>2026-08-15T06:53:36Z</time></trkpt><trkpt lat="59.3575315084" lon="34.7072424274"><ele>166.93</ele><time>2026-08-15T06:53:42Z</time></trkpt><trkpt lat="59.3575394712" lon="34.7072752006"><ele>166.93</ele><time>2026-08-15T06:53:44Z</time></trkpt><trkpt lat="59.3575832248" lon="34.7073596902"><ele>165.48</ele><time>2026-08-15T06:53:50Z</time></trkpt><trkpt lat="59.3576508667" lon="34.7075207066"><ele>165.48</ele><time>2026-08-15T06:54:00Z</time></trkpt><trkpt lat="59.3576879147" lon="34.7076088004"><ele>165.00</ele><time>2026-08-15T06:54:06Z</time></trkpt><trkpt lat="59.3577575684" lon="34.7078350279"><ele>165.00</ele><time>2026-08-15T06:54:19Z</time></trkpt><trkpt lat="59.3578061834" lon="34.7080339305"><ele>165.00</ele><time>2026-08-15T06:54:30Z</time></trkpt><trkpt lat="59.3578783516" lon="34.7082383651"><ele>165.00</ele><time>2026-08-15T06:54:42Z</time></trkpt><trkpt lat="59.3579369411" lon="34.7082355991"><ele>165.00</ele><time>2026-08-15T06:54:47Z</time></trkpt><trkpt lat="59.3579532858" lon="34.7082118783"><ele>165.00</ele><time>2026-08-15T06:54:49Z</time></trkpt><trkpt lat="59.3579787668" lon="34.7082010657"><ele>165.00</ele><time>2026-08-15T06:54:51Z</time></trkpt><trkpt lat="59.3580381945" lon="34.7081805300"><ele>165.00</ele><time>2026-08-15T06:54:56Z</time></trkpt><trkpt lat="59.3581205048" lon="34.7081480920"><ele>165.00</ele><time>2026-08-15T06:55:03Z</time></trkpt><trkpt lat="59.3582745641" lon="34.7080790251"><ele>164.52</ele><time>2026-08-15T06:55:16Z</time></trkpt><trkpt lat="59.3583686091" lon="34.7080510296"><ele>164.52</ele><time>2026-08-15T06:55:24Z</time></trkpt><trkpt lat="59.3583889771" lon="34.7080298234"><ele>164.52</ele><time>2026-08-15T06:55:26Z</time></trkpt><trkpt lat="59.3584223371" lon="34.7080213577"><ele>164.52</ele><time>2026-08-15T06:55:43Z</time></trkpt><trkpt lat="59.3584351614" lon="34.7079855669"><ele>164.52</ele><time>2026-08-15T06:55:45Z</time></trkpt><trkpt lat="59.3584746402" lon="34.7079364490"><ele>164.52</ele><time>2026-08-15T06:55:49Z</time></trkpt><trkpt lat="59.3585033901" lon="34.7078550607"><ele>164.52</ele><time>2026-08-15T06:55:53Z</time></trkpt><trkpt lat="59.3586047273" lon="34.7076957207"><ele>164.52</ele><time>2026-08-15T06:56:03Z</time></trkpt><trkpt lat="59.3586811703" lon="34.7075842414"><ele>164.52</ele><time>2026-08-15T06:56:11Z</time></trkpt><trkpt lat="59.3588354811" lon="34.7073397413"><ele>164.52</ele><time>2026-08-15T06:56:27Z</time></trkpt><trkpt lat="59.3589588627" lon="34.7070892900"><ele>164.52</ele><time>2026-08-15T06:56:42Z</time></trkpt><trkpt lat="59.3590001855" lon="34.7069633938"><ele>165.48</ele><time>2026-08-15T06:56:48Z</time></trkpt><trkpt lat="59.3590482138" lon="34.7068695165"><ele>165.48</ele><time>2026-08-15T06:57:02Z</time></trkpt><trkpt lat="59.3590588588" lon="34.7068348993"><ele>165.48</ele><time>2026-08-15T06:57:04Z</time></trkpt><trkpt lat="59.3591891974" lon="34.7064724658"><ele>165.96</ele><time>2026-08-15T06:57:21Z</time></trkpt><trkpt lat="59.3592321966" lon="34.7063666862"><ele>165.96</ele><time>2026-08-15T06:57:27Z</time></trkpt><trkpt lat="59.3593088072" lon="34.7061089426"><ele>165.96</ele><time>2026-08-15T06:57:42Z</time></trkpt><trkpt lat="59.3592998385" lon="34.7060931008"><ele>165.96</ele><time>2026-08-15T06:57:59Z</time></trkpt><trkpt lat="59.3592984974" lon="34.7060851380"><ele>165.96</ele><time>2026-08-15T06:58:22Z</time></trkpt><trkpt lat="59.3592872657" lon="34.7060631774"><ele>165.96</ele><time>2026-08-15T06:58:44Z</time></trkpt><trkpt lat="59.3592824042" lon="34.7060628422"><ele>166.45</ele><time>2026-08-15T06:58:59Z</time></trkpt><trkpt lat="59.3592881877" lon="34.7060806118"><ele>165.48</ele><time>2026-08-15T06:59:18Z</time></trkpt><trkpt lat="59.3592896964" lon="34.7060910892"><ele>165.48</ele><time>2026-08-15T06:59:39Z</time></trkpt><trkpt lat="59.3592611142" lon="34.7060491797"><ele>165.48</ele><time>2026-08-15T06:59:51Z</time></trkpt><trkpt lat="59.3592617847" lon="34.7060328349"><ele>165.48</ele><time>2026-08-15T07:00:27Z</time></trkpt><trkpt lat="59.3592679873" lon="34.7060209326"><ele>165.48</ele><time>2026-08-15T07:01:10Z</time></trkpt></trkseg><trkseg><trkpt lat="59.3592780456" lon="34.7060374450"><ele>164.52</ele><time>2026-08-15T07:02:16Z</time></trkpt><trkpt lat="59.3592772912" lon="34.7060370259"><ele>164.52</ele><time>2026-08-15T07:02:21Z</time></trkpt><trkpt lat="59.3505425937" lon="34.6993327606"><ele>185.19</ele><time>2026-08-15T10:06:46Z</time></trkpt><trkpt lat="59.3505549990" lon="34.6993157454"><ele>185.19</ele><time>2026-08-15T10:06:47Z</time></trkpt><trkpt lat="59.3506197911" lon="34.6991743427"><ele>183.27</ele><time>2026-08-15T10:07:09Z</time></trkpt><trkpt lat="59.3506246526" lon="34.6991641168"><ele>180.38</ele><time>2026-08-15T10:07:30Z</time></trkpt><trkpt lat="59.3506007642" lon="34.6991575789"><ele>180.38</ele><time>2026-08-15T10:07:43Z</time></trkpt><trkpt lat="59.3505884428" lon="34.6991341095"><ele>180.87</ele><time>2026-08-15T10:08:13Z</time></trkpt><trkpt lat="59.3505886942" lon="34.6991074551"><ele>179.90</ele><time>2026-08-15T10:08:43Z</time></trkpt><trkpt lat="59.3505648896" lon="34.6991263982"><ele>180.87</ele><time>2026-08-15T10:08:54Z</time></trkpt><trkpt lat="59.3505614530" lon="34.6991407312"><ele>179.42</ele><time>2026-08-15T10:09:30Z</time></trkpt><trkpt lat="59.3505484611" lon="34.6991442516"><ele>179.42</ele><time>2026-08-15T10:10:07Z</time></trkpt><trkpt lat="59.3505383190" lon="34.6991459280"><ele>179.42</ele><time>2026-08-15T10:10:53Z</time></trkpt><trkpt lat="59.3505352177" lon="34.6991581656"><ele>178.94</ele><time>2026-08-15T10:11:27Z</time></trkpt><trkpt lat="59.3505434319" lon="34.6991776116"><ele>178.46</ele><time>2026-08-15T10:12:17Z</time></trkpt><trkpt lat="59.3505418394" lon="34.6991806291"><ele>177.98</ele><time>2026-08-15T10:13:00Z</time></trkpt><trkpt lat="59.3505425937" lon="34.6991958003"><ele>177.50</ele><time>2026-08-15T10:13:47Z</time></trkpt><trkpt lat="59.3505455274" lon="34.6991916932"><ele>176.54</ele><time>2026-08-15T10:14:27Z</time></trkpt><trkpt lat="59.3505458627" lon="34.6991907712"><ele>176.54</ele><time>2026-08-15T10:14:49Z</time></trkpt><trkpt lat="59.3505487964" lon="34.6991926152"><ele>176.54</ele><time>2026-08-15T10:15:32Z</time></trkpt><trkpt lat="59.3505510595" lon="34.6991979796"><ele>176.54</ele><time>2026-08-15T10:16:16Z</time></trkpt><trkpt lat="59.3505560048" lon="34.6992076188"><ele>176.06</ele><time>2026-08-15T10:16:54Z</time></trkpt><trkpt lat="59.3505478743" lon="34.6992025897"><ele>175.58</ele><time>2026-08-15T10:17:37Z</time></trkpt><trkpt lat="59.3505464494" lon="34.6991954651"><ele>175.58</ele><time>2026-08-15T10:18:17Z</time></trkpt><trkpt lat="59.3505529035" lon="34.6991941240"><ele>175.10</ele><time>2026-08-15T10:19:01Z</time></trkpt><trkpt lat="59.3505521491" lon="34.6991878375"><ele>175.10</ele><time>2026-08-15T10:19:40Z</time></trkpt><trkpt lat="59.3505518138" lon="34.6991931181"><ele>174.62</ele><time>2026-08-15T10:20:19Z</time></trkpt><trkpt lat="59.3505525682" lon="34.6991883405"><ele>174.14</ele><time>2026-08-15T10:21:03Z</time></trkpt><trkpt lat="59.3505544960" lon="34.6991902683"><ele>174.14</ele><time>2026-08-15T10:21:48Z</time></trkpt><trkpt lat="59.3505546637" lon="34.6991930343"><ele>173.66</ele><time>2026-08-15T10:22:22Z</time></trkpt><trkpt lat="59.3505589385" lon="34.6991930343"><ele>173.66</ele><time>2026-08-15T10:23:01Z</time></trkpt><trkpt lat="59.3505589385" lon="34.6991957165"><ele>173.17</ele><time>2026-08-15T10:23:45Z</time></trkpt><trkpt lat="59.3505646382" lon="34.6992025059"><ele>172.69</ele><time>2026-08-15T10:24:21Z</time></trkpt><trkpt lat="59.3505670689" lon="34.6992109716"><ele>172.69</ele><time>2026-08-15T10:24:56Z</time></trkpt><trkpt lat="59.3505720142" lon="34.6992217842"><ele>172.21</ele><time>2026-08-15T10:25:32Z</time></trkpt><trkpt lat="59.3505727686" lon="34.6992284060"><ele>172.21</ele><time>2026-08-15T10:26:14Z</time></trkpt><trkpt lat="59.3505735230" lon="34.6992295794"><ele>171.73</ele><time>2026-08-15T10:26:55Z</time></trkpt><trkpt lat="59.3505705055" lon="34.6992266458"><ele>171.73</ele><time>2026-08-15T10:27:30Z</time></trkpt><trkpt lat="59.3505637161" lon="34.6992142405"><ele>171.73</ele><time>2026-08-15T10:28:06Z</time></trkpt><trkpt lat="59.3505568430" lon="34.6992131509"><ele>172.69</ele><time>2026-08-15T10:28:37Z</time></trkpt><trkpt lat="59.3505536579" lon="34.6992099658"><ele>171.25</ele><time>2026-08-15T10:29:13Z</time></trkpt><trkpt lat="59.3505548313" lon="34.6992092952"><ele>171.25</ele><time>2026-08-15T10:29:51Z</time></trkpt><trkpt lat="59.3505575974" lon="34.6992030088"><ele>171.25</ele><time>2026-08-15T10:30:25Z</time></trkpt><trkpt lat="59.3505571783" lon="34.6991932858"><ele>171.25</ele><time>2026-08-15T10:30:57Z</time></trkpt><trkpt lat="59.3505588546" lon="34.6991900168"><ele>170.77</ele><time>2026-08-15T10:31:44Z</time></trkpt><trkpt lat="59.3505570106" lon="34.6991914418"><ele>170.77</ele><time>2026-08-15T10:32:19Z</time></trkpt><trkpt lat="59.3505585194" lon="34.6991867479"><ele>170.77</ele><time>2026-08-15T10:32:59Z</time></trkpt><trkpt lat="59.3505618721" lon="34.6991842333"><ele>170.29</ele><time>2026-08-15T10:33:37Z</time></trkpt><trkpt lat="59.3505667336" lon="34.6991915256"><ele>170.29</ele><time>2026-08-15T10:34:15Z</time></trkpt><trkpt lat="59.3505694158" lon="34.6991941240"><ele>171.73</ele><time>2026-08-15T10:34:38Z</time></trkpt><trkpt lat="59.3505674880" lon="34.6991895139"><ele>171.73</ele><time>2026-08-15T10:35:12Z</time></trkpt><trkpt lat="59.3505649734" lon="34.6991885081"><ele>171.73</ele><time>2026-08-15T10:35:47Z</time></trkpt><trkpt lat="59.3505578488" lon="34.6991817188"><ele>171.73</ele><time>2026-08-15T10:36:28Z</time></trkpt><trkpt lat="59.3505567592" lon="34.6991915256"><ele>170.29</ele><time>2026-08-15T10:36:54Z</time></trkpt><trkpt lat="59.3505545799" lon="34.6991895139"><ele>171.25</ele><time>2026-08-15T10:37:30Z</time></trkpt><trkpt lat="59.3505523168" lon="34.6991868317"><ele>169.81</ele><time>2026-08-15T10:38:00Z</time></trkpt><trkpt lat="59.3505533226" lon="34.6991880890"><ele>169.81</ele><time>2026-08-15T10:38:43Z</time></trkpt><trkpt lat="59.3505487964" lon="34.6991871670"><ele>171.25</ele><time>2026-08-15T10:39:34Z</time></trkpt><trkpt lat="59.3505474553" lon="34.6991868317"><ele>171.25</ele><time>2026-08-15T10:40:09Z</time></trkpt><trkpt lat="59.3505395763" lon="34.6991893463"><ele>171.25</ele><time>2026-08-15T10:40:38Z</time></trkpt><trkpt lat="59.3505285122" lon="34.6991908550"><ele>171.25</ele><time>2026-08-15T10:41:16Z</time></trkpt><trkpt lat="59.3505364750" lon="34.6991963033"><ele>169.81</ele><time>2026-08-15T10:41:55Z</time></trkpt><trkpt lat="59.3505473714" lon="34.6991968062"><ele>169.81</ele><time>2026-08-15T10:42:36Z</time></trkpt><trkpt lat="59.3505487125" lon="34.6992014162"><ele>169.33</ele><time>2026-08-15T10:43:15Z</time></trkpt><trkpt lat="59.3505479582" lon="34.6991861612"><ele>169.33</ele><time>2026-08-15T10:43:58Z</time></trkpt><trkpt lat="59.3505541608" lon="34.6991814673"><ele>169.33</ele><time>2026-08-15T10:44:42Z</time></trkpt><trkpt lat="59.3505578488" lon="34.6991935372"><ele>169.33</ele><time>2026-08-15T10:45:16Z</time></trkpt><trkpt lat="59.3505648896" lon="34.6991977282"><ele>170.77</ele><time>2026-08-15T10:45:49Z</time></trkpt><trkpt lat="59.3505638838" lon="34.6991944592"><ele>170.77</ele><time>2026-08-15T10:46:25Z</time></trkpt><trkpt lat="59.3505709246" lon="34.6991885919"><ele>170.77</ele><time>2026-08-15T10:47:06Z</time></trkpt><trkpt lat="59.3505736068" lon="34.6991831437"><ele>170.77</ele><time>2026-08-15T10:47:47Z</time></trkpt><trkpt lat="59.3505762052" lon="34.6991863288"><ele>170.77</ele><time>2026-08-15T10:48:27Z</time></trkpt><trkpt lat="59.3505652249" lon="34.6991835628"><ele>171.25</ele><time>2026-08-15T10:49:03Z</time></trkpt><trkpt lat="59.3505459465" lon="34.6991907712"><ele>169.81</ele><time>2026-08-15T10:49:50Z</time></trkpt><trkpt lat="59.3505299371" lon="34.6991757676"><ele>171.25</ele><time>2026-08-15T10:50:33Z</time></trkpt><trkpt lat="59.3505256623" lon="34.6990996599"><ele>171.73</ele><time>2026-08-15T10:51:01Z</time></trkpt><trkpt lat="59.3505248241" lon="34.6990592591"><ele>171.73</ele><time>2026-08-15T10:51:03Z</time></trkpt><trkpt lat="59.3505212199" lon="34.6990096383"><ele>170.29</ele><time>2026-08-15T10:51:05Z</time></trkpt><trkpt lat="59.3504519016" lon="34.6988618653"><ele>170.29</ele><time>2026-08-15T10:51:22Z</time></trkpt><trkpt lat="59.3504881952" lon="34.6988761984"><ele>170.29</ele><time>2026-08-15T10:51:35Z</time></trkpt><trkpt lat="59.3504954875" lon="34.6989177726"><ele>170.29</ele><time>2026-08-15T10:51:37Z</time></trkpt><trkpt lat="59.3505869340" lon="34.6992553119"><ele>169.81</ele><time>2026-08-15T10:51:56Z</time></trkpt><trkpt lat="59.3506455235" lon="34.6996518597"><ele>169.81</ele><time>2026-08-15T10:52:13Z</time></trkpt><trkpt lat="59.3508634530" lon="34.7005226556"><ele>171.25</ele><time>2026-08-15T10:52:28Z</time></trkpt><trkpt lat="59.3510269001" lon="34.7016405500"><ele>171.25</ele><time>2026-08-15T10:52:42Z</time></trkpt><trkpt lat="59.3510246370" lon="34.7029310279"><ele>169.81</ele><time>2026-08-15T10:52:57Z</time></trkpt><trkpt lat="59.3510838132" lon="34.7049529105"><ele>169.81</ele><time>2026-08-15T10:53:12Z</time></trkpt><trkpt lat="59.3511499465" lon="34.7065315582"><ele>169.81</ele><time>2026-08-15T10:53:24Z</time></trkpt><trkpt lat="59.3512679636" lon="34.7074571718"><ele>169.81</ele><time>2026-08-15T10:53:35Z</time></trkpt><trkpt lat="59.3515609950" lon="34.7076688986"><ele>171.25</ele><time>2026-08-15T10:53:43Z</time></trkpt><trkpt lat="59.3517578021" lon="34.7077163402"><ele>171.25</ele><time>2026-08-15T10:53:47Z</time></trkpt><trkpt lat="59.3520655856" lon="34.7078377940"><ele>171.25</ele><time>2026-08-15T10:53:57Z</time></trkpt><trkpt lat="59.3521167990" lon="34.7078629397"><ele>169.81</ele><time>2026-08-15T10:53:59Z</time></trkpt><trkpt lat="59.3525535800" lon="34.7080498561"><ele>167.89</ele><time>2026-08-15T10:54:17Z</time></trkpt><trkpt lat="59.3530071247" lon="34.7081266344"><ele>165.48</ele><time>2026-08-15T10:54:31Z</time></trkpt><trkpt lat="59.3533947878" lon="34.7082887404"><ele>165.48</ele><time>2026-08-15T10:54:45Z</time></trkpt><trkpt lat="59.3536937702" lon="34.7086436301"><ele>166.93</ele><time>2026-08-15T10:54:56Z</time></trkpt><trkpt lat="59.3541208282" lon="34.7090504877"><ele>167.41</ele><time>2026-08-15T10:55:09Z</time></trkpt><trkpt lat="59.3542365823" lon="34.7092598677"><ele>167.41</ele><time>2026-08-15T10:55:13Z</time></trkpt><trkpt lat="59.3543471396" lon="34.7094147652"><ele>167.41</ele><time>2026-08-15T10:55:16Z</time></trkpt><trkpt lat="59.3546311185" lon="34.7096344549"><ele>168.85</ele><time>2026-08-15T10:55:21Z</time></trkpt><trkpt lat="59.3550735991" lon="34.7101143189"><ele>168.85</ele><time>2026-08-15T10:55:31Z</time></trkpt><trkpt lat="59.3551004212" lon="34.7101687174"><ele>167.89</ele><time>2026-08-15T10:55:33Z</time></trkpt><trkpt lat="59.3551421631" lon="34.7102761734"><ele>168.85</ele><time>2026-08-15T10:55:35Z</time></trkpt><trkpt lat="59.3552318495" lon="34.7105367668"><ele>169.81</ele><time>2026-08-15T10:55:39Z</time></trkpt><trkpt lat="59.3553865794" lon="34.7102959547"><ele>170.29</ele><time>2026-08-15T10:55:46Z</time></trkpt><trkpt lat="59.3555384595" lon="34.7097056173"><ele>167.89</ele><time>2026-08-15T10:55:56Z</time></trkpt><trkpt lat="59.3555069435" lon="34.7097705770"><ele>167.89</ele><time>2026-08-15T10:56:04Z</time></trkpt><trkpt lat="59.3553792033" lon="34.7102495190"><ele>168.85</ele><time>2026-08-15T10:56:22Z</time></trkpt><trkpt lat="59.3553849030" lon="34.7102457471"><ele>168.85</ele><time>2026-08-15T10:56:47Z</time></trkpt><trkpt lat="59.3554542214" lon="34.7099340241"><ele>168.85</ele><time>2026-08-15T10:56:55Z</time></trkpt><trkpt lat="59.3554438278" lon="34.7099730838"><ele>168.85</ele><time>2026-08-15T10:57:07Z</time></trkpt><trkpt lat="59.3554842286" lon="34.7099408135"><ele>168.85</ele><time>2026-08-15T10:57:22Z</time></trkpt><trkpt lat="59.3554753438" lon="34.7099346947"><ele>167.89</ele><time>2026-08-15T10:57:24Z</time></trkpt><trkpt lat="59.3554701470" lon="34.7099600919"><ele>167.89</ele><time>2026-08-15T10:57:36Z</time></trkpt><trkpt lat="59.3554622680" lon="34.7100164182"><ele>167.89</ele><time>2026-08-15T10:57:38Z</time></trkpt><trkpt lat="59.3552775308" lon="34.7108087596"><ele>168.85</ele><time>2026-08-15T10:57:48Z</time></trkpt><trkpt lat="59.3552881759" lon="34.7108882200"><ele>168.85</ele><time>2026-08-15T10:57:50Z</time></trkpt><trkpt lat="59.3555490207" lon="34.7108280379"><ele>169.81</ele><time>2026-08-15T10:57:57Z</time></trkpt><trkpt lat="59.3561856262" lon="34.7102051787"><ele>168.85</ele><time>2026-08-15T10:58:07Z</time></trkpt><trkpt lat="59.3568273447" lon="34.7091812454"><ele>167.89</ele><time>2026-08-15T10:58:20Z</time></trkpt><trkpt lat="59.3571705837" lon="34.7086599749"><ele>169.33</ele><time>2026-08-15T10:58:27Z</time></trkpt><trkpt lat="59.3573293369" lon="34.7085265350"><ele>169.33</ele><time>2026-08-15T10:58:30Z</time></trkpt><trkpt lat="59.3581425492" lon="34.7081392072"><ele>170.29</ele><time>2026-08-15T10:58:43Z</time></trkpt><trkpt lat="59.3584542722" lon="34.7080106288"><ele>170.29</ele><time>2026-08-15T10:58:49Z</time></trkpt><trkpt lat="59.3584897276" lon="34.7079797834"><ele>168.37</ele><time>2026-08-15T10:58:50Z</time></trkpt><trkpt lat="59.3585184775" lon="34.7079371195"><ele>168.37</ele><time>2026-08-15T10:58:51Z</time></trkpt><trkpt lat="59.3587866146" lon="34.7074700799"><ele>167.89</ele><time>2026-08-15T10:59:02Z</time></trkpt><trkpt lat="59.3588512391" lon="34.7073582653"><ele>169.33</ele><time>2026-08-15T10:59:04Z</time></trkpt><trkpt lat="59.3592175283" lon="34.7064360883"><ele>170.29</ele><time>2026-08-15T10:59:18Z</time></trkpt><trkpt lat="59.3593072984" lon="34.7061705496"><ele>168.85</ele><time>2026-08-15T10:59:26Z</time></trkpt><trkpt lat="59.3592995033" lon="34.7061020695"><ele>168.37</ele><time>2026-08-15T10:59:40Z</time></trkpt><trkpt lat="59.3593006767" lon="34.7061051708"><ele>169.81</ele><time>2026-08-15T10:59:43Z</time></trkpt><trkpt lat="59.3592974078" lon="34.7060899995"><ele>168.37</ele><time>2026-08-15T11:00:18Z</time></trkpt><trkpt lat="59.3592964020" lon="34.7060861439"><ele>168.37</ele><time>2026-08-15T11:01:03Z</time></trkpt><trkpt lat="59.3592948932" lon="34.7060736548"><ele>167.89</ele><time>2026-08-15T11:01:38Z</time></trkpt><trkpt lat="59.3592994194" lon="34.7060836293"><ele>168.85</ele><time>2026-08-15T11:02:10Z</time></trkpt><trkpt lat="59.3593001738" lon="34.7060861439"><ele>168.37</ele><time>2026-08-15T11:02:51Z</time></trkpt><trkpt lat="59.3592974916" lon="34.7060911730"><ele>168.37</ele><time>2026-08-15T11:03:28Z</time></trkpt><trkpt lat="59.3592900317" lon="34.7061200906"><ele>168.37</ele><time>2026-08-15T11:04:04Z</time></trkpt><trkpt lat="59.3592974078" lon="34.7061223537"><ele>166.93</ele><time>2026-08-15T11:04:33Z</time></trkpt><trkpt lat="59.3592960667" lon="34.7061082721"><ele>166.93</ele><time>2026-08-15T11:05:09Z</time></trkpt><trkpt lat="59.3593074661" lon="34.7061224375"><ele>168.37</ele><time>2026-08-15T11:05:23Z</time></trkpt><trkpt lat="59.3592952285" lon="34.7061004769"><ele>168.37</ele><time>2026-08-15T11:05:41Z</time></trkpt><trkpt lat="59.3592938036" lon="34.7060984652"><ele>166.93</ele><time>2026-08-15T11:05:46Z</time></trkpt><trkpt lat="59.3592931330" lon="34.7060941067"><ele>166.93</ele><time>2026-08-15T11:06:23Z</time></trkpt><trkpt lat="59.3592944741" lon="34.7060931008"><ele>166.93</ele><time>2026-08-15T11:06:43Z</time></trkpt><trkpt lat="59.3592950609" lon="34.7060893290"><ele>166.93</ele><time>2026-08-15T11:06:57Z</time></trkpt><trkpt lat="59.3592966534" lon="34.7060832940"><ele>166.93</ele><time>2026-08-15T11:07:14Z</time></trkpt><trkpt lat="59.3593053706" lon="34.7060694639"><ele>166.93</ele><time>2026-08-15T11:07:43Z</time></trkpt><trkpt lat="59.3593057059" lon="34.7060703021"><ele>166.93</ele><time>2026-08-15T11:08:00Z</time></trkpt><trkpt lat="59.3593141716" lon="34.7060714755"><ele>166.93</ele><time>2026-08-15T11:08:16Z</time></trkpt><trkpt lat="59.3593194522" lon="34.7060766723"><ele>166.93</ele><time>2026-08-15T11:08:37Z</time></trkpt><trkpt lat="59.3593189493" lon="34.7061177436"><ele>166.93</ele><time>2026-08-15T11:08:50Z</time></trkpt><trkpt lat="59.3592312746" lon="34.7063707933"><ele>166.93</ele><time>2026-08-15T11:09:03Z</time></trkpt><trkpt lat="59.3591353018" lon="34.7066358291"><ele>166.93</ele><time>2026-08-15T11:09:16Z</time></trkpt><trkpt lat="59.3591101561" lon="34.7067146190"><ele>166.93</ele><time>2026-08-15T11:09:30Z</time></trkpt><trkpt lat="59.3590925541" lon="34.7067577019"><ele>166.45</ele><time>2026-08-15T11:09:52Z</time></trkpt><trkpt lat="59.3590332940" lon="34.7068915609"><ele>166.45</ele><time>2026-08-15T11:10:06Z</time></trkpt><trkpt lat="59.3590199668" lon="34.7069244180"><ele>166.45</ele><time>2026-08-15T11:10:18Z</time></trkpt><trkpt lat="59.3589951564" lon="34.7069755476"><ele>166.45</ele><time>2026-08-15T11:10:21Z</time></trkpt><trkpt lat="59.3588685058" lon="34.7072948981"><ele>166.45</ele><time>2026-08-15T11:10:38Z</time></trkpt><trkpt lat="59.3587181345" lon="34.7075342014"><ele>165.48</ele><time>2026-08-15T11:10:53Z</time></trkpt><trkpt lat="59.3585527595" lon="34.7077716608"><ele>165.48</ele><time>2026-08-15T11:11:09Z</time></trkpt><trkpt lat="59.3584950082" lon="34.7078608442"><ele>165.48</ele><time>2026-08-15T11:11:23Z</time></trkpt><trkpt lat="59.3584780768" lon="34.7078854870"><ele>165.48</ele><time>2026-08-15T11:11:25Z</time></trkpt><trkpt lat="59.3584351614" lon="34.7080059350"><ele>165.48</ele><time>2026-08-15T11:11:36Z</time></trkpt><trkpt lat="59.3584181461" lon="34.7080203518"><ele>165.48</ele><time>2026-08-15T11:11:38Z</time></trkpt><trkpt lat="59.3583408650" lon="34.7080582380"><ele>166.93</ele><time>2026-08-15T11:11:44Z</time></trkpt><trkpt lat="59.3581526075" lon="34.7081322502"><ele>166.93</ele><time>2026-08-15T11:11:58Z</time></trkpt><trkpt lat="59.3579003960" lon="34.7082315758"><ele>166.93</ele><time>2026-08-15T11:12:18Z</time></trkpt><trkpt lat="59.3577409722" lon="34.7083298117"><ele>165.96</ele><time>2026-08-15T11:12:34Z</time></trkpt><trkpt lat="59.3577304948" lon="34.7083281353"><ele>165.96</ele><time>2026-08-15T11:12:38Z</time></trkpt><trkpt lat="59.3577567302" lon="34.7083113715"><ele>165.48</ele><time>2026-08-15T11:12:40Z</time></trkpt><trkpt lat="59.3578420579" lon="34.7082104534"><ele>165.48</ele><time>2026-08-15T11:12:48Z</time></trkpt><trkpt lat="59.3578589894" lon="34.7081581503"><ele>165.48</ele><time>2026-08-15T11:12:55Z</time></trkpt><trkpt lat="59.3578522000" lon="34.7081149835"><ele>165.48</ele><time>2026-08-15T11:12:57Z</time></trkpt><trkpt lat="59.3578050938" lon="34.7079888359"><ele>166.45</ele><time>2026-08-15T11:13:04Z</time></trkpt><trkpt lat="59.3577203527" lon="34.7076865006"><ele>166.93</ele><time>2026-08-15T11:13:20Z</time></trkpt><trkpt lat="59.3576261401" lon="34.7074688226"><ele>167.41</ele><time>2026-08-15T11:13:35Z</time></trkpt><trkpt lat="59.3576161657" lon="34.7074443474"><ele>167.41</ele><time>2026-08-15T11:13:43Z</time></trkpt><trkpt lat="59.3575849850" lon="34.7073556669"><ele>167.41</ele><time>2026-08-15T11:13:49Z</time></trkpt><trkpt lat="59.3575387169" lon="34.7072493844"><ele>167.41</ele><time>2026-08-15T11:14:02Z</time></trkpt><trkpt lat="59.3575238809" lon="34.7072112467"><ele>167.41</ele><time>2026-08-15T11:14:17Z</time></trkpt><trkpt lat="59.3575222883" lon="34.7072062176"><ele>167.41</ele><time>2026-08-15T11:14:30Z</time></trkpt><trkpt lat="59.3574983999" lon="34.7071695048"><ele>167.41</ele><time>2026-08-15T11:14:33Z</time></trkpt><trkpt lat="59.3574245553" lon="34.7069859412"><ele>167.41</ele><time>2026-08-15T11:14:46Z</time></trkpt><trkpt lat="59.3573260680" lon="34.7067057341"><ele>167.41</ele><time>2026-08-15T11:15:02Z</time></trkpt><trkpt lat="59.3573207874" lon="34.7066891380"><ele>167.41</ele><time>2026-08-15T11:15:03Z</time></trkpt><trkpt lat="59.3572736811" lon="34.7065609787"><ele>167.41</ele><time>2026-08-15T11:15:11Z</time></trkpt><trkpt lat="59.3572601024" lon="34.7065040655"><ele>167.41</ele><time>2026-08-15T11:15:14Z</time></trkpt><trkpt lat="59.3572316039" lon="34.7064401954"><ele>167.41</ele><time>2026-08-15T11:15:18Z</time></trkpt><trkpt lat="59.3572088890" lon="34.7064039856"><ele>167.41</ele><time>2026-08-15T11:15:21Z</time></trkpt><trkpt lat="59.3571967352" lon="34.7063542809"><ele>167.41</ele><time>2026-08-15T11:15:24Z</time></trkpt><trkpt lat="59.3571785465" lon="34.7063037381"><ele>166.45</ele><time>2026-08-15T11:15:27Z</time></trkpt><trkpt lat="59.3571397383" lon="34.7062166501"><ele>166.45</ele><time>2026-08-15T11:15:32Z</time></trkpt><trkpt lat="59.3570514768" lon="34.7061736509"><ele>165.96</ele><time>2026-08-15T11:15:41Z</time></trkpt><trkpt lat="59.3570317794" lon="34.7061894927"><ele>165.96</ele><time>2026-08-15T11:15:43Z</time></trkpt><trkpt lat="59.3570278399" lon="34.7061438952"><ele>165.96</ele><time>2026-08-15T11:15:50Z</time></trkpt><trkpt lat="59.3570596911" lon="34.7058264725"><ele>165.00</ele><time>2026-08-15T11:16:05Z</time></trkpt><trkpt lat="59.3570616189" lon="34.7057893407"><ele>165.00</ele><time>2026-08-15T11:16:07Z</time></trkpt><trkpt lat="59.3570760358" lon="34.7057211958"><ele>165.00</ele><time>2026-08-15T11:16:10Z</time></trkpt><trkpt lat="59.3570955656" lon="34.7056170087"><ele>165.00</ele><time>2026-08-15T11:16:15Z</time></trkpt><trkpt lat="59.3571343739" lon="34.7053267434"><ele>164.52</ele><time>2026-08-15T11:16:29Z</time></trkpt><trkpt lat="59.3571741041" lon="34.7049396671"><ele>165.96</ele><time>2026-08-15T11:16:46Z</time></trkpt><trkpt lat="59.3572132476" lon="34.7046801634"><ele>166.45</ele><time>2026-08-15T11:17:00Z</time></trkpt><trkpt lat="59.3572212942" lon="34.7044498287"><ele>166.93</ele><time>2026-08-15T11:17:12Z</time></trkpt><trkpt lat="59.3572049495" lon="34.7043111082"><ele>166.93</ele><time>2026-08-15T11:17:30Z</time></trkpt><trkpt lat="59.3572084699" lon="34.7043301351"><ele>165.48</ele><time>2026-08-15T11:17:47Z</time></trkpt><trkpt lat="59.3571678177" lon="34.7043418698"><ele>165.00</ele><time>2026-08-15T11:17:59Z</time></trkpt><trkpt lat="59.3571660575" lon="34.7043437976"><ele>165.00</ele><time>2026-08-15T11:18:18Z</time></trkpt><trkpt lat="59.3571716733" lon="34.7043284588"><ele>165.00</ele><time>2026-08-15T11:18:21Z</time></trkpt><trkpt lat="59.3571497127" lon="34.7042466514"><ele>165.00</ele><time>2026-08-15T11:18:35Z</time></trkpt><trkpt lat="59.3571944721" lon="34.7041714657"><ele>165.96</ele><time>2026-08-15T11:18:53Z</time></trkpt><trkpt lat="59.3571807258" lon="34.7039838787"><ele>166.45</ele><time>2026-08-15T11:19:05Z</time></trkpt><trkpt lat="59.3571763672" lon="34.7039585654"><ele>165.00</ele><time>2026-08-15T11:19:16Z</time></trkpt><trkpt lat="59.3571601901" lon="34.7037651949"><ele>165.00</ele><time>2026-08-15T11:19:38Z</time></trkpt><trkpt lat="59.3571499642" lon="34.7035599221"><ele>165.00</ele><time>2026-08-15T11:19:53Z</time></trkpt><trkpt lat="59.3571459409" lon="34.7035294957"><ele>165.00</ele><time>2026-08-15T11:19:55Z</time></trkpt><trkpt lat="59.3571330328" lon="34.7034268174"><ele>166.45</ele><time>2026-08-15T11:20:00Z</time></trkpt><trkpt lat="59.3570959847" lon="34.7032468580"><ele>166.45</ele><time>2026-08-15T11:20:11Z</time></trkpt><trkpt lat="59.3570446875" lon="34.7029865999"><ele>166.45</ele><time>2026-08-15T11:20:23Z</time></trkpt><trkpt lat="59.3570399936" lon="34.7027099133"><ele>166.45</ele><time>2026-08-15T11:20:38Z</time></trkpt><trkpt lat="59.3570448551" lon="34.7025872022"><ele>165.48</ele><time>2026-08-15T11:20:44Z</time></trkpt><trkpt lat="59.3570782151" lon="34.7023290396"><ele>165.48</ele><time>2026-08-15T11:20:59Z</time></trkpt><trkpt lat="59.3570874352" lon="34.7020486649"><ele>165.00</ele><time>2026-08-15T11:21:14Z</time></trkpt><trkpt lat="59.3570700847" lon="34.7019710485"><ele>165.00</ele><time>2026-08-15T11:21:18Z</time></trkpt><trkpt lat="59.3570715096" lon="34.7018712200"><ele>165.00</ele><time>2026-08-15T11:21:23Z</time></trkpt><trkpt lat="59.3570788857" lon="34.7017867304"><ele>165.96</ele><time>2026-08-15T11:21:27Z</time></trkpt><trkpt lat="59.3571175262" lon="34.7015713155"><ele>165.96</ele><time>2026-08-15T11:21:42Z</time></trkpt><trkpt lat="59.3571471144" lon="34.7014341038"><ele>165.96</ele><time>2026-08-15T11:21:54Z</time></trkpt><trkpt lat="59.3571979925" lon="34.7011828143"><ele>165.96</ele><time>2026-08-15T11:22:07Z</time></trkpt><trkpt lat="59.3572611921" lon="34.7008719295"><ele>165.96</ele><time>2026-08-15T11:22:23Z</time></trkpt><trkpt lat="59.3572859187" lon="34.7006493900"><ele>166.45</ele><time>2026-08-15T11:22:36Z</time></trkpt><trkpt lat="59.3572388962" lon="34.7004333045"><ele>166.93</ele><time>2026-08-15T11:22:51Z</time></trkpt><trkpt lat="59.3572093919" lon="34.7003821749"><ele>166.93</ele><time>2026-08-15T11:22:55Z</time></trkpt><trkpt lat="59.3571715057" lon="34.7002898064"><ele>165.48</ele><time>2026-08-15T11:23:01Z</time></trkpt><trkpt lat="59.3570796400" lon="34.7000945918"><ele>165.48</ele><time>2026-08-15T11:23:13Z</time></trkpt><trkpt lat="59.3569515646" lon="34.6998733096"><ele>165.48</ele><time>2026-08-15T11:23:31Z</time></trkpt><trkpt lat="59.3568224832" lon="34.6996878181"><ele>165.00</ele><time>2026-08-15T11:23:46Z</time></trkpt><trkpt lat="59.3567873631" lon="34.6996476687"><ele>165.00</ele><time>2026-08-15T11:23:49Z</time></trkpt><trkpt lat="59.3566142768" lon="34.6994485985"><ele>164.04</ele><time>2026-08-15T11:24:06Z</time></trkpt><trkpt lat="59.3565084133" lon="34.6992987301"><ele>164.04</ele><time>2026-08-15T11:24:20Z</time></trkpt><trkpt lat="59.3563574553" lon="34.6991144959"><ele>164.04</ele><time>2026-08-15T11:24:37Z</time></trkpt><trkpt lat="59.3563695252" lon="34.6991812997"><ele>164.04</ele><time>2026-08-15T11:24:47Z</time></trkpt><trkpt lat="59.3565126043" lon="34.6993755922"><ele>164.04</ele><time>2026-08-15T11:25:04Z</time></trkpt><trkpt lat="59.3566792365" lon="34.6995555516"><ele>164.04</ele><time>2026-08-15T11:25:21Z</time></trkpt><trkpt lat="59.3568004388" lon="34.6996866446"><ele>164.04</ele><time>2026-08-15T11:25:35Z</time></trkpt><trkpt lat="59.3568640575" lon="34.6997495927"><ele>164.04</ele><time>2026-08-15T11:25:43Z</time></trkpt><trkpt lat="59.3568888679" lon="34.6997862216"><ele>165.96</ele><time>2026-08-15T11:25:46Z</time></trkpt><trkpt lat="59.3570267502" lon="34.7000148799"><ele>165.96</ele><time>2026-08-15T11:26:01Z</time></trkpt><trkpt lat="59.3571443483" lon="34.7002128605"><ele>165.96</ele><time>2026-08-15T11:26:14Z</time></trkpt><trkpt lat="59.3572433386" lon="34.7004205640"><ele>166.45</ele><time>2026-08-15T11:26:28Z</time></trkpt><trkpt lat="59.3572562467" lon="34.7004794888"><ele>166.45</ele><time>2026-08-15T11:26:31Z</time></trkpt><trkpt lat="59.3573214579" lon="34.7005960811"><ele>166.45</ele><time>2026-08-15T11:26:41Z</time></trkpt><trkpt lat="59.3574238848" lon="34.7005588654"><ele>166.45</ele><time>2026-08-15T11:26:50Z</time></trkpt><trkpt lat="59.3575379625" lon="34.7005344741"><ele>166.93</ele><time>2026-08-15T11:27:04Z</time></trkpt><trkpt lat="59.3576603383" lon="34.7004405968"><ele>166.93</ele><time>2026-08-15T11:27:20Z</time></trkpt><trkpt lat="59.3576689716" lon="34.7004307900"><ele>166.93</ele><time>2026-08-15T11:27:21Z</time></trkpt><trkpt lat="59.3576943688" lon="34.7004012857"><ele>166.93</ele><time>2026-08-15T11:27:24Z</time></trkpt><trkpt lat="59.3577517848" lon="34.7003353201"><ele>165.48</ele><time>2026-08-15T11:27:31Z</time></trkpt><trkpt lat="59.3577952869" lon="34.7002776526"><ele>165.48</ele><time>2026-08-15T11:27:52Z</time></trkpt><trkpt lat="59.3579346780" lon="34.7002261877"><ele>165.48</ele><time>2026-08-15T11:28:13Z</time></trkpt><trkpt lat="59.3581395317" lon="34.7001652513"><ele>165.00</ele><time>2026-08-15T11:28:30Z</time></trkpt><trkpt lat="59.3581834529" lon="34.7001160495"><ele>165.00</ele><time>2026-08-15T11:28:35Z</time></trkpt><trkpt lat="59.3582197465" lon="34.7000834439"><ele>165.00</ele><time>2026-08-15T11:28:38Z</time></trkpt><trkpt lat="59.3583036494" lon="34.7000261117"><ele>165.96</ele><time>2026-08-15T11:28:45Z</time></trkpt><trkpt lat="59.3583722133" lon="34.6999751497"><ele>165.96</ele><time>2026-08-15T11:28:53Z</time></trkpt><trkpt lat="59.3583856244" lon="34.6999492496"><ele>166.93</ele><time>2026-08-15T11:28:55Z</time></trkpt><trkpt lat="59.3584684376" lon="34.6997685358"><ele>165.96</ele><time>2026-08-15T11:29:10Z</time></trkpt><trkpt lat="59.3586321361" lon="34.6996112075"><ele>165.48</ele><time>2026-08-15T11:29:25Z</time></trkpt><trkpt lat="59.3586792424" lon="34.6995569766"><ele>165.48</ele><time>2026-08-15T11:29:31Z</time></trkpt><trkpt lat="59.3587263487" lon="34.6995262150"><ele>165.48</ele><time>2026-08-15T11:29:36Z</time></trkpt><trkpt lat="59.3588967528" lon="34.6994117182"><ele>165.00</ele><time>2026-08-15T11:29:52Z</time></trkpt><trkpt lat="59.3589297775" lon="34.6993642766"><ele>165.00</ele><time>2026-08-15T11:29:58Z</time></trkpt><trkpt lat="59.3589971680" lon="34.6991980635"><ele>165.00</ele><time>2026-08-15T11:30:11Z</time></trkpt><trkpt lat="59.3590390775" lon="34.6990856621"><ele>165.00</ele><time>2026-08-15T11:30:22Z</time></trkpt><trkpt lat="59.3591586873" lon="34.6989823133"><ele>164.52</ele><time>2026-08-15T11:30:37Z</time></trkpt><trkpt lat="59.3591855094" lon="34.6989745181"><ele>164.52</ele><time>2026-08-15T11:30:40Z</time></trkpt><trkpt lat="59.3593306001" lon="34.6988775395"><ele>165.96</ele><time>2026-08-15T11:30:53Z</time></trkpt><trkpt lat="59.3593386468" lon="34.6988714207"><ele>165.96</ele><time>2026-08-15T11:31:15Z</time></trkpt><trkpt lat="59.3593510520" lon="34.6988930460"><ele>165.96</ele><time>2026-08-15T11:31:22Z</time></trkpt><trkpt lat="59.3594796304" lon="34.6989296749"><ele>165.96</ele><time>2026-08-15T11:31:36Z</time></trkpt><trkpt lat="59.3596103042" lon="34.6990103927"><ele>164.52</ele><time>2026-08-15T11:31:50Z</time></trkpt><trkpt lat="59.3597552273" lon="34.6989861690"><ele>165.96</ele><time>2026-08-15T11:32:04Z</time></trkpt><trkpt lat="59.3598182593" lon="34.6989715006"><ele>165.96</ele><time>2026-08-15T11:32:22Z</time></trkpt><trkpt lat="59.3598315865" lon="34.6989533957"><ele>166.45</ele><time>2026-08-15T11:32:42Z</time></trkpt><trkpt lat="59.3598470930" lon="34.6989322733"><ele>166.45</ele><time>2026-08-15T11:33:13Z</time></trkpt><trkpt lat="59.3598497752" lon="34.6989308484"><ele>166.45</ele><time>2026-08-15T11:33:36Z</time></trkpt><trkpt lat="59.3598468415" lon="34.6989259869"><ele>166.45</ele><time>2026-08-15T11:33:57Z</time></trkpt><trkpt lat="59.3598378729" lon="34.6988031920"><ele>166.45</ele><time>2026-08-15T11:34:10Z</time></trkpt><trkpt lat="59.3598861527" lon="34.6986348834"><ele>165.00</ele><time>2026-08-15T11:34:26Z</time></trkpt><trkpt lat="59.3598579895" lon="34.6984482184"><ele>165.00</ele><time>2026-08-15T11:34:39Z</time></trkpt><trkpt lat="59.3598487694" lon="34.6982432809"><ele>164.52</ele><time>2026-08-15T11:34:53Z</time></trkpt><trkpt lat="59.3598791957" lon="34.6981762256"><ele>164.52</ele><time>2026-08-15T11:35:07Z</time></trkpt><trkpt lat="59.3598945346" lon="34.6981426142"><ele>165.48</ele><time>2026-08-15T11:35:11Z</time></trkpt><trkpt lat="59.3598944508" lon="34.6980636567"><ele>166.45</ele><time>2026-08-15T11:35:23Z</time></trkpt><trkpt lat="59.3598957080" lon="34.6980587952"><ele>166.45</ele><time>2026-08-15T11:35:24Z</time></trkpt><trkpt lat="59.3598937802" lon="34.6979531832"><ele>166.45</ele><time>2026-08-15T11:35:40Z</time></trkpt><trkpt lat="59.3599129748" lon="34.6979145426"><ele>166.45</ele><time>2026-08-15T11:36:01Z</time></trkpt><trkpt lat="59.3599236198" lon="34.6978815179"><ele>166.45</ele><time>2026-08-15T11:36:21Z</time></trkpt><trkpt lat="59.3599683791" lon="34.6977413725"><ele>166.45</ele><time>2026-08-15T11:36:37Z</time></trkpt><trkpt lat="59.3600151502" lon="34.6974722296"><ele>165.00</ele><time>2026-08-15T11:36:57Z</time></trkpt><trkpt lat="59.3600465823" lon="34.6973882429"><ele>165.00</ele><time>2026-08-15T11:37:15Z</time></trkpt><trkpt lat="59.3600765057" lon="34.6973691322"><ele>164.52</ele><time>2026-08-15T11:37:31Z</time></trkpt><trkpt lat="59.3601705506" lon="34.6973180026"><ele>164.52</ele><time>2026-08-15T11:37:47Z</time></trkpt><trkpt lat="59.3602498434" lon="34.6972216945"><ele>165.48</ele><time>2026-08-15T11:38:00Z</time></trkpt><trkpt lat="59.3602847122" lon="34.6971233748"><ele>165.48</ele><time>2026-08-15T11:38:13Z</time></trkpt><trkpt lat="59.3602982908" lon="34.6970767714"><ele>165.96</ele><time>2026-08-15T11:38:33Z</time></trkpt><trkpt lat="59.3602981232" lon="34.6970751788"><ele>165.96</ele><time>2026-08-15T11:39:03Z</time></trkpt><trkpt lat="59.3602966145" lon="34.6970532183"><ele>165.96</ele><time>2026-08-15T11:39:35Z</time></trkpt><trkpt lat="59.3602954410" lon="34.6970460936"><ele>165.96</ele><time>2026-08-15T11:40:03Z</time></trkpt><trkpt lat="59.3602982070" lon="34.6970437467"><ele>165.96</ele><time>2026-08-15T11:40:34Z</time></trkpt><trkpt lat="59.3603198323" lon="34.6970281564"><ele>166.45</ele><time>2026-08-15T11:41:03Z</time></trkpt><trkpt lat="59.3603163958" lon="34.6969951317"><ele>165.00</ele><time>2026-08-15T11:41:25Z</time></trkpt><trkpt lat="59.3603136297" lon="34.6969794575"><ele>165.00</ele><time>2026-08-15T11:41:54Z</time></trkpt><trkpt lat="59.3602408748" lon="34.6970080398"><ele>166.45</ele><time>2026-08-15T11:42:08Z</time></trkpt><trkpt lat="59.3601236958" lon="34.6969796252"><ele>166.45</ele><time>2026-08-15T11:42:23Z</time></trkpt><trkpt lat="59.3600465823" lon="34.6969592571"><ele>166.45</ele><time>2026-08-15T11:42:39Z</time></trkpt><trkpt lat="59.3600371107" lon="34.6969593409"><ele>166.45</ele><time>2026-08-15T11:42:59Z</time></trkpt><trkpt lat="59.3600369431" lon="34.6969659626"><ele>165.00</ele><time>2026-08-15T11:43:21Z</time></trkpt><trkpt lat="59.3600366078" lon="34.6969667170"><ele>165.00</ele><time>2026-08-15T11:43:22Z</time></trkpt><trkpt lat="59.3600312434" lon="34.6969770268"><ele>165.00</ele><time>2026-08-15T11:43:41Z</time></trkpt><trkpt lat="59.3600244541" lon="34.6969735064"><ele>166.45</ele><time>2026-08-15T11:43:57Z</time></trkpt><trkpt lat="59.3600076903" lon="34.6969553176"><ele>166.45</ele><time>2026-08-15T11:44:15Z</time></trkpt><trkpt lat="59.3599608354" lon="34.6968578361"><ele>166.45</ele><time>2026-08-15T11:44:33Z</time></trkpt><trkpt lat="59.3599099573" lon="34.6968012583"><ele>165.48</ele><time>2026-08-15T11:44:49Z</time></trkpt><trkpt lat="59.3599032518" lon="34.6967931278"><ele>166.45</ele><time>2026-08-15T11:45:05Z</time></trkpt><trkpt lat="59.3598869070" lon="34.6968284994"><ele>166.45</ele><time>2026-08-15T11:45:31Z</time></trkpt><trkpt lat="59.3598722387" lon="34.6968191955"><ele>166.45</ele><time>2026-08-15T11:45:46Z</time></trkpt><trkpt lat="59.3598314188" lon="34.6967715025"><ele>166.45</ele><time>2026-08-15T11:46:04Z</time></trkpt><trkpt lat="59.3597432412" lon="34.6966840792"><ele>166.45</ele><time>2026-08-15T11:46:18Z</time></trkpt><trkpt lat="59.3597131502" lon="34.6966483723"><ele>166.45</ele><time>2026-08-15T11:46:32Z</time></trkpt><trkpt lat="59.3596994877" lon="34.6966318600"><ele>166.45</ele><time>2026-08-15T11:46:50Z</time></trkpt><trkpt lat="59.3596933689" lon="34.6966165211"><ele>166.45</ele><time>2026-08-15T11:47:19Z</time></trkpt><trkpt lat="59.3596776947" lon="34.6965957340"><ele>166.45</ele><time>2026-08-15T11:47:42Z</time></trkpt><trkpt lat="59.3596732523" lon="34.6965933032"><ele>166.45</ele><time>2026-08-15T11:48:09Z</time></trkpt><trkpt lat="59.3596640322" lon="34.6965884417"><ele>166.45</ele><time>2026-08-15T11:48:29Z</time></trkpt><trkpt lat="59.3596360367" lon="34.6965258289"><ele>165.48</ele><time>2026-08-15T11:48:41Z</time></trkpt><trkpt lat="59.3595973961" lon="34.6964926366"><ele>165.48</ele><time>2026-08-15T11:48:53Z</time></trkpt><trkpt lat="59.3595399801" lon="34.6964092366"><ele>165.48</ele><time>2026-08-15T11:49:05Z</time></trkpt><trkpt lat="59.3594823964" lon="34.6963761281"><ele>165.48</ele><time>2026-08-15T11:49:16Z</time></trkpt><trkpt lat="59.3594396487" lon="34.6963526588"><ele>165.48</ele><time>2026-08-15T11:49:25Z</time></trkpt><trkpt lat="59.3594187777" lon="34.6963610407"><ele>165.48</ele><time>2026-08-15T11:49:42Z</time></trkpt><trkpt lat="59.3594179396" lon="34.6963616274"><ele>165.48</ele><time>2026-08-15T11:49:43Z</time></trkpt><trkpt lat="59.3593441788" lon="34.6963311173"><ele>165.48</ele><time>2026-08-15T11:49:53Z</time></trkpt><trkpt lat="59.3592838291" lon="34.6962731984"><ele>165.48</ele><time>2026-08-15T11:50:04Z</time></trkpt><trkpt lat="59.3592703342" lon="34.6962607931"><ele>165.48</ele><time>2026-08-15T11:50:06Z</time></trkpt><trkpt lat="59.3592391536" lon="34.6962403413"><ele>165.48</ele><time>2026-08-15T11:50:16Z</time></trkpt><trkpt lat="59.3592031114" lon="34.6962138545"><ele>165.48</ele><time>2026-08-15T11:50:29Z</time></trkpt><trkpt lat="59.3591560051" lon="34.6961717773"><ele>165.48</ele><time>2026-08-15T11:50:42Z</time></trkpt><trkpt lat="59.3591290992" lon="34.6961738728"><ele>165.48</ele><time>2026-08-15T11:50:58Z</time></trkpt><trkpt lat="59.3591158558" lon="34.6961664129"><ele>165.00</ele><time>2026-08-15T11:51:15Z</time></trkpt><trkpt lat="59.3591018580" lon="34.6961372439"><ele>165.00</ele><time>2026-08-15T11:51:27Z</time></trkpt><trkpt lat="59.3590476271" lon="34.6960691828"><ele>165.00</ele><time>2026-08-15T11:51:45Z</time></trkpt><trkpt lat="59.3589842599" lon="34.6959893033"><ele>165.96</ele><time>2026-08-15T11:52:00Z</time></trkpt><trkpt lat="59.3589417636" lon="34.6959717851"><ele>165.48</ele><time>2026-08-15T11:52:13Z</time></trkpt><trkpt lat="59.3589172047" lon="34.6959865373"><ele>165.48</ele><time>2026-08-15T11:52:37Z</time></trkpt><trkpt lat="59.3588261772" lon="34.6959796641"><ele>166.93</ele><time>2026-08-15T11:52:51Z</time></trkpt><trkpt lat="59.3586411886" lon="34.6959587932"><ele>167.41</ele><time>2026-08-15T11:53:05Z</time></trkpt><trkpt lat="59.3585180584" lon="34.6959853638"><ele>167.41</ele><time>2026-08-15T11:53:17Z</time></trkpt><trkpt lat="59.3585106824" lon="34.6959909797"><ele>167.41</ele><time>2026-08-15T11:53:27Z</time></trkpt><trkpt lat="59.3585002050" lon="34.6959893033"><ele>165.96</ele><time>2026-08-15T11:53:29Z</time></trkpt><trkpt lat="59.3584209122" lon="34.6959902253"><ele>165.96</ele><time>2026-08-15T11:53:42Z</time></trkpt><trkpt lat="59.3583412003" lon="34.6960058995"><ele>165.96</ele><time>2026-08-15T11:53:55Z</time></trkpt><trkpt lat="59.3582934234" lon="34.6959855314"><ele>165.96</ele><time>2026-08-15T11:54:10Z</time></trkpt><trkpt lat="59.3582165614" lon="34.6959972661"><ele>165.96</ele><time>2026-08-15T11:54:25Z</time></trkpt><trkpt lat="59.3581753224" lon="34.6960094199"><ele>165.96</ele><time>2026-08-15T11:54:40Z</time></trkpt><trkpt lat="59.3581299763" lon="34.6959866211"><ele>165.96</ele><time>2026-08-15T11:54:51Z</time></trkpt><trkpt lat="59.3580770027" lon="34.6959696058"><ele>165.96</ele><time>2026-08-15T11:55:10Z</time></trkpt><trkpt lat="59.3580525275" lon="34.6960301232"><ele>165.48</ele><time>2026-08-15T11:55:46Z</time></trkpt><trkpt lat="59.3580429722" lon="34.6960463002"><ele>165.48</ele><time>2026-08-15T11:56:15Z</time></trkpt><trkpt lat="59.3580319081" lon="34.6960500721"><ele>165.48</ele><time>2026-08-15T11:56:44Z</time></trkpt><trkpt lat="59.3580278847" lon="34.6960504912"><ele>165.48</ele><time>2026-08-15T11:57:12Z</time></trkpt><trkpt lat="59.3580182455" lon="34.6960407682"><ele>165.48</ele><time>2026-08-15T11:57:34Z</time></trkpt><trkpt lat="59.3580063432" lon="34.6960261837"><ele>165.48</ele><time>2026-08-15T11:58:14Z</time></trkpt><trkpt lat="59.3579967879" lon="34.6960142814"><ele>165.48</ele><time>2026-08-15T11:58:50Z</time></trkpt><trkpt lat="59.3579940218" lon="34.6960099228"><ele>165.48</ele><time>2026-08-15T11:59:11Z</time></trkpt><trkpt lat="59.3579809461" lon="34.6959957574"><ele>165.48</ele><time>2026-08-15T11:59:42Z</time></trkpt><trkpt lat="59.3579728995" lon="34.6960048098"><ele>165.48</ele><time>2026-08-15T12:00:08Z</time></trkpt><trkpt lat="59.3579817005" lon="34.6960466355"><ele>165.48</ele><time>2026-08-15T12:00:42Z</time></trkpt><trkpt lat="59.3579820357" lon="34.6960342303"><ele>166.93</ele><time>2026-08-15T12:01:06Z</time></trkpt><trkpt lat="59.3579768389" lon="34.6960374992"><ele>165.48</ele><time>2026-08-15T12:01:46Z</time></trkpt><trkpt lat="59.3579801917" lon="34.6959955059"><ele>166.93</ele><time>2026-08-15T12:02:12Z</time></trkpt><trkpt lat="59.3579817005" lon="34.6959938295"><ele>166.93</ele><time>2026-08-15T12:02:36Z</time></trkpt><trkpt lat="59.3580039125" lon="34.6960267704"><ele>166.93</ele><time>2026-08-15T12:02:53Z</time></trkpt><trkpt lat="59.3580455706" lon="34.6960059833"><ele>166.93</ele><time>2026-08-15T12:03:06Z</time></trkpt><trkpt lat="59.3580684531" lon="34.6960063186"><ele>166.93</ele><time>2026-08-15T12:03:21Z</time></trkpt><trkpt lat="59.3581181578" lon="34.6960011218"><ele>167.41</ele><time>2026-08-15T12:03:35Z</time></trkpt><trkpt lat="59.3581549544" lon="34.6960126888"><ele>167.41</ele><time>2026-08-15T12:03:56Z</time></trkpt><trkpt lat="59.3581594806" lon="34.6960047260"><ele>167.41</ele><time>2026-08-15T12:04:13Z</time></trkpt><trkpt lat="59.3581939302" lon="34.6959464718"><ele>167.41</ele><time>2026-08-15T12:04:37Z</time></trkpt><trkpt lat="59.3582231831" lon="34.6958437935"><ele>167.41</ele><time>2026-08-15T12:04:52Z</time></trkpt><trkpt lat="59.3582312297" lon="34.6958127804"><ele>167.41</ele><time>2026-08-15T12:04:57Z</time></trkpt><trkpt lat="59.3582496699" lon="34.6957475692"><ele>167.89</ele><time>2026-08-15T12:05:15Z</time></trkpt><trkpt lat="59.3582515977" lon="34.6957078390"><ele>166.93</ele><time>2026-08-15T12:05:42Z</time></trkpt><trkpt lat="59.3582800962" lon="34.6955579706"><ele>166.93</ele><time>2026-08-15T12:06:04Z</time></trkpt><trkpt lat="59.3582940102" lon="34.6954556275"><ele>166.93</ele><time>2026-08-15T12:06:19Z</time></trkpt><trkpt lat="59.3582871370" lon="34.6952946112"><ele>166.93</ele><time>2026-08-15T12:06:34Z</time></trkpt><trkpt lat="59.3583163060" lon="34.6952012368"><ele>166.93</ele><time>2026-08-15T12:06:48Z</time></trkpt><trkpt lat="59.3583293818" lon="34.6951424796"><ele>166.93</ele><time>2026-08-15T12:07:02Z</time></trkpt><trkpt lat="59.3583245203" lon="34.6951341815"><ele>167.41</ele><time>2026-08-15T12:07:29Z</time></trkpt><trkpt lat="59.3583251070" lon="34.6951070242"><ele>167.41</ele><time>2026-08-15T12:07:57Z</time></trkpt><trkpt lat="59.3583241012" lon="34.6950947866"><ele>167.41</ele><time>2026-08-15T12:08:24Z</time></trkpt><trkpt lat="59.3583274540" lon="34.6950752567"><ele>167.41</ele><time>2026-08-15T12:09:06Z</time></trkpt><trkpt lat="59.3583303038" lon="34.6950605046"><ele>167.41</ele><time>2026-08-15T12:09:47Z</time></trkpt><trkpt lat="59.3583309744" lon="34.6950529609"><ele>167.41</ele><time>2026-08-15T12:10:10Z</time></trkpt><trkpt lat="59.3583311420" lon="34.6950416453"><ele>167.41</ele><time>2026-08-15T12:10:35Z</time></trkpt><trkpt lat="59.3583591375" lon="34.6950303297"><ele>167.41</ele><time>2026-08-15T12:10:58Z</time></trkpt><trkpt lat="59.3584343232" lon="34.6951374505"><ele>167.41</ele><time>2026-08-15T12:11:15Z</time></trkpt><trkpt lat="59.3584632408" lon="34.6951682121"><ele>167.89</ele><time>2026-08-15T12:11:29Z</time></trkpt><trkpt lat="59.3584665935" lon="34.6951619256"><ele>167.89</ele><time>2026-08-15T12:11:51Z</time></trkpt><trkpt lat="59.3585116044" lon="34.6951216925"><ele>167.89</ele><time>2026-08-15T12:12:04Z</time></trkpt><trkpt lat="59.3585899752" lon="34.6951246262"><ele>167.89</ele><time>2026-08-15T12:12:23Z</time></trkpt><trkpt lat="59.3587455433" lon="34.6950438246"><ele>166.45</ele><time>2026-08-15T12:12:38Z</time></trkpt><trkpt lat="59.3587607145" lon="34.6950539667"><ele>166.45</ele><time>2026-08-15T12:12:54Z</time></trkpt><trkpt lat="59.3587920628" lon="34.6950904280"><ele>166.45</ele><time>2026-08-15T12:13:10Z</time></trkpt><trkpt lat="59.3589196354" lon="34.6952072717"><ele>165.96</ele><time>2026-08-15T12:13:21Z</time></trkpt><trkpt lat="59.3589751236" lon="34.6952739079"><ele>165.48</ele><time>2026-08-15T12:13:33Z</time></trkpt><trkpt lat="59.3590129260" lon="34.6952933539"><ele>165.48</ele><time>2026-08-15T12:13:47Z</time></trkpt><trkpt lat="59.3590670731" lon="34.6953267138"><ele>165.48</ele><time>2026-08-15T12:13:59Z</time></trkpt><trkpt lat="59.3590787239" lon="34.6953128837"><ele>165.48</ele><time>2026-08-15T12:14:20Z</time></trkpt><trkpt lat="59.3591466174" lon="34.6953358501"><ele>165.48</ele><time>2026-08-15T12:14:35Z</time></trkpt><trkpt lat="59.3591965735" lon="34.6953515243"><ele>165.00</ele><time>2026-08-15T12:14:49Z</time></trkpt><trkpt lat="59.3592589349" lon="34.6953534521"><ele>165.00</ele><time>2026-08-15T12:15:02Z</time></trkpt><trkpt lat="59.3593364675" lon="34.6953884885"><ele>165.00</ele><time>2026-08-15T12:15:15Z</time></trkpt><trkpt lat="59.3593569193" lon="34.6953849681"><ele>165.00</ele><time>2026-08-15T12:15:18Z</time></trkpt><trkpt lat="59.3594331108" lon="34.6954433899"><ele>165.00</ele><time>2026-08-15T12:15:33Z</time></trkpt><trkpt lat="59.3594430014" lon="34.6954515204"><ele>165.00</ele><time>2026-08-15T12:15:48Z</time></trkpt><trkpt lat="59.3594428338" lon="34.6954534482"><ele>165.00</ele><time>2026-08-15T12:16:11Z</time></trkpt><trkpt lat="59.3594436720" lon="34.6954514366"><ele>165.00</ele><time>2026-08-15T12:16:39Z</time></trkpt><trkpt lat="59.3594445102" lon="34.6954536159"><ele>165.00</ele><time>2026-08-15T12:17:01Z</time></trkpt><trkpt lat="59.3594422471" lon="34.6954532806"><ele>164.52</ele><time>2026-08-15T12:17:34Z</time></trkpt><trkpt lat="59.3594412412" lon="34.6954469942"><ele>164.52</ele><time>2026-08-15T12:17:58Z</time></trkpt><trkpt lat="59.3594866712" lon="34.6954986267"><ele>164.52</ele><time>2026-08-15T12:18:12Z</time></trkpt><trkpt lat="59.3595549837" lon="34.6956090163"><ele>164.52</ele><time>2026-08-15T12:18:30Z</time></trkpt><trkpt lat="59.3595785368" lon="34.6956365090"><ele>165.96</ele><time>2026-08-15T12:18:45Z</time></trkpt><trkpt lat="59.3595916964" lon="34.6956513450"><ele>165.00</ele><time>2026-08-15T12:19:03Z</time></trkpt><trkpt lat="59.3596678041" lon="34.6956743114"><ele>165.96</ele><time>2026-08-15T12:19:18Z</time></trkpt><trkpt lat="59.3596792035" lon="34.6957011335"><ele>165.96</ele><time>2026-08-15T12:19:34Z</time></trkpt><trkpt lat="59.3597430736" lon="34.6958240122"><ele>166.93</ele><time>2026-08-15T12:19:52Z</time></trkpt><trkpt lat="59.3597854860" lon="34.6958447155"><ele>166.93</ele><time>2026-08-15T12:20:18Z</time></trkpt><trkpt lat="59.3598657008" lon="34.6959049813"><ele>167.41</ele><time>2026-08-15T12:20:31Z</time></trkpt><trkpt lat="59.3599216081" lon="34.6959022153"><ele>167.89</ele><time>2026-08-15T12:20:48Z</time></trkpt><trkpt lat="59.3600195087" lon="34.6959667560"><ele>167.89</ele><time>2026-08-15T12:21:03Z</time></trkpt><trkpt lat="59.3600698840" lon="34.6960060671"><ele>166.93</ele><time>2026-08-15T12:21:16Z</time></trkpt><trkpt lat="59.3601420522" lon="34.6960406005"><ele>166.93</ele><time>2026-08-15T12:21:28Z</time></trkpt><trkpt lat="59.3602446467" lon="34.6960597951"><ele>166.93</ele><time>2026-08-15T12:21:40Z</time></trkpt><trkpt lat="59.3602979556" lon="34.6961071528"><ele>166.93</ele><time>2026-08-15T12:21:53Z</time></trkpt><trkpt lat="59.3603321537" lon="34.6962205600"><ele>166.93</ele><time>2026-08-15T12:22:11Z</time></trkpt><trkpt lat="59.3603718840" lon="34.6962515730"><ele>167.89</ele><time>2026-08-15T12:22:20Z</time></trkpt><trkpt lat="59.3603670225" lon="34.6962855197"><ele>167.89</ele><time>2026-08-15T12:22:46Z</time></trkpt><trkpt lat="59.3603899889" lon="34.6962985955"><ele>167.89</ele><time>2026-08-15T12:23:14Z</time></trkpt><trkpt lat="59.3603913300" lon="34.6962900460"><ele>167.89</ele><time>2026-08-15T12:23:43Z</time></trkpt><trkpt lat="59.3603925873" lon="34.6962996013"><ele>167.89</ele><time>2026-08-15T12:24:08Z</time></trkpt><trkpt lat="59.3604114465" lon="34.6962815803"><ele>167.89</ele><time>2026-08-15T12:24:32Z</time></trkpt><trkpt lat="59.3604289647" lon="34.6962508187"><ele>167.89</ele><time>2026-08-15T12:25:02Z</time></trkpt><trkpt lat="59.3604206666" lon="34.6962126810"><ele>166.93</ele><time>2026-08-15T12:25:38Z</time></trkpt><trkpt lat="59.3604357541" lon="34.6961993538"><ele>166.93</ele><time>2026-08-15T12:26:12Z</time></trkpt><trkpt lat="59.3604284618" lon="34.6961889602"><ele>166.93</ele><time>2026-08-15T12:26:39Z</time></trkpt><trkpt lat="59.3604241870" lon="34.6962049697"><ele>166.93</ele><time>2026-08-15T12:27:01Z</time></trkpt><trkpt lat="59.3604256958" lon="34.6961161215"><ele>168.37</ele><time>2026-08-15T12:27:20Z</time></trkpt><trkpt lat="59.3604556192" lon="34.6957864612"><ele>168.37</ele><time>2026-08-15T12:27:36Z</time></trkpt><trkpt lat="59.3604272045" lon="34.6956461482"><ele>168.37</ele><time>2026-08-15T12:27:54Z</time></trkpt><trkpt lat="59.3604718801" lon="34.6955409553"><ele>166.93</ele><time>2026-08-15T12:28:06Z</time></trkpt><trkpt lat="59.3604579661" lon="34.6954710502"><ele>166.93</ele><time>2026-08-15T12:28:24Z</time></trkpt><trkpt lat="59.3604848720" lon="34.6953150630"><ele>166.93</ele><time>2026-08-15T12:28:39Z</time></trkpt><trkpt lat="59.3604853749" lon="34.6953062620"><ele>166.93</ele><time>2026-08-15T12:28:51Z</time></trkpt><trkpt lat="59.3604864646" lon="34.6953205951"><ele>168.37</ele><time>2026-08-15T12:29:02Z</time></trkpt><trkpt lat="59.3604780827" lon="34.6953028254"><ele>168.37</ele><time>2026-08-15T12:29:21Z</time></trkpt><trkpt lat="59.3604741432" lon="34.6952770930"><ele>168.85</ele><time>2026-08-15T12:29:46Z</time></trkpt><trkpt lat="59.3604561221" lon="34.6952536236"><ele>168.85</ele><time>2026-08-15T12:30:15Z</time></trkpt><trkpt lat="59.3604542781" lon="34.6952546295"><ele>168.85</ele><time>2026-08-15T12:30:39Z</time></trkpt><trkpt lat="59.3604493327" lon="34.6952427272"><ele>168.85</ele><time>2026-08-15T12:30:55Z</time></trkpt><trkpt lat="59.3604082614" lon="34.6952366084"><ele>167.41</ele><time>2026-08-15T12:31:13Z</time></trkpt><trkpt lat="59.3603571318" lon="34.6952439006"><ele>167.41</ele><time>2026-08-15T12:31:29Z</time></trkpt><trkpt lat="59.3602908310" lon="34.6952533722"><ele>167.41</ele><time>2026-08-15T12:31:42Z</time></trkpt><trkpt lat="59.3601260427" lon="34.6952231973"><ele>168.85</ele><time>2026-08-15T12:32:00Z</time></trkpt><trkpt lat="59.3600941915" lon="34.6952180844"><ele>168.85</ele><time>2026-08-15T12:32:03Z</time></trkpt><trkpt lat="59.3599900045" lon="34.6951002348"><ele>168.85</ele><time>2026-08-15T12:32:17Z</time></trkpt><trkpt lat="59.3599556386" lon="34.6950540505"><ele>167.41</ele><time>2026-08-15T12:32:33Z</time></trkpt><trkpt lat="59.3599542975" lon="34.6950582415"><ele>167.41</ele><time>2026-08-15T12:32:53Z</time></trkpt><trkpt lat="59.3599535432" lon="34.6950541344"><ele>167.41</ele><time>2026-08-15T12:33:19Z</time></trkpt><trkpt lat="59.3599542975" lon="34.6950384602"><ele>167.41</ele><time>2026-08-15T12:33:39Z</time></trkpt><trkpt lat="59.3599577341" lon="34.6950334311"><ele>167.41</ele><time>2026-08-15T12:34:13Z</time></trkpt><trkpt lat="59.3599522021" lon="34.6950167511"><ele>167.41</ele><time>2026-08-15T12:34:40Z</time></trkpt><trkpt lat="59.3599434849" lon="34.6949959639"><ele>166.93</ele><time>2026-08-15T12:35:04Z</time></trkpt><trkpt lat="59.3598803692" lon="34.6949885879"><ele>166.93</ele><time>2026-08-15T12:35:20Z</time></trkpt><trkpt lat="59.3597675487" lon="34.6949482709"><ele>165.48</ele><time>2026-08-15T12:35:37Z</time></trkpt><trkpt lat="59.3597143237" lon="34.6949754283"><ele>165.48</ele><time>2026-08-15T12:35:50Z</time></trkpt><trkpt lat="59.3596498668" lon="34.6949998196"><ele>165.48</ele><time>2026-08-15T12:36:02Z</time></trkpt><trkpt lat="59.3596259784" lon="34.6949975565"><ele>165.48</ele><time>2026-08-15T12:36:15Z</time></trkpt><trkpt lat="59.3596242182" lon="34.6949894261"><ele>165.48</ele><time>2026-08-15T12:36:29Z</time></trkpt><trkpt lat="59.3596270680" lon="34.6949645318"><ele>165.48</ele><time>2026-08-15T12:36:50Z</time></trkpt><trkpt lat="59.3595613539" lon="34.6949632745"><ele>166.93</ele><time>2026-08-15T12:37:01Z</time></trkpt><trkpt lat="59.3595187739" lon="34.6949455049"><ele>166.93</ele><time>2026-08-15T12:37:06Z</time></trkpt><trkpt lat="59.3594276626" lon="34.6949350275"><ele>166.93</ele><time>2026-08-15T12:37:17Z</time></trkpt><trkpt lat="59.3594020978" lon="34.6949114744"><ele>166.93</ele><time>2026-08-15T12:37:26Z</time></trkpt><trkpt lat="59.3593844958" lon="34.6948874183"><ele>166.93</ele><time>2026-08-15T12:37:39Z</time></trkpt><trkpt lat="59.3593739346" lon="34.6948764380"><ele>166.93</ele><time>2026-08-15T12:37:51Z</time></trkpt><trkpt lat="59.3593414966" lon="34.6948513761"><ele>166.93</ele><time>2026-08-15T12:38:02Z</time></trkpt><trkpt lat="59.3593354616" lon="34.6948488615"><ele>166.93</ele><time>2026-08-15T12:38:28Z</time></trkpt><trkpt lat="59.3592189532" lon="34.6947458480"><ele>166.93</ele><time>2026-08-15T12:38:40Z</time></trkpt><trkpt lat="59.3592046201" lon="34.6947329398"><ele>166.93</ele><time>2026-08-15T12:38:53Z</time></trkpt><trkpt lat="59.3591955677" lon="34.6946975682"><ele>166.93</ele><time>2026-08-15T12:39:07Z</time></trkpt><trkpt lat="59.3591843359" lon="34.6946719196"><ele>165.96</ele><time>2026-08-15T12:39:30Z</time></trkpt><trkpt lat="59.3591666501" lon="34.6946568321"><ele>165.96</ele><time>2026-08-15T12:39:59Z</time></trkpt><trkpt lat="59.3591600284" lon="34.6946484502"><ele>166.93</ele><time>2026-08-15T12:40:24Z</time></trkpt><trkpt lat="59.3591552507" lon="34.6946413256"><ele>165.48</ele><time>2026-08-15T12:40:32Z</time></trkpt><trkpt lat="59.3591343798" lon="34.6946142521"><ele>165.48</ele><time>2026-08-15T12:40:50Z</time></trkpt><trkpt lat="59.3591149338" lon="34.6945813950"><ele>165.48</ele><time>2026-08-15T12:41:13Z</time></trkpt><trkpt lat="59.3591114134" lon="34.6945753600"><ele>166.45</ele><time>2026-08-15T12:41:28Z</time></trkpt><trkpt lat="59.3591052946" lon="34.6945685707"><ele>166.45</ele><time>2026-08-15T12:41:57Z</time></trkpt><trkpt lat="59.3590955716" lon="34.6945425030"><ele>166.45</ele><time>2026-08-15T12:42:16Z</time></trkpt><trkpt lat="59.3590925541" lon="34.6945561655"><ele>166.45</ele><time>2026-08-15T12:42:42Z</time></trkpt><trkpt lat="59.3590910453" lon="34.6945630386"><ele>166.45</ele><time>2026-08-15T12:43:15Z</time></trkpt><trkpt lat="59.3590822443" lon="34.6945598535"><ele>166.93</ele><time>2026-08-15T12:43:45Z</time></trkpt><trkpt lat="59.3590820767" lon="34.6945601888"><ele>166.93</ele><time>2026-08-15T12:44:11Z</time></trkpt><trkpt lat="59.3590778019" lon="34.6945552435"><ele>165.96</ele><time>2026-08-15T12:44:41Z</time></trkpt><trkpt lat="59.3590708449" lon="34.6945642959"><ele>165.96</ele><time>2026-08-15T12:45:13Z</time></trkpt><trkpt lat="59.3590709288" lon="34.6945607755"><ele>167.41</ele><time>2026-08-15T12:45:43Z</time></trkpt><trkpt lat="59.3590685818" lon="34.6945553273"><ele>167.41</ele><time>2026-08-15T12:46:04Z</time></trkpt><trkpt lat="59.3590528239" lon="34.6945580095"><ele>167.41</ele><time>2026-08-15T12:46:24Z</time></trkpt><trkpt lat="59.3590420112" lon="34.6945690736"><ele>167.41</ele><time>2026-08-15T12:46:43Z</time></trkpt><trkpt lat="59.3590286002" lon="34.6945566684"><ele>167.41</ele><time>2026-08-15T12:46:58Z</time></trkpt><trkpt lat="59.3590179551" lon="34.6945540700"><ele>165.96</ele><time>2026-08-15T12:47:07Z</time></trkpt><trkpt lat="59.3590027001" lon="34.6945454367"><ele>165.96</ele><time>2026-08-15T12:47:28Z</time></trkpt><trkpt lat="59.3589763809" lon="34.6945195366"><ele>165.96</ele><time>2026-08-15T12:47:47Z</time></trkpt><trkpt lat="59.3589547556" lon="34.6945240628"><ele>165.96</ele><time>2026-08-15T12:48:00Z</time></trkpt><trkpt lat="59.3589349743" lon="34.6945252363"><ele>165.96</ele><time>2026-08-15T12:48:24Z</time></trkpt><trkpt lat="59.3589158636" lon="34.6945208777"><ele>165.96</ele><time>2026-08-15T12:48:46Z</time></trkpt><trkpt lat="59.3588953279" lon="34.6944979113"><ele>165.96</ele><time>2026-08-15T12:49:05Z</time></trkpt><trkpt lat="59.3588235788" lon="34.6944440156"><ele>165.96</ele><time>2026-08-15T12:49:20Z</time></trkpt><trkpt lat="59.3587514944" lon="34.6944097336"><ele>165.96</ele><time>2026-08-15T12:49:37Z</time></trkpt><trkpt lat="59.3587226607" lon="34.6943708416"><ele>165.96</ele><time>2026-08-15T12:49:54Z</time></trkpt><trkpt lat="59.3586430326" lon="34.6943033673"><ele>165.96</ele><time>2026-08-15T12:50:10Z</time></trkpt><trkpt lat="59.3585996982" lon="34.6942488011"><ele>167.41</ele><time>2026-08-15T12:50:13Z</time></trkpt><trkpt lat="59.3585074134" lon="34.6940352302"><ele>167.89</ele><time>2026-08-15T12:50:28Z</time></trkpt><trkpt lat="59.3584513385" lon="34.6939484775"><ele>166.93</ele><time>2026-08-15T12:50:47Z</time></trkpt><trkpt lat="59.3584507518" lon="34.6939324681"><ele>166.93</ele><time>2026-08-15T12:51:16Z</time></trkpt><trkpt lat="59.3584481534" lon="34.6939400956"><ele>167.41</ele><time>2026-08-15T12:51:36Z</time></trkpt><trkpt lat="59.3584551942" lon="34.6939202305"><ele>167.41</ele><time>2026-08-15T12:51:54Z</time></trkpt><trkpt lat="59.3584546074" lon="34.6939149499"><ele>166.45</ele><time>2026-08-15T12:51:59Z</time></trkpt><trkpt lat="59.3584870454" lon="34.6938053984"><ele>165.96</ele><time>2026-08-15T12:52:18Z</time></trkpt><trkpt lat="59.3584835250" lon="34.6936629061"><ele>165.48</ele><time>2026-08-15T12:52:35Z</time></trkpt><trkpt lat="59.3585372530" lon="34.6933976188"><ele>164.52</ele><time>2026-08-15T12:52:47Z</time></trkpt><trkpt lat="59.3585666735" lon="34.6932201739"><ele>164.52</ele><time>2026-08-15T12:53:00Z</time></trkpt><trkpt lat="59.3585825991" lon="34.6931456588"><ele>165.96</ele><time>2026-08-15T12:53:13Z</time></trkpt><trkpt lat="59.3585837726" lon="34.6931247879"><ele>165.00</ele><time>2026-08-15T12:53:35Z</time></trkpt><trkpt lat="59.3585825153" lon="34.6931034978"><ele>165.00</ele><time>2026-08-15T12:54:00Z</time></trkpt><trkpt lat="59.3585841917" lon="34.6930950321"><ele>165.00</ele><time>2026-08-15T12:54:26Z</time></trkpt><trkpt lat="59.3585754745" lon="34.6930672042"><ele>165.00</ele><time>2026-08-15T12:54:54Z</time></trkpt><trkpt lat="59.3585754745" lon="34.6930661984"><ele>165.00</ele><time>2026-08-15T12:55:17Z</time></trkpt><trkpt lat="59.3585833535" lon="34.6930674557"><ele>165.96</ele><time>2026-08-15T12:55:32Z</time></trkpt><trkpt lat="59.3585879635" lon="34.6930858120"><ele>165.96</ele><time>2026-08-15T12:55:53Z</time></trkpt><trkpt lat="59.3586172163" lon="34.6930786874"><ele>165.96</ele><time>2026-08-15T12:56:31Z</time></trkpt><trkpt lat="59.3586267717" lon="34.6930825431"><ele>165.96</ele><time>2026-08-15T12:56:58Z</time></trkpt><trkpt lat="59.3586403504" lon="34.6931078564"><ele>165.00</ele><time>2026-08-15T12:57:19Z</time></trkpt><trkpt lat="59.3587519974" lon="34.6932731476"><ele>165.00</ele><time>2026-08-15T12:57:37Z</time></trkpt><trkpt lat="59.3587881234" lon="34.6933365986"><ele>164.52</ele><time>2026-08-15T12:57:49Z</time></trkpt><trkpt lat="59.3588207290" lon="34.6933751553"><ele>164.04</ele><time>2026-08-15T12:58:14Z</time></trkpt><trkpt lat="59.3588643987" lon="34.6933933441"><ele>164.04</ele><time>2026-08-15T12:58:27Z</time></trkpt><trkpt lat="59.3589030392" lon="34.6934344992"><ele>164.04</ele><time>2026-08-15T12:58:43Z</time></trkpt><trkpt lat="59.3589992635" lon="34.6935361717"><ele>164.04</ele><time>2026-08-15T12:58:55Z</time></trkpt><trkpt lat="59.3591365591" lon="34.6936837770"><ele>164.04</ele><time>2026-08-15T12:59:10Z</time></trkpt><trkpt lat="59.3592021894" lon="34.6937442943"><ele>164.04</ele><time>2026-08-15T12:59:22Z</time></trkpt><trkpt lat="59.3593031913" lon="34.6938055661"><ele>164.04</ele><time>2026-08-15T12:59:37Z</time></trkpt><trkpt lat="59.3593206257" lon="34.6938114334"><ele>164.04</ele><time>2026-08-15T12:59:56Z</time></trkpt><trkpt lat="59.3593701627" lon="34.6937964298"><ele>163.56</ele><time>2026-08-15T13:00:10Z</time></trkpt><trkpt lat="59.3594788760" lon="34.6937624831"><ele>163.56</ele><time>2026-08-15T13:00:23Z</time></trkpt><trkpt lat="59.3595388066" lon="34.6937435400"><ele>162.60</ele><time>2026-08-15T13:00:39Z</time></trkpt><trkpt lat="59.3595381361" lon="34.6937033068"><ele>164.04</ele><time>2026-08-15T13:00:55Z</time></trkpt><trkpt lat="59.3595581688" lon="34.6937401034"><ele>164.52</ele><time>2026-08-15T13:01:09Z</time></trkpt><trkpt lat="59.3595742621" lon="34.6937499102"><ele>164.52</ele><time>2026-08-15T13:01:14Z</time></trkpt><trkpt lat="59.3596041854" lon="34.6938950010"><ele>164.52</ele><time>2026-08-15T13:01:26Z</time></trkpt><trkpt lat="59.3596066162" lon="34.6939091664"><ele>164.52</ele><time>2026-08-15T13:01:45Z</time></trkpt><trkpt lat="59.3596286606" lon="34.6939416043"><ele>164.52</ele><time>2026-08-15T13:02:01Z</time></trkpt><trkpt lat="59.3596055266" lon="34.6939558536"><ele>164.52</ele><time>2026-08-15T13:02:27Z</time></trkpt><trkpt lat="59.3595992401" lon="34.6939608827"><ele>164.52</ele><time>2026-08-15T13:02:57Z</time></trkpt><trkpt lat="59.3596018385" lon="34.6939650737"><ele>164.52</ele><time>2026-08-15T13:03:23Z</time></trkpt><trkpt lat="59.3595994078" lon="34.6939621400"><ele>163.08</ele><time>2026-08-15T13:03:55Z</time></trkpt><trkpt lat="59.3595937919" lon="34.6939634811"><ele>163.08</ele><time>2026-08-15T13:04:28Z</time></trkpt><trkpt lat="59.3595989887" lon="34.6939620562"><ele>163.08</ele><time>2026-08-15T13:04:49Z</time></trkpt><trkpt lat="59.3596678879" lon="34.6939841006"><ele>164.52</ele><time>2026-08-15T13:05:06Z</time></trkpt><trkpt lat="59.3596941233" lon="34.6940293629"><ele>164.52</ele><time>2026-08-15T13:05:20Z</time></trkpt><trkpt lat="59.3597843964" lon="34.6941159479"><ele>164.52</ele><time>2026-08-15T13:05:40Z</time></trkpt><trkpt lat="59.3598014954" lon="34.6941186301"><ele>163.08</ele><time>2026-08-15T13:05:54Z</time></trkpt><trkpt lat="59.3598299101" lon="34.6941608749"><ele>164.52</ele><time>2026-08-15T13:06:02Z</time></trkpt><trkpt lat="59.3598880805" lon="34.6941880323"><ele>164.52</ele><time>2026-08-15T13:06:16Z</time></trkpt><trkpt lat="59.3599608354" lon="34.6942634694"><ele>164.52</ele><time>2026-08-15T13:06:34Z</time></trkpt><trkpt lat="59.3600164913" lon="34.6942822449"><ele>164.52</ele><time>2026-08-15T13:06:51Z</time></trkpt><trkpt lat="59.3601086084" lon="34.6943330392"><ele>164.52</ele><time>2026-08-15T13:07:02Z</time></trkpt><trkpt lat="59.3602374382" lon="34.6944472007"><ele>165.00</ele><time>2026-08-15T13:07:15Z</time></trkpt><trkpt lat="59.3602835387" lon="34.6944648866"><ele>165.00</ele><time>2026-08-15T13:07:35Z</time></trkpt><trkpt lat="59.3603718001" lon="34.6944503020"><ele>165.00</ele><time>2026-08-15T13:07:52Z</time></trkpt><trkpt lat="59.3604756519" lon="34.6944532357"><ele>165.00</ele><time>2026-08-15T13:08:02Z</time></trkpt><trkpt lat="59.3605528492" lon="34.6945518907"><ele>165.48</ele><time>2026-08-15T13:08:18Z</time></trkpt><trkpt lat="59.3605991174" lon="34.6945684031"><ele>165.48</ele><time>2026-08-15T13:08:35Z</time></trkpt><trkpt lat="59.3606402725" lon="34.6945852507"><ele>165.48</ele><time>2026-08-15T13:08:47Z</time></trkpt><trkpt lat="59.3606812600" lon="34.6945841610"><ele>165.96</ele><time>2026-08-15T13:09:02Z</time></trkpt><trkpt lat="59.3606787454" lon="34.6945856698"><ele>165.96</ele><time>2026-08-15T13:09:17Z</time></trkpt><trkpt lat="59.3607518356" lon="34.6946761943"><ele>165.96</ele><time>2026-08-15T13:09:38Z</time></trkpt><trkpt lat="59.3607396819" lon="34.6946761105"><ele>165.96</ele><time>2026-08-15T13:10:05Z</time></trkpt><trkpt lat="59.3607072439" lon="34.6946808882"><ele>165.96</ele><time>2026-08-15T13:10:29Z</time></trkpt><trkpt lat="59.3606940843" lon="34.6946596820"><ele>165.96</ele><time>2026-08-15T13:11:03Z</time></trkpt><trkpt lat="59.3605347443" lon="34.6945919562"><ele>165.96</ele><time>2026-08-15T13:11:28Z</time></trkpt><trkpt lat="59.3606231734" lon="34.6945388988"><ele>165.96</ele><time>2026-08-15T13:11:44Z</time></trkpt><trkpt lat="59.3607370835" lon="34.6946060378"><ele>165.96</ele><time>2026-08-15T13:12:05Z</time></trkpt><trkpt lat="59.3606391829" lon="34.6946979873"><ele>165.96</ele><time>2026-08-15T13:12:29Z</time></trkpt><trkpt lat="59.3606354110" lon="34.6946605202"><ele>165.96</ele><time>2026-08-15T13:12:49Z</time></trkpt><trkpt lat="59.3606383447" lon="34.6946476121"><ele>165.96</ele><time>2026-08-15T13:13:15Z</time></trkpt><trkpt lat="59.3606664240" lon="34.6946688183"><ele>166.45</ele><time>2026-08-15T13:13:44Z</time></trkpt><trkpt lat="59.3606628198" lon="34.6946479473"><ele>166.45</ele><time>2026-08-15T13:14:17Z</time></trkpt><trkpt lat="59.3606783263" lon="34.6946152579"><ele>166.93</ele><time>2026-08-15T13:14:48Z</time></trkpt><trkpt lat="59.3607059028" lon="34.6947226301"><ele>166.93</ele><time>2026-08-15T13:15:08Z</time></trkpt><trkpt lat="59.3606701121" lon="34.6945938841"><ele>166.93</ele><time>2026-08-15T13:15:30Z</time></trkpt><trkpt lat="59.3607345689" lon="34.6946621127"><ele>166.93</ele><time>2026-08-15T13:15:57Z</time></trkpt><trkpt lat="59.3607397657" lon="34.6947108116"><ele>166.93</ele><time>2026-08-15T13:16:29Z</time></trkpt><trkpt lat="59.3605725467" lon="34.6947182715"><ele>166.93</ele><time>2026-08-15T13:16:54Z</time></trkpt><trkpt lat="59.3605489936" lon="34.6947023459"><ele>166.93</ele><time>2026-08-15T13:17:21Z</time></trkpt><trkpt lat="59.3606003746" lon="34.6946386434"><ele>166.93</ele><time>2026-08-15T13:17:49Z</time></trkpt><trkpt lat="59.3606156297" lon="34.6945917886"><ele>167.41</ele><time>2026-08-15T13:18:16Z</time></trkpt><trkpt lat="59.3606228381" lon="34.6945986617"><ele>167.89</ele><time>2026-08-15T13:18:49Z</time></trkpt><trkpt lat="59.3606325611" lon="34.6946199518"><ele>167.89</ele><time>2026-08-15T13:19:08Z</time></trkpt><trkpt lat="59.3606771529" lon="34.6946148388"><ele>167.89</ele><time>2026-08-15T13:19:32Z</time></trkpt><trkpt lat="59.3607481476" lon="34.6944843326"><ele>168.37</ele><time>2026-08-15T13:19:48Z</time></trkpt><trkpt lat="59.3607628159" lon="34.6943724342"><ele>168.37</ele><time>2026-08-15T13:20:07Z</time></trkpt><trkpt lat="59.3607712816" lon="34.6942053828"><ele>168.85</ele><time>2026-08-15T13:20:24Z</time></trkpt><trkpt lat="59.3607768137" lon="34.6940640640"><ele>168.85</ele><time>2026-08-15T13:20:44Z</time></trkpt><trkpt lat="59.3608095031" lon="34.6939040534"><ele>169.33</ele><time>2026-08-15T13:20:58Z</time></trkpt><trkpt lat="59.3608279433" lon="34.6938395966"><ele>169.33</ele><time>2026-08-15T13:21:09Z</time></trkpt><trkpt lat="59.3608326372" lon="34.6938049793"><ele>169.33</ele><time>2026-08-15T13:21:34Z</time></trkpt><trkpt lat="59.3608407676" lon="34.6937950887"><ele>169.33</ele><time>2026-08-15T13:22:02Z</time></trkpt><trkpt lat="59.3608406000" lon="34.6937916521"><ele>169.33</ele><time>2026-08-15T13:22:25Z</time></trkpt><trkpt lat="59.3608508259" lon="34.6936793346"><ele>169.33</ele><time>2026-08-15T13:22:44Z</time></trkpt><trkpt lat="59.3608599622" lon="34.6936365869"><ele>168.37</ele><time>2026-08-15T13:23:04Z</time></trkpt><trkpt lat="59.3608634826" lon="34.6936455555"><ele>169.33</ele><time>2026-08-15T13:23:27Z</time></trkpt><trkpt lat="59.3608644046" lon="34.6936360002"><ele>169.33</ele><time>2026-08-15T13:23:50Z</time></trkpt><trkpt lat="59.3608612195" lon="34.6936396882"><ele>169.33</ele><time>2026-08-15T13:24:17Z</time></trkpt><trkpt lat="59.3608535081" lon="34.6936457232"><ele>168.85</ele><time>2026-08-15T13:24:41Z</time></trkpt><trkpt lat="59.3607766461" lon="34.6935739741"><ele>168.85</ele><time>2026-08-15T13:24:53Z</time></trkpt><trkpt lat="59.3607228342" lon="34.6935397759"><ele>168.37</ele><time>2026-08-15T13:25:07Z</time></trkpt><trkpt lat="59.3606837746" lon="34.6934697870"><ele>168.37</ele><time>2026-08-15T13:25:23Z</time></trkpt><trkpt lat="59.3606052361" lon="34.6933963615"><ele>168.37</ele><time>2026-08-15T13:25:37Z</time></trkpt><trkpt lat="59.3605715409" lon="34.6933687851"><ele>167.89</ele><time>2026-08-15T13:25:58Z</time></trkpt><trkpt lat="59.3604607321" lon="34.6932331659"><ele>166.45</ele><time>2026-08-15T13:26:13Z</time></trkpt><trkpt lat="59.3604210857" lon="34.6931652725"><ele>166.45</ele><time>2026-08-15T13:26:28Z</time></trkpt><trkpt lat="59.3604184873" lon="34.6931599081"><ele>166.45</ele><time>2026-08-15T13:26:45Z</time></trkpt><trkpt lat="59.3603791762" lon="34.6931155678"><ele>166.45</ele><time>2026-08-15T13:27:03Z</time></trkpt><trkpt lat="59.3603200838" lon="34.6930732392"><ele>166.45</ele><time>2026-08-15T13:27:12Z</time></trkpt><trkpt lat="59.3602262065" lon="34.6929917671"><ele>165.96</ele><time>2026-08-15T13:27:25Z</time></trkpt><trkpt lat="59.3601392023" lon="34.6929369494"><ele>165.96</ele><time>2026-08-15T13:27:38Z</time></trkpt><trkpt lat="59.3600791879" lon="34.6928814612"><ele>165.96</ele><time>2026-08-15T13:27:51Z</time></trkpt><trkpt lat="59.3600535393" lon="34.6928815451"><ele>166.93</ele><time>2026-08-15T13:28:08Z</time></trkpt><trkpt lat="59.3599683791" lon="34.6928285714"><ele>166.93</ele><time>2026-08-15T13:28:25Z</time></trkpt><trkpt lat="59.3599051796" lon="34.6927936189"><ele>166.93</ele><time>2026-08-15T13:28:40Z</time></trkpt><trkpt lat="59.3598205224" lon="34.6927652042"><ele>166.93</ele><time>2026-08-15T13:28:54Z</time></trkpt><trkpt lat="59.3597182631" lon="34.6927356161"><ele>166.93</ele><time>2026-08-15T13:29:08Z</time></trkpt><trkpt lat="59.3596092984" lon="34.6927115601"><ele>166.93</ele><time>2026-08-15T13:29:22Z</time></trkpt><trkpt lat="59.3595367949" lon="34.6926568262"><ele>166.93</ele><time>2026-08-15T13:29:35Z</time></trkpt><trkpt lat="59.3595348671" lon="34.6926450916"><ele>165.00</ele><time>2026-08-15T13:29:50Z</time></trkpt><trkpt lat="59.3595340289" lon="34.6926448401"><ele>166.45</ele><time>2026-08-15T13:29:53Z</time></trkpt><trkpt lat="59.3595266528" lon="34.6926434990"><ele>165.48</ele><time>2026-08-15T13:30:11Z</time></trkpt><trkpt lat="59.3595099729" lon="34.6926336084"><ele>165.48</ele><time>2026-08-15T13:30:31Z</time></trkpt><trkpt lat="59.3595093023" lon="34.6926261485"><ele>165.48</ele><time>2026-08-15T13:30:56Z</time></trkpt><trkpt lat="59.3595092185" lon="34.6926254779"><ele>166.45</ele><time>2026-08-15T13:30:57Z</time></trkpt><trkpt lat="59.3595059495" lon="34.6926304232"><ele>165.48</ele><time>2026-08-15T13:31:20Z</time></trkpt><trkpt lat="59.3595024291" lon="34.6926340275"><ele>165.48</ele><time>2026-08-15T13:31:47Z</time></trkpt><trkpt lat="59.3594775349" lon="34.6926207002"><ele>165.48</ele><time>2026-08-15T13:32:08Z</time></trkpt><trkpt lat="59.3593026046" lon="34.6925611049"><ele>166.93</ele><time>2026-08-15T13:32:27Z</time></trkpt><trkpt lat="59.3592596892" lon="34.6925120708"><ele>166.93</ele><time>2026-08-15T13:32:40Z</time></trkpt><trkpt lat="59.3591770437" lon="34.6923808102"><ele>166.93</ele><time>2026-08-15T13:32:53Z</time></trkpt><trkpt lat="59.3591248244" lon="34.6923868451"><ele>166.93</ele><time>2026-08-15T13:33:09Z</time></trkpt><trkpt lat="59.3591076415" lon="34.6924373880"><ele>165.48</ele><time>2026-08-15T13:33:14Z</time></trkpt><trkpt lat="59.3590977509" lon="34.6924515534"><ele>166.45</ele><time>2026-08-15T13:33:30Z</time></trkpt><trkpt lat="59.3590610381" lon="34.6924502123"><ele>166.45</ele><time>2026-08-15T13:33:45Z</time></trkpt><trkpt lat="59.3589910492" lon="34.6923865937"><ele>166.93</ele><time>2026-08-15T13:33:59Z</time></trkpt><trkpt lat="59.3589010276" lon="34.6923673991"><ele>165.96</ele><time>2026-08-15T13:34:10Z</time></trkpt><trkpt lat="59.3588364031" lon="34.6923381463"><ele>165.96</ele><time>2026-08-15T13:34:23Z</time></trkpt><trkpt lat="59.3588210642" lon="34.6923422534"><ele>165.96</ele><time>2026-08-15T13:34:37Z</time></trkpt><trkpt lat="59.3588231597" lon="34.6923389006"><ele>167.41</ele><time>2026-08-15T13:35:05Z</time></trkpt><trkpt lat="59.3588248361" lon="34.6923134197"><ele>165.96</ele><time>2026-08-15T13:35:19Z</time></trkpt><trkpt lat="59.3588549271" lon="34.6921072248"><ele>165.96</ele><time>2026-08-15T13:35:32Z</time></trkpt><trkpt lat="59.3588906340" lon="34.6919216495"><ele>165.96</ele><time>2026-08-15T13:35:45Z</time></trkpt><trkpt lat="59.3588726968" lon="34.6917921491"><ele>165.96</ele><time>2026-08-15T13:36:05Z</time></trkpt><trkpt lat="59.3589037936" lon="34.6916431189"><ele>165.00</ele><time>2026-08-15T13:36:21Z</time></trkpt><trkpt lat="59.3589026202" lon="34.6915594675"><ele>165.96</ele><time>2026-08-15T13:36:26Z</time></trkpt><trkpt lat="59.3589022849" lon="34.6915223356"><ele>165.96</ele><time>2026-08-15T13:36:43Z</time></trkpt><trkpt lat="59.3589037936" lon="34.6915207431"><ele>165.96</ele><time>2026-08-15T13:37:03Z</time></trkpt><trkpt lat="59.3589067273" lon="34.6915152110"><ele>165.96</ele><time>2026-08-15T13:37:31Z</time></trkpt><trkpt lat="59.3589094933" lon="34.6915194858"><ele>165.96</ele><time>2026-08-15T13:37:57Z</time></trkpt><trkpt lat="59.3589177076" lon="34.6915169712"><ele>165.96</ele><time>2026-08-15T13:38:26Z</time></trkpt><trkpt lat="59.3589210603" lon="34.6915069968"><ele>166.45</ele><time>2026-08-15T13:38:51Z</time></trkpt><trkpt lat="59.3589298613" lon="34.6915063262"><ele>166.45</ele><time>2026-08-15T13:39:17Z</time></trkpt><trkpt lat="59.3589583598" lon="34.6915440448"><ele>166.45</ele><time>2026-08-15T13:39:42Z</time></trkpt><trkpt lat="59.3590461183" lon="34.6916442085"><ele>166.45</ele><time>2026-08-15T13:39:57Z</time></trkpt><trkpt lat="59.3591076415" lon="34.6916976850"><ele>166.45</ele><time>2026-08-15T13:40:10Z</time></trkpt><trkpt lat="59.3591950648" lon="34.6917794086"><ele>165.48</ele><time>2026-08-15T13:40:22Z</time></trkpt><trkpt lat="59.3592209648" lon="34.6918192226"><ele>165.48</ele><time>2026-08-15T13:40:36Z</time></trkpt><trkpt lat="59.3592440151" lon="34.6918335557"><ele>165.48</ele><time>2026-08-15T13:40:47Z</time></trkpt><trkpt lat="59.3592838291" lon="34.6918345615"><ele>165.48</ele><time>2026-08-15T13:41:04Z</time></trkpt><trkpt lat="59.3593078852" lon="34.6918885410"><ele>165.48</ele><time>2026-08-15T13:41:31Z</time></trkpt><trkpt lat="59.3593549915" lon="34.6919187997"><ele>165.48</ele><time>2026-08-15T13:41:52Z</time></trkpt><trkpt lat="59.3594708294" lon="34.6919337194"><ele>165.48</ele><time>2026-08-15T13:42:07Z</time></trkpt><trkpt lat="59.3595262337" lon="34.6919524111"><ele>165.48</ele><time>2026-08-15T13:42:20Z</time></trkpt><trkpt lat="59.3595754355" lon="34.6919839270"><ele>165.48</ele><time>2026-08-15T13:42:35Z</time></trkpt><trkpt lat="59.3595918640" lon="34.6919920575"><ele>165.48</ele><time>2026-08-15T13:42:52Z</time></trkpt><trkpt lat="59.3596362881" lon="34.6920405049"><ele>165.48</ele><time>2026-08-15T13:43:06Z</time></trkpt><trkpt lat="59.3597336859" lon="34.6919747069"><ele>166.45</ele><time>2026-08-15T13:43:22Z</time></trkpt><trkpt lat="59.3598123919" lon="34.6920217294"><ele>166.45</ele><time>2026-08-15T13:43:37Z</time></trkpt><trkpt lat="59.3598501943" lon="34.6920539998"><ele>166.45</ele><time>2026-08-15T13:43:53Z</time></trkpt><trkpt lat="59.3599742465" lon="34.6922428440"><ele>166.45</ele><time>2026-08-15T13:44:06Z</time></trkpt><trkpt lat="59.3600027449" lon="34.6922529861"><ele>166.45</ele><time>2026-08-15T13:44:27Z</time></trkpt><trkpt lat="59.3600341771" lon="34.6922951471"><ele>166.45</ele><time>2026-08-15T13:44:44Z</time></trkpt><trkpt lat="59.3600803614" lon="34.6923414990"><ele>166.45</ele><time>2026-08-15T13:45:00Z</time></trkpt><trkpt lat="59.3600977119" lon="34.6923738532"><ele>166.45</ele><time>2026-08-15T13:45:15Z</time></trkpt><trkpt lat="59.3601772562" lon="34.6924446803"><ele>166.45</ele><time>2026-08-15T13:45:32Z</time></trkpt><trkpt lat="59.3602754921" lon="34.6924958099"><ele>166.45</ele><time>2026-08-15T13:45:45Z</time></trkpt><trkpt lat="59.3604123686" lon="34.6925802156"><ele>166.45</ele><time>2026-08-15T13:45:59Z</time></trkpt><trkpt lat="59.3604418729" lon="34.6926114801"><ele>166.45</ele><time>2026-08-15T13:46:11Z</time></trkpt><trkpt lat="59.3604723830" lon="34.6926450916"><ele>166.45</ele><time>2026-08-15T13:46:26Z</time></trkpt><trkpt lat="59.3605223391" lon="34.6926971432"><ele>166.45</ele><time>2026-08-15T13:46:39Z</time></trkpt><trkpt lat="59.3605403602" lon="34.6927086264"><ele>166.45</ele><time>2026-08-15T13:47:01Z</time></trkpt><trkpt lat="59.3605494965" lon="34.6927177627"><ele>166.45</ele><time>2026-08-15T13:47:25Z</time></trkpt><trkpt lat="59.3605829403" lon="34.6927525476"><ele>166.45</ele><time>2026-08-15T13:47:52Z</time></trkpt><trkpt lat="59.3605811801" lon="34.6927624382"><ele>165.48</ele><time>2026-08-15T13:48:25Z</time></trkpt><trkpt lat="59.3605847843" lon="34.6927584149"><ele>165.48</ele><time>2026-08-15T13:48:52Z</time></trkpt><trkpt lat="59.3606358301" lon="34.6928352769"><ele>165.48</ele><time>2026-08-15T13:49:05Z</time></trkpt><trkpt lat="59.3607412744" lon="34.6928985603"><ele>165.48</ele><time>2026-08-15T13:49:19Z</time></trkpt><trkpt lat="59.3607908115" lon="34.6928867418"><ele>165.48</ele><time>2026-08-15T13:49:29Z</time></trkpt><trkpt lat="59.3608173821" lon="34.6928716544"><ele>166.45</ele><time>2026-08-15T13:49:46Z</time></trkpt><trkpt lat="59.3608559389" lon="34.6928758454"><ele>166.45</ele><time>2026-08-15T13:50:03Z</time></trkpt><trkpt lat="59.3609655742" lon="34.6928297449"><ele>166.45</ele><time>2026-08-15T13:50:18Z</time></trkpt><trkpt lat="59.3610071484" lon="34.6928379592"><ele>166.45</ele><time>2026-08-15T13:50:35Z</time></trkpt><trkpt lat="59.3610171229" lon="34.6928343549"><ele>166.45</ele><time>2026-08-15T13:50:57Z</time></trkpt><trkpt lat="59.3610212300" lon="34.6928323433"><ele>165.48</ele><time>2026-08-15T13:51:24Z</time></trkpt><trkpt lat="59.3610288575" lon="34.6928081196"><ele>165.48</ele><time>2026-08-15T13:51:43Z</time></trkpt><trkpt lat="59.3610426039" lon="34.6926535573"><ele>165.48</ele><time>2026-08-15T13:51:56Z</time></trkpt><trkpt lat="59.3610706832" lon="34.6925958898"><ele>164.52</ele><time>2026-08-15T13:52:09Z</time></trkpt><trkpt lat="59.3610796519" lon="34.6925740968"><ele>165.96</ele><time>2026-08-15T13:52:12Z</time></trkpt><trkpt lat="59.3611164484" lon="34.6924431715"><ele>165.96</ele><time>2026-08-15T13:52:28Z</time></trkpt><trkpt lat="59.3611712661" lon="34.6923448518"><ele>165.96</ele><time>2026-08-15T13:52:44Z</time></trkpt><trkpt lat="59.3612017762" lon="34.6923122462"><ele>165.96</ele><time>2026-08-15T13:52:57Z</time></trkpt><trkpt lat="59.3612369802" lon="34.6923222207"><ele>165.96</ele><time>2026-08-15T13:53:11Z</time></trkpt><trkpt lat="59.3612793088" lon="34.6922919620"><ele>165.00</ele><time>2026-08-15T13:53:24Z</time></trkpt><trkpt lat="59.3612883613" lon="34.6923104860"><ele>165.96</ele><time>2026-08-15T13:53:41Z</time></trkpt><trkpt lat="59.3613417540" lon="34.6922787186"><ele>165.96</ele><time>2026-08-15T13:53:55Z</time></trkpt><trkpt lat="59.3613762874" lon="34.6922770422"><ele>165.96</ele><time>2026-08-15T13:54:09Z</time></trkpt><trkpt lat="59.3613175303" lon="34.6923068818"><ele>165.96</ele><time>2026-08-15T13:54:24Z</time></trkpt><trkpt lat="59.3612321187" lon="34.6923357993"><ele>165.96</ele><time>2026-08-15T13:54:36Z</time></trkpt><trkpt lat="59.3612064701" lon="34.6923746075"><ele>165.96</ele><time>2026-08-15T13:54:47Z</time></trkpt><trkpt lat="59.3611693382" lon="34.6923768707"><ele>165.96</ele><time>2026-08-15T13:55:03Z</time></trkpt><trkpt lat="59.3611666560" lon="34.6923665609"><ele>165.96</ele><time>2026-08-15T13:55:17Z</time></trkpt><trkpt lat="59.3611606210" lon="34.6923482046"><ele>166.45</ele><time>2026-08-15T13:55:43Z</time></trkpt><trkpt lat="59.3611653149" lon="34.6923408285"><ele>166.45</ele><time>2026-08-15T13:56:07Z</time></trkpt><trkpt lat="59.3611560110" lon="34.6923824027"><ele>175.10</ele><time>2026-08-15T13:57:37Z</time></trkpt><trkpt lat="59.3611527421" lon="34.6923946403"><ele>173.17</ele><time>2026-08-15T13:57:38Z</time></trkpt><trkpt lat="59.3611571006" lon="34.6923814807"><ele>192.40</ele><time>2026-08-15T13:57:39Z</time></trkpt><trkpt lat="59.3611835875" lon="34.6923373919"><ele>192.40</ele><time>2026-08-15T13:57:40Z</time></trkpt><trkpt lat="59.3611681648" lon="34.6924513020"><ele>189.04</ele><time>2026-08-15T13:57:56Z</time></trkpt><trkpt lat="59.3611653149" lon="34.6924399864"><ele>185.67</ele><time>2026-08-15T13:57:59Z</time></trkpt><trkpt lat="59.3611628842" lon="34.6924308501"><ele>182.79</ele><time>2026-08-15T13:58:03Z</time></trkpt><trkpt lat="59.3611659016" lon="34.6924233902"><ele>179.42</ele><time>2026-08-15T13:58:07Z</time></trkpt><trkpt lat="59.3611606210" lon="34.6924339514"><ele>175.58</ele><time>2026-08-15T13:58:12Z</time></trkpt><trkpt lat="59.3611548375" lon="34.6924342867"><ele>173.66</ele><time>2026-08-15T13:58:17Z</time></trkpt><trkpt lat="59.3611730263" lon="34.6924072132"><ele>169.81</ele><time>2026-08-15T13:58:24Z</time></trkpt><trkpt lat="59.3611775525" lon="34.6924052015"><ele>169.81</ele><time>2026-08-15T13:58:26Z</time></trkpt><trkpt lat="59.3611774687" lon="34.6923306864"><ele>167.41</ele><time>2026-08-15T13:58:45Z</time></trkpt><trkpt lat="59.3611925561" lon="34.6923357993"><ele>166.45</ele><time>2026-08-15T13:59:10Z</time></trkpt><trkpt lat="59.3612124212" lon="34.6923028585"><ele>165.96</ele><time>2026-08-15T13:59:30Z</time></trkpt><trkpt lat="59.3612196296" lon="34.6922998410"><ele>166.93</ele><time>2026-08-15T13:59:42Z</time></trkpt><trkpt lat="59.3612169474" lon="34.6922925487"><ele>166.93</ele><time>2026-08-15T13:59:58Z</time></trkpt><trkpt lat="59.3612263352" lon="34.6923616994"><ele>166.93</ele><time>2026-08-15T14:00:01Z</time></trkpt><trkpt lat="59.3612270895" lon="34.6923865099"><ele>166.93</ele><time>2026-08-15T14:00:14Z</time></trkpt><trkpt lat="59.3611918855" lon="34.6922410000"><ele>166.93</ele><time>2026-08-15T14:00:33Z</time></trkpt><trkpt lat="59.3611804862" lon="34.6921657305"><ele>166.93</ele><time>2026-08-15T14:00:49Z</time></trkpt><trkpt lat="59.3611477129" lon="34.6920235734"><ele>166.93</ele><time>2026-08-15T14:01:01Z</time></trkpt><trkpt lat="59.3611209746" lon="34.6919549257"><ele>166.93</ele><time>2026-08-15T14:01:34Z</time></trkpt><trkpt lat="59.3611201365" lon="34.6919330489"><ele>167.89</ele><time>2026-08-15T14:02:00Z</time></trkpt><trkpt lat="59.3611198012" lon="34.6919322945"><ele>166.45</ele><time>2026-08-15T14:02:04Z</time></trkpt><trkpt lat="59.3611191306" lon="34.6919276845"><ele>166.45</ele><time>2026-08-15T14:02:30Z</time></trkpt><trkpt lat="59.3611185439" lon="34.6919288579"><ele>166.45</ele><time>2026-08-15T14:03:01Z</time></trkpt><trkpt lat="59.3611203041" lon="34.6919339709"><ele>166.45</ele><time>2026-08-15T14:03:33Z</time></trkpt><trkpt lat="59.3611134309" lon="34.6919353120"><ele>166.45</ele><time>2026-08-15T14:03:59Z</time></trkpt><trkpt lat="59.3611160293" lon="34.6919327136"><ele>166.45</ele><time>2026-08-15T14:04:25Z</time></trkpt><trkpt lat="59.3611112516" lon="34.6919293609"><ele>166.45</ele><time>2026-08-15T14:04:59Z</time></trkpt><trkpt lat="59.3611089885" lon="34.6919212304"><ele>167.41</ele><time>2026-08-15T14:05:29Z</time></trkpt><trkpt lat="59.3611095753" lon="34.6918925643"><ele>167.41</ele><time>2026-08-15T14:05:53Z</time></trkpt><trkpt lat="59.3611041270" lon="34.6918900497"><ele>167.41</ele><time>2026-08-15T14:06:10Z</time></trkpt><trkpt lat="59.3610998522" lon="34.6918892954"><ele>167.41</ele><time>2026-08-15T14:06:20Z</time></trkpt><trkpt lat="59.3609994370" lon="34.6918597911"><ele>167.41</ele><time>2026-08-15T14:06:38Z</time></trkpt><trkpt lat="59.3608356547" lon="34.6918019559"><ele>167.41</ele><time>2026-08-15T14:06:53Z</time></trkpt><trkpt lat="59.3607712816" lon="34.6918040514"><ele>166.45</ele><time>2026-08-15T14:06:59Z</time></trkpt><trkpt lat="59.3607126083" lon="34.6917948313"><ele>166.45</ele><time>2026-08-15T14:07:19Z</time></trkpt><trkpt lat="59.3607028853" lon="34.6917892992"><ele>166.45</ele><time>2026-08-15T14:07:21Z</time></trkpt><trkpt lat="59.3605790846" lon="34.6917148679"><ele>166.45</ele><time>2026-08-15T14:07:36Z</time></trkpt><trkpt lat="59.3604903203" lon="34.6916605532"><ele>166.45</ele><time>2026-08-15T14:07:49Z</time></trkpt><trkpt lat="59.3603665195" lon="34.6915858705"><ele>166.45</ele><time>2026-08-15T14:08:03Z</time></trkpt><trkpt lat="59.3603336625" lon="34.6915685199"><ele>166.45</ele><time>2026-08-15T14:08:13Z</time></trkpt><trkpt lat="59.3603139650" lon="34.6915664244"><ele>166.45</ele><time>2026-08-15T14:08:24Z</time></trkpt><trkpt lat="59.3602670263" lon="34.6915106848"><ele>165.96</ele><time>2026-08-15T14:08:33Z</time></trkpt><trkpt lat="59.3601547927" lon="34.6914717928"><ele>165.96</ele><time>2026-08-15T14:08:45Z</time></trkpt><trkpt lat="59.3600281421" lon="34.6913745627"><ele>165.96</ele><time>2026-08-15T14:08:59Z</time></trkpt><trkpt lat="59.3599895015" lon="34.6913189068"><ele>165.96</ele><time>2026-08-15T14:09:11Z</time></trkpt><trkpt lat="59.3599595781" lon="34.6912958566"><ele>165.96</ele><time>2026-08-15T14:09:27Z</time></trkpt><trkpt lat="59.3599527888" lon="34.6913042385"><ele>165.96</ele><time>2026-08-15T14:09:56Z</time></trkpt><trkpt lat="59.3599433172" lon="34.6913043223"><ele>165.96</ele><time>2026-08-15T14:10:22Z</time></trkpt><trkpt lat="59.3599394616" lon="34.6912982874"><ele>165.96</ele><time>2026-08-15T14:10:49Z</time></trkpt><trkpt lat="59.3599378690" lon="34.6912974492"><ele>165.96</ele><time>2026-08-15T14:11:23Z</time></trkpt><trkpt lat="59.3599330075" lon="34.6912994608"><ele>165.96</ele><time>2026-08-15T14:11:48Z</time></trkpt><trkpt lat="59.3598830514" lon="34.6912953537"><ele>165.96</ele><time>2026-08-15T14:12:03Z</time></trkpt><trkpt lat="59.3598651979" lon="34.6912811045"><ele>167.41</ele><time>2026-08-15T14:12:07Z</time></trkpt><trkpt lat="59.3597445823" lon="34.6912490856"><ele>167.41</ele><time>2026-08-15T14:12:23Z</time></trkpt><trkpt lat="59.3596824724" lon="34.6911973692"><ele>167.41</ele><time>2026-08-15T14:12:36Z</time></trkpt><trkpt lat="59.3596487772" lon="34.6911793482"><ele>167.41</ele><time>2026-08-15T14:12:59Z</time></trkpt><trkpt lat="59.3596021738" lon="34.6911683679"><ele>165.96</ele><time>2026-08-15T14:13:11Z</time></trkpt><trkpt lat="59.3595235515" lon="34.6911504306"><ele>165.96</ele><time>2026-08-15T14:13:22Z</time></trkpt><trkpt lat="59.3593603559" lon="34.6911057550"><ele>165.96</ele><time>2026-08-15T14:13:37Z</time></trkpt><trkpt lat="59.3592753634" lon="34.6910343412"><ele>165.96</ele><time>2026-08-15T14:13:51Z</time></trkpt><trkpt lat="59.3592385668" lon="34.6910045855"><ele>165.96</ele><time>2026-08-15T14:14:09Z</time></trkpt><trkpt lat="59.3592338730" lon="34.6910043340"><ele>165.96</ele><time>2026-08-15T14:14:25Z</time></trkpt><trkpt lat="59.3591846712" lon="34.6909744106"><ele>165.96</ele><time>2026-08-15T14:14:37Z</time></trkpt><trkpt lat="59.3591621239" lon="34.6909665316"><ele>166.93</ele><time>2026-08-15T14:14:48Z</time></trkpt><trkpt lat="59.3590708449" lon="34.6908870712"><ele>166.93</ele><time>2026-08-15T14:15:01Z</time></trkpt><trkpt lat="59.3590138480" lon="34.6908309124"><ele>167.41</ele><time>2026-08-15T14:15:17Z</time></trkpt><trkpt lat="59.3589729443" lon="34.6907781903"><ele>165.96</ele><time>2026-08-15T14:15:25Z</time></trkpt><trkpt lat="59.3589477148" lon="34.6907512844"><ele>165.96</ele><time>2026-08-15T14:15:40Z</time></trkpt><trkpt lat="59.3589365669" lon="34.6907616779"><ele>165.96</ele><time>2026-08-15T14:16:00Z</time></trkpt><trkpt lat="59.3589264248" lon="34.6907496080"><ele>165.96</ele><time>2026-08-15T14:16:21Z</time></trkpt><trkpt lat="59.3589161150" lon="34.6907496918"><ele>165.96</ele><time>2026-08-15T14:16:51Z</time></trkpt><trkpt lat="59.3589121755" lon="34.6907542180"><ele>165.96</ele><time>2026-08-15T14:17:08Z</time></trkpt><trkpt lat="59.3589083198" lon="34.6907592472"><ele>165.96</ele><time>2026-08-15T14:17:29Z</time></trkpt><trkpt lat="59.3589052185" lon="34.6907561459"><ele>165.96</ele><time>2026-08-15T14:17:45Z</time></trkpt><trkpt lat="59.3589046318" lon="34.6907576546"><ele>165.96</ele><time>2026-08-15T14:18:04Z</time></trkpt><trkpt lat="59.3588778097" lon="34.6907146554"><ele>165.96</ele><time>2026-08-15T14:18:20Z</time></trkpt><trkpt lat="59.3588461261" lon="34.6907190979"><ele>165.96</ele><time>2026-08-15T14:18:34Z</time></trkpt><trkpt lat="59.3588120118" lon="34.6907051001"><ele>167.41</ele><time>2026-08-15T14:18:50Z</time></trkpt><trkpt lat="59.3586732075" lon="34.6907470934"><ele>167.89</ele><time>2026-08-15T14:19:05Z</time></trkpt><trkpt lat="59.3586217426" lon="34.6907618456"><ele>167.89</ele><time>2026-08-15T14:19:23Z</time></trkpt><trkpt lat="59.3585279491" lon="34.6908569802"><ele>166.45</ele><time>2026-08-15T14:19:38Z</time></trkpt><trkpt lat="59.3584885541" lon="34.6908612549"><ele>166.45</ele><time>2026-08-15T14:19:59Z</time></trkpt><trkpt lat="59.3582916632" lon="34.6910241153"><ele>166.45</ele><time>2026-08-15T14:20:18Z</time></trkpt><trkpt lat="59.3582222611" lon="34.6910121292"><ele>166.45</ele><time>2026-08-15T14:20:30Z</time></trkpt><trkpt lat="59.3581312336" lon="34.6908750851"><ele>165.96</ele><time>2026-08-15T14:20:46Z</time></trkpt><trkpt lat="59.3580963649" lon="34.6907604206"><ele>165.96</ele><time>2026-08-15T14:20:58Z</time></trkpt><trkpt lat="59.3581106141" lon="34.6905569080"><ele>165.96</ele><time>2026-08-15T14:21:16Z</time></trkpt><trkpt lat="59.3581111170" lon="34.6905317623"><ele>165.96</ele><time>2026-08-15T14:21:18Z</time></trkpt><trkpt lat="59.3581555411" lon="34.6904616896"><ele>166.93</ele><time>2026-08-15T14:21:30Z</time></trkpt><trkpt lat="59.3581422977" lon="34.6903862525"><ele>165.96</ele><time>2026-08-15T14:21:50Z</time></trkpt><trkpt lat="59.3581071775" lon="34.6901955642"><ele>165.00</ele><time>2026-08-15T14:22:07Z</time></trkpt><trkpt lat="59.3581312336" lon="34.6899578534"><ele>166.45</ele><time>2026-08-15T14:22:18Z</time></trkpt><trkpt lat="59.3581741489" lon="34.6898374055"><ele>166.93</ele><time>2026-08-15T14:22:36Z</time></trkpt><trkpt lat="59.3581708800" lon="34.6898147743"><ele>166.93</ele><time>2026-08-15T14:22:56Z</time></trkpt><trkpt lat="59.3581671081" lon="34.6897739545"><ele>166.93</ele><time>2026-08-15T14:23:25Z</time></trkpt><trkpt lat="59.3581583910" lon="34.6897081565"><ele>166.93</ele><time>2026-08-15T14:23:42Z</time></trkpt><trkpt lat="59.3581440579" lon="34.6896854416"><ele>167.41</ele><time>2026-08-15T14:24:05Z</time></trkpt><trkpt lat="59.3581027351" lon="34.6896536741"><ele>167.41</ele><time>2026-08-15T14:24:33Z</time></trkpt><trkpt lat="59.3581044953" lon="34.6896509081"><ele>167.41</ele><time>2026-08-15T14:24:59Z</time></trkpt><trkpt lat="59.3581048306" lon="34.6896483097"><ele>165.96</ele><time>2026-08-15T14:25:06Z</time></trkpt><trkpt lat="59.3581065070" lon="34.6896455437"><ele>165.96</ele><time>2026-08-15T14:25:22Z</time></trkpt><trkpt lat="59.3581088539" lon="34.6896436159"><ele>167.41</ele><time>2026-08-15T14:25:25Z</time></trkpt><trkpt lat="59.3581315689" lon="34.6896224935"><ele>167.89</ele><time>2026-08-15T14:25:44Z</time></trkpt><trkpt lat="59.3581944332" lon="34.6895435359"><ele>168.85</ele><time>2026-08-15T14:26:04Z</time></trkpt><trkpt lat="59.3582022283" lon="34.6895317174"><ele>168.85</ele><time>2026-08-15T14:26:33Z</time></trkpt><trkpt lat="59.3582091015" lon="34.6895373333"><ele>167.41</ele><time>2026-08-15T14:26:44Z</time></trkpt><trkpt lat="59.3582739774" lon="34.6895582881"><ele>167.41</ele><time>2026-08-15T14:27:09Z</time></trkpt><trkpt lat="59.3584170565" lon="34.6895648260"><ele>167.41</ele><time>2026-08-15T14:27:24Z</time></trkpt><trkpt lat="59.3585178070" lon="34.6895163786"><ele>166.93</ele><time>2026-08-15T14:27:42Z</time></trkpt><trkpt lat="59.3585529272" lon="34.6895085834"><ele>166.93</ele><time>2026-08-15T14:27:59Z</time></trkpt><trkpt lat="59.3585998658" lon="34.6894899756"><ele>166.93</ele><time>2026-08-15T14:28:16Z</time></trkpt><trkpt lat="59.3586165458" lon="34.6894862875"><ele>166.93</ele><time>2026-08-15T14:28:35Z</time></trkpt><trkpt lat="59.3586369976" lon="34.6894785762"><ele>166.45</ele><time>2026-08-15T14:28:59Z</time></trkpt><trkpt lat="59.3586917315" lon="34.6894758940"><ele>165.96</ele><time>2026-08-15T14:29:20Z</time></trkpt><trkpt lat="59.3588296138" lon="34.6896110103"><ele>165.48</ele><time>2026-08-15T14:29:34Z</time></trkpt><trkpt lat="59.3588728644" lon="34.6896385867"><ele>165.48</ele><time>2026-08-15T14:29:58Z</time></trkpt><trkpt lat="59.3589807395" lon="34.6897820849"><ele>165.48</ele><time>2026-08-15T14:30:15Z</time></trkpt><trkpt lat="59.3590291031" lon="34.6898259223"><ele>165.48</ele><time>2026-08-15T14:30:32Z</time></trkpt><trkpt lat="59.3591360562" lon="34.6899338812"><ele>165.48</ele><time>2026-08-15T14:30:53Z</time></trkpt><trkpt lat="59.3591874372" lon="34.6900121681"><ele>165.48</ele><time>2026-08-15T14:31:09Z</time></trkpt><trkpt lat="59.3592057098" lon="34.6900420077"><ele>166.45</ele><time>2026-08-15T14:31:36Z</time></trkpt><trkpt lat="59.3592301849" lon="34.6900580171"><ele>166.45</ele><time>2026-08-15T14:32:06Z</time></trkpt><trkpt lat="59.3592441827" lon="34.6900601964"><ele>166.45</ele><time>2026-08-15T14:32:28Z</time></trkpt><trkpt lat="59.3592521455" lon="34.6900710929"><ele>166.45</ele><time>2026-08-15T14:32:54Z</time></trkpt><trkpt lat="59.3592708372" lon="34.6900832467"><ele>166.45</ele><time>2026-08-15T14:33:24Z</time></trkpt><trkpt lat="59.3592794705" lon="34.6900809836"><ele>166.45</ele><time>2026-08-15T14:33:50Z</time></trkpt><trkpt lat="59.3592788838" lon="34.6900870185"><ele>166.45</ele><time>2026-08-15T14:34:13Z</time></trkpt><trkpt lat="59.3592913728" lon="34.6901203785"><ele>166.45</ele><time>2026-08-15T14:34:29Z</time></trkpt><trkpt lat="59.3593205418" lon="34.6901697479"><ele>166.45</ele><time>2026-08-15T14:34:42Z</time></trkpt><trkpt lat="59.3593695760" lon="34.6902603563"><ele>166.45</ele><time>2026-08-15T14:34:58Z</time></trkpt><trkpt lat="59.3594137486" lon="34.6903455164"><ele>166.45</ele><time>2026-08-15T14:35:15Z</time></trkpt><trkpt lat="59.3594143353" lon="34.6903459355"><ele>165.48</ele><time>2026-08-15T14:35:16Z</time></trkpt><trkpt lat="59.3594261538" lon="34.6903974004"><ele>165.48</ele><time>2026-08-15T14:35:40Z</time></trkpt><trkpt lat="59.3594552390" lon="34.6904377174"><ele>166.45</ele><time>2026-08-15T14:35:59Z</time></trkpt><trkpt lat="59.3594848271" lon="34.6904667187"><ele>166.45</ele><time>2026-08-15T14:36:21Z</time></trkpt><trkpt lat="59.3595427461" lon="34.6905089635"><ele>166.45</ele><time>2026-08-15T14:36:38Z</time></trkpt><trkpt lat="59.3596109748" lon="34.6906170901"><ele>166.45</ele><time>2026-08-15T14:36:51Z</time></trkpt><trkpt lat="59.3596571591" lon="34.6906393021"><ele>167.41</ele><time>2026-08-15T14:37:04Z</time></trkpt><trkpt lat="59.3597435765" lon="34.6906351950"><ele>167.89</ele><time>2026-08-15T14:37:28Z</time></trkpt><trkpt lat="59.3598439079" lon="34.6906163357"><ele>167.89</ele><time>2026-08-15T14:37:44Z</time></trkpt><trkpt lat="59.3598714005" lon="34.6906093787"><ele>167.89</ele><time>2026-08-15T14:38:07Z</time></trkpt><trkpt lat="59.3599567283" lon="34.6905846521"><ele>167.89</ele><time>2026-08-15T14:38:22Z</time></trkpt><trkpt lat="59.3600302376" lon="34.6905922797"><ele>166.45</ele><time>2026-08-15T14:38:36Z</time></trkpt><trkpt lat="59.3601252045" lon="34.6905159205"><ele>166.45</ele><time>2026-08-15T14:38:51Z</time></trkpt><trkpt lat="59.3601715565" lon="34.6905610152"><ele>165.96</ele><time>2026-08-15T14:39:06Z</time></trkpt><trkpt lat="59.3601950258" lon="34.6905824728"><ele>165.96</ele><time>2026-08-15T14:39:18Z</time></trkpt><trkpt lat="59.3602727260" lon="34.6904739272"><ele>165.48</ele><time>2026-08-15T14:39:33Z</time></trkpt><trkpt lat="59.3603070918" lon="34.6904866677"><ele>165.00</ele><time>2026-08-15T14:39:50Z</time></trkpt><trkpt lat="59.3603450619" lon="34.6905155014"><ele>165.00</ele><time>2026-08-15T14:40:03Z</time></trkpt><trkpt lat="59.3604101893" lon="34.6905543096"><ele>164.52</ele><time>2026-08-15T14:40:15Z</time></trkpt><trkpt lat="59.3605292123" lon="34.6907165833"><ele>164.52</ele><time>2026-08-15T14:40:32Z</time></trkpt><trkpt lat="59.3606251851" lon="34.6907983068"><ele>165.96</ele><time>2026-08-15T14:40:45Z</time></trkpt><trkpt lat="59.3606624007" lon="34.6908097062"><ele>165.96</ele><time>2026-08-15T14:41:01Z</time></trkpt><trkpt lat="59.3607416097" lon="34.6908804495"><ele>165.96</ele><time>2026-08-15T14:41:15Z</time></trkpt><trkpt lat="59.3608010374" lon="34.6909256279"><ele>165.00</ele><time>2026-08-15T14:41:29Z</time></trkpt><trkpt lat="59.3608360738" lon="34.6909717284"><ele>165.00</ele><time>2026-08-15T14:41:41Z</time></trkpt><trkpt lat="59.3608804140" lon="34.6909991372"><ele>165.00</ele><time>2026-08-15T14:41:56Z</time></trkpt><trkpt lat="59.3608892988" lon="34.6910036635"><ele>165.00</ele><time>2026-08-15T14:42:18Z</time></trkpt><trkpt lat="59.3608963396" lon="34.6910124645"><ele>165.00</ele><time>2026-08-15T14:42:38Z</time></trkpt><trkpt lat="59.3609034643" lon="34.6910216007"><ele>165.00</ele><time>2026-08-15T14:43:02Z</time></trkpt><trkpt lat="59.3609137740" lon="34.6910155658"><ele>164.04</ele><time>2026-08-15T14:43:27Z</time></trkpt><trkpt lat="59.3609265983" lon="34.6910350118"><ele>165.48</ele><time>2026-08-15T14:43:52Z</time></trkpt><trkpt lat="59.3609337229" lon="34.6910428908"><ele>165.48</ele><time>2026-08-15T14:44:11Z</time></trkpt><trkpt lat="59.3609467987" lon="34.6910519432"><ele>165.48</ele><time>2026-08-15T14:44:23Z</time></trkpt><trkpt lat="59.3610073999" lon="34.6910910867"><ele>165.48</ele><time>2026-08-15T14:44:40Z</time></trkpt><trkpt lat="59.3610907160" lon="34.6911822818"><ele>165.48</ele><time>2026-08-15T14:44:55Z</time></trkpt><trkpt lat="59.3611170352" lon="34.6911996324"><ele>165.48</ele><time>2026-08-15T14:45:03Z</time></trkpt><trkpt lat="59.3612094037" lon="34.6912384406"><ele>165.48</ele><time>2026-08-15T14:45:13Z</time></trkpt><trkpt lat="59.3612789735" lon="34.6912907436"><ele>165.48</ele><time>2026-08-15T14:45:28Z</time></trkpt><trkpt lat="59.3613460287" lon="34.6913754009"><ele>165.48</ele><time>2026-08-15T14:45:42Z</time></trkpt><trkpt lat="59.3613838311" lon="34.6914087608"><ele>165.48</ele><time>2026-08-15T14:46:09Z</time></trkpt><trkpt lat="59.3613975774" lon="34.6914118621"><ele>165.48</ele><time>2026-08-15T14:46:30Z</time></trkpt><trkpt lat="59.3614017684" lon="34.6914112754"><ele>165.48</ele><time>2026-08-15T14:46:52Z</time></trkpt><trkpt lat="59.3614067137" lon="34.6914154664"><ele>164.04</ele><time>2026-08-15T14:47:12Z</time></trkpt><trkpt lat="59.3614090607" lon="34.6914277039"><ele>164.04</ele><time>2026-08-15T14:47:28Z</time></trkpt><trkpt lat="59.3614051212" lon="34.6914309729"><ele>164.04</ele><time>2026-08-15T14:47:48Z</time></trkpt><trkpt lat="59.3613991700" lon="34.6914953459"><ele>164.04</ele><time>2026-08-15T14:48:02Z</time></trkpt><trkpt lat="59.3613958173" lon="34.6915187314"><ele>164.04</ele><time>2026-08-15T14:48:18Z</time></trkpt><trkpt lat="59.3613648880" lon="34.6916884650"><ele>164.04</ele><time>2026-08-15T14:48:32Z</time></trkpt><trkpt lat="59.3613591045" lon="34.6917525027"><ele>164.04</ele><time>2026-08-15T14:48:46Z</time></trkpt><trkpt lat="59.3613430113" lon="34.6918184683"><ele>164.04</ele><time>2026-08-15T14:48:58Z</time></trkpt><trkpt lat="59.3613010179" lon="34.6919353120"><ele>164.04</ele><time>2026-08-15T14:49:11Z</time></trkpt><trkpt lat="59.3612514809" lon="34.6921406686"><ele>164.04</ele><time>2026-08-15T14:49:24Z</time></trkpt><trkpt lat="59.3611822464" lon="34.6922648046"><ele>164.04</ele><time>2026-08-15T14:49:38Z</time></trkpt><trkpt lat="59.3611371517" lon="34.6923616156"><ele>164.04</ele><time>2026-08-15T14:49:52Z</time></trkpt><trkpt lat="59.3611062225" lon="34.6925336961"><ele>164.04</ele><time>2026-08-15T14:50:04Z</time></trkpt><trkpt lat="59.3610273488" lon="34.6926709078"><ele>163.56</ele><time>2026-08-15T14:50:19Z</time></trkpt><trkpt lat="59.3610307015" lon="34.6928042639"><ele>163.56</ele><time>2026-08-15T14:50:32Z</time></trkpt><trkpt lat="59.3609918933" lon="34.6928138193"><ele>163.56</ele><time>2026-08-15T14:50:45Z</time></trkpt><trkpt lat="59.3609210663" lon="34.6927402262"><ele>163.56</ele><time>2026-08-15T14:51:02Z</time></trkpt><trkpt lat="59.3608835991" lon="34.6927050222"><ele>164.52</ele><time>2026-08-15T14:51:14Z</time></trkpt><trkpt lat="59.3608799949" lon="34.6926938742"><ele>164.52</ele><time>2026-08-15T14:51:36Z</time></trkpt><trkpt lat="59.3608452938" lon="34.6927082911"><ele>164.52</ele><time>2026-08-15T14:51:50Z</time></trkpt><trkpt lat="59.3608095869" lon="34.6928418986"><ele>164.52</ele><time>2026-08-15T14:52:05Z</time></trkpt><trkpt lat="59.3607949186" lon="34.6928746719"><ele>164.52</ele><time>2026-08-15T14:52:20Z</time></trkpt><trkpt lat="59.3607677612" lon="34.6930593252"><ele>165.48</ele><time>2026-08-15T14:52:38Z</time></trkpt><trkpt lat="59.3607403524" lon="34.6931617521"><ele>165.96</ele><time>2026-08-15T14:52:56Z</time></trkpt><trkpt lat="59.3607283663" lon="34.6932763327"><ele>165.96</ele><time>2026-08-15T14:53:10Z</time></trkpt><trkpt lat="59.3606519233" lon="34.6934943460"><ele>165.96</ele><time>2026-08-15T14:53:25Z</time></trkpt><trkpt lat="59.3606033083" lon="34.6936047357"><ele>165.96</ele><time>2026-08-15T14:53:42Z</time></trkpt><trkpt lat="59.3605948426" lon="34.6936784964"><ele>165.96</ele><time>2026-08-15T14:54:03Z</time></trkpt><trkpt lat="59.3605359178" lon="34.6938230004"><ele>165.96</ele><time>2026-08-15T14:54:21Z</time></trkpt><trkpt lat="59.3604728859" lon="34.6939171292"><ele>165.00</ele><time>2026-08-15T14:54:38Z</time></trkpt><trkpt lat="59.3604487460" lon="34.6941033751"><ele>165.00</ele><time>2026-08-15T14:54:53Z</time></trkpt><trkpt lat="59.3604096863" lon="34.6943822410"><ele>165.00</ele><time>2026-08-15T14:55:11Z</time></trkpt><trkpt lat="59.3603939284" lon="34.6946636215"><ele>165.00</ele><time>2026-08-15T14:55:27Z</time></trkpt><trkpt lat="59.3603360932" lon="34.6949600056"><ele>165.00</ele><time>2026-08-15T14:55:46Z</time></trkpt><trkpt lat="59.3603137136" lon="34.6951299068"><ele>165.96</ele><time>2026-08-15T14:55:59Z</time></trkpt><trkpt lat="59.3603123724" lon="34.6953263786"><ele>165.96</ele><time>2026-08-15T14:56:16Z</time></trkpt><trkpt lat="59.3603101932" lon="34.6954044979"><ele>165.96</ele><time>2026-08-15T14:56:31Z</time></trkpt><trkpt lat="59.3603077624" lon="34.6954413783"><ele>165.96</ele><time>2026-08-15T14:56:57Z</time></trkpt><trkpt lat="59.3603060022" lon="34.6954553761"><ele>165.96</ele><time>2026-08-15T14:57:26Z</time></trkpt><trkpt lat="59.3603070080" lon="34.6954739001"><ele>166.45</ele><time>2026-08-15T14:58:00Z</time></trkpt><trkpt lat="59.3603069242" lon="34.6954692062"><ele>166.45</ele><time>2026-08-15T14:58:29Z</time></trkpt><trkpt lat="59.3603031524" lon="34.6954719722"><ele>166.45</ele><time>2026-08-15T14:58:56Z</time></trkpt><trkpt lat="59.3602992967" lon="34.6955698729"><ele>166.45</ele><time>2026-08-15T14:59:19Z</time></trkpt><trkpt lat="59.3602733966" lon="34.6957382653"><ele>166.45</ele><time>2026-08-15T14:59:35Z</time></trkpt><trkpt lat="59.3602003902" lon="34.6957492456"><ele>166.93</ele><time>2026-08-15T14:59:49Z</time></trkpt><trkpt lat="59.3601136375" lon="34.6958322264"><ele>166.93</ele><time>2026-08-15T15:00:03Z</time></trkpt><trkpt lat="59.3601065129" lon="34.6959101781"><ele>166.93</ele><time>2026-08-15T15:00:17Z</time></trkpt><trkpt lat="59.3601010647" lon="34.6959617268"><ele>166.93</ele><time>2026-08-15T15:00:37Z</time></trkpt><trkpt lat="59.3600845523" lon="34.6960673388"><ele>166.93</ele><time>2026-08-15T15:00:49Z</time></trkpt><trkpt lat="59.3600698002" lon="34.6961741243"><ele>166.93</ele><time>2026-08-15T15:01:07Z</time></trkpt><trkpt lat="59.3600251246" lon="34.6963315364"><ele>165.48</ele><time>2026-08-15T15:01:24Z</time></trkpt><trkpt lat="59.3599605002" lon="34.6964331251"><ele>165.00</ele><time>2026-08-15T15:01:40Z</time></trkpt><trkpt lat="59.3599173333" lon="34.6965787187"><ele>165.00</ele><time>2026-08-15T15:01:55Z</time></trkpt><trkpt lat="59.3598867394" lon="34.6966735180"><ele>164.04</ele><time>2026-08-15T15:02:11Z</time></trkpt><trkpt lat="59.3598723225" lon="34.6966819838"><ele>164.04</ele><time>2026-08-15T15:02:26Z</time></trkpt><trkpt lat="59.3598442432" lon="34.6967518050"><ele>164.04</ele><time>2026-08-15T15:02:39Z</time></trkpt><trkpt lat="59.3598373700" lon="34.6968238894"><ele>163.56</ele><time>2026-08-15T15:02:57Z</time></trkpt><trkpt lat="59.3598232046" lon="34.6969005000"><ele>163.56</ele><time>2026-08-15T15:03:16Z</time></trkpt><trkpt lat="59.3598151579" lon="34.6969403978"><ele>163.56</ele><time>2026-08-15T15:03:45Z</time></trkpt><trkpt lat="59.3598071951" lon="34.6969737578"><ele>163.56</ele><time>2026-08-15T15:04:04Z</time></trkpt><trkpt lat="59.3597836420" lon="34.6970584989"><ele>163.56</ele><time>2026-08-15T15:04:22Z</time></trkpt><trkpt lat="59.3597799540" lon="34.6970692277"><ele>163.56</ele><time>2026-08-15T15:04:39Z</time></trkpt><trkpt lat="59.3597240467" lon="34.6972211916"><ele>165.00</ele><time>2026-08-15T15:04:55Z</time></trkpt><trkpt lat="59.3596630264" lon="34.6973273065"><ele>165.00</ele><time>2026-08-15T15:05:15Z</time></trkpt><trkpt lat="59.3596541416" lon="34.6973466687"><ele>165.00</ele><time>2026-08-15T15:05:39Z</time></trkpt><trkpt lat="59.3596521299" lon="34.6973571461"><ele>165.00</ele><time>2026-08-15T15:05:58Z</time></trkpt><trkpt lat="59.3596221227" lon="34.6974655241"><ele>165.00</ele><time>2026-08-15T15:06:15Z</time></trkpt><trkpt lat="59.3595759384" lon="34.6976886503"><ele>165.48</ele><time>2026-08-15T15:06:30Z</time></trkpt><trkpt lat="59.3595189415" lon="34.6978743933"><ele>165.48</ele><time>2026-08-15T15:06:45Z</time></trkpt><trkpt lat="59.3594563287" lon="34.6981656644"><ele>165.48</ele><time>2026-08-15T15:06:58Z</time></trkpt><trkpt lat="59.3594533112" lon="34.6981364116"><ele>165.48</ele><time>2026-08-15T15:07:13Z</time></trkpt><trkpt lat="59.3594459351" lon="34.6980397683"><ele>165.48</ele><time>2026-08-15T15:07:29Z</time></trkpt><trkpt lat="59.3593710009" lon="34.6976820286"><ele>164.04</ele><time>2026-08-15T15:07:46Z</time></trkpt><trkpt lat="59.3593494594" lon="34.6976105310"><ele>163.56</ele><time>2026-08-15T15:08:01Z</time></trkpt><trkpt lat="59.3593266606" lon="34.6975777578"><ele>163.56</ele><time>2026-08-15T15:08:16Z</time></trkpt><trkpt lat="59.3592504691" lon="34.6974089462"><ele>163.56</ele><time>2026-08-15T15:08:31Z</time></trkpt><trkpt lat="59.3591891974" lon="34.6972738300"><ele>163.56</ele><time>2026-08-15T15:08:45Z</time></trkpt><trkpt lat="59.3591415882" lon="34.6971772704"><ele>163.56</ele><time>2026-08-15T15:09:07Z</time></trkpt><trkpt lat="59.3590201344" lon="34.6969827265"><ele>163.56</ele><time>2026-08-15T15:09:21Z</time></trkpt><trkpt lat="59.3589988444" lon="34.6968508791"><ele>163.56</ele><time>2026-08-15T15:09:36Z</time></trkpt><trkpt lat="59.3589409254" lon="34.6967404056"><ele>163.56</ele><time>2026-08-15T15:09:49Z</time></trkpt><trkpt lat="59.3588540889" lon="34.6965745278"><ele>163.56</ele><time>2026-08-15T15:10:04Z</time></trkpt><trkpt lat="59.3588353135" lon="34.6963769663"><ele>163.56</ele><time>2026-08-15T15:10:17Z</time></trkpt><trkpt lat="59.3588210642" lon="34.6961711068"><ele>163.56</ele><time>2026-08-15T15:10:30Z</time></trkpt><trkpt lat="59.3588151969" lon="34.6960991062"><ele>163.56</ele><time>2026-08-15T15:10:34Z</time></trkpt><trkpt lat="59.3587909732" lon="34.6959721204"><ele>163.56</ele><time>2026-08-15T15:10:47Z</time></trkpt><trkpt lat="59.3588027917" lon="34.6960740443"><ele>163.56</ele><time>2026-08-15T15:11:03Z</time></trkpt><trkpt lat="59.3588063121" lon="34.6960939933"><ele>163.56</ele><time>2026-08-15T15:11:04Z</time></trkpt><trkpt lat="59.3588151969" lon="34.6963395830"><ele>163.56</ele><time>2026-08-15T15:11:19Z</time></trkpt><trkpt lat="59.3588555139" lon="34.6966160182"><ele>163.56</ele><time>2026-08-15T15:11:35Z</time></trkpt><trkpt lat="59.3589004409" lon="34.6967208758"><ele>163.08</ele><time>2026-08-15T15:11:49Z</time></trkpt><trkpt lat="59.3589069787" lon="34.6967846621"><ele>163.08</ele><time>2026-08-15T15:12:01Z</time></trkpt><trkpt lat="59.3589469604" lon="34.6968208719"><ele>163.08</ele><time>2026-08-15T15:12:17Z</time></trkpt><trkpt lat="59.3590026163" lon="34.6968233027"><ele>162.60</ele><time>2026-08-15T15:12:39Z</time></trkpt><trkpt lat="59.3590212241" lon="34.6968145855"><ele>162.60</ele><time>2026-08-15T15:13:01Z</time></trkpt><trkpt lat="59.3590120040" lon="34.6968001686"><ele>162.60</ele><time>2026-08-15T15:13:22Z</time></trkpt><trkpt lat="59.3590384908" lon="34.6969682258"><ele>162.60</ele><time>2026-08-15T15:13:35Z</time></trkpt><trkpt lat="59.3590571824" lon="34.6970698144"><ele>162.60</ele><time>2026-08-15T15:13:42Z</time></trkpt><trkpt lat="59.3591265008" lon="34.6972061880"><ele>162.60</ele><time>2026-08-15T15:13:53Z</time></trkpt><trkpt lat="59.3592187017" lon="34.6974027436"><ele>162.60</ele><time>2026-08-15T15:14:08Z</time></trkpt><trkpt lat="59.3592869304" lon="34.6975574736"><ele>162.60</ele><time>2026-08-15T15:14:22Z</time></trkpt><trkpt lat="59.3593642954" lon="34.6978142112"><ele>162.60</ele><time>2026-08-15T15:14:36Z</time></trkpt><trkpt lat="59.3594120722" lon="34.6979879681"><ele>162.60</ele><time>2026-08-15T15:14:47Z</time></trkpt><trkpt lat="59.3594232202" lon="34.6983004455"><ele>162.60</ele><time>2026-08-15T15:15:04Z</time></trkpt><trkpt lat="59.3594193645" lon="34.6985351387"><ele>162.60</ele><time>2026-08-15T15:15:18Z</time></trkpt><trkpt lat="59.3593979068" lon="34.6987580135"><ele>162.60</ele><time>2026-08-15T15:15:34Z</time></trkpt><trkpt lat="59.3593825679" lon="34.6987840813"><ele>162.60</ele><time>2026-08-15T15:15:57Z</time></trkpt><trkpt lat="59.3593953922" lon="34.6987730172"><ele>162.60</ele><time>2026-08-15T15:16:24Z</time></trkpt><trkpt lat="59.3593933806" lon="34.6987777110"><ele>161.64</ele><time>2026-08-15T15:16:44Z</time></trkpt><trkpt lat="59.3592989165" lon="34.6989234723"><ele>161.16</ele><time>2026-08-15T15:17:01Z</time></trkpt><trkpt lat="59.3591711763" lon="34.6990034357"><ele>161.16</ele><time>2026-08-15T15:17:13Z</time></trkpt><trkpt lat="59.3591485452" lon="34.6990170982"><ele>161.16</ele><time>2026-08-15T15:17:15Z</time></trkpt><trkpt lat="59.3590639718" lon="34.6991231292"><ele>161.16</ele><time>2026-08-15T15:17:30Z</time></trkpt><trkpt lat="59.3589685857" lon="34.6993300784"><ele>161.16</ele><time>2026-08-15T15:17:45Z</time></trkpt><trkpt lat="59.3588408455" lon="34.6994996443"><ele>162.12</ele><time>2026-08-15T15:18:02Z</time></trkpt><trkpt lat="59.3587200623" lon="34.6995915938"><ele>162.12</ele><time>2026-08-15T15:18:17Z</time></trkpt><trkpt lat="59.3586118519" lon="34.6996784303"><ele>162.12</ele><time>2026-08-15T15:18:31Z</time></trkpt><trkpt lat="59.3584960140" lon="34.6998080984"><ele>162.60</ele><time>2026-08-15T15:18:45Z</time></trkpt><trkpt lat="59.3584442977" lon="34.6998953540"><ele>163.56</ele><time>2026-08-15T15:18:57Z</time></trkpt><trkpt lat="59.3584175594" lon="34.6999580506"><ele>163.56</ele><time>2026-08-15T15:19:10Z</time></trkpt><trkpt lat="59.3583421223" lon="34.7000424564"><ele>162.12</ele><time>2026-08-15T15:19:21Z</time></trkpt><trkpt lat="59.3582065031" lon="34.7001380939"><ele>161.16</ele><time>2026-08-15T15:19:38Z</time></trkpt><trkpt lat="59.3581225164" lon="34.7001666762"><ele>161.16</ele><time>2026-08-15T15:19:49Z</time></trkpt><trkpt lat="59.3579638470" lon="34.7002134472"><ele>160.68</ele><time>2026-08-15T15:20:04Z</time></trkpt><trkpt lat="59.3578819558" lon="34.7002541833"><ele>160.68</ele><time>2026-08-15T15:20:17Z</time></trkpt><trkpt lat="59.3578141462" lon="34.7003177181"><ele>160.68</ele><time>2026-08-15T15:20:31Z</time></trkpt><trkpt lat="59.3577375356" lon="34.7004103381"><ele>162.12</ele><time>2026-08-15T15:20:41Z</time></trkpt><trkpt lat="59.3575125653" lon="34.7005338036"><ele>162.12</ele><time>2026-08-15T15:20:59Z</time></trkpt><trkpt lat="59.3574027624" lon="34.7005534172"><ele>162.60</ele><time>2026-08-15T15:21:13Z</time></trkpt><trkpt lat="59.3573072925" lon="34.7006804030"><ele>161.16</ele><time>2026-08-15T15:21:26Z</time></trkpt><trkpt lat="59.3573045265" lon="34.7006910481"><ele>161.16</ele><time>2026-08-15T15:21:27Z</time></trkpt><trkpt lat="59.3572642095" lon="34.7008713428"><ele>160.68</ele><time>2026-08-15T15:21:39Z</time></trkpt><trkpt lat="59.3572364654" lon="34.7010354605"><ele>160.20</ele><time>2026-08-15T15:21:51Z</time></trkpt><trkpt lat="59.3572239764" lon="34.7011921182"><ele>160.20</ele><time>2026-08-15T15:22:00Z</time></trkpt><trkpt lat="59.3572091404" lon="34.7012616042"><ele>159.72</ele><time>2026-08-15T15:22:04Z</time></trkpt><trkpt lat="59.3571992498" lon="34.7013413161"><ele>159.72</ele><time>2026-08-15T15:22:08Z</time></trkpt><trkpt lat="59.3571663927" lon="34.7014833894"><ele>159.72</ele><time>2026-08-15T15:22:16Z</time></trkpt><trkpt lat="59.3571560830" lon="34.7015277296"><ele>159.72</ele><time>2026-08-15T15:22:18Z</time></trkpt><trkpt lat="59.3571321107" lon="34.7016195953"><ele>159.72</ele><time>2026-08-15T15:22:22Z</time></trkpt><trkpt lat="59.3570674863" lon="34.7018482536"><ele>160.68</ele><time>2026-08-15T15:22:33Z</time></trkpt><trkpt lat="59.3570679892" lon="34.7019364312"><ele>160.68</ele><time>2026-08-15T15:22:37Z</time></trkpt><trkpt lat="59.3570702523" lon="34.7019930929"><ele>160.68</ele><time>2026-08-15T15:22:40Z</time></trkpt><trkpt lat="59.3570779637" lon="34.7020283807"><ele>160.68</ele><time>2026-08-15T15:22:42Z</time></trkpt><trkpt lat="59.3570775446" lon="34.7020666860"><ele>160.68</ele><time>2026-08-15T15:22:44Z</time></trkpt><trkpt lat="59.3570903689" lon="34.7022680193"><ele>159.72</ele><time>2026-08-15T15:22:56Z</time></trkpt><trkpt lat="59.3570766225" lon="34.7023356613"><ele>159.72</ele><time>2026-08-15T15:22:59Z</time></trkpt><trkpt lat="59.3570392393" lon="34.7026407626"><ele>159.72</ele><time>2026-08-15T15:23:14Z</time></trkpt><trkpt lat="59.3570331205" lon="34.7028115019"><ele>160.68</ele><time>2026-08-15T15:23:22Z</time></trkpt><trkpt lat="59.3570399936" lon="34.7028672416"><ele>160.68</ele><time>2026-08-15T15:23:25Z</time></trkpt><trkpt lat="59.3570387363" lon="34.7029097378"><ele>160.68</ele><time>2026-08-15T15:23:27Z</time></trkpt><trkpt lat="59.3570910394" lon="34.7031756956"><ele>161.16</ele><time>2026-08-15T15:23:43Z</time></trkpt><trkpt lat="59.3571324460" lon="34.7034183517"><ele>160.20</ele><time>2026-08-15T15:23:56Z</time></trkpt><trkpt lat="59.3571396545" lon="34.7034517955"><ele>160.20</ele><time>2026-08-15T15:23:58Z</time></trkpt><trkpt lat="59.3571571726" lon="34.7036249656"><ele>160.20</ele><time>2026-08-15T15:24:11Z</time></trkpt><trkpt lat="59.3571884371" lon="34.7038464155"><ele>159.72</ele><time>2026-08-15T15:24:25Z</time></trkpt><trkpt lat="59.3572150916" lon="34.7041769139"><ele>159.72</ele><time>2026-08-15T15:24:40Z</time></trkpt><trkpt lat="59.3572233059" lon="34.7044339031"><ele>159.72</ele><time>2026-08-15T15:24:51Z</time></trkpt><trkpt lat="59.3572279997" lon="34.7046055645"><ele>159.72</ele><time>2026-08-15T15:25:00Z</time></trkpt><trkpt lat="59.3572234735" lon="34.7046385892"><ele>159.24</ele><time>2026-08-15T15:25:02Z</time></trkpt><trkpt lat="59.3572209589" lon="34.7046788223"><ele>159.24</ele><time>2026-08-15T15:25:04Z</time></trkpt><trkpt lat="59.3572012614" lon="34.7048035450"><ele>159.24</ele><time>2026-08-15T15:25:12Z</time></trkpt><trkpt lat="59.3571934663" lon="34.7048644815"><ele>159.24</ele><time>2026-08-15T15:25:24Z</time></trkpt><trkpt lat="59.3571978249" lon="34.7048592847"><ele>160.20</ele><time>2026-08-15T15:25:38Z</time></trkpt></trkseg></trk></gpx>